<?xml version="1.0" encoding="UTF-8" standalone="no" ?>
<gpx xmlns="http://www.topografix.com/GPX/1/1" xmlns:xsi="http://www.w3.org/2001/XMLSchema-instance" xsi:schemaLocation="http://www.topografix.com/GPX/1/1 http://www.topografix.com/GPX/1/1/gpx.xsd" version="1.1" creator="VisuGPX - https://www.visugpx.com">
  <metadata>
    <name>Montferrier 2018 pinedes du lez</name>
    <desc><![CDATA[
]]></desc>
  </metadata>
  <wpt lat="43.66535" lon="3.8559">
    <ele>80.7</ele>
    <name><![CDATA[Montferrier  (départ)]]></name>
  </wpt>
  <wpt lat="43.66742" lon="3.85752">
    <ele>75.3</ele>
    <name><![CDATA[Montferrier  (fin)]]></name>
    <desc><![CDATA[Créé par Mes parcours sur Android

Nom : Montferrier 
Type d'activité : cyclisme
Description : -
Distance totale : 32,47 km (20,2 mi)
Durée totale : 2:50:53
Durée du déplacement : 2:46:00
Vitesse moyenne : 11,40 km/h (7,1 mi/h)
Vitesse moyenne de déplacement : 11,74 km/h (7,3 mi/h)
Vitesse max. : 34,34 km/h (21,3 mi/h)
Vitesse moyenne : 5:16 min/km (8:28 min/mi)
Allure moyenne : 5:07 min/km (8:14 min/mi)
Vitesse maximale : 1:45 min/km (2:49 min/mi)
Élévation max. : 184 m (604 pi)
Élévation min. : 92 m (303 pi)
Dénivelé : 605 m (1984 pi)
Pente max. : 17 %
Pente min. : -16 %
Date d'enregistrement : 16/9/2018 08:12]]></desc>
  </wpt>
  <trk>
    <name><![CDATA[- jeudi 25 avril 2024 13:10 -]]></name>
    <extensions>
      <line xmlns="http://www.topografix.com/GPX/gpx_style/0/2">
        <color>FF0000</color>
        <width>4</width>
          <extensions>
            <sens>1</sens>
          </extensions>
      </line>
    </extensions>
    <trkseg>
      <trkpt lat="43.67529" lon="3.86781">
        <ele>54.1</ele>
        <time>2024-04-25T10:59:55.250Z</time>
      </trkpt>
      <trkpt lat="43.67531" lon="3.86789">
        <ele>54.4</ele>
        <time>2024-04-25T11:00:19.500Z</time>
      </trkpt>
      <trkpt lat="43.67532" lon="3.86798">
        <ele>54.6</ele>
        <time>2024-04-25T11:00:43.750Z</time>
      </trkpt>
      <trkpt lat="43.67534" lon="3.86806">
        <ele>54.8</ele>
        <time>2024-04-25T11:01:08.000Z</time>
      </trkpt>
      <trkpt lat="43.67536" lon="3.86815">
        <ele>55</ele>
        <time>2024-04-25T11:01:32.250Z</time>
      </trkpt>
      <trkpt lat="43.67538" lon="3.86824">
        <ele>55.3</ele>
        <time>2024-04-25T11:01:56.500Z</time>
      </trkpt>
      <trkpt lat="43.6754" lon="3.86832">
        <ele>55.5</ele>
        <time>2024-04-25T11:02:20.750Z</time>
      </trkpt>
      <trkpt lat="43.67542" lon="3.86841">
        <ele>55.8</ele>
        <time>2024-04-25T11:02:45.000Z</time>
      </trkpt>
      <trkpt lat="43.67543" lon="3.86849">
        <ele>56</ele>
        <time>2024-04-25T11:03:09.250Z</time>
      </trkpt>
      <trkpt lat="43.67545" lon="3.86858">
        <ele>56.3</ele>
        <time>2024-04-25T11:03:33.500Z</time>
      </trkpt>
      <trkpt lat="43.67547" lon="3.86867">
        <ele>56.5</ele>
        <time>2024-04-25T11:03:57.750Z</time>
      </trkpt>
      <trkpt lat="43.67549" lon="3.86875">
        <ele>56.7</ele>
        <time>2024-04-25T11:04:22.000Z</time>
      </trkpt>
      <trkpt lat="43.67551" lon="3.86884">
        <ele>57</ele>
        <time>2024-04-25T11:04:46.250Z</time>
      </trkpt>
      <trkpt lat="43.67552" lon="3.86892">
        <ele>57.2</ele>
        <time>2024-04-25T11:05:10.500Z</time>
      </trkpt>
      <trkpt lat="43.67554" lon="3.86901">
        <ele>57.5</ele>
        <time>2024-04-25T11:05:34.750Z</time>
      </trkpt>
      <trkpt lat="43.67556" lon="3.8691">
        <ele>57.7</ele>
        <time>2024-04-25T11:05:59.000Z</time>
      </trkpt>
      <trkpt lat="43.67558" lon="3.86918">
        <ele>57.8</ele>
        <time>2024-04-25T11:06:23.250Z</time>
      </trkpt>
      <trkpt lat="43.6756" lon="3.86927">
        <ele>57.7</ele>
        <time>2024-04-25T11:06:47.500Z</time>
      </trkpt>
      <trkpt lat="43.67561" lon="3.86935">
        <ele>57.6</ele>
        <time>2024-04-25T11:07:11.750Z</time>
      </trkpt>
      <trkpt lat="43.67563" lon="3.86944">
        <ele>57.4</ele>
        <time>2024-04-25T11:07:36.000Z</time>
      </trkpt>
      <trkpt lat="43.67565" lon="3.86953">
        <ele>57.6</ele>
        <time>2024-04-25T11:08:00.250Z</time>
      </trkpt>
      <trkpt lat="43.67567" lon="3.86961">
        <ele>57.8</ele>
        <time>2024-04-25T11:08:24.500Z</time>
      </trkpt>
      <trkpt lat="43.67569" lon="3.8697">
        <ele>58</ele>
        <time>2024-04-25T11:08:48.750Z</time>
      </trkpt>
      <trkpt lat="43.67571" lon="3.86978">
        <ele>58.1</ele>
        <time>2024-04-25T11:09:13.000Z</time>
      </trkpt>
      <trkpt lat="43.67572" lon="3.86987">
        <ele>58.3</ele>
        <time>2024-04-25T11:09:37.250Z</time>
      </trkpt>
      <trkpt lat="43.67574" lon="3.86995">
        <ele>58.5</ele>
        <time>2024-04-25T11:10:01.500Z</time>
      </trkpt>
      <trkpt lat="43.67576" lon="3.87004">
        <ele>58.8</ele>
        <time>2024-04-25T11:10:25.750Z</time>
      </trkpt>
      <trkpt lat="43.67578" lon="3.87013">
        <ele>59</ele>
        <time>2024-04-25T11:10:50.000Z</time>
      </trkpt>
      <trkpt lat="43.6758" lon="3.87021">
        <ele>59.2</ele>
        <time>2024-04-25T11:11:14.250Z</time>
      </trkpt>
      <trkpt lat="43.67581" lon="3.8703">
        <ele>59.5</ele>
        <time>2024-04-25T11:11:38.500Z</time>
      </trkpt>
      <trkpt lat="43.67583" lon="3.87038">
        <ele>60.2</ele>
        <time>2024-04-25T11:12:02.750Z</time>
      </trkpt>
      <trkpt lat="43.67594" lon="3.8705">
        <ele>60.4</ele>
        <time>2024-04-25T11:12:31.062Z</time>
      </trkpt>
      <trkpt lat="43.67599" lon="3.87052">
        <ele>60.1</ele>
        <time>2024-04-25T11:12:33.093Z</time>
      </trkpt>
      <trkpt lat="43.67662" lon="3.87146">
        <ele>59.2</ele>
        <time>2024-04-25T11:12:54.761Z</time>
      </trkpt>
      <trkpt lat="43.67671" lon="3.87196">
        <ele>60</ele>
        <time>2024-04-25T11:13:03.472Z</time>
      </trkpt>
      <trkpt lat="43.677" lon="3.87227">
        <ele>60.2</ele>
        <time>2024-04-25T11:13:12.041Z</time>
      </trkpt>
      <trkpt lat="43.67734" lon="3.87236">
        <ele>61.6</ele>
        <time>2024-04-25T11:13:20.134Z</time>
      </trkpt>
      <trkpt lat="43.67741" lon="3.87243">
        <ele>61.5</ele>
        <time>2024-04-25T11:13:22.153Z</time>
      </trkpt>
      <trkpt lat="43.67745" lon="3.87232">
        <ele>62.6</ele>
        <time>2024-04-25T11:13:24.234Z</time>
      </trkpt>
      <trkpt lat="43.67763" lon="3.87227">
        <ele>64.1</ele>
        <time>2024-04-25T11:13:28.526Z</time>
      </trkpt>
      <trkpt lat="43.67773" lon="3.87202">
        <ele>65.8</ele>
        <time>2024-04-25T11:13:33.357Z</time>
      </trkpt>
      <trkpt lat="43.67772" lon="3.87114">
        <ele>70.8</ele>
        <time>2024-04-25T11:13:48.240Z</time>
      </trkpt>
      <trkpt lat="43.67789" lon="3.87063">
        <ele>75.5</ele>
        <time>2024-04-25T11:13:50.271Z</time>
      </trkpt>
      <trkpt lat="43.6781" lon="3.87042">
        <ele>78.4</ele>
        <time>2024-04-25T11:13:52.302Z</time>
      </trkpt>
      <trkpt lat="43.67884" lon="3.86986">
        <ele>78.9</ele>
        <time>2024-04-25T11:14:28.844Z</time>
      </trkpt>
      <trkpt lat="43.67977" lon="3.87081">
        <ele>79.3</ele>
        <time>2024-04-25T11:15:18.931Z</time>
      </trkpt>
      <trkpt lat="43.68019" lon="3.87057">
        <ele>81.9</ele>
        <time>2024-04-25T11:15:38.617Z</time>
      </trkpt>
      <trkpt lat="43.68076" lon="3.87151">
        <ele>81.6</ele>
        <time>2024-04-25T11:16:17.047Z</time>
      </trkpt>
      <trkpt lat="43.68178" lon="3.87249">
        <ele>82.8</ele>
        <time>2024-04-25T11:17:10.851Z</time>
      </trkpt>
      <trkpt lat="43.68221" lon="3.87317">
        <ele>80.7</ele>
        <time>2024-04-25T11:17:39.148Z</time>
      </trkpt>
      <trkpt lat="43.68295" lon="3.87342">
        <ele>81.8</ele>
        <time>2024-04-25T11:18:12.146Z</time>
      </trkpt>
      <trkpt lat="43.68315" lon="3.87315">
        <ele>84.8</ele>
        <time>2024-04-25T11:18:24.254Z</time>
      </trkpt>
      <trkpt lat="43.68364" lon="3.87189">
        <ele>91.1</ele>
        <time>2024-04-25T11:19:09.071Z</time>
      </trkpt>
      <trkpt lat="43.68419" lon="3.87036">
        <ele>91.8</ele>
        <time>2024-04-25T11:20:02.595Z</time>
      </trkpt>
      <trkpt lat="43.68459" lon="3.86954">
        <ele>83.2</ele>
        <time>2024-04-25T11:20:33.580Z</time>
      </trkpt>
      <trkpt lat="43.68475" lon="3.86961">
        <ele>81.9</ele>
        <time>2024-04-25T11:20:40.849Z</time>
      </trkpt>
      <trkpt lat="43.685" lon="3.86995">
        <ele>79.9</ele>
        <time>2024-04-25T11:20:56.038Z</time>
      </trkpt>
      <trkpt lat="43.68567" lon="3.87144">
        <ele>70.7</ele>
        <time>2024-04-25T11:21:51.002Z</time>
      </trkpt>
      <trkpt lat="43.68562" lon="3.87165">
        <ele>71</ele>
        <time>2024-04-25T11:21:57.927Z</time>
      </trkpt>
      <trkpt lat="43.68549" lon="3.87183">
        <ele>71.9</ele>
        <time>2024-04-25T11:22:05.896Z</time>
      </trkpt>
      <trkpt lat="43.6845" lon="3.87274">
        <ele>74.2</ele>
        <time>2024-04-25T11:22:57.392Z</time>
      </trkpt>
      <trkpt lat="43.68324" lon="3.8738">
        <ele>78.1</ele>
        <time>2024-04-25T11:24:01.283Z</time>
      </trkpt>
      <trkpt lat="43.68322" lon="3.8744">
        <ele>78.8</ele>
        <time>2024-04-25T11:24:20.099Z</time>
      </trkpt>
      <trkpt lat="43.68297" lon="3.8746">
        <ele>78.7</ele>
        <time>2024-04-25T11:24:32.611Z</time>
      </trkpt>
      <trkpt lat="43.68204" lon="3.87443">
        <ele>76.3</ele>
        <time>2024-04-25T11:25:13.250Z</time>
      </trkpt>
      <trkpt lat="43.68205" lon="3.87455">
        <ele>76.4</ele>
        <time>2024-04-25T13:25:47+02:00</time>
      </trkpt>
      <trkpt lat="43.68201" lon="3.87463">
        <ele>76.2</ele>
        <time>2024-04-25T11:25:48.249Z</time>
      </trkpt>
      <trkpt lat="43.68198" lon="3.87471">
        <ele>76.1</ele>
        <time>2024-04-25T11:25:49.499Z</time>
      </trkpt>
      <trkpt lat="43.68194" lon="3.87478">
        <ele>76.2</ele>
        <time>2024-04-25T11:25:50.749Z</time>
      </trkpt>
      <trkpt lat="43.6819" lon="3.87486">
        <ele>76.3</ele>
        <time>2024-04-25T13:25:52+02:00</time>
      </trkpt>
      <trkpt lat="43.68189" lon="3.87495">
        <ele>76.6</ele>
        <time>2024-04-25T11:25:53.249Z</time>
      </trkpt>
      <trkpt lat="43.68187" lon="3.87504">
        <ele>77</ele>
        <time>2024-04-25T11:25:54.499Z</time>
      </trkpt>
      <trkpt lat="43.68186" lon="3.87513">
        <ele>77.5</ele>
        <time>2024-04-25T11:25:55.749Z</time>
      </trkpt>
      <trkpt lat="43.68184" lon="3.87522">
        <ele>77.9</ele>
        <time>2024-04-25T13:25:57+02:00</time>
      </trkpt>
      <trkpt lat="43.68182" lon="3.87531">
        <ele>78.3</ele>
        <time>2024-04-25T11:25:58.249Z</time>
      </trkpt>
      <trkpt lat="43.6818" lon="3.87541">
        <ele>78.9</ele>
        <time>2024-04-25T11:25:59.499Z</time>
      </trkpt>
      <trkpt lat="43.68178" lon="3.8755">
        <ele>79.4</ele>
        <time>2024-04-25T11:26:00.749Z</time>
      </trkpt>
      <trkpt lat="43.68176" lon="3.87559">
        <ele>79.8</ele>
        <time>2024-04-25T11:26:01.999Z</time>
      </trkpt>
      <trkpt lat="43.68173" lon="3.87568">
        <ele>79.9</ele>
        <time>2024-04-25T11:26:03.249Z</time>
      </trkpt>
      <trkpt lat="43.68171" lon="3.87578">
        <ele>80.1</ele>
        <time>2024-04-25T11:26:04.499Z</time>
      </trkpt>
      <trkpt lat="43.68169" lon="3.87587">
        <ele>80.3</ele>
        <time>2024-04-25T11:26:05.749Z</time>
      </trkpt>
      <trkpt lat="43.68167" lon="3.87596">
        <ele>80.5</ele>
        <time>2024-04-25T13:26:07+02:00</time>
      </trkpt>
      <trkpt lat="43.68164" lon="3.87606">
        <ele>80.6</ele>
        <time>2024-04-25T11:26:08.249Z</time>
      </trkpt>
      <trkpt lat="43.68162" lon="3.87615">
        <ele>80.9</ele>
        <time>2024-04-25T11:26:09.499Z</time>
      </trkpt>
      <trkpt lat="43.68159" lon="3.87625">
        <ele>81.3</ele>
        <time>2024-04-25T11:26:10.749Z</time>
      </trkpt>
      <trkpt lat="43.68157" lon="3.87634">
        <ele>81.6</ele>
        <time>2024-04-25T11:26:11.999Z</time>
      </trkpt>
      <trkpt lat="43.68154" lon="3.87644">
        <ele>81.8</ele>
        <time>2024-04-25T11:26:13.249Z</time>
      </trkpt>
      <trkpt lat="43.68151" lon="3.87653">
        <ele>81.8</ele>
        <time>2024-04-25T11:26:14.499Z</time>
      </trkpt>
      <trkpt lat="43.68149" lon="3.87663">
        <ele>81.9</ele>
        <time>2024-04-25T11:26:15.749Z</time>
      </trkpt>
      <trkpt lat="43.68145" lon="3.87673">
        <ele>81.7</ele>
        <time>2024-04-25T13:26:17+02:00</time>
      </trkpt>
      <trkpt lat="43.68145" lon="3.87681">
        <ele>81.6</ele>
        <time>2024-04-25T11:26:18.124Z</time>
      </trkpt>
      <trkpt lat="43.68144" lon="3.8769">
        <ele>81.5</ele>
        <time>2024-04-25T11:26:19.249Z</time>
      </trkpt>
      <trkpt lat="43.68143" lon="3.87699">
        <ele>81.2</ele>
        <time>2024-04-25T11:26:20.374Z</time>
      </trkpt>
      <trkpt lat="43.68142" lon="3.87708">
        <ele>80.8</ele>
        <time>2024-04-25T11:26:21.499Z</time>
      </trkpt>
      <trkpt lat="43.6814" lon="3.87716">
        <ele>80.3</ele>
        <time>2024-04-25T11:26:22.624Z</time>
      </trkpt>
      <trkpt lat="43.68139" lon="3.87725">
        <ele>79.6</ele>
        <time>2024-04-25T11:26:23.749Z</time>
      </trkpt>
      <trkpt lat="43.68138" lon="3.87734">
        <ele>78.2</ele>
        <time>2024-04-25T11:26:24.874Z</time>
      </trkpt>
      <trkpt lat="43.68137" lon="3.87743">
        <ele>77</ele>
        <time>2024-04-25T13:26:26+02:00</time>
      </trkpt>
      <trkpt lat="43.6814" lon="3.8775">
        <ele>76.2</ele>
        <time>2024-04-25T11:26:27.375Z</time>
      </trkpt>
      <trkpt lat="43.68144" lon="3.87756">
        <ele>76.4</ele>
        <time>2024-04-25T11:26:28.750Z</time>
      </trkpt>
      <trkpt lat="43.68147" lon="3.87763">
        <ele>76.6</ele>
        <time>2024-04-25T11:26:30.125Z</time>
      </trkpt>
      <trkpt lat="43.6815" lon="3.8777">
        <ele>76.6</ele>
        <time>2024-04-25T11:26:31.500Z</time>
      </trkpt>
      <trkpt lat="43.68153" lon="3.87776">
        <ele>76.6</ele>
        <time>2024-04-25T11:26:32.875Z</time>
      </trkpt>
      <trkpt lat="43.68157" lon="3.87783">
        <ele>76.5</ele>
        <time>2024-04-25T11:26:34.250Z</time>
      </trkpt>
      <trkpt lat="43.6816" lon="3.87789">
        <ele>76.2</ele>
        <time>2024-04-25T11:26:35.625Z</time>
      </trkpt>
      <trkpt lat="43.68156" lon="3.87794">
        <ele>76.1</ele>
        <time>2024-04-25T11:26:38.249Z</time>
      </trkpt>
      <trkpt lat="43.6815" lon="3.87791">
        <ele>76.3</ele>
        <time>2024-04-25T11:26:39.499Z</time>
      </trkpt>
      <trkpt lat="43.68143" lon="3.87789">
        <ele>76.4</ele>
        <time>2024-04-25T11:26:40.749Z</time>
      </trkpt>
      <trkpt lat="43.68136" lon="3.87787">
        <ele>76.3</ele>
        <time>2024-04-25T11:26:41.999Z</time>
      </trkpt>
      <trkpt lat="43.68129" lon="3.87784">
        <ele>76.3</ele>
        <time>2024-04-25T11:26:43.249Z</time>
      </trkpt>
      <trkpt lat="43.68123" lon="3.87782">
        <ele>76.2</ele>
        <time>2024-04-25T11:26:44.499Z</time>
      </trkpt>
      <trkpt lat="43.68116" lon="3.87779">
        <ele>76.1</ele>
        <time>2024-04-25T11:26:45.749Z</time>
      </trkpt>
      <trkpt lat="43.68109" lon="3.87777">
        <ele>76</ele>
        <time>2024-04-25T13:26:47+02:00</time>
      </trkpt>
      <trkpt lat="43.68104" lon="3.87778">
        <ele>76</ele>
        <time>2024-04-25T11:26:48.000Z</time>
      </trkpt>
      <trkpt lat="43.68098" lon="3.87778">
        <ele>76</ele>
        <time>2024-04-25T13:26:49+02:00</time>
      </trkpt>
      <trkpt lat="43.6809" lon="3.87775">
        <ele>75.9</ele>
        <time>2024-04-25T11:26:52.999Z</time>
      </trkpt>
      <trkpt lat="43.68082" lon="3.87772">
        <ele>75.8</ele>
        <time>2024-04-25T13:26:57+02:00</time>
      </trkpt>
      <trkpt lat="43.68078" lon="3.87769">
        <ele>75.6</ele>
        <time>2024-04-25T11:27:05.187Z</time>
      </trkpt>
      <trkpt lat="43.68073" lon="3.87765">
        <ele>75.4</ele>
        <time>2024-04-25T11:27:13.374Z</time>
      </trkpt>
      <trkpt lat="43.68069" lon="3.87762">
        <ele>75.1</ele>
        <time>2024-04-25T11:27:21.561Z</time>
      </trkpt>
      <trkpt lat="43.68064" lon="3.87759">
        <ele>74.8</ele>
        <time>2024-04-25T11:27:29.748Z</time>
      </trkpt>
      <trkpt lat="43.6806" lon="3.87755">
        <ele>74.5</ele>
        <time>2024-04-25T11:27:37.935Z</time>
      </trkpt>
      <trkpt lat="43.68055" lon="3.87752">
        <ele>74.2</ele>
        <time>2024-04-25T11:27:46.122Z</time>
      </trkpt>
      <trkpt lat="43.68051" lon="3.87749">
        <ele>74.2</ele>
        <time>2024-04-25T11:27:54.309Z</time>
      </trkpt>
      <trkpt lat="43.68047" lon="3.87746">
        <ele>74.3</ele>
        <time>2024-04-25T11:28:02.496Z</time>
      </trkpt>
      <trkpt lat="43.68042" lon="3.87742">
        <ele>74.3</ele>
        <time>2024-04-25T11:28:10.683Z</time>
      </trkpt>
      <trkpt lat="43.68038" lon="3.87739">
        <ele>74.4</ele>
        <time>2024-04-25T11:28:18.871Z</time>
      </trkpt>
      <trkpt lat="43.68033" lon="3.87736">
        <ele>74.4</ele>
        <time>2024-04-25T11:28:27.059Z</time>
      </trkpt>
      <trkpt lat="43.68029" lon="3.87732">
        <ele>74.4</ele>
        <time>2024-04-25T11:28:35.247Z</time>
      </trkpt>
      <trkpt lat="43.68024" lon="3.87729">
        <ele>74.1</ele>
        <time>2024-04-25T11:28:43.435Z</time>
      </trkpt>
      <trkpt lat="43.6802" lon="3.87726">
        <ele>73.9</ele>
        <time>2024-04-25T11:28:51.623Z</time>
      </trkpt>
      <trkpt lat="43.68015" lon="3.87722">
        <ele>73.6</ele>
        <time>2024-04-25T11:28:59.811Z</time>
      </trkpt>
      <trkpt lat="43.68011" lon="3.87719">
        <ele>73.3</ele>
        <time>2024-04-25T13:29:08+02:00</time>
      </trkpt>
      <trkpt lat="43.68006" lon="3.87718">
        <ele>73.1</ele>
        <time>2024-04-25T11:29:09.874Z</time>
      </trkpt>
      <trkpt lat="43.68002" lon="3.87717">
        <ele>72.9</ele>
        <time>2024-04-25T11:29:11.749Z</time>
      </trkpt>
      <trkpt lat="43.67997" lon="3.87715">
        <ele>72.7</ele>
        <time>2024-04-25T11:29:13.624Z</time>
      </trkpt>
      <trkpt lat="43.67992" lon="3.87714">
        <ele>72.6</ele>
        <time>2024-04-25T11:29:15.499Z</time>
      </trkpt>
      <trkpt lat="43.67988" lon="3.87713">
        <ele>72.5</ele>
        <time>2024-04-25T11:29:17.374Z</time>
      </trkpt>
      <trkpt lat="43.67983" lon="3.87712">
        <ele>72.4</ele>
        <time>2024-04-25T11:29:19.249Z</time>
      </trkpt>
      <trkpt lat="43.67978" lon="3.87711">
        <ele>72.3</ele>
        <time>2024-04-25T11:29:21.124Z</time>
      </trkpt>
      <trkpt lat="43.67974" lon="3.8771">
        <ele>72.1</ele>
        <time>2024-04-25T11:29:22.999Z</time>
      </trkpt>
      <trkpt lat="43.67969" lon="3.87708">
        <ele>72.1</ele>
        <time>2024-04-25T11:29:24.874Z</time>
      </trkpt>
      <trkpt lat="43.67964" lon="3.87707">
        <ele>72.2</ele>
        <time>2024-04-25T11:29:26.749Z</time>
      </trkpt>
      <trkpt lat="43.67959" lon="3.87706">
        <ele>72.3</ele>
        <time>2024-04-25T11:29:28.624Z</time>
      </trkpt>
      <trkpt lat="43.67955" lon="3.87705">
        <ele>72.4</ele>
        <time>2024-04-25T11:29:30.499Z</time>
      </trkpt>
      <trkpt lat="43.6795" lon="3.87704">
        <ele>72.5</ele>
        <time>2024-04-25T11:29:32.374Z</time>
      </trkpt>
      <trkpt lat="43.67945" lon="3.87702">
        <ele>72.5</ele>
        <time>2024-04-25T11:29:34.249Z</time>
      </trkpt>
      <trkpt lat="43.67941" lon="3.87701">
        <ele>72.8</ele>
        <time>2024-04-25T11:29:36.124Z</time>
      </trkpt>
      <trkpt lat="43.67936" lon="3.877">
        <ele>73.1</ele>
        <time>2024-04-25T13:29:38+02:00</time>
      </trkpt>
      <trkpt lat="43.67931" lon="3.87703">
        <ele>73.7</ele>
        <time>2024-04-25T11:29:39.249Z</time>
      </trkpt>
      <trkpt lat="43.67927" lon="3.87706">
        <ele>74.3</ele>
        <time>2024-04-25T11:29:40.499Z</time>
      </trkpt>
      <trkpt lat="43.67922" lon="3.87709">
        <ele>75</ele>
        <time>2024-04-25T11:29:41.749Z</time>
      </trkpt>
      <trkpt lat="43.67918" lon="3.87712">
        <ele>75.8</ele>
        <time>2024-04-25T11:29:42.999Z</time>
      </trkpt>
      <trkpt lat="43.67913" lon="3.87714">
        <ele>76.3</ele>
        <time>2024-04-25T11:29:44.249Z</time>
      </trkpt>
      <trkpt lat="43.67908" lon="3.87717">
        <ele>76.8</ele>
        <time>2024-04-25T11:29:45.499Z</time>
      </trkpt>
      <trkpt lat="43.67904" lon="3.8772">
        <ele>77.2</ele>
        <time>2024-04-25T11:29:46.749Z</time>
      </trkpt>
      <trkpt lat="43.67899" lon="3.87723">
        <ele>77.7</ele>
        <time>2024-04-25T13:29:48+02:00</time>
      </trkpt>
      <trkpt lat="43.67895" lon="3.87722">
        <ele>77.8</ele>
        <time>2024-04-25T11:29:50.499Z</time>
      </trkpt>
      <trkpt lat="43.67891" lon="3.87724">
        <ele>78.2</ele>
        <time>2024-04-25T11:29:52.999Z</time>
      </trkpt>
      <trkpt lat="43.67885" lon="3.87726">
        <ele>78.4</ele>
        <time>2024-04-25T11:29:55.499Z</time>
      </trkpt>
      <trkpt lat="43.6788" lon="3.87726">
        <ele>78.4</ele>
        <time>2024-04-25T13:29:58+02:00</time>
      </trkpt>
      <trkpt lat="43.67875" lon="3.87729">
        <ele>78.6</ele>
        <time>2024-04-25T11:30:04.892Z</time>
      </trkpt>
      <trkpt lat="43.67873" lon="3.87732">
        <ele>78.8</ele>
        <time>2024-04-25T11:30:08.624Z</time>
      </trkpt>
      <trkpt lat="43.67869" lon="3.87733">
        <ele>78.9</ele>
        <time>2024-04-25T11:30:19.249Z</time>
      </trkpt>
      <trkpt lat="43.67862" lon="3.87736">
        <ele>79</ele>
        <time>2024-04-25T11:30:29.874Z</time>
      </trkpt>
      <trkpt lat="43.67855" lon="3.87741">
        <ele>79.8</ele>
        <time>2024-04-25T11:30:35.905Z</time>
      </trkpt>
      <trkpt lat="43.67849" lon="3.87741">
        <ele>80.4</ele>
        <time>2024-04-25T11:30:40.499Z</time>
      </trkpt>
      <trkpt lat="43.67847" lon="3.87734">
        <ele>80.2</ele>
        <time>2024-04-25T11:30:51.124Z</time>
      </trkpt>
      <trkpt lat="43.67844" lon="3.87728">
        <ele>80.2</ele>
        <time>2024-04-25T11:31:01.749Z</time>
      </trkpt>
      <trkpt lat="43.67836" lon="3.8772">
        <ele>80.6</ele>
        <time>2024-04-25T11:31:12.374Z</time>
      </trkpt>
      <trkpt lat="43.6783" lon="3.87714">
        <ele>80.8</ele>
        <time>2024-04-25T11:31:22.999Z</time>
      </trkpt>
      <trkpt lat="43.67825" lon="3.87705">
        <ele>80.7</ele>
        <time>2024-04-25T11:31:33.624Z</time>
      </trkpt>
      <trkpt lat="43.67819" lon="3.87701">
        <ele>80.7</ele>
        <time>2024-04-25T11:31:44.249Z</time>
      </trkpt>
      <trkpt lat="43.67813" lon="3.87696">
        <ele>80.8</ele>
        <time>2024-04-25T11:31:54.874Z</time>
      </trkpt>
      <trkpt lat="43.67807" lon="3.87691">
        <ele>80.9</ele>
        <time>2024-04-25T11:32:05.499Z</time>
      </trkpt>
      <trkpt lat="43.67801" lon="3.87686">
        <ele>81</ele>
        <time>2024-04-25T11:32:16.124Z</time>
      </trkpt>
      <trkpt lat="43.67795" lon="3.87682">
        <ele>81</ele>
        <time>2024-04-25T11:32:26.749Z</time>
      </trkpt>
      <trkpt lat="43.67789" lon="3.87677">
        <ele>81</ele>
        <time>2024-04-25T11:32:37.374Z</time>
      </trkpt>
      <trkpt lat="43.67783" lon="3.87672">
        <ele>81</ele>
        <time>2024-04-25T13:32:48+02:00</time>
      </trkpt>
      <trkpt lat="43.6778" lon="3.87666">
        <ele>81</ele>
        <time>2024-04-25T11:32:49.249Z</time>
      </trkpt>
      <trkpt lat="43.67777" lon="3.8766">
        <ele>81</ele>
        <time>2024-04-25T11:32:50.499Z</time>
      </trkpt>
      <trkpt lat="43.67774" lon="3.87654">
        <ele>80.9</ele>
        <time>2024-04-25T11:32:51.749Z</time>
      </trkpt>
      <trkpt lat="43.67771" lon="3.87652">
        <ele>80.8</ele>
        <time>2024-04-25T11:32:52.999Z</time>
      </trkpt>
      <trkpt lat="43.67767" lon="3.87649">
        <ele>80.6</ele>
        <time>2024-04-25T11:32:54.249Z</time>
      </trkpt>
      <trkpt lat="43.67762" lon="3.87642">
        <ele>80.4</ele>
        <time>2024-04-25T11:32:55.499Z</time>
      </trkpt>
      <trkpt lat="43.6776" lon="3.87635">
        <ele>80.4</ele>
        <time>2024-04-25T11:32:56.749Z</time>
      </trkpt>
      <trkpt lat="43.67758" lon="3.87627">
        <ele>80.3</ele>
        <time>2024-04-25T13:32:58+02:00</time>
      </trkpt>
      <trkpt lat="43.67756" lon="3.87614">
        <ele>80.2</ele>
        <time>2024-04-25T11:33:00.499Z</time>
      </trkpt>
      <trkpt lat="43.67754" lon="3.87605">
        <ele>79.9</ele>
        <time>2024-04-25T11:33:02.999Z</time>
      </trkpt>
      <trkpt lat="43.67754" lon="3.87596">
        <ele>79.6</ele>
        <time>2024-04-25T11:33:05.499Z</time>
      </trkpt>
      <trkpt lat="43.67755" lon="3.8759">
        <ele>79.4</ele>
        <time>2024-04-25T13:33:08+02:00</time>
      </trkpt>
      <trkpt lat="43.67742" lon="3.87591">
        <ele>77.3</ele>
        <time>2024-04-25T11:33:12.999Z</time>
      </trkpt>
      <trkpt lat="43.67735" lon="3.87597">
        <ele>76.2</ele>
        <time>2024-04-25T13:33:18+02:00</time>
      </trkpt>
      <trkpt lat="43.67732" lon="3.87601">
        <ele>75.8</ele>
        <time>2024-04-25T11:33:20.499Z</time>
      </trkpt>
      <trkpt lat="43.67728" lon="3.87605">
        <ele>75.5</ele>
        <time>2024-04-25T11:33:22.999Z</time>
      </trkpt>
      <trkpt lat="43.67725" lon="3.87609">
        <ele>75.2</ele>
        <time>2024-04-25T11:33:25.499Z</time>
      </trkpt>
      <trkpt lat="43.67721" lon="3.87613">
        <ele>74.9</ele>
        <time>2024-04-25T13:33:28+02:00</time>
      </trkpt>
      <trkpt lat="43.67718" lon="3.87621">
        <ele>74.7</ele>
        <time>2024-04-25T11:33:30.499Z</time>
      </trkpt>
      <trkpt lat="43.67714" lon="3.87629">
        <ele>74.4</ele>
        <time>2024-04-25T11:33:32.999Z</time>
      </trkpt>
      <trkpt lat="43.67711" lon="3.87636">
        <ele>74.2</ele>
        <time>2024-04-25T11:33:35.499Z</time>
      </trkpt>
      <trkpt lat="43.67707" lon="3.87644">
        <ele>73.9</ele>
        <time>2024-04-25T13:33:38+02:00</time>
      </trkpt>
      <trkpt lat="43.67707" lon="3.87654">
        <ele>74.1</ele>
        <time>2024-04-25T11:33:40.499Z</time>
      </trkpt>
      <trkpt lat="43.67707" lon="3.87664">
        <ele>74.2</ele>
        <time>2024-04-25T11:33:42.999Z</time>
      </trkpt>
      <trkpt lat="43.67706" lon="3.87674">
        <ele>74.5</ele>
        <time>2024-04-25T11:33:45.499Z</time>
      </trkpt>
      <trkpt lat="43.67706" lon="3.87684">
        <ele>74.9</ele>
        <time>2024-04-25T13:33:48+02:00</time>
      </trkpt>
      <trkpt lat="43.67706" lon="3.87694">
        <ele>75.3</ele>
        <time>2024-04-25T11:33:50.500Z</time>
      </trkpt>
      <trkpt lat="43.67707" lon="3.87704">
        <ele>75.5</ele>
        <time>2024-04-25T11:33:53.000Z</time>
      </trkpt>
      <trkpt lat="43.67707" lon="3.87714">
        <ele>75.7</ele>
        <time>2024-04-25T11:33:55.500Z</time>
      </trkpt>
      <trkpt lat="43.67707" lon="3.87724">
        <ele>76.1</ele>
        <time>2024-04-25T13:33:58+02:00</time>
      </trkpt>
      <trkpt lat="43.67712" lon="3.87724">
        <ele>76.4</ele>
        <time>2024-04-25T11:34:03.000Z</time>
      </trkpt>
      <trkpt lat="43.67717" lon="3.87724">
        <ele>76.8</ele>
        <time>2024-04-25T13:34:08+02:00</time>
      </trkpt>
      <trkpt lat="43.67718" lon="3.87732">
        <ele>77.4</ele>
        <time>2024-04-25T11:34:11.750Z</time>
      </trkpt>
      <trkpt lat="43.67719" lon="3.87739">
        <ele>78</ele>
        <time>2024-04-25T11:34:15.500Z</time>
      </trkpt>
      <trkpt lat="43.6772" lon="3.87747">
        <ele>78.7</ele>
        <time>2024-04-25T11:34:19.250Z</time>
      </trkpt>
      <trkpt lat="43.67721" lon="3.87754">
        <ele>79.1</ele>
        <time>2024-04-25T11:34:23.000Z</time>
      </trkpt>
      <trkpt lat="43.67722" lon="3.87762">
        <ele>79.4</ele>
        <time>2024-04-25T11:34:26.750Z</time>
      </trkpt>
      <trkpt lat="43.67723" lon="3.87769">
        <ele>79.7</ele>
        <time>2024-04-25T11:34:30.500Z</time>
      </trkpt>
      <trkpt lat="43.67724" lon="3.87777">
        <ele>80.1</ele>
        <time>2024-04-25T11:34:34.250Z</time>
      </trkpt>
      <trkpt lat="43.67725" lon="3.87784">
        <ele>80.2</ele>
        <time>2024-04-25T11:34:38.000Z</time>
      </trkpt>
      <trkpt lat="43.67726" lon="3.87792">
        <ele>80.4</ele>
        <time>2024-04-25T11:34:41.750Z</time>
      </trkpt>
      <trkpt lat="43.67727" lon="3.87799">
        <ele>80.6</ele>
        <time>2024-04-25T11:34:45.500Z</time>
      </trkpt>
      <trkpt lat="43.67728" lon="3.87807">
        <ele>80.9</ele>
        <time>2024-04-25T11:34:49.250Z</time>
      </trkpt>
      <trkpt lat="43.67729" lon="3.87814">
        <ele>81.5</ele>
        <time>2024-04-25T11:34:53.000Z</time>
      </trkpt>
      <trkpt lat="43.6773" lon="3.87822">
        <ele>82.1</ele>
        <time>2024-04-25T11:34:56.750Z</time>
      </trkpt>
      <trkpt lat="43.67731" lon="3.87829">
        <ele>82.7</ele>
        <time>2024-04-25T11:35:00.500Z</time>
      </trkpt>
      <trkpt lat="43.67732" lon="3.87837">
        <ele>83.2</ele>
        <time>2024-04-25T11:35:04.250Z</time>
      </trkpt>
      <trkpt lat="43.67735" lon="3.87837">
        <ele>83.6</ele>
        <time>2024-04-25T13:35:08+02:00</time>
      </trkpt>
      <trkpt lat="43.67742" lon="3.87845">
        <ele>84.7</ele>
        <time>2024-04-25T11:35:12.375Z</time>
      </trkpt>
      <trkpt lat="43.67746" lon="3.87853">
        <ele>85.3</ele>
        <time>2024-04-25T11:35:16.750Z</time>
      </trkpt>
      <trkpt lat="43.67752" lon="3.87857">
        <ele>86</ele>
        <time>2024-04-25T11:35:21.125Z</time>
      </trkpt>
      <trkpt lat="43.67759" lon="3.87861">
        <ele>86.6</ele>
        <time>2024-04-25T11:35:25.500Z</time>
      </trkpt>
      <trkpt lat="43.67757" lon="3.87862">
        <ele>86.6</ele>
        <time>2024-04-25T11:35:27.082Z</time>
      </trkpt>
      <trkpt lat="43.67758" lon="3.87867">
        <ele>87</ele>
        <time>2024-04-25T11:35:29.875Z</time>
      </trkpt>
      <trkpt lat="43.67759" lon="3.87872">
        <ele>87.4</ele>
        <time>2024-04-25T11:35:31.474Z</time>
      </trkpt>
      <trkpt lat="43.67759" lon="3.87873">
        <ele>87.5</ele>
        <time>2024-04-25T11:35:31.782Z</time>
      </trkpt>
      <trkpt lat="43.67759" lon="3.87881">
        <ele>88.1</ele>
        <time>2024-04-25T11:35:34.250Z</time>
      </trkpt>
      <trkpt lat="43.67758" lon="3.87909">
        <ele>90.8</ele>
        <time>2024-04-25T11:35:38.625Z</time>
      </trkpt>
      <trkpt lat="43.67766" lon="3.87907">
        <ele>91.1</ele>
        <time>2024-04-25T11:35:43.000Z</time>
      </trkpt>
      <trkpt lat="43.67774" lon="3.87907">
        <ele>91.7</ele>
        <time>2024-04-25T11:35:47.375Z</time>
      </trkpt>
      <trkpt lat="43.67785" lon="3.87908">
        <ele>92</ele>
        <time>2024-04-25T11:35:51.750Z</time>
      </trkpt>
      <trkpt lat="43.67793" lon="3.87908">
        <ele>92.1</ele>
        <time>2024-04-25T11:35:56.125Z</time>
      </trkpt>
      <trkpt lat="43.67802" lon="3.87912">
        <ele>92.5</ele>
        <time>2024-04-25T11:36:00.500Z</time>
      </trkpt>
      <trkpt lat="43.6781" lon="3.87918">
        <ele>92.9</ele>
        <time>2024-04-25T11:36:04.875Z</time>
      </trkpt>
      <trkpt lat="43.67819" lon="3.87923">
        <ele>93</ele>
        <time>2024-04-25T11:41:23.500Z</time>
      </trkpt>
      <trkpt lat="43.67824" lon="3.87931">
        <ele>93.4</ele>
        <time>2024-04-25T13:41:26+02:00</time>
      </trkpt>
      <trkpt lat="43.67827" lon="3.87933">
        <ele>93.4</ele>
        <time>2024-04-25T11:41:28.500Z</time>
      </trkpt>
      <trkpt lat="43.67829" lon="3.87935">
        <ele>93.4</ele>
        <time>2024-04-25T11:41:30.721Z</time>
      </trkpt>
      <trkpt lat="43.67832" lon="3.87936">
        <ele>93.4</ele>
        <time>2024-04-25T11:41:33.500Z</time>
      </trkpt>
      <trkpt lat="43.67835" lon="3.87942">
        <ele>93.9</ele>
        <time>2024-04-25T13:41:36+02:00</time>
      </trkpt>
      <trkpt lat="43.6784" lon="3.87944">
        <ele>94.5</ele>
        <time>2024-04-25T11:41:38.500Z</time>
      </trkpt>
      <trkpt lat="43.67846" lon="3.87946">
        <ele>94.9</ele>
        <time>2024-04-25T11:41:41.000Z</time>
      </trkpt>
      <trkpt lat="43.67851" lon="3.87947">
        <ele>95.4</ele>
        <time>2024-04-25T11:41:43.500Z</time>
      </trkpt>
      <trkpt lat="43.67856" lon="3.87949">
        <ele>95.8</ele>
        <time>2024-04-25T13:41:46+02:00</time>
      </trkpt>
      <trkpt lat="43.6786" lon="3.87944">
        <ele>95.9</ele>
        <time>2024-04-25T11:41:47.500Z</time>
      </trkpt>
      <trkpt lat="43.67863" lon="3.87939">
        <ele>96.1</ele>
        <time>2024-04-25T13:41:49+02:00</time>
      </trkpt>
      <trkpt lat="43.67866" lon="3.87932">
        <ele>96.3</ele>
        <time>2024-04-25T11:41:50.750Z</time>
      </trkpt>
      <trkpt lat="43.67868" lon="3.87924">
        <ele>96.3</ele>
        <time>2024-04-25T11:41:52.500Z</time>
      </trkpt>
      <trkpt lat="43.67871" lon="3.87917">
        <ele>96.3</ele>
        <time>2024-04-25T11:41:54.250Z</time>
      </trkpt>
      <trkpt lat="43.67873" lon="3.87909">
        <ele>96.3</ele>
        <time>2024-04-25T13:41:56+02:00</time>
      </trkpt>
      <trkpt lat="43.67877" lon="3.87898">
        <ele>96.2</ele>
        <time>2024-04-25T11:41:58.500Z</time>
      </trkpt>
      <trkpt lat="43.67881" lon="3.87887">
        <ele>95.9</ele>
        <time>2024-04-25T11:42:01.000Z</time>
      </trkpt>
      <trkpt lat="43.67884" lon="3.87875">
        <ele>95.1</ele>
        <time>2024-04-25T11:42:03.500Z</time>
      </trkpt>
      <trkpt lat="43.67888" lon="3.87864">
        <ele>94.2</ele>
        <time>2024-04-25T13:42:06+02:00</time>
      </trkpt>
      <trkpt lat="43.67894" lon="3.87864">
        <ele>94.5</ele>
        <time>2024-04-25T11:42:08.500Z</time>
      </trkpt>
      <trkpt lat="43.679" lon="3.87864">
        <ele>94.7</ele>
        <time>2024-04-25T11:42:11.000Z</time>
      </trkpt>
      <trkpt lat="43.67906" lon="3.87864">
        <ele>94.9</ele>
        <time>2024-04-25T11:42:13.500Z</time>
      </trkpt>
      <trkpt lat="43.67912" lon="3.87864">
        <ele>95.1</ele>
        <time>2024-04-25T13:42:16+02:00</time>
      </trkpt>
      <trkpt lat="43.67918" lon="3.87866">
        <ele>95.4</ele>
        <time>2024-04-25T11:42:22.250Z</time>
      </trkpt>
      <trkpt lat="43.67924" lon="3.87868">
        <ele>95.2</ele>
        <time>2024-04-25T11:42:28.500Z</time>
      </trkpt>
      <trkpt lat="43.6793" lon="3.87869">
        <ele>95.1</ele>
        <time>2024-04-25T11:42:34.750Z</time>
      </trkpt>
      <trkpt lat="43.67936" lon="3.87871">
        <ele>94.9</ele>
        <time>2024-04-25T11:42:41.000Z</time>
      </trkpt>
      <trkpt lat="43.67942" lon="3.87873">
        <ele>94.8</ele>
        <time>2024-04-25T11:42:47.250Z</time>
      </trkpt>
      <trkpt lat="43.67948" lon="3.87875">
        <ele>94.6</ele>
        <time>2024-04-25T11:42:53.500Z</time>
      </trkpt>
      <trkpt lat="43.67954" lon="3.87876">
        <ele>94.3</ele>
        <time>2024-04-25T11:42:59.750Z</time>
      </trkpt>
      <trkpt lat="43.6796" lon="3.87878">
        <ele>94.1</ele>
        <time>2024-04-25T13:43:06+02:00</time>
      </trkpt>
      <trkpt lat="43.67965" lon="3.87882">
        <ele>94.3</ele>
        <time>2024-04-25T11:43:07.250Z</time>
      </trkpt>
      <trkpt lat="43.67971" lon="3.87886">
        <ele>94.6</ele>
        <time>2024-04-25T11:43:08.500Z</time>
      </trkpt>
      <trkpt lat="43.67976" lon="3.8789">
        <ele>94.8</ele>
        <time>2024-04-25T11:43:09.750Z</time>
      </trkpt>
      <trkpt lat="43.67982" lon="3.87894">
        <ele>94.9</ele>
        <time>2024-04-25T11:43:11.000Z</time>
      </trkpt>
      <trkpt lat="43.67987" lon="3.87898">
        <ele>95.1</ele>
        <time>2024-04-25T11:43:12.250Z</time>
      </trkpt>
      <trkpt lat="43.67992" lon="3.87902">
        <ele>95.2</ele>
        <time>2024-04-25T11:43:13.500Z</time>
      </trkpt>
      <trkpt lat="43.67998" lon="3.87906">
        <ele>95.3</ele>
        <time>2024-04-25T11:43:14.750Z</time>
      </trkpt>
      <trkpt lat="43.68003" lon="3.8791">
        <ele>95.3</ele>
        <time>2024-04-25T13:43:16+02:00</time>
      </trkpt>
      <trkpt lat="43.68007" lon="3.87915">
        <ele>95.4</ele>
        <time>2024-04-25T11:43:17.250Z</time>
      </trkpt>
      <trkpt lat="43.68012" lon="3.8792">
        <ele>95.5</ele>
        <time>2024-04-25T11:43:18.500Z</time>
      </trkpt>
      <trkpt lat="43.68016" lon="3.87925">
        <ele>95.6</ele>
        <time>2024-04-25T11:43:19.750Z</time>
      </trkpt>
      <trkpt lat="43.6802" lon="3.87931">
        <ele>95.5</ele>
        <time>2024-04-25T11:43:21.000Z</time>
      </trkpt>
      <trkpt lat="43.68024" lon="3.87936">
        <ele>95.5</ele>
        <time>2024-04-25T11:43:22.250Z</time>
      </trkpt>
      <trkpt lat="43.68029" lon="3.87941">
        <ele>95.4</ele>
        <time>2024-04-25T11:43:23.500Z</time>
      </trkpt>
      <trkpt lat="43.68033" lon="3.87946">
        <ele>95.8</ele>
        <time>2024-04-25T11:43:24.750Z</time>
      </trkpt>
      <trkpt lat="43.68037" lon="3.87951">
        <ele>96.1</ele>
        <time>2024-04-25T13:43:26+02:00</time>
      </trkpt>
      <trkpt lat="43.68038" lon="3.87958">
        <ele>96.9</ele>
        <time>2024-04-25T11:43:27.250Z</time>
      </trkpt>
      <trkpt lat="43.6804" lon="3.87965">
        <ele>97.7</ele>
        <time>2024-04-25T11:43:28.500Z</time>
      </trkpt>
      <trkpt lat="43.68041" lon="3.87972">
        <ele>98.5</ele>
        <time>2024-04-25T11:43:29.750Z</time>
      </trkpt>
      <trkpt lat="43.68042" lon="3.87979">
        <ele>98.9</ele>
        <time>2024-04-25T11:43:31.000Z</time>
      </trkpt>
      <trkpt lat="43.68043" lon="3.87985">
        <ele>99.4</ele>
        <time>2024-04-25T11:43:32.250Z</time>
      </trkpt>
      <trkpt lat="43.68045" lon="3.87992">
        <ele>100</ele>
        <time>2024-04-25T11:43:33.500Z</time>
      </trkpt>
      <trkpt lat="43.68046" lon="3.87999">
        <ele>100.6</ele>
        <time>2024-04-25T11:43:34.750Z</time>
      </trkpt>
      <trkpt lat="43.68047" lon="3.88006">
        <ele>101.3</ele>
        <time>2024-04-25T13:43:36+02:00</time>
      </trkpt>
      <trkpt lat="43.68049" lon="3.88">
        <ele>100.8</ele>
        <time>2024-04-25T11:43:38.500Z</time>
      </trkpt>
      <trkpt lat="43.68052" lon="3.87994">
        <ele>100.3</ele>
        <time>2024-04-25T11:43:41.000Z</time>
      </trkpt>
      <trkpt lat="43.68054" lon="3.87988">
        <ele>99.7</ele>
        <time>2024-04-25T11:43:43.500Z</time>
      </trkpt>
      <trkpt lat="43.68056" lon="3.87982">
        <ele>99.1</ele>
        <time>2024-04-25T13:43:46+02:00</time>
      </trkpt>
      <trkpt lat="43.6806" lon="3.87978">
        <ele>99.1</ele>
        <time>2024-04-25T11:43:47.250Z</time>
      </trkpt>
      <trkpt lat="43.68064" lon="3.87973">
        <ele>99</ele>
        <time>2024-04-25T11:43:48.500Z</time>
      </trkpt>
      <trkpt lat="43.68067" lon="3.87969">
        <ele>98.7</ele>
        <time>2024-04-25T11:43:49.750Z</time>
      </trkpt>
      <trkpt lat="43.68071" lon="3.87964">
        <ele>98.5</ele>
        <time>2024-04-25T11:43:51.000Z</time>
      </trkpt>
      <trkpt lat="43.68075" lon="3.8796">
        <ele>98.2</ele>
        <time>2024-04-25T11:43:52.250Z</time>
      </trkpt>
      <trkpt lat="43.68079" lon="3.87955">
        <ele>98</ele>
        <time>2024-04-25T11:43:53.500Z</time>
      </trkpt>
      <trkpt lat="43.68082" lon="3.87951">
        <ele>97.8</ele>
        <time>2024-04-25T11:43:54.750Z</time>
      </trkpt>
      <trkpt lat="43.68086" lon="3.87946">
        <ele>97</ele>
        <time>2024-04-25T13:43:56+02:00</time>
      </trkpt>
      <trkpt lat="43.68091" lon="3.87948">
        <ele>97</ele>
        <time>2024-04-25T11:43:57.250Z</time>
      </trkpt>
      <trkpt lat="43.68096" lon="3.87951">
        <ele>97</ele>
        <time>2024-04-25T11:43:58.500Z</time>
      </trkpt>
      <trkpt lat="43.68101" lon="3.87953">
        <ele>96.9</ele>
        <time>2024-04-25T11:43:59.750Z</time>
      </trkpt>
      <trkpt lat="43.68107" lon="3.87956">
        <ele>96.9</ele>
        <time>2024-04-25T11:44:01.000Z</time>
      </trkpt>
      <trkpt lat="43.68112" lon="3.87958">
        <ele>96.9</ele>
        <time>2024-04-25T11:44:02.250Z</time>
      </trkpt>
      <trkpt lat="43.68117" lon="3.8796">
        <ele>96.5</ele>
        <time>2024-04-25T11:44:03.500Z</time>
      </trkpt>
      <trkpt lat="43.68119" lon="3.87967">
        <ele>97.2</ele>
        <time>2024-04-25T11:44:04.750Z</time>
      </trkpt>
      <trkpt lat="43.68124" lon="3.87971">
        <ele>96.9</ele>
        <time>2024-04-25T13:44:06+02:00</time>
      </trkpt>
      <trkpt lat="43.68128" lon="3.8798">
        <ele>97.7</ele>
        <time>2024-04-25T11:44:33.500Z</time>
      </trkpt>
      <trkpt lat="43.68131" lon="3.87986">
        <ele>98.1</ele>
        <time>2024-04-25T11:45:01.000Z</time>
      </trkpt>
      <trkpt lat="43.68135" lon="3.87988">
        <ele>97.8</ele>
        <time>2024-04-25T11:45:28.500Z</time>
      </trkpt>
      <trkpt lat="43.68137" lon="3.87995">
        <ele>98.6</ele>
        <time>2024-04-25T13:45:56+02:00</time>
      </trkpt>
      <trkpt lat="43.68144" lon="3.88">
        <ele>98.8</ele>
        <time>2024-04-25T11:45:57.250Z</time>
      </trkpt>
      <trkpt lat="43.68151" lon="3.88005">
        <ele>99.6</ele>
        <time>2024-04-25T11:45:58.500Z</time>
      </trkpt>
      <trkpt lat="43.68158" lon="3.8801">
        <ele>100.1</ele>
        <time>2024-04-25T11:45:59.750Z</time>
      </trkpt>
      <trkpt lat="43.68165" lon="3.88015">
        <ele>100.4</ele>
        <time>2024-04-25T11:46:01.000Z</time>
      </trkpt>
      <trkpt lat="43.68171" lon="3.8802">
        <ele>100.7</ele>
        <time>2024-04-25T11:46:02.250Z</time>
      </trkpt>
      <trkpt lat="43.68178" lon="3.88025">
        <ele>100.9</ele>
        <time>2024-04-25T11:46:03.500Z</time>
      </trkpt>
      <trkpt lat="43.68185" lon="3.8803">
        <ele>100.9</ele>
        <time>2024-04-25T11:46:04.750Z</time>
      </trkpt>
      <trkpt lat="43.68192" lon="3.88035">
        <ele>100.5</ele>
        <time>2024-04-25T13:46:06+02:00</time>
      </trkpt>
      <trkpt lat="43.68196" lon="3.88039">
        <ele>100.5</ele>
        <time>2024-04-25T11:46:07.250Z</time>
      </trkpt>
      <trkpt lat="43.682" lon="3.88043">
        <ele>100.9</ele>
        <time>2024-04-25T11:46:08.500Z</time>
      </trkpt>
      <trkpt lat="43.68204" lon="3.88046">
        <ele>101.4</ele>
        <time>2024-04-25T11:46:09.750Z</time>
      </trkpt>
      <trkpt lat="43.68208" lon="3.8805">
        <ele>101.8</ele>
        <time>2024-04-25T11:46:11.000Z</time>
      </trkpt>
      <trkpt lat="43.68212" lon="3.88054">
        <ele>102.2</ele>
        <time>2024-04-25T11:46:12.250Z</time>
      </trkpt>
      <trkpt lat="43.68214" lon="3.88055">
        <ele>102.4</ele>
        <time>2024-04-25T13:46:16+02:00</time>
      </trkpt>
      <trkpt lat="43.68213" lon="3.8805">
        <ele>102.2</ele>
        <time>2024-04-25T11:46:17.500Z</time>
      </trkpt>
      <trkpt lat="43.68214" lon="3.88046">
        <ele>102.1</ele>
        <time>2024-04-25T11:46:19.000Z</time>
      </trkpt>
      <trkpt lat="43.68213" lon="3.8804">
        <ele>101.8</ele>
        <time>2024-04-25T11:46:19.909Z</time>
      </trkpt>
      <trkpt lat="43.68213" lon="3.88036">
        <ele>101.6</ele>
        <time>2024-04-25T11:46:20.500Z</time>
      </trkpt>
      <trkpt lat="43.68212" lon="3.88031">
        <ele>101.4</ele>
        <time>2024-04-25T11:46:21.326Z</time>
      </trkpt>
      <trkpt lat="43.68213" lon="3.88027">
        <ele>101.4</ele>
        <time>2024-04-25T13:46:22+02:00</time>
      </trkpt>
      <trkpt lat="43.68212" lon="3.88024">
        <ele>101.2</ele>
        <time>2024-04-25T11:46:22.999Z</time>
      </trkpt>
      <trkpt lat="43.6821" lon="3.88017">
        <ele>101</ele>
        <time>2024-04-25T11:46:23.567Z</time>
      </trkpt>
      <trkpt lat="43.68208" lon="3.88012">
        <ele>100.7</ele>
        <time>2024-04-25T11:46:23.999Z</time>
      </trkpt>
      <trkpt lat="43.68206" lon="3.88002">
        <ele>100.2</ele>
        <time>2024-04-25T11:46:24.999Z</time>
      </trkpt>
      <trkpt lat="43.68205" lon="3.87995">
        <ele>99.9</ele>
        <time>2024-04-25T13:46:26+02:00</time>
      </trkpt>
      <trkpt lat="43.68208" lon="3.8798">
        <ele>99.4</ele>
        <time>2024-04-25T11:46:28.499Z</time>
      </trkpt>
      <trkpt lat="43.68208" lon="3.87973">
        <ele>99</ele>
        <time>2024-04-25T11:46:30.999Z</time>
      </trkpt>
      <trkpt lat="43.68208" lon="3.87965">
        <ele>98.5</ele>
        <time>2024-04-25T11:46:33.499Z</time>
      </trkpt>
      <trkpt lat="43.68208" lon="3.87957">
        <ele>97.9</ele>
        <time>2024-04-25T13:46:36+02:00</time>
      </trkpt>
      <trkpt lat="43.68205" lon="3.87952">
        <ele>97.5</ele>
        <time>2024-04-25T11:46:37.249Z</time>
      </trkpt>
      <trkpt lat="43.68201" lon="3.87947">
        <ele>97.2</ele>
        <time>2024-04-25T11:46:38.499Z</time>
      </trkpt>
      <trkpt lat="43.68198" lon="3.87942">
        <ele>96.8</ele>
        <time>2024-04-25T11:46:39.749Z</time>
      </trkpt>
      <trkpt lat="43.68195" lon="3.87938">
        <ele>96.5</ele>
        <time>2024-04-25T11:46:40.999Z</time>
      </trkpt>
      <trkpt lat="43.68191" lon="3.87933">
        <ele>95.8</ele>
        <time>2024-04-25T11:46:42.249Z</time>
      </trkpt>
      <trkpt lat="43.68188" lon="3.87928">
        <ele>95.1</ele>
        <time>2024-04-25T11:46:43.499Z</time>
      </trkpt>
      <trkpt lat="43.68184" lon="3.87923">
        <ele>94.4</ele>
        <time>2024-04-25T11:46:44.749Z</time>
      </trkpt>
      <trkpt lat="43.68181" lon="3.87918">
        <ele>93.6</ele>
        <time>2024-04-25T13:46:46+02:00</time>
      </trkpt>
      <trkpt lat="43.68177" lon="3.87908">
        <ele>91.9</ele>
        <time>2024-04-25T11:46:48.499Z</time>
      </trkpt>
      <trkpt lat="43.68174" lon="3.87897">
        <ele>90.3</ele>
        <time>2024-04-25T11:46:50.999Z</time>
      </trkpt>
      <trkpt lat="43.6817" lon="3.87887">
        <ele>88.7</ele>
        <time>2024-04-25T11:46:53.499Z</time>
      </trkpt>
      <trkpt lat="43.68165" lon="3.87878">
        <ele>86.9</ele>
        <time>2024-04-25T13:46:56+02:00</time>
      </trkpt>
      <trkpt lat="43.68162" lon="3.87873">
        <ele>85.9</ele>
        <time>2024-04-25T11:46:58.499Z</time>
      </trkpt>
      <trkpt lat="43.6816" lon="3.87868">
        <ele>84.8</ele>
        <time>2024-04-25T11:47:00.999Z</time>
      </trkpt>
      <trkpt lat="43.68159" lon="3.8786">
        <ele>83.4</ele>
        <time>2024-04-25T11:47:02.119Z</time>
      </trkpt>
      <trkpt lat="43.68159" lon="3.8785">
        <ele>81.7</ele>
        <time>2024-04-25T11:47:03.499Z</time>
      </trkpt>
      <trkpt lat="43.68158" lon="3.87842">
        <ele>80.2</ele>
        <time>2024-04-25T13:47:06+02:00</time>
      </trkpt>
      <trkpt lat="43.68158" lon="3.87832">
        <ele>78.4</ele>
        <time>2024-04-25T11:47:11.000Z</time>
      </trkpt>
      <trkpt lat="43.68153" lon="3.87819">
        <ele>77.4</ele>
        <time>2024-04-25T13:47:16+02:00</time>
      </trkpt>
      <trkpt lat="43.68155" lon="3.87804">
        <ele>75.9</ele>
        <time>2024-04-25T11:47:21.000Z</time>
      </trkpt>
      <trkpt lat="43.68165" lon="3.878">
        <ele>75.5</ele>
        <time>2024-04-25T13:47:26+02:00</time>
      </trkpt>
      <trkpt lat="43.68171" lon="3.87806">
        <ele>75</ele>
        <time>2024-04-25T11:47:27.250Z</time>
      </trkpt>
      <trkpt lat="43.68177" lon="3.87812">
        <ele>75.5</ele>
        <time>2024-04-25T11:47:28.500Z</time>
      </trkpt>
      <trkpt lat="43.68183" lon="3.87818">
        <ele>75.8</ele>
        <time>2024-04-25T11:47:29.750Z</time>
      </trkpt>
      <trkpt lat="43.68189" lon="3.87824">
        <ele>75.9</ele>
        <time>2024-04-25T11:47:31.000Z</time>
      </trkpt>
      <trkpt lat="43.68194" lon="3.8783">
        <ele>75.9</ele>
        <time>2024-04-25T11:47:32.250Z</time>
      </trkpt>
      <trkpt lat="43.682" lon="3.87836">
        <ele>76.7</ele>
        <time>2024-04-25T11:47:33.500Z</time>
      </trkpt>
      <trkpt lat="43.68206" lon="3.87842">
        <ele>78</ele>
        <time>2024-04-25T11:47:34.750Z</time>
      </trkpt>
      <trkpt lat="43.68212" lon="3.87848">
        <ele>78.9</ele>
        <time>2024-04-25T13:47:36+02:00</time>
      </trkpt>
      <trkpt lat="43.68218" lon="3.87851">
        <ele>78.9</ele>
        <time>2024-04-25T11:47:37.250Z</time>
      </trkpt>
      <trkpt lat="43.68223" lon="3.87853">
        <ele>78.8</ele>
        <time>2024-04-25T11:47:38.500Z</time>
      </trkpt>
      <trkpt lat="43.68229" lon="3.87856">
        <ele>78.8</ele>
        <time>2024-04-25T11:47:39.750Z</time>
      </trkpt>
      <trkpt lat="43.68234" lon="3.87858">
        <ele>78.6</ele>
        <time>2024-04-25T11:47:41.000Z</time>
      </trkpt>
      <trkpt lat="43.6824" lon="3.87861">
        <ele>78.1</ele>
        <time>2024-04-25T11:47:42.250Z</time>
      </trkpt>
      <trkpt lat="43.68245" lon="3.87863">
        <ele>78</ele>
        <time>2024-04-25T11:47:43.500Z</time>
      </trkpt>
      <trkpt lat="43.68251" lon="3.87866">
        <ele>78.1</ele>
        <time>2024-04-25T11:47:44.750Z</time>
      </trkpt>
      <trkpt lat="43.68256" lon="3.87868">
        <ele>78.8</ele>
        <time>2024-04-25T13:47:46+02:00</time>
      </trkpt>
      <trkpt lat="43.68261" lon="3.87869">
        <ele>79</ele>
        <time>2024-04-25T11:47:46.750Z</time>
      </trkpt>
      <trkpt lat="43.68265" lon="3.8787">
        <ele>79.3</ele>
        <time>2024-04-25T11:47:47.500Z</time>
      </trkpt>
      <trkpt lat="43.6827" lon="3.87871">
        <ele>79.4</ele>
        <time>2024-04-25T11:47:48.250Z</time>
      </trkpt>
      <trkpt lat="43.68274" lon="3.87872">
        <ele>79.6</ele>
        <time>2024-04-25T13:47:49+02:00</time>
      </trkpt>
      <trkpt lat="43.68279" lon="3.87872">
        <ele>79.7</ele>
        <time>2024-04-25T11:47:49.875Z</time>
      </trkpt>
      <trkpt lat="43.68284" lon="3.87873">
        <ele>79.8</ele>
        <time>2024-04-25T11:47:50.750Z</time>
      </trkpt>
      <trkpt lat="43.68289" lon="3.87873">
        <ele>80</ele>
        <time>2024-04-25T11:47:51.625Z</time>
      </trkpt>
      <trkpt lat="43.68294" lon="3.87874">
        <ele>80.2</ele>
        <time>2024-04-25T11:47:52.500Z</time>
      </trkpt>
      <trkpt lat="43.68298" lon="3.87874">
        <ele>80.3</ele>
        <time>2024-04-25T11:47:53.375Z</time>
      </trkpt>
      <trkpt lat="43.68303" lon="3.87874">
        <ele>80.4</ele>
        <time>2024-04-25T11:47:54.250Z</time>
      </trkpt>
      <trkpt lat="43.68308" lon="3.87875">
        <ele>80.8</ele>
        <time>2024-04-25T11:47:55.125Z</time>
      </trkpt>
      <trkpt lat="43.68313" lon="3.87875">
        <ele>81.3</ele>
        <time>2024-04-25T13:47:56+02:00</time>
      </trkpt>
      <trkpt lat="43.68319" lon="3.87877">
        <ele>81.9</ele>
        <time>2024-04-25T11:47:57.250Z</time>
      </trkpt>
      <trkpt lat="43.68325" lon="3.87879">
        <ele>82.4</ele>
        <time>2024-04-25T11:47:58.500Z</time>
      </trkpt>
      <trkpt lat="43.68331" lon="3.8788">
        <ele>82.7</ele>
        <time>2024-04-25T11:47:59.750Z</time>
      </trkpt>
      <trkpt lat="43.68337" lon="3.87882">
        <ele>83</ele>
        <time>2024-04-25T11:48:01.000Z</time>
      </trkpt>
      <trkpt lat="43.68343" lon="3.87884">
        <ele>83.1</ele>
        <time>2024-04-25T11:48:02.250Z</time>
      </trkpt>
      <trkpt lat="43.68349" lon="3.87886">
        <ele>83.1</ele>
        <time>2024-04-25T11:48:03.500Z</time>
      </trkpt>
      <trkpt lat="43.68355" lon="3.87887">
        <ele>83.1</ele>
        <time>2024-04-25T11:48:04.750Z</time>
      </trkpt>
      <trkpt lat="43.68361" lon="3.87889">
        <ele>83</ele>
        <time>2024-04-25T13:48:06+02:00</time>
      </trkpt>
      <trkpt lat="43.68367" lon="3.87892">
        <ele>83.6</ele>
        <time>2024-04-25T11:48:07.250Z</time>
      </trkpt>
      <trkpt lat="43.68373" lon="3.87894">
        <ele>84</ele>
        <time>2024-04-25T11:48:08.500Z</time>
      </trkpt>
      <trkpt lat="43.68379" lon="3.87897">
        <ele>84.3</ele>
        <time>2024-04-25T11:48:09.750Z</time>
      </trkpt>
      <trkpt lat="43.68385" lon="3.879">
        <ele>84.5</ele>
        <time>2024-04-25T11:48:11.000Z</time>
      </trkpt>
      <trkpt lat="43.68391" lon="3.87902">
        <ele>84.7</ele>
        <time>2024-04-25T11:48:12.250Z</time>
      </trkpt>
      <trkpt lat="43.68397" lon="3.87905">
        <ele>85</ele>
        <time>2024-04-25T11:48:13.500Z</time>
      </trkpt>
      <trkpt lat="43.68403" lon="3.87907">
        <ele>85.3</ele>
        <time>2024-04-25T11:48:14.750Z</time>
      </trkpt>
      <trkpt lat="43.68409" lon="3.8791">
        <ele>85.7</ele>
        <time>2024-04-25T13:48:16+02:00</time>
      </trkpt>
      <trkpt lat="43.68414" lon="3.87909">
        <ele>86.1</ele>
        <time>2024-04-25T11:48:17.250Z</time>
      </trkpt>
      <trkpt lat="43.68419" lon="3.87909">
        <ele>86.4</ele>
        <time>2024-04-25T11:48:18.500Z</time>
      </trkpt>
      <trkpt lat="43.68424" lon="3.87908">
        <ele>86.6</ele>
        <time>2024-04-25T11:48:19.750Z</time>
      </trkpt>
      <trkpt lat="43.68429" lon="3.87908">
        <ele>86.8</ele>
        <time>2024-04-25T11:48:21.000Z</time>
      </trkpt>
      <trkpt lat="43.68433" lon="3.87907">
        <ele>87</ele>
        <time>2024-04-25T11:48:22.250Z</time>
      </trkpt>
      <trkpt lat="43.68438" lon="3.87906">
        <ele>87.2</ele>
        <time>2024-04-25T11:48:23.500Z</time>
      </trkpt>
      <trkpt lat="43.68443" lon="3.87906">
        <ele>87.3</ele>
        <time>2024-04-25T11:48:24.750Z</time>
      </trkpt>
      <trkpt lat="43.68448" lon="3.87905">
        <ele>87.7</ele>
        <time>2024-04-25T13:48:26+02:00</time>
      </trkpt>
      <trkpt lat="43.68453" lon="3.87901">
        <ele>88.2</ele>
        <time>2024-04-25T11:48:27.250Z</time>
      </trkpt>
      <trkpt lat="43.68458" lon="3.87898">
        <ele>88.7</ele>
        <time>2024-04-25T11:48:28.500Z</time>
      </trkpt>
      <trkpt lat="43.68463" lon="3.87894">
        <ele>89.2</ele>
        <time>2024-04-25T11:48:29.750Z</time>
      </trkpt>
      <trkpt lat="43.68469" lon="3.87891">
        <ele>89.7</ele>
        <time>2024-04-25T11:48:31.000Z</time>
      </trkpt>
      <trkpt lat="43.68474" lon="3.87887">
        <ele>90.3</ele>
        <time>2024-04-25T11:48:32.250Z</time>
      </trkpt>
      <trkpt lat="43.68479" lon="3.87883">
        <ele>91.3</ele>
        <time>2024-04-25T11:48:33.500Z</time>
      </trkpt>
      <trkpt lat="43.68484" lon="3.8788">
        <ele>92.2</ele>
        <time>2024-04-25T11:48:34.750Z</time>
      </trkpt>
      <trkpt lat="43.68489" lon="3.87876">
        <ele>93.1</ele>
        <time>2024-04-25T13:48:36+02:00</time>
      </trkpt>
      <trkpt lat="43.68494" lon="3.87875">
        <ele>93.7</ele>
        <time>2024-04-25T11:48:37.250Z</time>
      </trkpt>
      <trkpt lat="43.68499" lon="3.87875">
        <ele>94.4</ele>
        <time>2024-04-25T11:48:38.500Z</time>
      </trkpt>
      <trkpt lat="43.68504" lon="3.87874">
        <ele>95</ele>
        <time>2024-04-25T11:48:39.750Z</time>
      </trkpt>
      <trkpt lat="43.68509" lon="3.87873">
        <ele>95.6</ele>
        <time>2024-04-25T11:48:41.000Z</time>
      </trkpt>
      <trkpt lat="43.68513" lon="3.87872">
        <ele>96.2</ele>
        <time>2024-04-25T11:48:42.250Z</time>
      </trkpt>
      <trkpt lat="43.68518" lon="3.87872">
        <ele>96.8</ele>
        <time>2024-04-25T11:48:43.500Z</time>
      </trkpt>
      <trkpt lat="43.68523" lon="3.87871">
        <ele>97.4</ele>
        <time>2024-04-25T11:48:44.750Z</time>
      </trkpt>
      <trkpt lat="43.68528" lon="3.8787">
        <ele>98</ele>
        <time>2024-04-25T13:48:46+02:00</time>
      </trkpt>
      <trkpt lat="43.68533" lon="3.87874">
        <ele>98.8</ele>
        <time>2024-04-25T11:48:48.500Z</time>
      </trkpt>
      <trkpt lat="43.68538" lon="3.87877">
        <ele>99.7</ele>
        <time>2024-04-25T11:48:51.000Z</time>
      </trkpt>
      <trkpt lat="43.68543" lon="3.87881">
        <ele>100.6</ele>
        <time>2024-04-25T11:48:53.500Z</time>
      </trkpt>
      <trkpt lat="43.68548" lon="3.87884">
        <ele>101.5</ele>
        <time>2024-04-25T13:48:56+02:00</time>
      </trkpt>
      <trkpt lat="43.68548" lon="3.87895">
        <ele>101.8</ele>
        <time>2024-04-25T11:48:58.500Z</time>
      </trkpt>
      <trkpt lat="43.68548" lon="3.87906">
        <ele>102.2</ele>
        <time>2024-04-25T11:49:01.000Z</time>
      </trkpt>
      <trkpt lat="43.68548" lon="3.87916">
        <ele>102.6</ele>
        <time>2024-04-25T11:49:03.500Z</time>
      </trkpt>
      <trkpt lat="43.68548" lon="3.87927">
        <ele>102.9</ele>
        <time>2024-04-25T13:49:06+02:00</time>
      </trkpt>
      <trkpt lat="43.68548" lon="3.87934">
        <ele>103.1</ele>
        <time>2024-04-25T11:49:07.250Z</time>
      </trkpt>
      <trkpt lat="43.68548" lon="3.87942">
        <ele>103.2</ele>
        <time>2024-04-25T11:49:08.500Z</time>
      </trkpt>
      <trkpt lat="43.68548" lon="3.87949">
        <ele>103.2</ele>
        <time>2024-04-25T11:49:09.750Z</time>
      </trkpt>
      <trkpt lat="43.68548" lon="3.87957">
        <ele>103</ele>
        <time>2024-04-25T11:49:11.000Z</time>
      </trkpt>
      <trkpt lat="43.68547" lon="3.87964">
        <ele>102.7</ele>
        <time>2024-04-25T11:49:12.250Z</time>
      </trkpt>
      <trkpt lat="43.68547" lon="3.87971">
        <ele>102.5</ele>
        <time>2024-04-25T11:49:13.500Z</time>
      </trkpt>
      <trkpt lat="43.68547" lon="3.87979">
        <ele>102.2</ele>
        <time>2024-04-25T11:49:14.750Z</time>
      </trkpt>
      <trkpt lat="43.68547" lon="3.87986">
        <ele>101.8</ele>
        <time>2024-04-25T13:49:16+02:00</time>
      </trkpt>
      <trkpt lat="43.68547" lon="3.87993">
        <ele>101.5</ele>
        <time>2024-04-25T11:49:17.250Z</time>
      </trkpt>
      <trkpt lat="43.68548" lon="3.88">
        <ele>101.1</ele>
        <time>2024-04-25T11:49:18.500Z</time>
      </trkpt>
      <trkpt lat="43.68548" lon="3.88007">
        <ele>100.8</ele>
        <time>2024-04-25T11:49:19.750Z</time>
      </trkpt>
      <trkpt lat="43.68548" lon="3.88014">
        <ele>100.5</ele>
        <time>2024-04-25T11:49:21.000Z</time>
      </trkpt>
      <trkpt lat="43.68548" lon="3.8802">
        <ele>100.1</ele>
        <time>2024-04-25T11:49:22.250Z</time>
      </trkpt>
      <trkpt lat="43.68549" lon="3.88027">
        <ele>99.8</ele>
        <time>2024-04-25T11:49:23.500Z</time>
      </trkpt>
      <trkpt lat="43.68549" lon="3.88034">
        <ele>99.8</ele>
        <time>2024-04-25T11:49:24.750Z</time>
      </trkpt>
      <trkpt lat="43.68549" lon="3.88041">
        <ele>99.8</ele>
        <time>2024-04-25T13:49:26+02:00</time>
      </trkpt>
      <trkpt lat="43.68555" lon="3.88046">
        <ele>100</ele>
        <time>2024-04-25T11:49:28.500Z</time>
      </trkpt>
      <trkpt lat="43.68561" lon="3.8805">
        <ele>100.2</ele>
        <time>2024-04-25T11:49:31.000Z</time>
      </trkpt>
      <trkpt lat="43.68567" lon="3.88055">
        <ele>100.4</ele>
        <time>2024-04-25T11:49:33.500Z</time>
      </trkpt>
      <trkpt lat="43.68573" lon="3.88059">
        <ele>100.7</ele>
        <time>2024-04-25T13:49:36+02:00</time>
      </trkpt>
      <trkpt lat="43.6858" lon="3.88059">
        <ele>101</ele>
        <time>2024-04-25T13:49:46+02:00</time>
      </trkpt>
      <trkpt lat="43.68585" lon="3.8806">
        <ele>101.3</ele>
        <time>2024-04-25T11:49:56.000Z</time>
      </trkpt>
      <trkpt lat="43.6859" lon="3.88061">
        <ele>101.9</ele>
        <time>2024-04-25T11:50:06.000Z</time>
      </trkpt>
      <trkpt lat="43.68595" lon="3.88061">
        <ele>102.5</ele>
        <time>2024-04-25T11:50:16.000Z</time>
      </trkpt>
      <trkpt lat="43.686" lon="3.88062">
        <ele>103</ele>
        <time>2024-04-25T13:50:26+02:00</time>
      </trkpt>
      <trkpt lat="43.68608" lon="3.88065">
        <ele>104</ele>
        <time>2024-04-25T11:50:28.500Z</time>
      </trkpt>
      <trkpt lat="43.68616" lon="3.88068">
        <ele>105.2</ele>
        <time>2024-04-25T11:50:31.000Z</time>
      </trkpt>
      <trkpt lat="43.68623" lon="3.8807">
        <ele>106.7</ele>
        <time>2024-04-25T11:50:33.500Z</time>
      </trkpt>
      <trkpt lat="43.68631" lon="3.88073">
        <ele>108</ele>
        <time>2024-04-25T13:50:36+02:00</time>
      </trkpt>
      <trkpt lat="43.68636" lon="3.88075">
        <ele>108.9</ele>
        <time>2024-04-25T11:50:38.500Z</time>
      </trkpt>
      <trkpt lat="43.68642" lon="3.88078">
        <ele>109.8</ele>
        <time>2024-04-25T11:50:41.000Z</time>
      </trkpt>
      <trkpt lat="43.68647" lon="3.8808">
        <ele>110.8</ele>
        <time>2024-04-25T11:50:43.500Z</time>
      </trkpt>
      <trkpt lat="43.68652" lon="3.88082">
        <ele>111.9</ele>
        <time>2024-04-25T13:50:46+02:00</time>
      </trkpt>
      <trkpt lat="43.68657" lon="3.88092">
        <ele>113.1</ele>
        <time>2024-04-25T13:50:49+02:00</time>
      </trkpt>
      <trkpt lat="43.68661" lon="3.88097">
        <ele>113.9</ele>
        <time>2024-04-25T11:50:50.750Z</time>
      </trkpt>
      <trkpt lat="43.68664" lon="3.88102">
        <ele>114.6</ele>
        <time>2024-04-25T11:50:52.500Z</time>
      </trkpt>
      <trkpt lat="43.68668" lon="3.88107">
        <ele>115.2</ele>
        <time>2024-04-25T11:50:54.250Z</time>
      </trkpt>
      <trkpt lat="43.68671" lon="3.88112">
        <ele>116.2</ele>
        <time>2024-04-25T13:50:56+02:00</time>
      </trkpt>
      <trkpt lat="43.68669" lon="3.88121">
        <ele>116.6</ele>
        <time>2024-04-25T11:50:58.499Z</time>
      </trkpt>
      <trkpt lat="43.68668" lon="3.8813">
        <ele>117.2</ele>
        <time>2024-04-25T11:51:00.999Z</time>
      </trkpt>
      <trkpt lat="43.68666" lon="3.88139">
        <ele>117.9</ele>
        <time>2024-04-25T11:51:03.499Z</time>
      </trkpt>
      <trkpt lat="43.68664" lon="3.88148">
        <ele>118.7</ele>
        <time>2024-04-25T13:51:06+02:00</time>
      </trkpt>
      <trkpt lat="43.68659" lon="3.88155">
        <ele>118.8</ele>
        <time>2024-04-25T11:51:08.499Z</time>
      </trkpt>
      <trkpt lat="43.68653" lon="3.88162">
        <ele>119</ele>
        <time>2024-04-25T11:51:10.999Z</time>
      </trkpt>
      <trkpt lat="43.68648" lon="3.88168">
        <ele>119</ele>
        <time>2024-04-25T11:51:13.499Z</time>
      </trkpt>
      <trkpt lat="43.68642" lon="3.88175">
        <ele>118.6</ele>
        <time>2024-04-25T13:51:16+02:00</time>
      </trkpt>
      <trkpt lat="43.68644" lon="3.88181">
        <ele>119</ele>
        <time>2024-04-25T11:51:18.500Z</time>
      </trkpt>
      <trkpt lat="43.68645" lon="3.88188">
        <ele>119.4</ele>
        <time>2024-04-25T11:51:21.000Z</time>
      </trkpt>
      <trkpt lat="43.68647" lon="3.88194">
        <ele>119.8</ele>
        <time>2024-04-25T11:51:23.500Z</time>
      </trkpt>
      <trkpt lat="43.68648" lon="3.882">
        <ele>119.8</ele>
        <time>2024-04-25T13:51:26+02:00</time>
      </trkpt>
      <trkpt lat="43.68654" lon="3.88191">
        <ele>120.5</ele>
        <time>2024-04-25T11:51:31.000Z</time>
      </trkpt>
      <trkpt lat="43.6866" lon="3.88182">
        <ele>120.8</ele>
        <time>2024-04-25T13:51:36+02:00</time>
      </trkpt>
      <trkpt lat="43.68667" lon="3.88185">
        <ele>121.6</ele>
        <time>2024-04-25T11:51:38.500Z</time>
      </trkpt>
      <trkpt lat="43.68674" lon="3.88187">
        <ele>122.5</ele>
        <time>2024-04-25T11:51:41.000Z</time>
      </trkpt>
      <trkpt lat="43.6868" lon="3.8819">
        <ele>123.4</ele>
        <time>2024-04-25T11:51:43.500Z</time>
      </trkpt>
      <trkpt lat="43.68687" lon="3.88192">
        <ele>124.2</ele>
        <time>2024-04-25T13:51:46+02:00</time>
      </trkpt>
      <trkpt lat="43.68695" lon="3.88196">
        <ele>125</ele>
        <time>2024-04-25T11:51:51.000Z</time>
      </trkpt>
      <trkpt lat="43.68703" lon="3.88199">
        <ele>126.1</ele>
        <time>2024-04-25T13:51:56+02:00</time>
      </trkpt>
      <trkpt lat="43.68708" lon="3.88198">
        <ele>126.8</ele>
        <time>2024-04-25T11:52:01.000Z</time>
      </trkpt>
      <trkpt lat="43.68712" lon="3.88197">
        <ele>127.4</ele>
        <time>2024-04-25T13:52:06+02:00</time>
      </trkpt>
      <trkpt lat="43.68715" lon="3.88195">
        <ele>128</ele>
        <time>2024-04-25T11:54:55.500Z</time>
      </trkpt>
      <trkpt lat="43.68726" lon="3.8819">
        <ele>129.1</ele>
        <time>2024-04-25T13:55:13+02:00</time>
      </trkpt>
      <trkpt lat="43.6873" lon="3.8818">
        <ele>129.3</ele>
        <time>2024-04-25T11:55:23.000Z</time>
      </trkpt>
      <trkpt lat="43.68734" lon="3.88169">
        <ele>129.4</ele>
        <time>2024-04-25T13:55:33+02:00</time>
      </trkpt>
      <trkpt lat="43.68741" lon="3.88172">
        <ele>129.7</ele>
        <time>2024-04-25T11:55:38.000Z</time>
      </trkpt>
      <trkpt lat="43.68747" lon="3.88175">
        <ele>129.9</ele>
        <time>2024-04-25T13:55:43+02:00</time>
      </trkpt>
      <trkpt lat="43.6875" lon="3.88181">
        <ele>130</ele>
        <time>2024-04-25T11:55:44.250Z</time>
      </trkpt>
      <trkpt lat="43.68754" lon="3.88187">
        <ele>129.9</ele>
        <time>2024-04-25T11:55:45.500Z</time>
      </trkpt>
      <trkpt lat="43.68757" lon="3.88193">
        <ele>129.8</ele>
        <time>2024-04-25T11:55:46.750Z</time>
      </trkpt>
      <trkpt lat="43.6876" lon="3.88199">
        <ele>129.8</ele>
        <time>2024-04-25T11:55:48.000Z</time>
      </trkpt>
      <trkpt lat="43.68763" lon="3.88204">
        <ele>129.9</ele>
        <time>2024-04-25T11:55:49.250Z</time>
      </trkpt>
      <trkpt lat="43.68767" lon="3.8821">
        <ele>130</ele>
        <time>2024-04-25T11:55:50.500Z</time>
      </trkpt>
      <trkpt lat="43.6877" lon="3.88216">
        <ele>130.1</ele>
        <time>2024-04-25T11:55:51.750Z</time>
      </trkpt>
      <trkpt lat="43.68773" lon="3.88222">
        <ele>130.2</ele>
        <time>2024-04-25T13:55:53+02:00</time>
      </trkpt>
      <trkpt lat="43.68776" lon="3.8823">
        <ele>130.1</ele>
        <time>2024-04-25T11:55:54.250Z</time>
      </trkpt>
      <trkpt lat="43.6878" lon="3.88237">
        <ele>129.9</ele>
        <time>2024-04-25T11:55:55.500Z</time>
      </trkpt>
      <trkpt lat="43.68783" lon="3.88245">
        <ele>129.6</ele>
        <time>2024-04-25T11:55:56.750Z</time>
      </trkpt>
      <trkpt lat="43.68786" lon="3.88252">
        <ele>129.4</ele>
        <time>2024-04-25T11:55:58.000Z</time>
      </trkpt>
      <trkpt lat="43.68789" lon="3.8826">
        <ele>129.2</ele>
        <time>2024-04-25T11:55:59.250Z</time>
      </trkpt>
      <trkpt lat="43.68793" lon="3.88267">
        <ele>128.9</ele>
        <time>2024-04-25T11:56:00.500Z</time>
      </trkpt>
      <trkpt lat="43.68796" lon="3.88275">
        <ele>128.5</ele>
        <time>2024-04-25T11:56:01.750Z</time>
      </trkpt>
      <trkpt lat="43.68799" lon="3.88282">
        <ele>127.5</ele>
        <time>2024-04-25T13:56:03+02:00</time>
      </trkpt>
      <trkpt lat="43.68802" lon="3.88294">
        <ele>125.8</ele>
        <time>2024-04-25T11:56:05.500Z</time>
      </trkpt>
      <trkpt lat="43.68805" lon="3.88306">
        <ele>124.2</ele>
        <time>2024-04-25T11:56:08.000Z</time>
      </trkpt>
      <trkpt lat="43.68807" lon="3.88317">
        <ele>123.3</ele>
        <time>2024-04-25T11:56:10.500Z</time>
      </trkpt>
      <trkpt lat="43.6881" lon="3.88329">
        <ele>122.5</ele>
        <time>2024-04-25T13:56:13+02:00</time>
      </trkpt>
      <trkpt lat="43.68817" lon="3.88331">
        <ele>121.4</ele>
        <time>2024-04-25T11:56:15.500Z</time>
      </trkpt>
      <trkpt lat="43.68824" lon="3.88333">
        <ele>120.4</ele>
        <time>2024-04-25T11:56:18.000Z</time>
      </trkpt>
      <trkpt lat="43.68831" lon="3.88335">
        <ele>119.2</ele>
        <time>2024-04-25T11:56:20.500Z</time>
      </trkpt>
      <trkpt lat="43.68838" lon="3.88337">
        <ele>118.3</ele>
        <time>2024-04-25T13:56:23+02:00</time>
      </trkpt>
      <trkpt lat="43.68845" lon="3.88338">
        <ele>117.5</ele>
        <time>2024-04-25T11:56:24.250Z</time>
      </trkpt>
      <trkpt lat="43.68852" lon="3.8834">
        <ele>116.7</ele>
        <time>2024-04-25T11:56:25.500Z</time>
      </trkpt>
      <trkpt lat="43.68858" lon="3.88341">
        <ele>116</ele>
        <time>2024-04-25T11:56:26.750Z</time>
      </trkpt>
      <trkpt lat="43.68865" lon="3.88343">
        <ele>115.5</ele>
        <time>2024-04-25T11:56:28.000Z</time>
      </trkpt>
      <trkpt lat="43.68872" lon="3.88344">
        <ele>115.2</ele>
        <time>2024-04-25T11:56:29.250Z</time>
      </trkpt>
      <trkpt lat="43.68879" lon="3.88345">
        <ele>114.9</ele>
        <time>2024-04-25T11:56:30.500Z</time>
      </trkpt>
      <trkpt lat="43.68885" lon="3.88347">
        <ele>114.7</ele>
        <time>2024-04-25T11:56:31.750Z</time>
      </trkpt>
      <trkpt lat="43.68892" lon="3.88348">
        <ele>114.4</ele>
        <time>2024-04-25T13:56:33+02:00</time>
      </trkpt>
      <trkpt lat="43.689" lon="3.88351">
        <ele>114</ele>
        <time>2024-04-25T11:56:35.500Z</time>
      </trkpt>
      <trkpt lat="43.68907" lon="3.88354">
        <ele>113.6</ele>
        <time>2024-04-25T11:56:38.000Z</time>
      </trkpt>
      <trkpt lat="43.68915" lon="3.88357">
        <ele>113.2</ele>
        <time>2024-04-25T11:56:40.500Z</time>
      </trkpt>
      <trkpt lat="43.68922" lon="3.8836">
        <ele>112.8</ele>
        <time>2024-04-25T13:56:43+02:00</time>
      </trkpt>
      <trkpt lat="43.68927" lon="3.88362">
        <ele>112.6</ele>
        <time>2024-04-25T11:56:45.500Z</time>
      </trkpt>
      <trkpt lat="43.68931" lon="3.88364">
        <ele>112.4</ele>
        <time>2024-04-25T11:56:48.000Z</time>
      </trkpt>
      <trkpt lat="43.68936" lon="3.88365">
        <ele>112.2</ele>
        <time>2024-04-25T11:56:50.500Z</time>
      </trkpt>
      <trkpt lat="43.6894" lon="3.88367">
        <ele>111.9</ele>
        <time>2024-04-25T11:56:53.000Z</time>
      </trkpt>
      <trkpt lat="43.68945" lon="3.88369">
        <ele>111.7</ele>
        <time>2024-04-25T11:56:55.500Z</time>
      </trkpt>
      <trkpt lat="43.68949" lon="3.88371">
        <ele>111.7</ele>
        <time>2024-04-25T11:56:58.000Z</time>
      </trkpt>
      <trkpt lat="43.68954" lon="3.88372">
        <ele>111.6</ele>
        <time>2024-04-25T11:57:00.500Z</time>
      </trkpt>
      <trkpt lat="43.68958" lon="3.88374">
        <ele>111.5</ele>
        <time>2024-04-25T13:57:03+02:00</time>
      </trkpt>
      <trkpt lat="43.68963" lon="3.88375">
        <ele>111.5</ele>
        <time>2024-04-25T11:57:04.250Z</time>
      </trkpt>
      <trkpt lat="43.68969" lon="3.88375">
        <ele>111.5</ele>
        <time>2024-04-25T11:57:05.500Z</time>
      </trkpt>
      <trkpt lat="43.68974" lon="3.88376">
        <ele>111.5</ele>
        <time>2024-04-25T11:57:06.750Z</time>
      </trkpt>
      <trkpt lat="43.6898" lon="3.88377">
        <ele>111.4</ele>
        <time>2024-04-25T11:57:08.000Z</time>
      </trkpt>
      <trkpt lat="43.68985" lon="3.88377">
        <ele>111.4</ele>
        <time>2024-04-25T11:57:09.250Z</time>
      </trkpt>
      <trkpt lat="43.6899" lon="3.88378">
        <ele>111.4</ele>
        <time>2024-04-25T11:57:10.500Z</time>
      </trkpt>
      <trkpt lat="43.68996" lon="3.88378">
        <ele>111.4</ele>
        <time>2024-04-25T11:57:11.750Z</time>
      </trkpt>
      <trkpt lat="43.69001" lon="3.88379">
        <ele>111.4</ele>
        <time>2024-04-25T13:57:13+02:00</time>
      </trkpt>
      <trkpt lat="43.69006" lon="3.88384">
        <ele>111.2</ele>
        <time>2024-04-25T11:57:14.250Z</time>
      </trkpt>
      <trkpt lat="43.69011" lon="3.88389">
        <ele>111</ele>
        <time>2024-04-25T11:57:15.500Z</time>
      </trkpt>
      <trkpt lat="43.69016" lon="3.88394">
        <ele>110.8</ele>
        <time>2024-04-25T11:57:16.750Z</time>
      </trkpt>
      <trkpt lat="43.69022" lon="3.884">
        <ele>110.6</ele>
        <time>2024-04-25T11:57:18.000Z</time>
      </trkpt>
      <trkpt lat="43.69027" lon="3.88405">
        <ele>110.4</ele>
        <time>2024-04-25T11:57:19.250Z</time>
      </trkpt>
      <trkpt lat="43.69032" lon="3.8841">
        <ele>110.2</ele>
        <time>2024-04-25T11:57:20.500Z</time>
      </trkpt>
      <trkpt lat="43.69037" lon="3.88415">
        <ele>110</ele>
        <time>2024-04-25T11:57:21.750Z</time>
      </trkpt>
      <trkpt lat="43.69042" lon="3.8842">
        <ele>110.1</ele>
        <time>2024-04-25T13:57:23+02:00</time>
      </trkpt>
      <trkpt lat="43.69046" lon="3.88425">
        <ele>110.1</ele>
        <time>2024-04-25T11:57:24.250Z</time>
      </trkpt>
      <trkpt lat="43.69049" lon="3.88431">
        <ele>110.1</ele>
        <time>2024-04-25T11:57:25.500Z</time>
      </trkpt>
      <trkpt lat="43.69053" lon="3.88436">
        <ele>110.1</ele>
        <time>2024-04-25T11:57:26.750Z</time>
      </trkpt>
      <trkpt lat="43.69056" lon="3.88441">
        <ele>110</ele>
        <time>2024-04-25T13:57:28+02:00</time>
      </trkpt>
      <trkpt lat="43.69061" lon="3.88446">
        <ele>109.8</ele>
        <time>2024-04-25T11:57:29.250Z</time>
      </trkpt>
      <trkpt lat="43.69066" lon="3.88452">
        <ele>109.9</ele>
        <time>2024-04-25T11:57:30.500Z</time>
      </trkpt>
      <trkpt lat="43.6907" lon="3.88457">
        <ele>110.1</ele>
        <time>2024-04-25T11:57:31.750Z</time>
      </trkpt>
      <trkpt lat="43.69075" lon="3.88462">
        <ele>110.3</ele>
        <time>2024-04-25T13:57:33+02:00</time>
      </trkpt>
      <trkpt lat="43.6908" lon="3.88465">
        <ele>110.3</ele>
        <time>2024-04-25T11:57:34.250Z</time>
      </trkpt>
      <trkpt lat="43.69085" lon="3.88467">
        <ele>110.3</ele>
        <time>2024-04-25T11:57:35.500Z</time>
      </trkpt>
      <trkpt lat="43.69089" lon="3.8847">
        <ele>110.1</ele>
        <time>2024-04-25T11:57:36.750Z</time>
      </trkpt>
      <trkpt lat="43.69094" lon="3.88473">
        <ele>109.9</ele>
        <time>2024-04-25T11:57:38.000Z</time>
      </trkpt>
      <trkpt lat="43.69099" lon="3.88475">
        <ele>109.5</ele>
        <time>2024-04-25T11:57:39.250Z</time>
      </trkpt>
      <trkpt lat="43.69104" lon="3.88478">
        <ele>109.2</ele>
        <time>2024-04-25T11:57:40.500Z</time>
      </trkpt>
      <trkpt lat="43.69108" lon="3.8848">
        <ele>108.9</ele>
        <time>2024-04-25T11:57:41.750Z</time>
      </trkpt>
      <trkpt lat="43.69113" lon="3.88483">
        <ele>108.5</ele>
        <time>2024-04-25T13:57:43+02:00</time>
      </trkpt>
      <trkpt lat="43.6912" lon="3.88489">
        <ele>107.9</ele>
        <time>2024-04-25T11:57:44.250Z</time>
      </trkpt>
      <trkpt lat="43.69127" lon="3.88494">
        <ele>107.3</ele>
        <time>2024-04-25T11:57:45.500Z</time>
      </trkpt>
      <trkpt lat="43.69134" lon="3.885">
        <ele>106.7</ele>
        <time>2024-04-25T11:57:46.750Z</time>
      </trkpt>
      <trkpt lat="43.69141" lon="3.88505">
        <ele>106.1</ele>
        <time>2024-04-25T11:57:48.000Z</time>
      </trkpt>
      <trkpt lat="43.69148" lon="3.88511">
        <ele>105.6</ele>
        <time>2024-04-25T11:57:49.250Z</time>
      </trkpt>
      <trkpt lat="43.69155" lon="3.88516">
        <ele>105.1</ele>
        <time>2024-04-25T11:57:50.500Z</time>
      </trkpt>
      <trkpt lat="43.69162" lon="3.88522">
        <ele>104.4</ele>
        <time>2024-04-25T11:57:51.750Z</time>
      </trkpt>
      <trkpt lat="43.69169" lon="3.88527">
        <ele>103.6</ele>
        <time>2024-04-25T13:57:53+02:00</time>
      </trkpt>
      <trkpt lat="43.69175" lon="3.88534">
        <ele>102.9</ele>
        <time>2024-04-25T11:57:54.250Z</time>
      </trkpt>
      <trkpt lat="43.69181" lon="3.88541">
        <ele>102.2</ele>
        <time>2024-04-25T11:57:55.500Z</time>
      </trkpt>
      <trkpt lat="43.69187" lon="3.88547">
        <ele>101.6</ele>
        <time>2024-04-25T11:57:56.750Z</time>
      </trkpt>
      <trkpt lat="43.69193" lon="3.88554">
        <ele>101.2</ele>
        <time>2024-04-25T11:57:58.000Z</time>
      </trkpt>
      <trkpt lat="43.69198" lon="3.88561">
        <ele>100.5</ele>
        <time>2024-04-25T11:57:59.250Z</time>
      </trkpt>
      <trkpt lat="43.69204" lon="3.88568">
        <ele>99.8</ele>
        <time>2024-04-25T11:58:00.500Z</time>
      </trkpt>
      <trkpt lat="43.6921" lon="3.88574">
        <ele>98.9</ele>
        <time>2024-04-25T11:58:01.750Z</time>
      </trkpt>
      <trkpt lat="43.69216" lon="3.88581">
        <ele>98</ele>
        <time>2024-04-25T13:58:03+02:00</time>
      </trkpt>
      <trkpt lat="43.69221" lon="3.88589">
        <ele>97.1</ele>
        <time>2024-04-25T11:58:04.250Z</time>
      </trkpt>
      <trkpt lat="43.69225" lon="3.88596">
        <ele>96.2</ele>
        <time>2024-04-25T11:58:05.500Z</time>
      </trkpt>
      <trkpt lat="43.6923" lon="3.88604">
        <ele>95.4</ele>
        <time>2024-04-25T11:58:06.750Z</time>
      </trkpt>
      <trkpt lat="43.69235" lon="3.88612">
        <ele>94.7</ele>
        <time>2024-04-25T11:58:08.000Z</time>
      </trkpt>
      <trkpt lat="43.69239" lon="3.88619">
        <ele>94</ele>
        <time>2024-04-25T11:58:09.250Z</time>
      </trkpt>
      <trkpt lat="43.69244" lon="3.88627">
        <ele>93.4</ele>
        <time>2024-04-25T11:58:10.500Z</time>
      </trkpt>
      <trkpt lat="43.69248" lon="3.88634">
        <ele>93.1</ele>
        <time>2024-04-25T11:58:11.750Z</time>
      </trkpt>
      <trkpt lat="43.69253" lon="3.88642">
        <ele>92.9</ele>
        <time>2024-04-25T13:58:13+02:00</time>
      </trkpt>
      <trkpt lat="43.69256" lon="3.8865">
        <ele>92.9</ele>
        <time>2024-04-25T11:58:14.250Z</time>
      </trkpt>
      <trkpt lat="43.69258" lon="3.88659">
        <ele>92.9</ele>
        <time>2024-04-25T11:58:15.500Z</time>
      </trkpt>
      <trkpt lat="43.69261" lon="3.88667">
        <ele>93</ele>
        <time>2024-04-25T11:58:16.750Z</time>
      </trkpt>
      <trkpt lat="43.69263" lon="3.88675">
        <ele>93</ele>
        <time>2024-04-25T11:58:18.000Z</time>
      </trkpt>
      <trkpt lat="43.69266" lon="3.88683">
        <ele>93.1</ele>
        <time>2024-04-25T11:58:19.250Z</time>
      </trkpt>
      <trkpt lat="43.69268" lon="3.88692">
        <ele>93.3</ele>
        <time>2024-04-25T11:58:20.500Z</time>
      </trkpt>
      <trkpt lat="43.69271" lon="3.887">
        <ele>93.7</ele>
        <time>2024-04-25T11:58:21.750Z</time>
      </trkpt>
      <trkpt lat="43.69273" lon="3.88708">
        <ele>94.1</ele>
        <time>2024-04-25T13:58:23+02:00</time>
      </trkpt>
      <trkpt lat="43.69274" lon="3.88716">
        <ele>94.5</ele>
        <time>2024-04-25T11:58:25.500Z</time>
      </trkpt>
      <trkpt lat="43.69276" lon="3.88725">
        <ele>94.9</ele>
        <time>2024-04-25T11:58:28.000Z</time>
      </trkpt>
      <trkpt lat="43.69277" lon="3.88733">
        <ele>95.3</ele>
        <time>2024-04-25T11:58:30.500Z</time>
      </trkpt>
      <trkpt lat="43.69278" lon="3.88741">
        <ele>95.7</ele>
        <time>2024-04-25T13:58:33+02:00</time>
      </trkpt>
      <trkpt lat="43.69278" lon="3.88749">
        <ele>96</ele>
        <time>2024-04-25T11:58:37.999Z</time>
      </trkpt>
      <trkpt lat="43.69278" lon="3.88758">
        <ele>96</ele>
        <time>2024-04-25T11:58:42.999Z</time>
      </trkpt>
      <trkpt lat="43.69278" lon="3.88766">
        <ele>96</ele>
        <time>2024-04-25T11:58:47.999Z</time>
      </trkpt>
      <trkpt lat="43.69278" lon="3.88774">
        <ele>96</ele>
        <time>2024-04-25T11:58:52.999Z</time>
      </trkpt>
      <trkpt lat="43.69277" lon="3.88782">
        <ele>96.1</ele>
        <time>2024-04-25T11:58:57.999Z</time>
      </trkpt>
      <trkpt lat="43.69277" lon="3.88791">
        <ele>96.4</ele>
        <time>2024-04-25T11:59:02.999Z</time>
      </trkpt>
      <trkpt lat="43.69277" lon="3.88799">
        <ele>96.7</ele>
        <time>2024-04-25T11:59:07.999Z</time>
      </trkpt>
      <trkpt lat="43.69277" lon="3.88807">
        <ele>97</ele>
        <time>2024-04-25T13:59:13+02:00</time>
      </trkpt>
      <trkpt lat="43.6928" lon="3.88813">
        <ele>97.5</ele>
        <time>2024-04-25T11:59:14.250Z</time>
      </trkpt>
      <trkpt lat="43.69282" lon="3.88819">
        <ele>98.1</ele>
        <time>2024-04-25T11:59:15.500Z</time>
      </trkpt>
      <trkpt lat="43.69285" lon="3.88825">
        <ele>98.6</ele>
        <time>2024-04-25T11:59:16.750Z</time>
      </trkpt>
      <trkpt lat="43.69288" lon="3.88832">
        <ele>99</ele>
        <time>2024-04-25T11:59:18.000Z</time>
      </trkpt>
      <trkpt lat="43.6929" lon="3.88838">
        <ele>99.3</ele>
        <time>2024-04-25T11:59:19.250Z</time>
      </trkpt>
      <trkpt lat="43.69293" lon="3.88844">
        <ele>99.4</ele>
        <time>2024-04-25T11:59:20.500Z</time>
      </trkpt>
      <trkpt lat="43.69295" lon="3.8885">
        <ele>99.5</ele>
        <time>2024-04-25T11:59:21.750Z</time>
      </trkpt>
      <trkpt lat="43.69298" lon="3.88856">
        <ele>99.6</ele>
        <time>2024-04-25T13:59:23+02:00</time>
      </trkpt>
      <trkpt lat="43.69302" lon="3.88861">
        <ele>99.7</ele>
        <time>2024-04-25T11:59:25.500Z</time>
      </trkpt>
      <trkpt lat="43.69306" lon="3.88867">
        <ele>100</ele>
        <time>2024-04-25T11:59:28.000Z</time>
      </trkpt>
      <trkpt lat="43.69309" lon="3.88872">
        <ele>100.8</ele>
        <time>2024-04-25T11:59:30.500Z</time>
      </trkpt>
      <trkpt lat="43.69313" lon="3.88877">
        <ele>101.4</ele>
        <time>2024-04-25T13:59:33+02:00</time>
      </trkpt>
      <trkpt lat="43.69318" lon="3.88881">
        <ele>102</ele>
        <time>2024-04-25T11:59:34.250Z</time>
      </trkpt>
      <trkpt lat="43.69323" lon="3.88885">
        <ele>102.3</ele>
        <time>2024-04-25T11:59:35.500Z</time>
      </trkpt>
      <trkpt lat="43.69328" lon="3.88889">
        <ele>102.4</ele>
        <time>2024-04-25T11:59:36.750Z</time>
      </trkpt>
      <trkpt lat="43.69333" lon="3.88893">
        <ele>102.6</ele>
        <time>2024-04-25T11:59:38.000Z</time>
      </trkpt>
      <trkpt lat="43.69337" lon="3.88897">
        <ele>102.9</ele>
        <time>2024-04-25T11:59:39.250Z</time>
      </trkpt>
      <trkpt lat="43.69342" lon="3.88901">
        <ele>103.1</ele>
        <time>2024-04-25T11:59:40.500Z</time>
      </trkpt>
      <trkpt lat="43.69347" lon="3.88905">
        <ele>103.2</ele>
        <time>2024-04-25T11:59:41.750Z</time>
      </trkpt>
      <trkpt lat="43.69352" lon="3.88909">
        <ele>103.3</ele>
        <time>2024-04-25T13:59:43+02:00</time>
      </trkpt>
      <trkpt lat="43.69358" lon="3.88913">
        <ele>103.2</ele>
        <time>2024-04-25T11:59:44.500Z</time>
      </trkpt>
      <trkpt lat="43.69363" lon="3.88917">
        <ele>103.3</ele>
        <time>2024-04-25T11:59:46.000Z</time>
      </trkpt>
      <trkpt lat="43.69369" lon="3.88921">
        <ele>104</ele>
        <time>2024-04-25T11:59:47.500Z</time>
      </trkpt>
      <trkpt lat="43.69374" lon="3.88925">
        <ele>104.6</ele>
        <time>2024-04-25T13:59:49+02:00</time>
      </trkpt>
      <trkpt lat="43.69382" lon="3.88932">
        <ele>105</ele>
        <time>2024-04-25T11:59:51.000Z</time>
      </trkpt>
      <trkpt lat="43.69389" lon="3.88938">
        <ele>104.9</ele>
        <time>2024-04-25T13:59:53+02:00</time>
      </trkpt>
      <trkpt lat="43.69393" lon="3.88943">
        <ele>105</ele>
        <time>2024-04-25T11:59:54.250Z</time>
      </trkpt>
      <trkpt lat="43.69397" lon="3.88947">
        <ele>105.5</ele>
        <time>2024-04-25T11:59:55.500Z</time>
      </trkpt>
      <trkpt lat="43.69401" lon="3.88952">
        <ele>106.2</ele>
        <time>2024-04-25T11:59:56.750Z</time>
      </trkpt>
      <trkpt lat="43.69406" lon="3.88957">
        <ele>106.6</ele>
        <time>2024-04-25T11:59:58.000Z</time>
      </trkpt>
      <trkpt lat="43.6941" lon="3.88961">
        <ele>107</ele>
        <time>2024-04-25T11:59:59.250Z</time>
      </trkpt>
      <trkpt lat="43.69414" lon="3.88966">
        <ele>107.2</ele>
        <time>2024-04-25T12:00:00.500Z</time>
      </trkpt>
      <trkpt lat="43.69418" lon="3.8897">
        <ele>107.4</ele>
        <time>2024-04-25T12:00:01.750Z</time>
      </trkpt>
      <trkpt lat="43.69422" lon="3.88975">
        <ele>108.2</ele>
        <time>2024-04-25T14:00:03+02:00</time>
      </trkpt>
      <trkpt lat="43.69428" lon="3.88983">
        <ele>109.2</ele>
        <time>2024-04-25T12:00:05.500Z</time>
      </trkpt>
      <trkpt lat="43.69435" lon="3.88991">
        <ele>109.8</ele>
        <time>2024-04-25T12:00:08.000Z</time>
      </trkpt>
      <trkpt lat="43.69441" lon="3.88999">
        <ele>109.8</ele>
        <time>2024-04-25T12:00:10.500Z</time>
      </trkpt>
      <trkpt lat="43.69447" lon="3.89007">
        <ele>110.5</ele>
        <time>2024-04-25T14:00:13+02:00</time>
      </trkpt>
      <trkpt lat="43.69451" lon="3.89017">
        <ele>111</ele>
        <time>2024-04-25T12:00:15.500Z</time>
      </trkpt>
      <trkpt lat="43.69455" lon="3.89027">
        <ele>111.2</ele>
        <time>2024-04-25T12:00:18.000Z</time>
      </trkpt>
      <trkpt lat="43.69459" lon="3.89036">
        <ele>111.7</ele>
        <time>2024-04-25T12:00:20.500Z</time>
      </trkpt>
      <trkpt lat="43.69463" lon="3.89046">
        <ele>112</ele>
        <time>2024-04-25T14:00:23+02:00</time>
      </trkpt>
      <trkpt lat="43.69463" lon="3.89057">
        <ele>112.1</ele>
        <time>2024-04-25T12:00:25.500Z</time>
      </trkpt>
      <trkpt lat="43.69463" lon="3.89068">
        <ele>113.2</ele>
        <time>2024-04-25T12:00:28.000Z</time>
      </trkpt>
      <trkpt lat="43.69463" lon="3.89079">
        <ele>114.2</ele>
        <time>2024-04-25T12:00:30.500Z</time>
      </trkpt>
      <trkpt lat="43.69463" lon="3.8909">
        <ele>115.1</ele>
        <time>2024-04-25T14:00:33+02:00</time>
      </trkpt>
      <trkpt lat="43.69465" lon="3.89097">
        <ele>115.4</ele>
        <time>2024-04-25T12:00:34.250Z</time>
      </trkpt>
      <trkpt lat="43.69467" lon="3.89105">
        <ele>115.6</ele>
        <time>2024-04-25T12:00:35.500Z</time>
      </trkpt>
      <trkpt lat="43.69469" lon="3.89112">
        <ele>115.7</ele>
        <time>2024-04-25T12:00:36.750Z</time>
      </trkpt>
      <trkpt lat="43.69471" lon="3.8912">
        <ele>116.2</ele>
        <time>2024-04-25T12:00:38.000Z</time>
      </trkpt>
      <trkpt lat="43.69472" lon="3.89127">
        <ele>116.7</ele>
        <time>2024-04-25T12:00:39.250Z</time>
      </trkpt>
      <trkpt lat="43.69474" lon="3.89134">
        <ele>117.4</ele>
        <time>2024-04-25T12:00:40.500Z</time>
      </trkpt>
      <trkpt lat="43.69476" lon="3.89142">
        <ele>117.8</ele>
        <time>2024-04-25T12:00:41.750Z</time>
      </trkpt>
      <trkpt lat="43.69478" lon="3.89149">
        <ele>118</ele>
        <time>2024-04-25T14:00:43+02:00</time>
      </trkpt>
      <trkpt lat="43.69482" lon="3.8916">
        <ele>118.4</ele>
        <time>2024-04-25T12:00:45.500Z</time>
      </trkpt>
      <trkpt lat="43.69486" lon="3.89172">
        <ele>118.5</ele>
        <time>2024-04-25T12:00:48.000Z</time>
      </trkpt>
      <trkpt lat="43.69489" lon="3.89183">
        <ele>118.5</ele>
        <time>2024-04-25T12:00:50.500Z</time>
      </trkpt>
      <trkpt lat="43.69493" lon="3.89194">
        <ele>118.7</ele>
        <time>2024-04-25T14:00:53+02:00</time>
      </trkpt>
      <trkpt lat="43.69497" lon="3.89197">
        <ele>118.8</ele>
        <time>2024-04-25T12:00:54.250Z</time>
      </trkpt>
      <trkpt lat="43.69501" lon="3.892">
        <ele>118.8</ele>
        <time>2024-04-25T12:00:55.500Z</time>
      </trkpt>
      <trkpt lat="43.69505" lon="3.89203">
        <ele>118.8</ele>
        <time>2024-04-25T12:00:56.750Z</time>
      </trkpt>
      <trkpt lat="43.6951" lon="3.89206">
        <ele>118.7</ele>
        <time>2024-04-25T12:00:58.000Z</time>
      </trkpt>
      <trkpt lat="43.69514" lon="3.89209">
        <ele>118.7</ele>
        <time>2024-04-25T12:00:59.250Z</time>
      </trkpt>
      <trkpt lat="43.69518" lon="3.89212">
        <ele>118.8</ele>
        <time>2024-04-25T12:01:00.500Z</time>
      </trkpt>
      <trkpt lat="43.69522" lon="3.89215">
        <ele>118.8</ele>
        <time>2024-04-25T12:01:01.750Z</time>
      </trkpt>
      <trkpt lat="43.69526" lon="3.89218">
        <ele>118.9</ele>
        <time>2024-04-25T14:01:03+02:00</time>
      </trkpt>
      <trkpt lat="43.69525" lon="3.89229">
        <ele>118.4</ele>
        <time>2024-04-25T12:01:05.249Z</time>
      </trkpt>
      <trkpt lat="43.69525" lon="3.89241">
        <ele>117.6</ele>
        <time>2024-04-25T12:01:07.499Z</time>
      </trkpt>
      <trkpt lat="43.69524" lon="3.89252">
        <ele>116.7</ele>
        <time>2024-04-25T12:01:09.749Z</time>
      </trkpt>
      <trkpt lat="43.69523" lon="3.89263">
        <ele>115.8</ele>
        <time>2024-04-25T14:01:12+02:00</time>
      </trkpt>
      <trkpt lat="43.69519" lon="3.89267">
        <ele>115.3</ele>
        <time>2024-04-25T12:01:12.874Z</time>
      </trkpt>
      <trkpt lat="43.69516" lon="3.89271">
        <ele>114.7</ele>
        <time>2024-04-25T12:01:13.749Z</time>
      </trkpt>
      <trkpt lat="43.69512" lon="3.89275">
        <ele>114.1</ele>
        <time>2024-04-25T12:01:14.624Z</time>
      </trkpt>
      <trkpt lat="43.69508" lon="3.8928">
        <ele>113.5</ele>
        <time>2024-04-25T12:01:15.499Z</time>
      </trkpt>
      <trkpt lat="43.69504" lon="3.89284">
        <ele>112.9</ele>
        <time>2024-04-25T12:01:16.374Z</time>
      </trkpt>
      <trkpt lat="43.69501" lon="3.89288">
        <ele>112.3</ele>
        <time>2024-04-25T12:01:17.249Z</time>
      </trkpt>
      <trkpt lat="43.69497" lon="3.89292">
        <ele>111.9</ele>
        <time>2024-04-25T12:01:18.124Z</time>
      </trkpt>
      <trkpt lat="43.69493" lon="3.89296">
        <ele>111.6</ele>
        <time>2024-04-25T14:01:19+02:00</time>
      </trkpt>
      <trkpt lat="43.69489" lon="3.89299">
        <ele>111.4</ele>
        <time>2024-04-25T12:01:19.874Z</time>
      </trkpt>
      <trkpt lat="43.69485" lon="3.89301">
        <ele>111.2</ele>
        <time>2024-04-25T12:01:20.749Z</time>
      </trkpt>
      <trkpt lat="43.6948" lon="3.89304">
        <ele>111.1</ele>
        <time>2024-04-25T12:01:21.624Z</time>
      </trkpt>
      <trkpt lat="43.69476" lon="3.89307">
        <ele>111</ele>
        <time>2024-04-25T12:01:22.499Z</time>
      </trkpt>
      <trkpt lat="43.69472" lon="3.89309">
        <ele>111.1</ele>
        <time>2024-04-25T12:01:23.374Z</time>
      </trkpt>
      <trkpt lat="43.69468" lon="3.89312">
        <ele>110.9</ele>
        <time>2024-04-25T12:01:24.249Z</time>
      </trkpt>
      <trkpt lat="43.69463" lon="3.89314">
        <ele>110.7</ele>
        <time>2024-04-25T12:01:25.124Z</time>
      </trkpt>
      <trkpt lat="43.69459" lon="3.89317">
        <ele>110.5</ele>
        <time>2024-04-25T12:01:25.999Z</time>
      </trkpt>
      <trkpt lat="43.69455" lon="3.8932">
        <ele>110.2</ele>
        <time>2024-04-25T12:01:26.874Z</time>
      </trkpt>
      <trkpt lat="43.69451" lon="3.89322">
        <ele>110</ele>
        <time>2024-04-25T12:01:27.749Z</time>
      </trkpt>
      <trkpt lat="43.69446" lon="3.89325">
        <ele>109.8</ele>
        <time>2024-04-25T12:01:28.624Z</time>
      </trkpt>
      <trkpt lat="43.69442" lon="3.89328">
        <ele>109.7</ele>
        <time>2024-04-25T12:01:29.499Z</time>
      </trkpt>
      <trkpt lat="43.69438" lon="3.8933">
        <ele>109.5</ele>
        <time>2024-04-25T12:01:30.374Z</time>
      </trkpt>
      <trkpt lat="43.69434" lon="3.89333">
        <ele>109.2</ele>
        <time>2024-04-25T12:01:31.249Z</time>
      </trkpt>
      <trkpt lat="43.69429" lon="3.89335">
        <ele>109.1</ele>
        <time>2024-04-25T12:01:32.124Z</time>
      </trkpt>
      <trkpt lat="43.69425" lon="3.89338">
        <ele>108.9</ele>
        <time>2024-04-25T14:01:33+02:00</time>
      </trkpt>
      <trkpt lat="43.6943" lon="3.8934">
        <ele>109.4</ele>
        <time>2024-04-25T12:01:35.500Z</time>
      </trkpt>
      <trkpt lat="43.69436" lon="3.89341">
        <ele>109.9</ele>
        <time>2024-04-25T12:01:38.000Z</time>
      </trkpt>
      <trkpt lat="43.69441" lon="3.89343">
        <ele>110.4</ele>
        <time>2024-04-25T12:01:40.500Z</time>
      </trkpt>
      <trkpt lat="43.69446" lon="3.89344">
        <ele>110.9</ele>
        <time>2024-04-25T14:01:43+02:00</time>
      </trkpt>
      <trkpt lat="43.69453" lon="3.89346">
        <ele>111.5</ele>
        <time>2024-04-25T12:01:45.500Z</time>
      </trkpt>
      <trkpt lat="43.69459" lon="3.89349">
        <ele>112.1</ele>
        <time>2024-04-25T12:01:48.000Z</time>
      </trkpt>
      <trkpt lat="43.69466" lon="3.89351">
        <ele>112.8</ele>
        <time>2024-04-25T12:01:50.500Z</time>
      </trkpt>
      <trkpt lat="43.69472" lon="3.89353">
        <ele>113.4</ele>
        <time>2024-04-25T14:01:53+02:00</time>
      </trkpt>
      <trkpt lat="43.69479" lon="3.89357">
        <ele>113.9</ele>
        <time>2024-04-25T12:01:55.500Z</time>
      </trkpt>
      <trkpt lat="43.69486" lon="3.89361">
        <ele>114.5</ele>
        <time>2024-04-25T12:01:58.000Z</time>
      </trkpt>
      <trkpt lat="43.69493" lon="3.89364">
        <ele>115.1</ele>
        <time>2024-04-25T12:02:00.500Z</time>
      </trkpt>
      <trkpt lat="43.695" lon="3.89368">
        <ele>115.7</ele>
        <time>2024-04-25T14:02:03+02:00</time>
      </trkpt>
      <trkpt lat="43.69508" lon="3.89372">
        <ele>116.1</ele>
        <time>2024-04-25T12:02:05.500Z</time>
      </trkpt>
      <trkpt lat="43.69516" lon="3.89377">
        <ele>116.4</ele>
        <time>2024-04-25T12:02:08.000Z</time>
      </trkpt>
      <trkpt lat="43.69523" lon="3.89381">
        <ele>116.5</ele>
        <time>2024-04-25T12:02:10.500Z</time>
      </trkpt>
      <trkpt lat="43.69531" lon="3.89385">
        <ele>116.6</ele>
        <time>2024-04-25T14:02:13+02:00</time>
      </trkpt>
      <trkpt lat="43.69537" lon="3.89394">
        <ele>116.7</ele>
        <time>2024-04-25T12:02:15.500Z</time>
      </trkpt>
      <trkpt lat="43.69542" lon="3.89403">
        <ele>116.2</ele>
        <time>2024-04-25T12:02:18.000Z</time>
      </trkpt>
      <trkpt lat="43.69548" lon="3.89411">
        <ele>115.4</ele>
        <time>2024-04-25T12:02:20.500Z</time>
      </trkpt>
      <trkpt lat="43.69553" lon="3.8942">
        <ele>114.6</ele>
        <time>2024-04-25T14:02:23+02:00</time>
      </trkpt>
      <trkpt lat="43.69556" lon="3.89426">
        <ele>114.6</ele>
        <time>2024-04-25T12:02:24.250Z</time>
      </trkpt>
      <trkpt lat="43.69559" lon="3.89432">
        <ele>114.6</ele>
        <time>2024-04-25T12:02:25.500Z</time>
      </trkpt>
      <trkpt lat="43.69562" lon="3.89438">
        <ele>114.5</ele>
        <time>2024-04-25T12:02:26.750Z</time>
      </trkpt>
      <trkpt lat="43.69565" lon="3.89444">
        <ele>114.3</ele>
        <time>2024-04-25T12:02:28.000Z</time>
      </trkpt>
      <trkpt lat="43.69568" lon="3.89449">
        <ele>113.9</ele>
        <time>2024-04-25T12:02:29.250Z</time>
      </trkpt>
      <trkpt lat="43.69571" lon="3.89455">
        <ele>113.6</ele>
        <time>2024-04-25T12:02:30.500Z</time>
      </trkpt>
      <trkpt lat="43.69574" lon="3.89461">
        <ele>113.3</ele>
        <time>2024-04-25T12:02:31.750Z</time>
      </trkpt>
      <trkpt lat="43.69577" lon="3.89467">
        <ele>113</ele>
        <time>2024-04-25T14:02:33+02:00</time>
      </trkpt>
      <trkpt lat="43.69583" lon="3.89476">
        <ele>112.4</ele>
        <time>2024-04-25T12:02:35.500Z</time>
      </trkpt>
      <trkpt lat="43.69588" lon="3.89485">
        <ele>112.2</ele>
        <time>2024-04-25T12:02:38.000Z</time>
      </trkpt>
      <trkpt lat="43.69594" lon="3.89494">
        <ele>111.8</ele>
        <time>2024-04-25T12:02:40.500Z</time>
      </trkpt>
      <trkpt lat="43.69599" lon="3.89503">
        <ele>111.3</ele>
        <time>2024-04-25T14:02:43+02:00</time>
      </trkpt>
      <trkpt lat="43.69601" lon="3.89512">
        <ele>111.2</ele>
        <time>2024-04-25T12:02:44.500Z</time>
      </trkpt>
      <trkpt lat="43.69603" lon="3.89521">
        <ele>111.2</ele>
        <time>2024-04-25T12:02:46.000Z</time>
      </trkpt>
      <trkpt lat="43.69605" lon="3.89529">
        <ele>111.1</ele>
        <time>2024-04-25T12:02:47.500Z</time>
      </trkpt>
      <trkpt lat="43.69607" lon="3.89538">
        <ele>110.7</ele>
        <time>2024-04-25T14:02:49+02:00</time>
      </trkpt>
      <trkpt lat="43.69609" lon="3.89544">
        <ele>110.4</ele>
        <time>2024-04-25T12:02:50.000Z</time>
      </trkpt>
      <trkpt lat="43.69611" lon="3.8955">
        <ele>110</ele>
        <time>2024-04-25T12:02:51.000Z</time>
      </trkpt>
      <trkpt lat="43.69613" lon="3.89555">
        <ele>109.6</ele>
        <time>2024-04-25T12:02:52.000Z</time>
      </trkpt>
      <trkpt lat="43.69615" lon="3.89561">
        <ele>109.3</ele>
        <time>2024-04-25T14:02:53+02:00</time>
      </trkpt>
      <trkpt lat="43.69618" lon="3.89573">
        <ele>108.8</ele>
        <time>2024-04-25T12:02:55.000Z</time>
      </trkpt>
      <trkpt lat="43.69621" lon="3.89584">
        <ele>108.2</ele>
        <time>2024-04-25T14:02:57+02:00</time>
      </trkpt>
      <trkpt lat="43.69623" lon="3.89591">
        <ele>107.8</ele>
        <time>2024-04-25T12:02:58.500Z</time>
      </trkpt>
      <trkpt lat="43.69626" lon="3.89598">
        <ele>107.4</ele>
        <time>2024-04-25T12:03:00.000Z</time>
      </trkpt>
      <trkpt lat="43.69628" lon="3.89604">
        <ele>106.9</ele>
        <time>2024-04-25T12:03:01.500Z</time>
      </trkpt>
      <trkpt lat="43.6963" lon="3.89611">
        <ele>106.6</ele>
        <time>2024-04-25T14:03:03+02:00</time>
      </trkpt>
      <trkpt lat="43.69622" lon="3.89613">
        <ele>108.8</ele>
        <time>2024-04-25T12:03:07.999Z</time>
      </trkpt>
      <trkpt lat="43.69614" lon="3.89616">
        <ele>111</ele>
        <time>2024-04-25T12:03:12.999Z</time>
      </trkpt>
      <trkpt lat="43.69606" lon="3.89618">
        <ele>112.5</ele>
        <time>2024-04-25T12:03:17.999Z</time>
      </trkpt>
      <trkpt lat="43.69598" lon="3.8962">
        <ele>113.4</ele>
        <time>2024-04-25T14:03:23+02:00</time>
      </trkpt>
      <trkpt lat="43.69592" lon="3.89617">
        <ele>114.4</ele>
        <time>2024-04-25T12:03:25.499Z</time>
      </trkpt>
      <trkpt lat="43.69586" lon="3.89615">
        <ele>115.5</ele>
        <time>2024-04-25T12:03:27.999Z</time>
      </trkpt>
      <trkpt lat="43.69579" lon="3.89612">
        <ele>116</ele>
        <time>2024-04-25T12:03:30.499Z</time>
      </trkpt>
      <trkpt lat="43.69573" lon="3.89609">
        <ele>116</ele>
        <time>2024-04-25T14:03:33+02:00</time>
      </trkpt>
      <trkpt lat="43.69565" lon="3.89614">
        <ele>115.8</ele>
        <time>2024-04-25T12:03:35.499Z</time>
      </trkpt>
      <trkpt lat="43.69557" lon="3.89618">
        <ele>115.5</ele>
        <time>2024-04-25T12:03:37.999Z</time>
      </trkpt>
      <trkpt lat="43.69548" lon="3.89623">
        <ele>114.3</ele>
        <time>2024-04-25T12:03:40.499Z</time>
      </trkpt>
      <trkpt lat="43.6954" lon="3.89627">
        <ele>112.8</ele>
        <time>2024-04-25T14:03:43+02:00</time>
      </trkpt>
      <trkpt lat="43.69536" lon="3.89633">
        <ele>111.4</ele>
        <time>2024-04-25T12:04:02.999Z</time>
      </trkpt>
      <trkpt lat="43.69532" lon="3.89639">
        <ele>109.8</ele>
        <time>2024-04-25T12:04:22.999Z</time>
      </trkpt>
      <trkpt lat="43.69528" lon="3.89645">
        <ele>108.1</ele>
        <time>2024-04-25T12:04:42.999Z</time>
      </trkpt>
      <trkpt lat="43.69524" lon="3.89651">
        <ele>106.4</ele>
        <time>2024-04-25T12:05:02.999Z</time>
      </trkpt>
      <trkpt lat="43.69519" lon="3.89656">
        <ele>104.9</ele>
        <time>2024-04-25T12:05:22.999Z</time>
      </trkpt>
      <trkpt lat="43.69515" lon="3.89662">
        <ele>103.6</ele>
        <time>2024-04-25T12:05:42.999Z</time>
      </trkpt>
      <trkpt lat="43.69511" lon="3.89668">
        <ele>102.5</ele>
        <time>2024-04-25T12:06:02.999Z</time>
      </trkpt>
      <trkpt lat="43.69507" lon="3.89674">
        <ele>101.5</ele>
        <time>2024-04-25T14:06:23+02:00</time>
      </trkpt>
      <trkpt lat="43.69506" lon="3.89682">
        <ele>100.9</ele>
        <time>2024-04-25T12:06:25.499Z</time>
      </trkpt>
      <trkpt lat="43.69504" lon="3.89691">
        <ele>100.3</ele>
        <time>2024-04-25T12:06:27.999Z</time>
      </trkpt>
      <trkpt lat="43.69503" lon="3.89699">
        <ele>100.1</ele>
        <time>2024-04-25T12:06:30.499Z</time>
      </trkpt>
      <trkpt lat="43.69501" lon="3.89707">
        <ele>100</ele>
        <time>2024-04-25T14:06:33+02:00</time>
      </trkpt>
      <trkpt lat="43.69503" lon="3.89713">
        <ele>100</ele>
        <time>2024-04-25T12:06:34.250Z</time>
      </trkpt>
      <trkpt lat="43.69504" lon="3.89719">
        <ele>99.9</ele>
        <time>2024-04-25T12:06:35.500Z</time>
      </trkpt>
      <trkpt lat="43.69506" lon="3.89725">
        <ele>99.7</ele>
        <time>2024-04-25T12:06:36.750Z</time>
      </trkpt>
      <trkpt lat="43.69507" lon="3.89731">
        <ele>99.4</ele>
        <time>2024-04-25T12:06:38.000Z</time>
      </trkpt>
      <trkpt lat="43.69509" lon="3.89736">
        <ele>99</ele>
        <time>2024-04-25T12:06:39.250Z</time>
      </trkpt>
      <trkpt lat="43.6951" lon="3.89742">
        <ele>98.7</ele>
        <time>2024-04-25T12:06:40.500Z</time>
      </trkpt>
      <trkpt lat="43.69512" lon="3.89748">
        <ele>98.3</ele>
        <time>2024-04-25T12:06:41.750Z</time>
      </trkpt>
      <trkpt lat="43.69513" lon="3.89754">
        <ele>97.9</ele>
        <time>2024-04-25T14:06:43+02:00</time>
      </trkpt>
      <trkpt lat="43.69514" lon="3.89761">
        <ele>97.4</ele>
        <time>2024-04-25T12:06:44.250Z</time>
      </trkpt>
      <trkpt lat="43.69515" lon="3.89767">
        <ele>97</ele>
        <time>2024-04-25T12:06:45.500Z</time>
      </trkpt>
      <trkpt lat="43.69516" lon="3.89774">
        <ele>96.5</ele>
        <time>2024-04-25T12:06:46.750Z</time>
      </trkpt>
      <trkpt lat="43.69517" lon="3.89781">
        <ele>96.2</ele>
        <time>2024-04-25T12:06:48.000Z</time>
      </trkpt>
      <trkpt lat="43.69518" lon="3.89787">
        <ele>96.1</ele>
        <time>2024-04-25T12:06:49.250Z</time>
      </trkpt>
      <trkpt lat="43.69519" lon="3.89794">
        <ele>95.9</ele>
        <time>2024-04-25T12:06:50.500Z</time>
      </trkpt>
      <trkpt lat="43.6952" lon="3.898">
        <ele>95.8</ele>
        <time>2024-04-25T12:06:51.750Z</time>
      </trkpt>
      <trkpt lat="43.69521" lon="3.89807">
        <ele>95.7</ele>
        <time>2024-04-25T14:06:53+02:00</time>
      </trkpt>
      <trkpt lat="43.69524" lon="3.89814">
        <ele>95.4</ele>
        <time>2024-04-25T12:06:54.250Z</time>
      </trkpt>
      <trkpt lat="43.69527" lon="3.89822">
        <ele>95.1</ele>
        <time>2024-04-25T12:06:55.500Z</time>
      </trkpt>
      <trkpt lat="43.6953" lon="3.89829">
        <ele>94.8</ele>
        <time>2024-04-25T12:06:56.750Z</time>
      </trkpt>
      <trkpt lat="43.69534" lon="3.89837">
        <ele>94.7</ele>
        <time>2024-04-25T12:06:58.000Z</time>
      </trkpt>
      <trkpt lat="43.69537" lon="3.89844">
        <ele>94.5</ele>
        <time>2024-04-25T12:06:59.250Z</time>
      </trkpt>
      <trkpt lat="43.6954" lon="3.89851">
        <ele>94.2</ele>
        <time>2024-04-25T12:07:00.500Z</time>
      </trkpt>
      <trkpt lat="43.69543" lon="3.89859">
        <ele>93.8</ele>
        <time>2024-04-25T12:07:01.750Z</time>
      </trkpt>
      <trkpt lat="43.69546" lon="3.89866">
        <ele>93.2</ele>
        <time>2024-04-25T14:07:03+02:00</time>
      </trkpt>
      <trkpt lat="43.69549" lon="3.89872">
        <ele>92.7</ele>
        <time>2024-04-25T12:07:04.250Z</time>
      </trkpt>
      <trkpt lat="43.69552" lon="3.89877">
        <ele>92.3</ele>
        <time>2024-04-25T12:07:05.500Z</time>
      </trkpt>
      <trkpt lat="43.69555" lon="3.89883">
        <ele>92</ele>
        <time>2024-04-25T12:07:06.750Z</time>
      </trkpt>
      <trkpt lat="43.69559" lon="3.89888">
        <ele>91.8</ele>
        <time>2024-04-25T12:07:08.000Z</time>
      </trkpt>
      <trkpt lat="43.69562" lon="3.89894">
        <ele>91.3</ele>
        <time>2024-04-25T12:07:09.250Z</time>
      </trkpt>
      <trkpt lat="43.69565" lon="3.89899">
        <ele>90.9</ele>
        <time>2024-04-25T12:07:10.500Z</time>
      </trkpt>
      <trkpt lat="43.69568" lon="3.89905">
        <ele>90.5</ele>
        <time>2024-04-25T12:07:11.750Z</time>
      </trkpt>
      <trkpt lat="43.69571" lon="3.8991">
        <ele>90.2</ele>
        <time>2024-04-25T14:07:13+02:00</time>
      </trkpt>
      <trkpt lat="43.69576" lon="3.89916">
        <ele>90</ele>
        <time>2024-04-25T12:07:15.500Z</time>
      </trkpt>
      <trkpt lat="43.6958" lon="3.89923">
        <ele>90</ele>
        <time>2024-04-25T12:07:18.000Z</time>
      </trkpt>
      <trkpt lat="43.69585" lon="3.89929">
        <ele>90</ele>
        <time>2024-04-25T12:07:20.500Z</time>
      </trkpt>
      <trkpt lat="43.69589" lon="3.89935">
        <ele>90.2</ele>
        <time>2024-04-25T14:07:23+02:00</time>
      </trkpt>
      <trkpt lat="43.69594" lon="3.89939">
        <ele>90.4</ele>
        <time>2024-04-25T12:07:28.000Z</time>
      </trkpt>
      <trkpt lat="43.69598" lon="3.89942">
        <ele>90.5</ele>
        <time>2024-04-25T14:07:33+02:00</time>
      </trkpt>
      <trkpt lat="43.69605" lon="3.89944">
        <ele>90.8</ele>
        <time>2024-04-25T14:07:43+02:00</time>
      </trkpt>
      <trkpt lat="43.69603" lon="3.89951">
        <ele>91</ele>
        <time>2024-04-25T12:07:52.249Z</time>
      </trkpt>
      <trkpt lat="43.69602" lon="3.89959">
        <ele>91.3</ele>
        <time>2024-04-25T12:08:01.499Z</time>
      </trkpt>
      <trkpt lat="43.696" lon="3.89966">
        <ele>91.7</ele>
        <time>2024-04-25T12:08:10.749Z</time>
      </trkpt>
      <trkpt lat="43.69598" lon="3.89973">
        <ele>92.1</ele>
        <time>2024-04-25T12:08:19.999Z</time>
      </trkpt>
      <trkpt lat="43.69596" lon="3.8998">
        <ele>92.6</ele>
        <time>2024-04-25T12:08:29.249Z</time>
      </trkpt>
      <trkpt lat="43.69595" lon="3.89988">
        <ele>93.2</ele>
        <time>2024-04-25T12:08:38.499Z</time>
      </trkpt>
      <trkpt lat="43.69593" lon="3.89995">
        <ele>93.9</ele>
        <time>2024-04-25T12:08:47.749Z</time>
      </trkpt>
      <trkpt lat="43.69591" lon="3.90002">
        <ele>94.6</ele>
        <time>2024-04-25T14:08:57+02:00</time>
      </trkpt>
      <trkpt lat="43.69592" lon="3.90011">
        <ele>94.9</ele>
        <time>2024-04-25T12:08:58.250Z</time>
      </trkpt>
      <trkpt lat="43.69593" lon="3.90019">
        <ele>95.3</ele>
        <time>2024-04-25T12:08:59.500Z</time>
      </trkpt>
      <trkpt lat="43.69593" lon="3.90028">
        <ele>95.6</ele>
        <time>2024-04-25T12:09:00.750Z</time>
      </trkpt>
      <trkpt lat="43.69594" lon="3.90037">
        <ele>95.9</ele>
        <time>2024-04-25T12:09:02.000Z</time>
      </trkpt>
      <trkpt lat="43.69595" lon="3.90045">
        <ele>96.2</ele>
        <time>2024-04-25T12:09:03.250Z</time>
      </trkpt>
      <trkpt lat="43.69596" lon="3.90054">
        <ele>96.6</ele>
        <time>2024-04-25T12:09:04.500Z</time>
      </trkpt>
      <trkpt lat="43.69596" lon="3.90062">
        <ele>97</ele>
        <time>2024-04-25T12:09:05.750Z</time>
      </trkpt>
      <trkpt lat="43.69597" lon="3.90071">
        <ele>97.4</ele>
        <time>2024-04-25T14:09:07+02:00</time>
      </trkpt>
      <trkpt lat="43.69601" lon="3.90082">
        <ele>97.5</ele>
        <time>2024-04-25T12:09:09.500Z</time>
      </trkpt>
      <trkpt lat="43.69604" lon="3.90093">
        <ele>97.7</ele>
        <time>2024-04-25T14:09:12+02:00</time>
      </trkpt>
      <trkpt lat="43.69607" lon="3.90101">
        <ele>97.9</ele>
        <time>2024-04-25T12:09:13.250Z</time>
      </trkpt>
      <trkpt lat="43.6961" lon="3.90108">
        <ele>98</ele>
        <time>2024-04-25T12:09:14.500Z</time>
      </trkpt>
      <trkpt lat="43.69612" lon="3.90116">
        <ele>98.4</ele>
        <time>2024-04-25T12:09:15.750Z</time>
      </trkpt>
      <trkpt lat="43.69615" lon="3.90123">
        <ele>98.9</ele>
        <time>2024-04-25T14:09:17+02:00</time>
      </trkpt>
      <trkpt lat="43.69618" lon="3.90133">
        <ele>99.6</ele>
        <time>2024-04-25T12:09:19.500Z</time>
      </trkpt>
      <trkpt lat="43.6962" lon="3.90143">
        <ele>100.3</ele>
        <time>2024-04-25T12:09:22.000Z</time>
      </trkpt>
      <trkpt lat="43.69623" lon="3.90153">
        <ele>101.1</ele>
        <time>2024-04-25T12:09:24.500Z</time>
      </trkpt>
      <trkpt lat="43.69625" lon="3.90163">
        <ele>101.7</ele>
        <time>2024-04-25T14:09:27+02:00</time>
      </trkpt>
      <trkpt lat="43.69625" lon="3.90175">
        <ele>102.4</ele>
        <time>2024-04-25T12:09:29.500Z</time>
      </trkpt>
      <trkpt lat="43.69626" lon="3.90187">
        <ele>103</ele>
        <time>2024-04-25T12:09:32.000Z</time>
      </trkpt>
      <trkpt lat="43.69626" lon="3.90199">
        <ele>103.8</ele>
        <time>2024-04-25T12:09:34.500Z</time>
      </trkpt>
      <trkpt lat="43.69626" lon="3.90211">
        <ele>104.9</ele>
        <time>2024-04-25T14:09:37+02:00</time>
      </trkpt>
      <trkpt lat="43.69627" lon="3.90222">
        <ele>105.7</ele>
        <time>2024-04-25T12:09:39.500Z</time>
      </trkpt>
      <trkpt lat="43.69627" lon="3.90233">
        <ele>106.5</ele>
        <time>2024-04-25T12:09:42.000Z</time>
      </trkpt>
      <trkpt lat="43.69628" lon="3.90243">
        <ele>107.3</ele>
        <time>2024-04-25T12:09:44.500Z</time>
      </trkpt>
      <trkpt lat="43.69628" lon="3.90254">
        <ele>108</ele>
        <time>2024-04-25T14:09:47+02:00</time>
      </trkpt>
      <trkpt lat="43.69635" lon="3.9026">
        <ele>108.7</ele>
        <time>2024-04-25T12:09:52.000Z</time>
      </trkpt>
      <trkpt lat="43.69642" lon="3.90267">
        <ele>110.1</ele>
        <time>2024-04-25T12:09:57.000Z</time>
      </trkpt>
      <trkpt lat="43.69649" lon="3.90273">
        <ele>111.5</ele>
        <time>2024-04-25T12:10:02.000Z</time>
      </trkpt>
      <trkpt lat="43.69656" lon="3.90279">
        <ele>112.6</ele>
        <time>2024-04-25T14:10:07+02:00</time>
      </trkpt>
      <trkpt lat="43.69663" lon="3.90283">
        <ele>112.8</ele>
        <time>2024-04-25T12:10:09.500Z</time>
      </trkpt>
      <trkpt lat="43.69669" lon="3.90287">
        <ele>113.1</ele>
        <time>2024-04-25T12:10:12.000Z</time>
      </trkpt>
      <trkpt lat="43.69676" lon="3.9029">
        <ele>113.5</ele>
        <time>2024-04-25T12:10:14.500Z</time>
      </trkpt>
      <trkpt lat="43.69682" lon="3.90294">
        <ele>113.8</ele>
        <time>2024-04-25T14:10:17+02:00</time>
      </trkpt>
      <trkpt lat="43.69686" lon="3.90301">
        <ele>113.8</ele>
        <time>2024-04-25T12:10:19.500Z</time>
      </trkpt>
      <trkpt lat="43.6969" lon="3.90308">
        <ele>113.7</ele>
        <time>2024-04-25T12:10:22.000Z</time>
      </trkpt>
      <trkpt lat="43.69694" lon="3.90314">
        <ele>113.4</ele>
        <time>2024-04-25T12:10:24.500Z</time>
      </trkpt>
      <trkpt lat="43.69698" lon="3.90321">
        <ele>112.6</ele>
        <time>2024-04-25T14:10:27+02:00</time>
      </trkpt>
      <trkpt lat="43.697" lon="3.90327">
        <ele>112.1</ele>
        <time>2024-04-25T12:10:28.250Z</time>
      </trkpt>
      <trkpt lat="43.69702" lon="3.90333">
        <ele>111.5</ele>
        <time>2024-04-25T12:10:29.500Z</time>
      </trkpt>
      <trkpt lat="43.69703" lon="3.90339">
        <ele>111.4</ele>
        <time>2024-04-25T12:10:30.750Z</time>
      </trkpt>
      <trkpt lat="43.69705" lon="3.90346">
        <ele>111.2</ele>
        <time>2024-04-25T12:10:32.000Z</time>
      </trkpt>
      <trkpt lat="43.69707" lon="3.90352">
        <ele>111.1</ele>
        <time>2024-04-25T12:10:33.250Z</time>
      </trkpt>
      <trkpt lat="43.69709" lon="3.90358">
        <ele>111</ele>
        <time>2024-04-25T12:10:34.500Z</time>
      </trkpt>
      <trkpt lat="43.6971" lon="3.90364">
        <ele>111</ele>
        <time>2024-04-25T12:10:35.750Z</time>
      </trkpt>
      <trkpt lat="43.69712" lon="3.9037">
        <ele>111.1</ele>
        <time>2024-04-25T14:10:37+02:00</time>
      </trkpt>
      <trkpt lat="43.69714" lon="3.90378">
        <ele>111.2</ele>
        <time>2024-04-25T12:10:38.250Z</time>
      </trkpt>
      <trkpt lat="43.69717" lon="3.90386">
        <ele>111.3</ele>
        <time>2024-04-25T12:10:39.500Z</time>
      </trkpt>
      <trkpt lat="43.69719" lon="3.90393">
        <ele>111.2</ele>
        <time>2024-04-25T12:10:40.750Z</time>
      </trkpt>
      <trkpt lat="43.69722" lon="3.90401">
        <ele>111.1</ele>
        <time>2024-04-25T12:10:42.000Z</time>
      </trkpt>
      <trkpt lat="43.69724" lon="3.90409">
        <ele>110.7</ele>
        <time>2024-04-25T12:10:43.250Z</time>
      </trkpt>
      <trkpt lat="43.69726" lon="3.90417">
        <ele>110.4</ele>
        <time>2024-04-25T12:10:44.500Z</time>
      </trkpt>
      <trkpt lat="43.69729" lon="3.90424">
        <ele>110.4</ele>
        <time>2024-04-25T12:10:45.750Z</time>
      </trkpt>
      <trkpt lat="43.69731" lon="3.90432">
        <ele>110.3</ele>
        <time>2024-04-25T14:10:47+02:00</time>
      </trkpt>
      <trkpt lat="43.69733" lon="3.90439">
        <ele>110.2</ele>
        <time>2024-04-25T12:10:48.250Z</time>
      </trkpt>
      <trkpt lat="43.69735" lon="3.90446">
        <ele>110.2</ele>
        <time>2024-04-25T12:10:49.500Z</time>
      </trkpt>
      <trkpt lat="43.69737" lon="3.90452">
        <ele>110.1</ele>
        <time>2024-04-25T12:10:50.750Z</time>
      </trkpt>
      <trkpt lat="43.6974" lon="3.90459">
        <ele>110</ele>
        <time>2024-04-25T12:10:52.000Z</time>
      </trkpt>
      <trkpt lat="43.69742" lon="3.90466">
        <ele>110</ele>
        <time>2024-04-25T12:10:53.250Z</time>
      </trkpt>
      <trkpt lat="43.69744" lon="3.90473">
        <ele>109.9</ele>
        <time>2024-04-25T12:10:54.500Z</time>
      </trkpt>
      <trkpt lat="43.69746" lon="3.90479">
        <ele>109.6</ele>
        <time>2024-04-25T12:10:55.750Z</time>
      </trkpt>
      <trkpt lat="43.69748" lon="3.90486">
        <ele>109.3</ele>
        <time>2024-04-25T14:10:57+02:00</time>
      </trkpt>
      <trkpt lat="43.69753" lon="3.90497">
        <ele>108.7</ele>
        <time>2024-04-25T12:10:59.500Z</time>
      </trkpt>
      <trkpt lat="43.69757" lon="3.90507">
        <ele>108.4</ele>
        <time>2024-04-25T12:11:02.000Z</time>
      </trkpt>
      <trkpt lat="43.69762" lon="3.90518">
        <ele>108.1</ele>
        <time>2024-04-25T12:11:04.500Z</time>
      </trkpt>
      <trkpt lat="43.69766" lon="3.90528">
        <ele>107.7</ele>
        <time>2024-04-25T14:11:07+02:00</time>
      </trkpt>
      <trkpt lat="43.69771" lon="3.90532">
        <ele>107.1</ele>
        <time>2024-04-25T12:11:08.250Z</time>
      </trkpt>
      <trkpt lat="43.69776" lon="3.90536">
        <ele>106.5</ele>
        <time>2024-04-25T12:11:09.500Z</time>
      </trkpt>
      <trkpt lat="43.69781" lon="3.9054">
        <ele>106.1</ele>
        <time>2024-04-25T12:11:10.750Z</time>
      </trkpt>
      <trkpt lat="43.69786" lon="3.90544">
        <ele>105.7</ele>
        <time>2024-04-25T12:11:12.000Z</time>
      </trkpt>
      <trkpt lat="43.69791" lon="3.90547">
        <ele>105.3</ele>
        <time>2024-04-25T12:11:13.250Z</time>
      </trkpt>
      <trkpt lat="43.69796" lon="3.90551">
        <ele>104.9</ele>
        <time>2024-04-25T12:11:14.500Z</time>
      </trkpt>
      <trkpt lat="43.69801" lon="3.90555">
        <ele>104.5</ele>
        <time>2024-04-25T12:11:15.750Z</time>
      </trkpt>
      <trkpt lat="43.69806" lon="3.90559">
        <ele>104</ele>
        <time>2024-04-25T14:11:17+02:00</time>
      </trkpt>
      <trkpt lat="43.69809" lon="3.90566">
        <ele>103.6</ele>
        <time>2024-04-25T12:11:19.500Z</time>
      </trkpt>
      <trkpt lat="43.69813" lon="3.90573">
        <ele>103.3</ele>
        <time>2024-04-25T12:11:22.000Z</time>
      </trkpt>
      <trkpt lat="43.69816" lon="3.90579">
        <ele>102.9</ele>
        <time>2024-04-25T12:11:24.500Z</time>
      </trkpt>
      <trkpt lat="43.69819" lon="3.90586">
        <ele>102.6</ele>
        <time>2024-04-25T14:11:27+02:00</time>
      </trkpt>
      <trkpt lat="43.69813" lon="3.9059">
        <ele>103.2</ele>
        <time>2024-04-25T12:11:29.499Z</time>
      </trkpt>
      <trkpt lat="43.69808" lon="3.90593">
        <ele>103.8</ele>
        <time>2024-04-25T12:11:31.999Z</time>
      </trkpt>
      <trkpt lat="43.69802" lon="3.90597">
        <ele>104.6</ele>
        <time>2024-04-25T12:11:34.499Z</time>
      </trkpt>
      <trkpt lat="43.69796" lon="3.906">
        <ele>105.6</ele>
        <time>2024-04-25T14:11:37+02:00</time>
      </trkpt>
      <trkpt lat="43.698" lon="3.90604">
        <ele>105</ele>
        <time>2024-04-25T12:11:38.875Z</time>
      </trkpt>
      <trkpt lat="43.69803" lon="3.90609">
        <ele>104.4</ele>
        <time>2024-04-25T12:11:40.750Z</time>
      </trkpt>
      <trkpt lat="43.69807" lon="3.90613">
        <ele>104</ele>
        <time>2024-04-25T12:11:42.625Z</time>
      </trkpt>
      <trkpt lat="43.69811" lon="3.90618">
        <ele>104.1</ele>
        <time>2024-04-25T12:11:44.500Z</time>
      </trkpt>
      <trkpt lat="43.69814" lon="3.90622">
        <ele>104</ele>
        <time>2024-04-25T12:11:46.375Z</time>
      </trkpt>
      <trkpt lat="43.69818" lon="3.90626">
        <ele>104</ele>
        <time>2024-04-25T12:11:48.250Z</time>
      </trkpt>
      <trkpt lat="43.69821" lon="3.90631">
        <ele>103.9</ele>
        <time>2024-04-25T12:11:50.125Z</time>
      </trkpt>
      <trkpt lat="43.69825" lon="3.90635">
        <ele>103.7</ele>
        <time>2024-04-25T12:11:52.000Z</time>
      </trkpt>
      <trkpt lat="43.69829" lon="3.90639">
        <ele>103.5</ele>
        <time>2024-04-25T12:11:53.875Z</time>
      </trkpt>
      <trkpt lat="43.69832" lon="3.90644">
        <ele>103.1</ele>
        <time>2024-04-25T12:11:55.750Z</time>
      </trkpt>
      <trkpt lat="43.69836" lon="3.90648">
        <ele>102.8</ele>
        <time>2024-04-25T12:11:57.625Z</time>
      </trkpt>
      <trkpt lat="43.6984" lon="3.90653">
        <ele>102.6</ele>
        <time>2024-04-25T12:11:59.500Z</time>
      </trkpt>
      <trkpt lat="43.69843" lon="3.90657">
        <ele>102.3</ele>
        <time>2024-04-25T12:12:01.375Z</time>
      </trkpt>
      <trkpt lat="43.69847" lon="3.90661">
        <ele>102</ele>
        <time>2024-04-25T12:12:03.250Z</time>
      </trkpt>
      <trkpt lat="43.6985" lon="3.90666">
        <ele>101.8</ele>
        <time>2024-04-25T12:12:05.125Z</time>
      </trkpt>
      <trkpt lat="43.69854" lon="3.9067">
        <ele>101.5</ele>
        <time>2024-04-25T14:12:07+02:00</time>
      </trkpt>
      <trkpt lat="43.6986" lon="3.90676">
        <ele>101.1</ele>
        <time>2024-04-25T12:12:08.250Z</time>
      </trkpt>
      <trkpt lat="43.69866" lon="3.90683">
        <ele>100.5</ele>
        <time>2024-04-25T12:12:09.500Z</time>
      </trkpt>
      <trkpt lat="43.69871" lon="3.90689">
        <ele>99.9</ele>
        <time>2024-04-25T12:12:10.750Z</time>
      </trkpt>
      <trkpt lat="43.69877" lon="3.90695">
        <ele>99.3</ele>
        <time>2024-04-25T12:12:12.000Z</time>
      </trkpt>
      <trkpt lat="43.69883" lon="3.90701">
        <ele>99.2</ele>
        <time>2024-04-25T12:12:13.250Z</time>
      </trkpt>
      <trkpt lat="43.69889" lon="3.90708">
        <ele>99</ele>
        <time>2024-04-25T12:12:14.500Z</time>
      </trkpt>
      <trkpt lat="43.69894" lon="3.90714">
        <ele>98.9</ele>
        <time>2024-04-25T12:12:15.750Z</time>
      </trkpt>
      <trkpt lat="43.699" lon="3.9072">
        <ele>98.7</ele>
        <time>2024-04-25T14:12:17+02:00</time>
      </trkpt>
      <trkpt lat="43.69905" lon="3.90727">
        <ele>98.3</ele>
        <time>2024-04-25T12:12:18.250Z</time>
      </trkpt>
      <trkpt lat="43.6991" lon="3.90733">
        <ele>98</ele>
        <time>2024-04-25T12:12:19.500Z</time>
      </trkpt>
      <trkpt lat="43.69915" lon="3.9074">
        <ele>97.7</ele>
        <time>2024-04-25T12:12:20.750Z</time>
      </trkpt>
      <trkpt lat="43.69921" lon="3.90747">
        <ele>97.5</ele>
        <time>2024-04-25T12:12:22.000Z</time>
      </trkpt>
      <trkpt lat="43.69926" lon="3.90753">
        <ele>97.1</ele>
        <time>2024-04-25T12:12:23.250Z</time>
      </trkpt>
      <trkpt lat="43.69931" lon="3.9076">
        <ele>96.7</ele>
        <time>2024-04-25T12:12:24.500Z</time>
      </trkpt>
      <trkpt lat="43.69936" lon="3.90766">
        <ele>96.3</ele>
        <time>2024-04-25T12:12:25.750Z</time>
      </trkpt>
      <trkpt lat="43.69941" lon="3.90773">
        <ele>96.1</ele>
        <time>2024-04-25T14:12:27+02:00</time>
      </trkpt>
      <trkpt lat="43.69944" lon="3.90779">
        <ele>96.1</ele>
        <time>2024-04-25T12:12:28.250Z</time>
      </trkpt>
      <trkpt lat="43.69948" lon="3.90786">
        <ele>96.1</ele>
        <time>2024-04-25T12:12:29.500Z</time>
      </trkpt>
      <trkpt lat="43.69951" lon="3.90792">
        <ele>96.1</ele>
        <time>2024-04-25T12:12:30.750Z</time>
      </trkpt>
      <trkpt lat="43.69954" lon="3.90798">
        <ele>96</ele>
        <time>2024-04-25T12:12:32.000Z</time>
      </trkpt>
      <trkpt lat="43.69957" lon="3.90804">
        <ele>96</ele>
        <time>2024-04-25T12:12:33.250Z</time>
      </trkpt>
      <trkpt lat="43.69961" lon="3.90811">
        <ele>95.8</ele>
        <time>2024-04-25T12:12:34.500Z</time>
      </trkpt>
      <trkpt lat="43.69964" lon="3.90817">
        <ele>95.6</ele>
        <time>2024-04-25T12:12:35.750Z</time>
      </trkpt>
      <trkpt lat="43.69967" lon="3.90823">
        <ele>95.4</ele>
        <time>2024-04-25T14:12:37+02:00</time>
      </trkpt>
      <trkpt lat="43.69972" lon="3.90828">
        <ele>95</ele>
        <time>2024-04-25T12:12:38.250Z</time>
      </trkpt>
      <trkpt lat="43.69978" lon="3.90833">
        <ele>94.8</ele>
        <time>2024-04-25T12:12:39.500Z</time>
      </trkpt>
      <trkpt lat="43.69983" lon="3.90838">
        <ele>94.7</ele>
        <time>2024-04-25T12:12:40.750Z</time>
      </trkpt>
      <trkpt lat="43.69988" lon="3.90843">
        <ele>94.6</ele>
        <time>2024-04-25T12:12:42.000Z</time>
      </trkpt>
      <trkpt lat="43.69993" lon="3.90847">
        <ele>94.4</ele>
        <time>2024-04-25T12:12:43.250Z</time>
      </trkpt>
      <trkpt lat="43.69999" lon="3.90852">
        <ele>94.1</ele>
        <time>2024-04-25T12:12:44.500Z</time>
      </trkpt>
      <trkpt lat="43.70004" lon="3.90857">
        <ele>93.7</ele>
        <time>2024-04-25T12:12:45.750Z</time>
      </trkpt>
      <trkpt lat="43.70009" lon="3.90862">
        <ele>93.4</ele>
        <time>2024-04-25T14:12:47+02:00</time>
      </trkpt>
      <trkpt lat="43.70015" lon="3.90866">
        <ele>93.1</ele>
        <time>2024-04-25T12:12:48.250Z</time>
      </trkpt>
      <trkpt lat="43.70021" lon="3.90871">
        <ele>92.8</ele>
        <time>2024-04-25T12:12:49.500Z</time>
      </trkpt>
      <trkpt lat="43.70027" lon="3.90875">
        <ele>92.6</ele>
        <time>2024-04-25T12:12:50.750Z</time>
      </trkpt>
      <trkpt lat="43.70033" lon="3.90879">
        <ele>92.4</ele>
        <time>2024-04-25T12:12:52.000Z</time>
      </trkpt>
      <trkpt lat="43.70038" lon="3.90883">
        <ele>92.1</ele>
        <time>2024-04-25T12:12:53.250Z</time>
      </trkpt>
      <trkpt lat="43.70044" lon="3.90888">
        <ele>91.8</ele>
        <time>2024-04-25T12:12:54.500Z</time>
      </trkpt>
      <trkpt lat="43.7005" lon="3.90892">
        <ele>91.5</ele>
        <time>2024-04-25T12:12:55.750Z</time>
      </trkpt>
      <trkpt lat="43.70056" lon="3.90896">
        <ele>91.2</ele>
        <time>2024-04-25T14:12:57+02:00</time>
      </trkpt>
      <trkpt lat="43.70063" lon="3.90891">
        <ele>90.8</ele>
        <time>2024-04-25T12:12:59.000Z</time>
      </trkpt>
      <trkpt lat="43.70071" lon="3.90886">
        <ele>90.4</ele>
        <time>2024-04-25T12:13:01.000Z</time>
      </trkpt>
      <trkpt lat="43.70078" lon="3.9088">
        <ele>90</ele>
        <time>2024-04-25T12:13:03.000Z</time>
      </trkpt>
      <trkpt lat="43.70085" lon="3.90875">
        <ele>89.3</ele>
        <time>2024-04-25T14:13:05+02:00</time>
      </trkpt>
      <trkpt lat="43.7009" lon="3.90876">
        <ele>88.6</ele>
        <time>2024-04-25T12:13:06.500Z</time>
      </trkpt>
      <trkpt lat="43.70095" lon="3.90878">
        <ele>87.9</ele>
        <time>2024-04-25T12:13:08.000Z</time>
      </trkpt>
      <trkpt lat="43.701" lon="3.90879">
        <ele>87.1</ele>
        <time>2024-04-25T12:13:09.500Z</time>
      </trkpt>
      <trkpt lat="43.70105" lon="3.90881">
        <ele>86.3</ele>
        <time>2024-04-25T12:13:11.000Z</time>
      </trkpt>
      <trkpt lat="43.70109" lon="3.90882">
        <ele>85.5</ele>
        <time>2024-04-25T12:13:12.500Z</time>
      </trkpt>
      <trkpt lat="43.70114" lon="3.90883">
        <ele>85.5</ele>
        <time>2024-04-25T12:13:14.000Z</time>
      </trkpt>
      <trkpt lat="43.70119" lon="3.90885">
        <ele>86</ele>
        <time>2024-04-25T12:13:15.500Z</time>
      </trkpt>
      <trkpt lat="43.70124" lon="3.90886">
        <ele>86.4</ele>
        <time>2024-04-25T14:13:17+02:00</time>
      </trkpt>
      <trkpt lat="43.7013" lon="3.90894">
        <ele>86.9</ele>
        <time>2024-04-25T12:13:19.500Z</time>
      </trkpt>
      <trkpt lat="43.70136" lon="3.90902">
        <ele>87.2</ele>
        <time>2024-04-25T12:13:22.000Z</time>
      </trkpt>
      <trkpt lat="43.70142" lon="3.90909">
        <ele>87.4</ele>
        <time>2024-04-25T12:13:24.500Z</time>
      </trkpt>
      <trkpt lat="43.70148" lon="3.90917">
        <ele>87.3</ele>
        <time>2024-04-25T14:13:27+02:00</time>
      </trkpt>
      <trkpt lat="43.70153" lon="3.90926">
        <ele>87</ele>
        <time>2024-04-25T12:13:29.500Z</time>
      </trkpt>
      <trkpt lat="43.70157" lon="3.90935">
        <ele>86.8</ele>
        <time>2024-04-25T12:13:32.000Z</time>
      </trkpt>
      <trkpt lat="43.70162" lon="3.90944">
        <ele>86.6</ele>
        <time>2024-04-25T12:13:34.500Z</time>
      </trkpt>
      <trkpt lat="43.70166" lon="3.90953">
        <ele>86.6</ele>
        <time>2024-04-25T14:13:37+02:00</time>
      </trkpt>
      <trkpt lat="43.70169" lon="3.90959">
        <ele>86.6</ele>
        <time>2024-04-25T12:13:38.250Z</time>
      </trkpt>
      <trkpt lat="43.70171" lon="3.90966">
        <ele>86.6</ele>
        <time>2024-04-25T12:13:39.500Z</time>
      </trkpt>
      <trkpt lat="43.70174" lon="3.90972">
        <ele>86.7</ele>
        <time>2024-04-25T12:13:40.750Z</time>
      </trkpt>
      <trkpt lat="43.70176" lon="3.90978">
        <ele>87.1</ele>
        <time>2024-04-25T12:13:42.000Z</time>
      </trkpt>
      <trkpt lat="43.70179" lon="3.90984">
        <ele>87.5</ele>
        <time>2024-04-25T12:13:43.250Z</time>
      </trkpt>
      <trkpt lat="43.70181" lon="3.90991">
        <ele>87.9</ele>
        <time>2024-04-25T12:13:44.500Z</time>
      </trkpt>
      <trkpt lat="43.70184" lon="3.90997">
        <ele>88.4</ele>
        <time>2024-04-25T12:13:45.750Z</time>
      </trkpt>
      <trkpt lat="43.70186" lon="3.91003">
        <ele>88.9</ele>
        <time>2024-04-25T14:13:47+02:00</time>
      </trkpt>
      <trkpt lat="43.7019" lon="3.91011">
        <ele>89.9</ele>
        <time>2024-04-25T12:13:49.500Z</time>
      </trkpt>
      <trkpt lat="43.70195" lon="3.91019">
        <ele>90.7</ele>
        <time>2024-04-25T12:13:52.000Z</time>
      </trkpt>
      <trkpt lat="43.70199" lon="3.91027">
        <ele>91.3</ele>
        <time>2024-04-25T12:13:54.500Z</time>
      </trkpt>
      <trkpt lat="43.70203" lon="3.91035">
        <ele>91.7</ele>
        <time>2024-04-25T14:13:57+02:00</time>
      </trkpt>
      <trkpt lat="43.70206" lon="3.91045">
        <ele>92.1</ele>
        <time>2024-04-25T12:13:59.500Z</time>
      </trkpt>
      <trkpt lat="43.7021" lon="3.91055">
        <ele>92.6</ele>
        <time>2024-04-25T12:14:02.000Z</time>
      </trkpt>
      <trkpt lat="43.70213" lon="3.91065">
        <ele>93</ele>
        <time>2024-04-25T12:14:04.500Z</time>
      </trkpt>
      <trkpt lat="43.70216" lon="3.91075">
        <ele>93.3</ele>
        <time>2024-04-25T14:14:07+02:00</time>
      </trkpt>
      <trkpt lat="43.70219" lon="3.91081">
        <ele>93.7</ele>
        <time>2024-04-25T12:14:08.250Z</time>
      </trkpt>
      <trkpt lat="43.70223" lon="3.91086">
        <ele>94</ele>
        <time>2024-04-25T12:14:09.500Z</time>
      </trkpt>
      <trkpt lat="43.70226" lon="3.91092">
        <ele>94.4</ele>
        <time>2024-04-25T12:14:10.750Z</time>
      </trkpt>
      <trkpt lat="43.70229" lon="3.91097">
        <ele>94.9</ele>
        <time>2024-04-25T12:14:12.000Z</time>
      </trkpt>
      <trkpt lat="43.70232" lon="3.91103">
        <ele>95.3</ele>
        <time>2024-04-25T12:14:13.250Z</time>
      </trkpt>
      <trkpt lat="43.70236" lon="3.91108">
        <ele>95.9</ele>
        <time>2024-04-25T12:14:14.500Z</time>
      </trkpt>
      <trkpt lat="43.70239" lon="3.91114">
        <ele>96.4</ele>
        <time>2024-04-25T12:14:15.750Z</time>
      </trkpt>
      <trkpt lat="43.70242" lon="3.91119">
        <ele>96.8</ele>
        <time>2024-04-25T14:14:17+02:00</time>
      </trkpt>
      <trkpt lat="43.70248" lon="3.91124">
        <ele>97.8</ele>
        <time>2024-04-25T12:14:19.500Z</time>
      </trkpt>
      <trkpt lat="43.70255" lon="3.91129">
        <ele>98.4</ele>
        <time>2024-04-25T12:14:22.000Z</time>
      </trkpt>
      <trkpt lat="43.70261" lon="3.91134">
        <ele>99.1</ele>
        <time>2024-04-25T12:14:24.500Z</time>
      </trkpt>
      <trkpt lat="43.70267" lon="3.91139">
        <ele>99.8</ele>
        <time>2024-04-25T14:14:27+02:00</time>
      </trkpt>
      <trkpt lat="43.70273" lon="3.91147">
        <ele>100.6</ele>
        <time>2024-04-25T12:14:29.500Z</time>
      </trkpt>
      <trkpt lat="43.7028" lon="3.91155">
        <ele>101.1</ele>
        <time>2024-04-25T12:14:32.000Z</time>
      </trkpt>
      <trkpt lat="43.70286" lon="3.91163">
        <ele>101.6</ele>
        <time>2024-04-25T12:14:34.500Z</time>
      </trkpt>
      <trkpt lat="43.70292" lon="3.91171">
        <ele>102</ele>
        <time>2024-04-25T14:14:37+02:00</time>
      </trkpt>
      <trkpt lat="43.70297" lon="3.91175">
        <ele>102.3</ele>
        <time>2024-04-25T12:14:39.000Z</time>
      </trkpt>
      <trkpt lat="43.70301" lon="3.91178">
        <ele>102.7</ele>
        <time>2024-04-25T14:14:41+02:00</time>
      </trkpt>
      <trkpt lat="43.70306" lon="3.91182">
        <ele>103</ele>
        <time>2024-04-25T12:14:42.500Z</time>
      </trkpt>
      <trkpt lat="43.70311" lon="3.91187">
        <ele>103.2</ele>
        <time>2024-04-25T12:14:44.000Z</time>
      </trkpt>
      <trkpt lat="43.70316" lon="3.91191">
        <ele>103.4</ele>
        <time>2024-04-25T12:14:45.500Z</time>
      </trkpt>
      <trkpt lat="43.70321" lon="3.91195">
        <ele>103.5</ele>
        <time>2024-04-25T14:14:47+02:00</time>
      </trkpt>
      <trkpt lat="43.70326" lon="3.91196">
        <ele>103.6</ele>
        <time>2024-04-25T14:14:49+02:00</time>
      </trkpt>
      <trkpt lat="43.70332" lon="3.91198">
        <ele>103.7</ele>
        <time>2024-04-25T12:14:51.000Z</time>
      </trkpt>
      <trkpt lat="43.70337" lon="3.912">
        <ele>103.5</ele>
        <time>2024-04-25T12:14:53.000Z</time>
      </trkpt>
      <trkpt lat="43.70343" lon="3.91202">
        <ele>103.1</ele>
        <time>2024-04-25T12:14:55.000Z</time>
      </trkpt>
      <trkpt lat="43.70348" lon="3.91204">
        <ele>102.8</ele>
        <time>2024-04-25T14:14:57+02:00</time>
      </trkpt>
      <trkpt lat="43.70355" lon="3.9121">
        <ele>102.1</ele>
        <time>2024-04-25T12:14:59.500Z</time>
      </trkpt>
      <trkpt lat="43.70362" lon="3.91216">
        <ele>101.4</ele>
        <time>2024-04-25T12:15:02.000Z</time>
      </trkpt>
      <trkpt lat="43.70369" lon="3.91221">
        <ele>100.8</ele>
        <time>2024-04-25T12:15:04.500Z</time>
      </trkpt>
      <trkpt lat="43.70376" lon="3.91227">
        <ele>100.1</ele>
        <time>2024-04-25T14:15:07+02:00</time>
      </trkpt>
      <trkpt lat="43.70381" lon="3.91228">
        <ele>99.9</ele>
        <time>2024-04-25T12:15:08.250Z</time>
      </trkpt>
      <trkpt lat="43.70386" lon="3.91228">
        <ele>99.7</ele>
        <time>2024-04-25T12:15:09.500Z</time>
      </trkpt>
      <trkpt lat="43.70391" lon="3.91229">
        <ele>99.4</ele>
        <time>2024-04-25T12:15:10.750Z</time>
      </trkpt>
      <trkpt lat="43.70396" lon="3.91229">
        <ele>99.1</ele>
        <time>2024-04-25T12:15:12.000Z</time>
      </trkpt>
      <trkpt lat="43.70401" lon="3.9123">
        <ele>98.7</ele>
        <time>2024-04-25T12:15:13.250Z</time>
      </trkpt>
      <trkpt lat="43.70406" lon="3.9123">
        <ele>98.4</ele>
        <time>2024-04-25T12:15:14.500Z</time>
      </trkpt>
      <trkpt lat="43.70411" lon="3.91231">
        <ele>98</ele>
        <time>2024-04-25T12:15:15.750Z</time>
      </trkpt>
      <trkpt lat="43.70416" lon="3.91231">
        <ele>97.7</ele>
        <time>2024-04-25T14:15:17+02:00</time>
      </trkpt>
      <trkpt lat="43.7042" lon="3.91233">
        <ele>97.3</ele>
        <time>2024-04-25T12:15:17.625Z</time>
      </trkpt>
      <trkpt lat="43.70425" lon="3.91236">
        <ele>96.8</ele>
        <time>2024-04-25T12:15:18.250Z</time>
      </trkpt>
      <trkpt lat="43.70429" lon="3.91238">
        <ele>96.3</ele>
        <time>2024-04-25T12:15:18.875Z</time>
      </trkpt>
      <trkpt lat="43.70434" lon="3.9124">
        <ele>95.9</ele>
        <time>2024-04-25T12:15:19.500Z</time>
      </trkpt>
      <trkpt lat="43.70438" lon="3.91242">
        <ele>95.5</ele>
        <time>2024-04-25T12:15:20.125Z</time>
      </trkpt>
      <trkpt lat="43.70442" lon="3.91245">
        <ele>95.2</ele>
        <time>2024-04-25T12:15:20.750Z</time>
      </trkpt>
      <trkpt lat="43.70447" lon="3.91247">
        <ele>94.9</ele>
        <time>2024-04-25T12:15:21.375Z</time>
      </trkpt>
      <trkpt lat="43.70451" lon="3.91249">
        <ele>94.8</ele>
        <time>2024-04-25T12:15:22.000Z</time>
      </trkpt>
      <trkpt lat="43.70455" lon="3.91251">
        <ele>94.6</ele>
        <time>2024-04-25T12:15:22.625Z</time>
      </trkpt>
      <trkpt lat="43.7046" lon="3.91254">
        <ele>94.3</ele>
        <time>2024-04-25T12:15:23.250Z</time>
      </trkpt>
      <trkpt lat="43.70464" lon="3.91256">
        <ele>94.1</ele>
        <time>2024-04-25T12:15:23.875Z</time>
      </trkpt>
      <trkpt lat="43.70469" lon="3.91258">
        <ele>93.8</ele>
        <time>2024-04-25T12:15:24.500Z</time>
      </trkpt>
      <trkpt lat="43.70473" lon="3.9126">
        <ele>93.6</ele>
        <time>2024-04-25T12:15:25.125Z</time>
      </trkpt>
      <trkpt lat="43.70477" lon="3.91263">
        <ele>93.3</ele>
        <time>2024-04-25T12:15:25.750Z</time>
      </trkpt>
      <trkpt lat="43.70482" lon="3.91265">
        <ele>93</ele>
        <time>2024-04-25T12:15:26.375Z</time>
      </trkpt>
      <trkpt lat="43.70486" lon="3.91267">
        <ele>92.7</ele>
        <time>2024-04-25T14:15:27+02:00</time>
      </trkpt>
      <trkpt lat="43.70493" lon="3.91272">
        <ele>92.3</ele>
        <time>2024-04-25T12:15:28.250Z</time>
      </trkpt>
      <trkpt lat="43.70499" lon="3.91278">
        <ele>92</ele>
        <time>2024-04-25T12:15:29.500Z</time>
      </trkpt>
      <trkpt lat="43.70506" lon="3.91283">
        <ele>91.8</ele>
        <time>2024-04-25T12:15:30.750Z</time>
      </trkpt>
      <trkpt lat="43.70512" lon="3.91289">
        <ele>91.6</ele>
        <time>2024-04-25T12:15:32.000Z</time>
      </trkpt>
      <trkpt lat="43.70519" lon="3.91294">
        <ele>91.3</ele>
        <time>2024-04-25T12:15:33.250Z</time>
      </trkpt>
      <trkpt lat="43.70525" lon="3.91299">
        <ele>91.1</ele>
        <time>2024-04-25T12:15:34.500Z</time>
      </trkpt>
      <trkpt lat="43.70532" lon="3.91305">
        <ele>90.9</ele>
        <time>2024-04-25T12:15:35.750Z</time>
      </trkpt>
      <trkpt lat="43.70538" lon="3.9131">
        <ele>90.6</ele>
        <time>2024-04-25T14:15:37+02:00</time>
      </trkpt>
      <trkpt lat="43.70544" lon="3.91315">
        <ele>90.4</ele>
        <time>2024-04-25T12:15:38.250Z</time>
      </trkpt>
      <trkpt lat="43.70549" lon="3.91319">
        <ele>90.2</ele>
        <time>2024-04-25T12:15:39.500Z</time>
      </trkpt>
      <trkpt lat="43.70555" lon="3.91324">
        <ele>90</ele>
        <time>2024-04-25T12:15:40.750Z</time>
      </trkpt>
      <trkpt lat="43.70561" lon="3.91328">
        <ele>89.8</ele>
        <time>2024-04-25T12:15:42.000Z</time>
      </trkpt>
      <trkpt lat="43.70566" lon="3.91333">
        <ele>89.6</ele>
        <time>2024-04-25T12:15:43.250Z</time>
      </trkpt>
      <trkpt lat="43.70572" lon="3.91337">
        <ele>89.3</ele>
        <time>2024-04-25T12:15:44.500Z</time>
      </trkpt>
      <trkpt lat="43.70577" lon="3.91342">
        <ele>89</ele>
        <time>2024-04-25T12:15:45.750Z</time>
      </trkpt>
      <trkpt lat="43.70583" lon="3.91346">
        <ele>88.6</ele>
        <time>2024-04-25T14:15:47+02:00</time>
      </trkpt>
      <trkpt lat="43.70588" lon="3.91349">
        <ele>88.1</ele>
        <time>2024-04-25T12:15:48.250Z</time>
      </trkpt>
      <trkpt lat="43.70594" lon="3.91351">
        <ele>87.6</ele>
        <time>2024-04-25T12:15:49.500Z</time>
      </trkpt>
      <trkpt lat="43.70599" lon="3.91354">
        <ele>87.2</ele>
        <time>2024-04-25T12:15:50.750Z</time>
      </trkpt>
      <trkpt lat="43.70604" lon="3.91356">
        <ele>86.7</ele>
        <time>2024-04-25T12:15:52.000Z</time>
      </trkpt>
      <trkpt lat="43.70609" lon="3.91359">
        <ele>86.2</ele>
        <time>2024-04-25T12:15:53.250Z</time>
      </trkpt>
      <trkpt lat="43.70615" lon="3.91361">
        <ele>85.5</ele>
        <time>2024-04-25T12:15:54.500Z</time>
      </trkpt>
      <trkpt lat="43.7062" lon="3.91364">
        <ele>84.5</ele>
        <time>2024-04-25T12:15:55.750Z</time>
      </trkpt>
      <trkpt lat="43.70625" lon="3.91366">
        <ele>83.6</ele>
        <time>2024-04-25T14:15:57+02:00</time>
      </trkpt>
      <trkpt lat="43.70629" lon="3.9137">
        <ele>82.7</ele>
        <time>2024-04-25T12:15:58.250Z</time>
      </trkpt>
      <trkpt lat="43.70633" lon="3.91373">
        <ele>82</ele>
        <time>2024-04-25T12:15:59.500Z</time>
      </trkpt>
      <trkpt lat="43.70636" lon="3.91377">
        <ele>81.2</ele>
        <time>2024-04-25T12:16:00.750Z</time>
      </trkpt>
      <trkpt lat="43.7064" lon="3.9138">
        <ele>80.6</ele>
        <time>2024-04-25T12:16:02.000Z</time>
      </trkpt>
      <trkpt lat="43.70644" lon="3.91384">
        <ele>80.4</ele>
        <time>2024-04-25T12:16:03.250Z</time>
      </trkpt>
      <trkpt lat="43.70648" lon="3.91387">
        <ele>80.1</ele>
        <time>2024-04-25T12:16:04.500Z</time>
      </trkpt>
      <trkpt lat="43.70651" lon="3.91391">
        <ele>79.9</ele>
        <time>2024-04-25T12:16:05.750Z</time>
      </trkpt>
      <trkpt lat="43.70655" lon="3.91394">
        <ele>79.7</ele>
        <time>2024-04-25T14:16:07+02:00</time>
      </trkpt>
      <trkpt lat="43.70655" lon="3.91402">
        <ele>79.3</ele>
        <time>2024-04-25T12:16:09.500Z</time>
      </trkpt>
      <trkpt lat="43.70656" lon="3.9141">
        <ele>78.9</ele>
        <time>2024-04-25T12:16:12.000Z</time>
      </trkpt>
      <trkpt lat="43.70656" lon="3.91418">
        <ele>78.8</ele>
        <time>2024-04-25T12:16:14.500Z</time>
      </trkpt>
      <trkpt lat="43.70656" lon="3.91426">
        <ele>79.7</ele>
        <time>2024-04-25T14:16:17+02:00</time>
      </trkpt>
      <trkpt lat="43.70649" lon="3.9142">
        <ele>78.7</ele>
        <time>2024-04-25T12:16:54.999Z</time>
      </trkpt>
      <trkpt lat="43.70643" lon="3.91414">
        <ele>78.3</ele>
        <time>2024-04-25T12:17:32.999Z</time>
      </trkpt>
      <trkpt lat="43.70636" lon="3.91407">
        <ele>78.9</ele>
        <time>2024-04-25T12:18:10.999Z</time>
      </trkpt>
      <trkpt lat="43.70629" lon="3.91401">
        <ele>79.9</ele>
        <time>2024-04-25T14:18:49+02:00</time>
      </trkpt>
      <trkpt lat="43.70625" lon="3.91403">
        <ele>80</ele>
        <time>2024-04-25T12:18:50.249Z</time>
      </trkpt>
      <trkpt lat="43.7062" lon="3.91405">
        <ele>80.1</ele>
        <time>2024-04-25T12:18:51.499Z</time>
      </trkpt>
      <trkpt lat="43.70616" lon="3.91407">
        <ele>80.1</ele>
        <time>2024-04-25T12:18:52.749Z</time>
      </trkpt>
      <trkpt lat="43.70612" lon="3.91409">
        <ele>80.1</ele>
        <time>2024-04-25T12:18:53.999Z</time>
      </trkpt>
      <trkpt lat="43.70607" lon="3.91411">
        <ele>80.1</ele>
        <time>2024-04-25T12:18:55.249Z</time>
      </trkpt>
      <trkpt lat="43.70603" lon="3.91413">
        <ele>80.2</ele>
        <time>2024-04-25T12:18:56.499Z</time>
      </trkpt>
      <trkpt lat="43.70598" lon="3.91415">
        <ele>80.2</ele>
        <time>2024-04-25T12:18:57.749Z</time>
      </trkpt>
      <trkpt lat="43.70594" lon="3.91417">
        <ele>80.2</ele>
        <time>2024-04-25T14:18:59+02:00</time>
      </trkpt>
      <trkpt lat="43.70588" lon="3.91418">
        <ele>80.5</ele>
        <time>2024-04-25T12:19:00.250Z</time>
      </trkpt>
      <trkpt lat="43.70582" lon="3.91418">
        <ele>80.8</ele>
        <time>2024-04-25T12:19:01.500Z</time>
      </trkpt>
      <trkpt lat="43.70576" lon="3.91419">
        <ele>80.5</ele>
        <time>2024-04-25T12:19:02.750Z</time>
      </trkpt>
      <trkpt lat="43.70571" lon="3.91419">
        <ele>80.2</ele>
        <time>2024-04-25T12:19:04.000Z</time>
      </trkpt>
      <trkpt lat="43.70565" lon="3.9142">
        <ele>80</ele>
        <time>2024-04-25T12:19:05.250Z</time>
      </trkpt>
      <trkpt lat="43.70559" lon="3.9142">
        <ele>79.7</ele>
        <time>2024-04-25T12:19:06.500Z</time>
      </trkpt>
      <trkpt lat="43.70553" lon="3.91421">
        <ele>79.5</ele>
        <time>2024-04-25T12:19:07.750Z</time>
      </trkpt>
      <trkpt lat="43.70547" lon="3.91421">
        <ele>79.3</ele>
        <time>2024-04-25T14:19:09+02:00</time>
      </trkpt>
      <trkpt lat="43.7054" lon="3.91416">
        <ele>79.5</ele>
        <time>2024-04-25T12:19:10.249Z</time>
      </trkpt>
      <trkpt lat="43.70533" lon="3.91412">
        <ele>80.1</ele>
        <time>2024-04-25T12:19:11.499Z</time>
      </trkpt>
      <trkpt lat="43.70526" lon="3.91407">
        <ele>80.6</ele>
        <time>2024-04-25T12:19:12.749Z</time>
      </trkpt>
      <trkpt lat="43.70519" lon="3.91403">
        <ele>80.9</ele>
        <time>2024-04-25T12:19:13.999Z</time>
      </trkpt>
      <trkpt lat="43.70511" lon="3.91398">
        <ele>81</ele>
        <time>2024-04-25T12:19:15.249Z</time>
      </trkpt>
      <trkpt lat="43.70504" lon="3.91393">
        <ele>80.9</ele>
        <time>2024-04-25T12:19:16.499Z</time>
      </trkpt>
      <trkpt lat="43.70497" lon="3.91389">
        <ele>81</ele>
        <time>2024-04-25T12:19:17.749Z</time>
      </trkpt>
      <trkpt lat="43.7049" lon="3.91384">
        <ele>81.9</ele>
        <time>2024-04-25T14:19:19+02:00</time>
      </trkpt>
      <trkpt lat="43.70485" lon="3.91381">
        <ele>82.5</ele>
        <time>2024-04-25T12:19:20.249Z</time>
      </trkpt>
      <trkpt lat="43.7048" lon="3.91378">
        <ele>82.9</ele>
        <time>2024-04-25T12:19:21.499Z</time>
      </trkpt>
      <trkpt lat="43.70475" lon="3.91374">
        <ele>83.3</ele>
        <time>2024-04-25T12:19:22.749Z</time>
      </trkpt>
      <trkpt lat="43.7047" lon="3.91371">
        <ele>83.6</ele>
        <time>2024-04-25T12:19:23.999Z</time>
      </trkpt>
      <trkpt lat="43.70464" lon="3.91368">
        <ele>83.8</ele>
        <time>2024-04-25T12:19:25.249Z</time>
      </trkpt>
      <trkpt lat="43.70459" lon="3.91365">
        <ele>83.9</ele>
        <time>2024-04-25T12:19:26.499Z</time>
      </trkpt>
      <trkpt lat="43.70454" lon="3.91361">
        <ele>84</ele>
        <time>2024-04-25T12:19:27.749Z</time>
      </trkpt>
      <trkpt lat="43.70449" lon="3.91358">
        <ele>84.2</ele>
        <time>2024-04-25T14:19:29+02:00</time>
      </trkpt>
      <trkpt lat="43.70443" lon="3.91357">
        <ele>84.1</ele>
        <time>2024-04-25T12:19:30.249Z</time>
      </trkpt>
      <trkpt lat="43.70436" lon="3.91355">
        <ele>84.1</ele>
        <time>2024-04-25T12:19:31.499Z</time>
      </trkpt>
      <trkpt lat="43.7043" lon="3.91354">
        <ele>84.1</ele>
        <time>2024-04-25T12:19:32.749Z</time>
      </trkpt>
      <trkpt lat="43.70423" lon="3.91352">
        <ele>84</ele>
        <time>2024-04-25T12:19:33.999Z</time>
      </trkpt>
      <trkpt lat="43.70417" lon="3.91351">
        <ele>83.9</ele>
        <time>2024-04-25T12:19:35.249Z</time>
      </trkpt>
      <trkpt lat="43.7041" lon="3.91349">
        <ele>83.8</ele>
        <time>2024-04-25T12:19:36.499Z</time>
      </trkpt>
      <trkpt lat="43.70404" lon="3.91348">
        <ele>83.7</ele>
        <time>2024-04-25T12:19:37.749Z</time>
      </trkpt>
      <trkpt lat="43.70397" lon="3.91346">
        <ele>83.6</ele>
        <time>2024-04-25T14:19:39+02:00</time>
      </trkpt>
      <trkpt lat="43.70392" lon="3.91344">
        <ele>83.7</ele>
        <time>2024-04-25T12:19:40.249Z</time>
      </trkpt>
      <trkpt lat="43.70388" lon="3.91342">
        <ele>83.8</ele>
        <time>2024-04-25T12:19:41.499Z</time>
      </trkpt>
      <trkpt lat="43.70383" lon="3.9134">
        <ele>84.1</ele>
        <time>2024-04-25T12:19:42.749Z</time>
      </trkpt>
      <trkpt lat="43.70378" lon="3.91338">
        <ele>84.4</ele>
        <time>2024-04-25T12:19:43.999Z</time>
      </trkpt>
      <trkpt lat="43.70373" lon="3.91335">
        <ele>84.7</ele>
        <time>2024-04-25T12:19:45.249Z</time>
      </trkpt>
      <trkpt lat="43.70369" lon="3.91333">
        <ele>85</ele>
        <time>2024-04-25T12:19:46.499Z</time>
      </trkpt>
      <trkpt lat="43.70364" lon="3.91331">
        <ele>85.3</ele>
        <time>2024-04-25T12:19:47.749Z</time>
      </trkpt>
      <trkpt lat="43.70359" lon="3.91329">
        <ele>85.5</ele>
        <time>2024-04-25T14:19:49+02:00</time>
      </trkpt>
      <trkpt lat="43.70353" lon="3.91327">
        <ele>85.5</ele>
        <time>2024-04-25T12:19:50.249Z</time>
      </trkpt>
      <trkpt lat="43.70348" lon="3.91326">
        <ele>85.5</ele>
        <time>2024-04-25T12:19:51.499Z</time>
      </trkpt>
      <trkpt lat="43.70342" lon="3.91324">
        <ele>85.5</ele>
        <time>2024-04-25T12:19:52.749Z</time>
      </trkpt>
      <trkpt lat="43.70337" lon="3.91322">
        <ele>85.4</ele>
        <time>2024-04-25T12:19:53.999Z</time>
      </trkpt>
      <trkpt lat="43.70331" lon="3.9132">
        <ele>85.4</ele>
        <time>2024-04-25T12:19:55.249Z</time>
      </trkpt>
      <trkpt lat="43.70325" lon="3.91319">
        <ele>85.4</ele>
        <time>2024-04-25T12:19:56.499Z</time>
      </trkpt>
      <trkpt lat="43.7032" lon="3.91317">
        <ele>85.5</ele>
        <time>2024-04-25T12:19:57.749Z</time>
      </trkpt>
      <trkpt lat="43.70314" lon="3.91315">
        <ele>85.5</ele>
        <time>2024-04-25T14:19:59+02:00</time>
      </trkpt>
      <trkpt lat="43.70309" lon="3.91315">
        <ele>85.4</ele>
        <time>2024-04-25T12:20:00.250Z</time>
      </trkpt>
      <trkpt lat="43.70305" lon="3.91314">
        <ele>85.3</ele>
        <time>2024-04-25T12:20:01.500Z</time>
      </trkpt>
      <trkpt lat="43.703" lon="3.91314">
        <ele>85.2</ele>
        <time>2024-04-25T12:20:02.750Z</time>
      </trkpt>
      <trkpt lat="43.70296" lon="3.91314">
        <ele>85.1</ele>
        <time>2024-04-25T12:20:04.000Z</time>
      </trkpt>
      <trkpt lat="43.70291" lon="3.91313">
        <ele>84.9</ele>
        <time>2024-04-25T12:20:05.250Z</time>
      </trkpt>
      <trkpt lat="43.70286" lon="3.91313">
        <ele>84.8</ele>
        <time>2024-04-25T12:20:06.500Z</time>
      </trkpt>
      <trkpt lat="43.70282" lon="3.91312">
        <ele>84.6</ele>
        <time>2024-04-25T12:20:07.750Z</time>
      </trkpt>
      <trkpt lat="43.70277" lon="3.91312">
        <ele>84.5</ele>
        <time>2024-04-25T14:20:09+02:00</time>
      </trkpt>
      <trkpt lat="43.70273" lon="3.91307">
        <ele>84.8</ele>
        <time>2024-04-25T12:20:10.999Z</time>
      </trkpt>
      <trkpt lat="43.70269" lon="3.91301">
        <ele>85</ele>
        <time>2024-04-25T14:20:13+02:00</time>
      </trkpt>
      <trkpt lat="43.70265" lon="3.91297">
        <ele>85.2</ele>
        <time>2024-04-25T12:20:13.749Z</time>
      </trkpt>
      <trkpt lat="43.70261" lon="3.91293">
        <ele>85.3</ele>
        <time>2024-04-25T12:20:14.499Z</time>
      </trkpt>
      <trkpt lat="43.70256" lon="3.91289">
        <ele>85.4</ele>
        <time>2024-04-25T12:20:15.249Z</time>
      </trkpt>
      <trkpt lat="43.70252" lon="3.91285">
        <ele>85.6</ele>
        <time>2024-04-25T12:20:15.999Z</time>
      </trkpt>
      <trkpt lat="43.70248" lon="3.9128">
        <ele>85.7</ele>
        <time>2024-04-25T12:20:16.749Z</time>
      </trkpt>
      <trkpt lat="43.70244" lon="3.91276">
        <ele>85.6</ele>
        <time>2024-04-25T12:20:17.499Z</time>
      </trkpt>
      <trkpt lat="43.70239" lon="3.91272">
        <ele>85.6</ele>
        <time>2024-04-25T12:20:18.249Z</time>
      </trkpt>
      <trkpt lat="43.70235" lon="3.91268">
        <ele>85.4</ele>
        <time>2024-04-25T14:20:19+02:00</time>
      </trkpt>
      <trkpt lat="43.7023" lon="3.91261">
        <ele>85.3</ele>
        <time>2024-04-25T12:20:20.249Z</time>
      </trkpt>
      <trkpt lat="43.70224" lon="3.91253">
        <ele>85.1</ele>
        <time>2024-04-25T12:20:21.499Z</time>
      </trkpt>
      <trkpt lat="43.70219" lon="3.91246">
        <ele>85.2</ele>
        <time>2024-04-25T12:20:22.749Z</time>
      </trkpt>
      <trkpt lat="43.70213" lon="3.91239">
        <ele>85.5</ele>
        <time>2024-04-25T12:20:23.999Z</time>
      </trkpt>
      <trkpt lat="43.70208" lon="3.91231">
        <ele>85.4</ele>
        <time>2024-04-25T12:20:25.249Z</time>
      </trkpt>
      <trkpt lat="43.70202" lon="3.91224">
        <ele>85</ele>
        <time>2024-04-25T12:20:26.499Z</time>
      </trkpt>
      <trkpt lat="43.70197" lon="3.91216">
        <ele>84.7</ele>
        <time>2024-04-25T12:20:27.749Z</time>
      </trkpt>
      <trkpt lat="43.70191" lon="3.91209">
        <ele>84.8</ele>
        <time>2024-04-25T14:20:29+02:00</time>
      </trkpt>
      <trkpt lat="43.70184" lon="3.91211">
        <ele>84.5</ele>
        <time>2024-04-25T12:20:30.999Z</time>
      </trkpt>
      <trkpt lat="43.70176" lon="3.91214">
        <ele>84.2</ele>
        <time>2024-04-25T12:20:32.999Z</time>
      </trkpt>
      <trkpt lat="43.70169" lon="3.91216">
        <ele>84</ele>
        <time>2024-04-25T12:20:34.999Z</time>
      </trkpt>
      <trkpt lat="43.70161" lon="3.91218">
        <ele>83.8</ele>
        <time>2024-04-25T14:20:37+02:00</time>
      </trkpt>
      <trkpt lat="43.70157" lon="3.9122">
        <ele>83.6</ele>
        <time>2024-04-25T12:20:37.749Z</time>
      </trkpt>
      <trkpt lat="43.70153" lon="3.91223">
        <ele>83.5</ele>
        <time>2024-04-25T12:20:38.499Z</time>
      </trkpt>
      <trkpt lat="43.70148" lon="3.91225">
        <ele>83.2</ele>
        <time>2024-04-25T12:20:39.249Z</time>
      </trkpt>
      <trkpt lat="43.70144" lon="3.91228">
        <ele>83</ele>
        <time>2024-04-25T12:20:39.999Z</time>
      </trkpt>
      <trkpt lat="43.7014" lon="3.9123">
        <ele>82.7</ele>
        <time>2024-04-25T12:20:40.749Z</time>
      </trkpt>
      <trkpt lat="43.70136" lon="3.91233">
        <ele>82.5</ele>
        <time>2024-04-25T12:20:41.499Z</time>
      </trkpt>
      <trkpt lat="43.70131" lon="3.91235">
        <ele>82.4</ele>
        <time>2024-04-25T12:20:42.249Z</time>
      </trkpt>
      <trkpt lat="43.70127" lon="3.91238">
        <ele>82.3</ele>
        <time>2024-04-25T12:20:42.999Z</time>
      </trkpt>
      <trkpt lat="43.70123" lon="3.9124">
        <ele>82.2</ele>
        <time>2024-04-25T12:20:43.749Z</time>
      </trkpt>
      <trkpt lat="43.70119" lon="3.91242">
        <ele>82.1</ele>
        <time>2024-04-25T12:20:44.499Z</time>
      </trkpt>
      <trkpt lat="43.70114" lon="3.91245">
        <ele>82</ele>
        <time>2024-04-25T12:20:45.249Z</time>
      </trkpt>
      <trkpt lat="43.7011" lon="3.91247">
        <ele>82</ele>
        <time>2024-04-25T12:20:45.999Z</time>
      </trkpt>
      <trkpt lat="43.70106" lon="3.9125">
        <ele>81.8</ele>
        <time>2024-04-25T12:20:46.749Z</time>
      </trkpt>
      <trkpt lat="43.70102" lon="3.91252">
        <ele>81.6</ele>
        <time>2024-04-25T12:20:47.499Z</time>
      </trkpt>
      <trkpt lat="43.70097" lon="3.91255">
        <ele>81.4</ele>
        <time>2024-04-25T12:20:48.249Z</time>
      </trkpt>
      <trkpt lat="43.70093" lon="3.91257">
        <ele>81.3</ele>
        <time>2024-04-25T14:20:49+02:00</time>
      </trkpt>
      <trkpt lat="43.70086" lon="3.91262">
        <ele>81.1</ele>
        <time>2024-04-25T12:20:50.249Z</time>
      </trkpt>
      <trkpt lat="43.70079" lon="3.91266">
        <ele>80.8</ele>
        <time>2024-04-25T12:20:51.499Z</time>
      </trkpt>
      <trkpt lat="43.70072" lon="3.91271">
        <ele>80.6</ele>
        <time>2024-04-25T12:20:52.749Z</time>
      </trkpt>
      <trkpt lat="43.70065" lon="3.91276">
        <ele>80.3</ele>
        <time>2024-04-25T12:20:53.999Z</time>
      </trkpt>
      <trkpt lat="43.70058" lon="3.9128">
        <ele>80</ele>
        <time>2024-04-25T12:20:55.249Z</time>
      </trkpt>
      <trkpt lat="43.70051" lon="3.91285">
        <ele>79.8</ele>
        <time>2024-04-25T12:20:56.499Z</time>
      </trkpt>
      <trkpt lat="43.70044" lon="3.91289">
        <ele>79.6</ele>
        <time>2024-04-25T12:20:57.749Z</time>
      </trkpt>
      <trkpt lat="43.70037" lon="3.91294">
        <ele>79.4</ele>
        <time>2024-04-25T14:20:59+02:00</time>
      </trkpt>
      <trkpt lat="43.69997" lon="3.91312">
        <ele>78.8</ele>
        <time>2024-04-25T12:21:34.356Z</time>
      </trkpt>
      <trkpt lat="43.69995" lon="3.91343">
        <ele>78.1</ele>
        <time>2024-04-25T12:21:53.269Z</time>
      </trkpt>
      <trkpt lat="43.69942" lon="3.9136">
        <ele>76</ele>
        <time>2024-04-25T14:22:39+02:00</time>
      </trkpt>
      <trkpt lat="43.6994" lon="3.91353">
        <ele>76.7</ele>
        <time>2024-04-25T12:22:40.249Z</time>
      </trkpt>
      <trkpt lat="43.69939" lon="3.91346">
        <ele>77.3</ele>
        <time>2024-04-25T12:22:41.499Z</time>
      </trkpt>
      <trkpt lat="43.69937" lon="3.91339">
        <ele>77.9</ele>
        <time>2024-04-25T12:22:42.749Z</time>
      </trkpt>
      <trkpt lat="43.69935" lon="3.91333">
        <ele>78.3</ele>
        <time>2024-04-25T12:22:43.999Z</time>
      </trkpt>
      <trkpt lat="43.69933" lon="3.91326">
        <ele>78.3</ele>
        <time>2024-04-25T12:22:45.249Z</time>
      </trkpt>
      <trkpt lat="43.69932" lon="3.91319">
        <ele>78.3</ele>
        <time>2024-04-25T12:22:46.499Z</time>
      </trkpt>
      <trkpt lat="43.6993" lon="3.91312">
        <ele>78.4</ele>
        <time>2024-04-25T12:22:47.749Z</time>
      </trkpt>
      <trkpt lat="43.69928" lon="3.91305">
        <ele>78.4</ele>
        <time>2024-04-25T14:22:49+02:00</time>
      </trkpt>
      <trkpt lat="43.69925" lon="3.91296">
        <ele>78.2</ele>
        <time>2024-04-25T12:22:50.249Z</time>
      </trkpt>
      <trkpt lat="43.69921" lon="3.91287">
        <ele>78</ele>
        <time>2024-04-25T12:22:51.499Z</time>
      </trkpt>
      <trkpt lat="43.69918" lon="3.91277">
        <ele>78</ele>
        <time>2024-04-25T12:22:52.749Z</time>
      </trkpt>
      <trkpt lat="43.69914" lon="3.91268">
        <ele>77.9</ele>
        <time>2024-04-25T12:22:53.999Z</time>
      </trkpt>
      <trkpt lat="43.69911" lon="3.91259">
        <ele>77.8</ele>
        <time>2024-04-25T12:22:55.249Z</time>
      </trkpt>
      <trkpt lat="43.69907" lon="3.9125">
        <ele>77.6</ele>
        <time>2024-04-25T12:22:56.499Z</time>
      </trkpt>
      <trkpt lat="43.69904" lon="3.9124">
        <ele>77.2</ele>
        <time>2024-04-25T12:22:57.749Z</time>
      </trkpt>
      <trkpt lat="43.699" lon="3.91231">
        <ele>76.7</ele>
        <time>2024-04-25T14:22:59+02:00</time>
      </trkpt>
      <trkpt lat="43.69897" lon="3.91222">
        <ele>76.3</ele>
        <time>2024-04-25T12:23:00.249Z</time>
      </trkpt>
      <trkpt lat="43.69893" lon="3.91213">
        <ele>76.2</ele>
        <time>2024-04-25T12:23:01.499Z</time>
      </trkpt>
      <trkpt lat="43.6989" lon="3.91204">
        <ele>76</ele>
        <time>2024-04-25T12:23:02.749Z</time>
      </trkpt>
      <trkpt lat="43.69887" lon="3.91195">
        <ele>75.9</ele>
        <time>2024-04-25T12:23:03.999Z</time>
      </trkpt>
      <trkpt lat="43.69883" lon="3.91185">
        <ele>75.8</ele>
        <time>2024-04-25T12:23:05.249Z</time>
      </trkpt>
      <trkpt lat="43.6988" lon="3.91176">
        <ele>75.7</ele>
        <time>2024-04-25T12:23:06.499Z</time>
      </trkpt>
      <trkpt lat="43.69876" lon="3.91167">
        <ele>75.6</ele>
        <time>2024-04-25T12:23:07.749Z</time>
      </trkpt>
      <trkpt lat="43.69873" lon="3.91158">
        <ele>75.6</ele>
        <time>2024-04-25T14:23:09+02:00</time>
      </trkpt>
      <trkpt lat="43.69868" lon="3.91152">
        <ele>75.7</ele>
        <time>2024-04-25T12:23:10.249Z</time>
      </trkpt>
      <trkpt lat="43.69863" lon="3.91145">
        <ele>75.8</ele>
        <time>2024-04-25T12:23:11.499Z</time>
      </trkpt>
      <trkpt lat="43.69858" lon="3.91139">
        <ele>75.9</ele>
        <time>2024-04-25T12:23:12.749Z</time>
      </trkpt>
      <trkpt lat="43.69854" lon="3.91132">
        <ele>76</ele>
        <time>2024-04-25T12:23:13.999Z</time>
      </trkpt>
      <trkpt lat="43.69849" lon="3.91126">
        <ele>76.2</ele>
        <time>2024-04-25T12:23:15.249Z</time>
      </trkpt>
      <trkpt lat="43.69844" lon="3.91119">
        <ele>76.5</ele>
        <time>2024-04-25T12:23:16.499Z</time>
      </trkpt>
      <trkpt lat="43.69839" lon="3.91113">
        <ele>76.9</ele>
        <time>2024-04-25T12:23:17.749Z</time>
      </trkpt>
      <trkpt lat="43.69834" lon="3.91106">
        <ele>77</ele>
        <time>2024-04-25T14:23:19+02:00</time>
      </trkpt>
      <trkpt lat="43.69829" lon="3.91099">
        <ele>76.9</ele>
        <time>2024-04-25T12:23:20.249Z</time>
      </trkpt>
      <trkpt lat="43.69824" lon="3.91092">
        <ele>76.9</ele>
        <time>2024-04-25T12:23:21.499Z</time>
      </trkpt>
      <trkpt lat="43.69819" lon="3.91085">
        <ele>77</ele>
        <time>2024-04-25T12:23:22.749Z</time>
      </trkpt>
      <trkpt lat="43.69814" lon="3.91078">
        <ele>77</ele>
        <time>2024-04-25T12:23:23.999Z</time>
      </trkpt>
      <trkpt lat="43.69809" lon="3.91071">
        <ele>77</ele>
        <time>2024-04-25T12:23:25.249Z</time>
      </trkpt>
      <trkpt lat="43.69804" lon="3.91064">
        <ele>76.9</ele>
        <time>2024-04-25T12:23:26.499Z</time>
      </trkpt>
      <trkpt lat="43.69799" lon="3.91057">
        <ele>76.8</ele>
        <time>2024-04-25T12:23:27.749Z</time>
      </trkpt>
      <trkpt lat="43.69794" lon="3.9105">
        <ele>76.7</ele>
        <time>2024-04-25T14:23:29+02:00</time>
      </trkpt>
      <trkpt lat="43.69789" lon="3.91043">
        <ele>76.7</ele>
        <time>2024-04-25T12:23:30.249Z</time>
      </trkpt>
      <trkpt lat="43.69783" lon="3.91037">
        <ele>76.7</ele>
        <time>2024-04-25T12:23:31.499Z</time>
      </trkpt>
      <trkpt lat="43.69778" lon="3.9103">
        <ele>76.9</ele>
        <time>2024-04-25T12:23:32.749Z</time>
      </trkpt>
      <trkpt lat="43.69773" lon="3.91023">
        <ele>76.5</ele>
        <time>2024-04-25T12:23:33.999Z</time>
      </trkpt>
      <trkpt lat="43.69767" lon="3.91016">
        <ele>76.1</ele>
        <time>2024-04-25T12:23:35.249Z</time>
      </trkpt>
      <trkpt lat="43.69762" lon="3.9101">
        <ele>75.9</ele>
        <time>2024-04-25T12:23:36.499Z</time>
      </trkpt>
      <trkpt lat="43.69756" lon="3.91003">
        <ele>75.9</ele>
        <time>2024-04-25T12:23:37.749Z</time>
      </trkpt>
      <trkpt lat="43.69751" lon="3.90996">
        <ele>76</ele>
        <time>2024-04-25T14:23:39+02:00</time>
      </trkpt>
      <trkpt lat="43.69745" lon="3.9099">
        <ele>75.7</ele>
        <time>2024-04-25T12:23:40.249Z</time>
      </trkpt>
      <trkpt lat="43.69738" lon="3.90984">
        <ele>75.4</ele>
        <time>2024-04-25T12:23:41.499Z</time>
      </trkpt>
      <trkpt lat="43.69732" lon="3.90978">
        <ele>75.2</ele>
        <time>2024-04-25T12:23:42.749Z</time>
      </trkpt>
      <trkpt lat="43.69726" lon="3.90972">
        <ele>75.1</ele>
        <time>2024-04-25T12:23:43.999Z</time>
      </trkpt>
      <trkpt lat="43.69719" lon="3.90966">
        <ele>74.9</ele>
        <time>2024-04-25T12:23:45.249Z</time>
      </trkpt>
      <trkpt lat="43.69713" lon="3.9096">
        <ele>74.8</ele>
        <time>2024-04-25T12:23:46.499Z</time>
      </trkpt>
      <trkpt lat="43.69706" lon="3.90954">
        <ele>74.8</ele>
        <time>2024-04-25T12:23:47.749Z</time>
      </trkpt>
      <trkpt lat="43.697" lon="3.90948">
        <ele>74.9</ele>
        <time>2024-04-25T14:23:49+02:00</time>
      </trkpt>
      <trkpt lat="43.69695" lon="3.90942">
        <ele>75</ele>
        <time>2024-04-25T12:23:50.249Z</time>
      </trkpt>
      <trkpt lat="43.6969" lon="3.90936">
        <ele>74.7</ele>
        <time>2024-04-25T12:23:51.499Z</time>
      </trkpt>
      <trkpt lat="43.69684" lon="3.9093">
        <ele>74.5</ele>
        <time>2024-04-25T12:23:52.749Z</time>
      </trkpt>
      <trkpt lat="43.69679" lon="3.90924">
        <ele>74.3</ele>
        <time>2024-04-25T12:23:53.999Z</time>
      </trkpt>
      <trkpt lat="43.69674" lon="3.90918">
        <ele>74.2</ele>
        <time>2024-04-25T12:23:55.249Z</time>
      </trkpt>
      <trkpt lat="43.69669" lon="3.90912">
        <ele>74.2</ele>
        <time>2024-04-25T12:23:56.499Z</time>
      </trkpt>
      <trkpt lat="43.69663" lon="3.90906">
        <ele>74.3</ele>
        <time>2024-04-25T12:23:57.749Z</time>
      </trkpt>
      <trkpt lat="43.69658" lon="3.909">
        <ele>74.3</ele>
        <time>2024-04-25T14:23:59+02:00</time>
      </trkpt>
      <trkpt lat="43.69652" lon="3.90895">
        <ele>74.2</ele>
        <time>2024-04-25T12:24:00.249Z</time>
      </trkpt>
      <trkpt lat="43.69646" lon="3.9089">
        <ele>74.2</ele>
        <time>2024-04-25T12:24:01.499Z</time>
      </trkpt>
      <trkpt lat="43.6964" lon="3.90885">
        <ele>74.2</ele>
        <time>2024-04-25T12:24:02.749Z</time>
      </trkpt>
      <trkpt lat="43.69634" lon="3.9088">
        <ele>74.1</ele>
        <time>2024-04-25T12:24:03.999Z</time>
      </trkpt>
      <trkpt lat="43.69627" lon="3.90875">
        <ele>74.1</ele>
        <time>2024-04-25T12:24:05.249Z</time>
      </trkpt>
      <trkpt lat="43.69621" lon="3.9087">
        <ele>74</ele>
        <time>2024-04-25T12:24:06.499Z</time>
      </trkpt>
      <trkpt lat="43.69615" lon="3.90865">
        <ele>74</ele>
        <time>2024-04-25T12:24:07.749Z</time>
      </trkpt>
      <trkpt lat="43.69609" lon="3.9086">
        <ele>74</ele>
        <time>2024-04-25T14:24:09+02:00</time>
      </trkpt>
      <trkpt lat="43.69602" lon="3.90863">
        <ele>73.6</ele>
        <time>2024-04-25T12:24:10.249Z</time>
      </trkpt>
      <trkpt lat="43.69594" lon="3.90865">
        <ele>73.2</ele>
        <time>2024-04-25T12:24:11.499Z</time>
      </trkpt>
      <trkpt lat="43.69587" lon="3.90868">
        <ele>72.9</ele>
        <time>2024-04-25T12:24:12.749Z</time>
      </trkpt>
      <trkpt lat="43.69579" lon="3.90871">
        <ele>72.6</ele>
        <time>2024-04-25T12:24:13.999Z</time>
      </trkpt>
      <trkpt lat="43.69572" lon="3.90873">
        <ele>72.3</ele>
        <time>2024-04-25T12:24:15.249Z</time>
      </trkpt>
      <trkpt lat="43.69564" lon="3.90876">
        <ele>72.1</ele>
        <time>2024-04-25T12:24:16.499Z</time>
      </trkpt>
      <trkpt lat="43.69557" lon="3.90878">
        <ele>72</ele>
        <time>2024-04-25T12:24:17.749Z</time>
      </trkpt>
      <trkpt lat="43.69549" lon="3.90881">
        <ele>72</ele>
        <time>2024-04-25T14:24:19+02:00</time>
      </trkpt>
      <trkpt lat="43.69542" lon="3.90886">
        <ele>72</ele>
        <time>2024-04-25T12:24:20.249Z</time>
      </trkpt>
      <trkpt lat="43.69535" lon="3.90891">
        <ele>72</ele>
        <time>2024-04-25T12:24:21.499Z</time>
      </trkpt>
      <trkpt lat="43.69528" lon="3.90896">
        <ele>72</ele>
        <time>2024-04-25T12:24:22.749Z</time>
      </trkpt>
      <trkpt lat="43.69521" lon="3.90902">
        <ele>72</ele>
        <time>2024-04-25T12:24:23.999Z</time>
      </trkpt>
      <trkpt lat="43.69513" lon="3.90907">
        <ele>72</ele>
        <time>2024-04-25T12:24:25.249Z</time>
      </trkpt>
      <trkpt lat="43.69506" lon="3.90912">
        <ele>72</ele>
        <time>2024-04-25T12:24:26.499Z</time>
      </trkpt>
      <trkpt lat="43.69499" lon="3.90917">
        <ele>72</ele>
        <time>2024-04-25T12:24:27.749Z</time>
      </trkpt>
      <trkpt lat="43.69492" lon="3.90922">
        <ele>71.8</ele>
        <time>2024-04-25T14:24:29+02:00</time>
      </trkpt>
      <trkpt lat="43.69486" lon="3.90929">
        <ele>71.6</ele>
        <time>2024-04-25T12:24:30.249Z</time>
      </trkpt>
      <trkpt lat="43.69479" lon="3.90936">
        <ele>71.3</ele>
        <time>2024-04-25T12:24:31.499Z</time>
      </trkpt>
      <trkpt lat="43.69473" lon="3.90943">
        <ele>71.1</ele>
        <time>2024-04-25T12:24:32.749Z</time>
      </trkpt>
      <trkpt lat="43.69466" lon="3.9095">
        <ele>71.2</ele>
        <time>2024-04-25T12:24:33.999Z</time>
      </trkpt>
      <trkpt lat="43.6946" lon="3.90956">
        <ele>71.3</ele>
        <time>2024-04-25T12:24:35.249Z</time>
      </trkpt>
      <trkpt lat="43.69453" lon="3.90963">
        <ele>71.2</ele>
        <time>2024-04-25T12:24:36.499Z</time>
      </trkpt>
      <trkpt lat="43.69447" lon="3.9097">
        <ele>71.1</ele>
        <time>2024-04-25T12:24:37.749Z</time>
      </trkpt>
      <trkpt lat="43.6944" lon="3.90977">
        <ele>71.2</ele>
        <time>2024-04-25T14:24:39+02:00</time>
      </trkpt>
      <trkpt lat="43.69434" lon="3.90983">
        <ele>71.4</ele>
        <time>2024-04-25T12:24:40.249Z</time>
      </trkpt>
      <trkpt lat="43.69429" lon="3.90988">
        <ele>71.6</ele>
        <time>2024-04-25T12:24:41.499Z</time>
      </trkpt>
      <trkpt lat="43.69423" lon="3.90994">
        <ele>71.8</ele>
        <time>2024-04-25T12:24:42.749Z</time>
      </trkpt>
      <trkpt lat="43.69417" lon="3.90999">
        <ele>72</ele>
        <time>2024-04-25T12:24:43.999Z</time>
      </trkpt>
      <trkpt lat="43.69411" lon="3.91005">
        <ele>72</ele>
        <time>2024-04-25T12:24:45.249Z</time>
      </trkpt>
      <trkpt lat="43.69406" lon="3.9101">
        <ele>72.1</ele>
        <time>2024-04-25T12:24:46.499Z</time>
      </trkpt>
      <trkpt lat="43.694" lon="3.91016">
        <ele>72.3</ele>
        <time>2024-04-25T12:24:47.749Z</time>
      </trkpt>
      <trkpt lat="43.69394" lon="3.91021">
        <ele>72.6</ele>
        <time>2024-04-25T14:24:49+02:00</time>
      </trkpt>
      <trkpt lat="43.69389" lon="3.91025">
        <ele>72.9</ele>
        <time>2024-04-25T12:24:50.249Z</time>
      </trkpt>
      <trkpt lat="43.69383" lon="3.91028">
        <ele>72.4</ele>
        <time>2024-04-25T12:24:51.499Z</time>
      </trkpt>
      <trkpt lat="43.69378" lon="3.91032">
        <ele>71.9</ele>
        <time>2024-04-25T12:24:52.749Z</time>
      </trkpt>
      <trkpt lat="43.69373" lon="3.91036">
        <ele>71.4</ele>
        <time>2024-04-25T12:24:53.999Z</time>
      </trkpt>
      <trkpt lat="43.69367" lon="3.91039">
        <ele>71</ele>
        <time>2024-04-25T12:24:55.249Z</time>
      </trkpt>
      <trkpt lat="43.69362" lon="3.91043">
        <ele>70.6</ele>
        <time>2024-04-25T12:24:56.499Z</time>
      </trkpt>
      <trkpt lat="43.69356" lon="3.91046">
        <ele>70.4</ele>
        <time>2024-04-25T12:24:57.749Z</time>
      </trkpt>
      <trkpt lat="43.69351" lon="3.9105">
        <ele>70</ele>
        <time>2024-04-25T14:24:59+02:00</time>
      </trkpt>
      <trkpt lat="43.69347" lon="3.91053">
        <ele>69.6</ele>
        <time>2024-04-25T12:25:00.249Z</time>
      </trkpt>
      <trkpt lat="43.69343" lon="3.91057">
        <ele>69</ele>
        <time>2024-04-25T12:25:01.499Z</time>
      </trkpt>
      <trkpt lat="43.69339" lon="3.9106">
        <ele>68.4</ele>
        <time>2024-04-25T12:25:02.749Z</time>
      </trkpt>
      <trkpt lat="43.69335" lon="3.91063">
        <ele>67.9</ele>
        <time>2024-04-25T12:25:03.999Z</time>
      </trkpt>
      <trkpt lat="43.69331" lon="3.91066">
        <ele>67.6</ele>
        <time>2024-04-25T12:25:05.249Z</time>
      </trkpt>
      <trkpt lat="43.69327" lon="3.9107">
        <ele>67.4</ele>
        <time>2024-04-25T12:25:06.499Z</time>
      </trkpt>
      <trkpt lat="43.69323" lon="3.91073">
        <ele>67.2</ele>
        <time>2024-04-25T12:25:07.749Z</time>
      </trkpt>
      <trkpt lat="43.69319" lon="3.91076">
        <ele>66.9</ele>
        <time>2024-04-25T14:25:09+02:00</time>
      </trkpt>
      <trkpt lat="43.69317" lon="3.91084">
        <ele>66.6</ele>
        <time>2024-04-25T14:25:19+02:00</time>
      </trkpt>
      <trkpt lat="43.69311" lon="3.91084">
        <ele>66.3</ele>
        <time>2024-04-25T12:25:22.750Z</time>
      </trkpt>
      <trkpt lat="43.69304" lon="3.91084">
        <ele>66.2</ele>
        <time>2024-04-25T12:25:26.500Z</time>
      </trkpt>
      <trkpt lat="43.69298" lon="3.91084">
        <ele>66.2</ele>
        <time>2024-04-25T12:25:30.250Z</time>
      </trkpt>
      <trkpt lat="43.69292" lon="3.91084">
        <ele>66.2</ele>
        <time>2024-04-25T12:25:34.000Z</time>
      </trkpt>
      <trkpt lat="43.69285" lon="3.91084">
        <ele>66.2</ele>
        <time>2024-04-25T12:25:37.750Z</time>
      </trkpt>
      <trkpt lat="43.69279" lon="3.91084">
        <ele>66.2</ele>
        <time>2024-04-25T12:25:41.500Z</time>
      </trkpt>
      <trkpt lat="43.69272" lon="3.91084">
        <ele>66.2</ele>
        <time>2024-04-25T12:25:45.250Z</time>
      </trkpt>
      <trkpt lat="43.69266" lon="3.91084">
        <ele>66.2</ele>
        <time>2024-04-25T14:25:49+02:00</time>
      </trkpt>
      <trkpt lat="43.69259" lon="3.91086">
        <ele>66.6</ele>
        <time>2024-04-25T12:25:50.249Z</time>
      </trkpt>
      <trkpt lat="43.69252" lon="3.91088">
        <ele>67.1</ele>
        <time>2024-04-25T12:25:51.499Z</time>
      </trkpt>
      <trkpt lat="43.69245" lon="3.9109">
        <ele>67.4</ele>
        <time>2024-04-25T12:25:52.749Z</time>
      </trkpt>
      <trkpt lat="43.69238" lon="3.91093">
        <ele>67.7</ele>
        <time>2024-04-25T12:25:53.999Z</time>
      </trkpt>
      <trkpt lat="43.6923" lon="3.91095">
        <ele>67.9</ele>
        <time>2024-04-25T12:25:55.249Z</time>
      </trkpt>
      <trkpt lat="43.69223" lon="3.91097">
        <ele>68</ele>
        <time>2024-04-25T12:25:56.499Z</time>
      </trkpt>
      <trkpt lat="43.69216" lon="3.91099">
        <ele>67.9</ele>
        <time>2024-04-25T12:25:57.749Z</time>
      </trkpt>
      <trkpt lat="43.69209" lon="3.91101">
        <ele>67.8</ele>
        <time>2024-04-25T14:25:59+02:00</time>
      </trkpt>
      <trkpt lat="43.69204" lon="3.91104">
        <ele>67.8</ele>
        <time>2024-04-25T12:26:00.249Z</time>
      </trkpt>
      <trkpt lat="43.69199" lon="3.91107">
        <ele>67.8</ele>
        <time>2024-04-25T12:26:01.499Z</time>
      </trkpt>
      <trkpt lat="43.69194" lon="3.91109">
        <ele>67.8</ele>
        <time>2024-04-25T12:26:02.749Z</time>
      </trkpt>
      <trkpt lat="43.6919" lon="3.91112">
        <ele>67.9</ele>
        <time>2024-04-25T12:26:03.999Z</time>
      </trkpt>
      <trkpt lat="43.69185" lon="3.91115">
        <ele>68</ele>
        <time>2024-04-25T12:26:05.249Z</time>
      </trkpt>
      <trkpt lat="43.6918" lon="3.91118">
        <ele>68</ele>
        <time>2024-04-25T12:26:06.499Z</time>
      </trkpt>
      <trkpt lat="43.69175" lon="3.9112">
        <ele>68</ele>
        <time>2024-04-25T12:26:07.749Z</time>
      </trkpt>
      <trkpt lat="43.6917" lon="3.91123">
        <ele>68</ele>
        <time>2024-04-25T14:26:09+02:00</time>
      </trkpt>
      <trkpt lat="43.69162" lon="3.91124">
        <ele>67.8</ele>
        <time>2024-04-25T12:26:12.000Z</time>
      </trkpt>
      <trkpt lat="43.69154" lon="3.91125">
        <ele>67.5</ele>
        <time>2024-04-25T14:26:15+02:00</time>
      </trkpt>
      <trkpt lat="43.6915" lon="3.91123">
        <ele>67.2</ele>
        <time>2024-04-25T12:26:17.000Z</time>
      </trkpt>
      <trkpt lat="43.69145" lon="3.9112">
        <ele>66.9</ele>
        <time>2024-04-25T14:26:19+02:00</time>
      </trkpt>
      <trkpt lat="43.69141" lon="3.91116">
        <ele>66.4</ele>
        <time>2024-04-25T12:26:21.499Z</time>
      </trkpt>
      <trkpt lat="43.69136" lon="3.91112">
        <ele>66.1</ele>
        <time>2024-04-25T12:26:23.999Z</time>
      </trkpt>
      <trkpt lat="43.69132" lon="3.91108">
        <ele>65.9</ele>
        <time>2024-04-25T12:26:26.499Z</time>
      </trkpt>
      <trkpt lat="43.69127" lon="3.91104">
        <ele>65.7</ele>
        <time>2024-04-25T14:26:29+02:00</time>
      </trkpt>
      <trkpt lat="43.69122" lon="3.91104">
        <ele>65.7</ele>
        <time>2024-04-25T12:26:30.250Z</time>
      </trkpt>
      <trkpt lat="43.69117" lon="3.91104">
        <ele>65.7</ele>
        <time>2024-04-25T12:26:31.500Z</time>
      </trkpt>
      <trkpt lat="43.69112" lon="3.91104">
        <ele>65.7</ele>
        <time>2024-04-25T12:26:32.750Z</time>
      </trkpt>
      <trkpt lat="43.69107" lon="3.91104">
        <ele>65.5</ele>
        <time>2024-04-25T12:26:34.000Z</time>
      </trkpt>
      <trkpt lat="43.69102" lon="3.91104">
        <ele>65.3</ele>
        <time>2024-04-25T12:26:35.250Z</time>
      </trkpt>
      <trkpt lat="43.69097" lon="3.91104">
        <ele>65</ele>
        <time>2024-04-25T12:26:36.500Z</time>
      </trkpt>
      <trkpt lat="43.69092" lon="3.91104">
        <ele>64.7</ele>
        <time>2024-04-25T12:26:37.750Z</time>
      </trkpt>
      <trkpt lat="43.69087" lon="3.91104">
        <ele>64.5</ele>
        <time>2024-04-25T14:26:39+02:00</time>
      </trkpt>
      <trkpt lat="43.69082" lon="3.91106">
        <ele>64.2</ele>
        <time>2024-04-25T12:26:40.500Z</time>
      </trkpt>
      <trkpt lat="43.69077" lon="3.91108">
        <ele>64.2</ele>
        <time>2024-04-25T14:26:42+02:00</time>
      </trkpt>
      <trkpt lat="43.69071" lon="3.9111">
        <ele>64.1</ele>
        <time>2024-04-25T12:26:42.874Z</time>
      </trkpt>
      <trkpt lat="43.69066" lon="3.91112">
        <ele>64</ele>
        <time>2024-04-25T12:26:43.749Z</time>
      </trkpt>
      <trkpt lat="43.6906" lon="3.91114">
        <ele>64.1</ele>
        <time>2024-04-25T12:26:44.624Z</time>
      </trkpt>
      <trkpt lat="43.69055" lon="3.91116">
        <ele>64.2</ele>
        <time>2024-04-25T12:26:45.499Z</time>
      </trkpt>
      <trkpt lat="43.69049" lon="3.91117">
        <ele>64.4</ele>
        <time>2024-04-25T12:26:46.374Z</time>
      </trkpt>
      <trkpt lat="43.69043" lon="3.91119">
        <ele>64.5</ele>
        <time>2024-04-25T12:26:47.249Z</time>
      </trkpt>
      <trkpt lat="43.69038" lon="3.91121">
        <ele>64.5</ele>
        <time>2024-04-25T12:26:48.124Z</time>
      </trkpt>
      <trkpt lat="43.69032" lon="3.91123">
        <ele>64.6</ele>
        <time>2024-04-25T14:26:49+02:00</time>
      </trkpt>
      <trkpt lat="43.69026" lon="3.91122">
        <ele>64.6</ele>
        <time>2024-04-25T12:26:50.250Z</time>
      </trkpt>
      <trkpt lat="43.69019" lon="3.91122">
        <ele>64.7</ele>
        <time>2024-04-25T12:26:51.500Z</time>
      </trkpt>
      <trkpt lat="43.69013" lon="3.91121">
        <ele>64.8</ele>
        <time>2024-04-25T12:26:52.750Z</time>
      </trkpt>
      <trkpt lat="43.69006" lon="3.9112">
        <ele>65</ele>
        <time>2024-04-25T12:26:54.000Z</time>
      </trkpt>
      <trkpt lat="43.69" lon="3.91119">
        <ele>65.1</ele>
        <time>2024-04-25T12:26:55.250Z</time>
      </trkpt>
      <trkpt lat="43.68993" lon="3.91119">
        <ele>65.2</ele>
        <time>2024-04-25T12:26:56.500Z</time>
      </trkpt>
      <trkpt lat="43.68987" lon="3.91118">
        <ele>65.3</ele>
        <time>2024-04-25T12:26:57.750Z</time>
      </trkpt>
      <trkpt lat="43.6898" lon="3.91117">
        <ele>65.4</ele>
        <time>2024-04-25T14:26:59+02:00</time>
      </trkpt>
      <trkpt lat="43.68975" lon="3.91115">
        <ele>65.6</ele>
        <time>2024-04-25T12:27:00.249Z</time>
      </trkpt>
      <trkpt lat="43.6897" lon="3.91113">
        <ele>65.9</ele>
        <time>2024-04-25T12:27:01.499Z</time>
      </trkpt>
      <trkpt lat="43.68965" lon="3.9111">
        <ele>66.3</ele>
        <time>2024-04-25T12:27:02.749Z</time>
      </trkpt>
      <trkpt lat="43.6896" lon="3.91108">
        <ele>66.6</ele>
        <time>2024-04-25T12:27:03.999Z</time>
      </trkpt>
      <trkpt lat="43.68955" lon="3.91106">
        <ele>66.8</ele>
        <time>2024-04-25T12:27:05.249Z</time>
      </trkpt>
      <trkpt lat="43.6895" lon="3.91104">
        <ele>66.9</ele>
        <time>2024-04-25T12:27:06.499Z</time>
      </trkpt>
      <trkpt lat="43.68945" lon="3.91101">
        <ele>67</ele>
        <time>2024-04-25T12:27:07.749Z</time>
      </trkpt>
      <trkpt lat="43.6894" lon="3.91099">
        <ele>66.7</ele>
        <time>2024-04-25T14:27:09+02:00</time>
      </trkpt>
      <trkpt lat="43.68941" lon="3.91091">
        <ele>66.8</ele>
        <time>2024-04-25T12:27:10.250Z</time>
      </trkpt>
      <trkpt lat="43.68942" lon="3.91084">
        <ele>66.9</ele>
        <time>2024-04-25T12:27:11.500Z</time>
      </trkpt>
      <trkpt lat="43.68943" lon="3.91076">
        <ele>67.2</ele>
        <time>2024-04-25T12:27:12.750Z</time>
      </trkpt>
      <trkpt lat="43.68944" lon="3.91069">
        <ele>67.5</ele>
        <time>2024-04-25T12:27:14.000Z</time>
      </trkpt>
      <trkpt lat="43.68945" lon="3.91061">
        <ele>67.8</ele>
        <time>2024-04-25T12:27:15.250Z</time>
      </trkpt>
      <trkpt lat="43.68946" lon="3.91053">
        <ele>68</ele>
        <time>2024-04-25T12:27:16.500Z</time>
      </trkpt>
      <trkpt lat="43.68947" lon="3.91046">
        <ele>68.1</ele>
        <time>2024-04-25T12:27:17.750Z</time>
      </trkpt>
      <trkpt lat="43.68948" lon="3.91038">
        <ele>68.2</ele>
        <time>2024-04-25T14:27:19+02:00</time>
      </trkpt>
      <trkpt lat="43.68949" lon="3.91031">
        <ele>68.3</ele>
        <time>2024-04-25T12:27:20.250Z</time>
      </trkpt>
      <trkpt lat="43.6895" lon="3.91024">
        <ele>68.4</ele>
        <time>2024-04-25T12:27:21.500Z</time>
      </trkpt>
      <trkpt lat="43.68951" lon="3.91017">
        <ele>68.6</ele>
        <time>2024-04-25T12:27:22.750Z</time>
      </trkpt>
      <trkpt lat="43.68952" lon="3.9101">
        <ele>68.7</ele>
        <time>2024-04-25T12:27:24.000Z</time>
      </trkpt>
      <trkpt lat="43.68953" lon="3.91002">
        <ele>68.9</ele>
        <time>2024-04-25T12:27:25.250Z</time>
      </trkpt>
      <trkpt lat="43.68954" lon="3.90995">
        <ele>69.2</ele>
        <time>2024-04-25T12:27:26.500Z</time>
      </trkpt>
      <trkpt lat="43.68955" lon="3.90988">
        <ele>69.6</ele>
        <time>2024-04-25T12:27:27.750Z</time>
      </trkpt>
      <trkpt lat="43.68956" lon="3.90981">
        <ele>69.9</ele>
        <time>2024-04-25T14:27:29+02:00</time>
      </trkpt>
      <trkpt lat="43.68958" lon="3.90973">
        <ele>70.5</ele>
        <time>2024-04-25T12:27:30.250Z</time>
      </trkpt>
      <trkpt lat="43.68961" lon="3.90966">
        <ele>70.9</ele>
        <time>2024-04-25T12:27:31.500Z</time>
      </trkpt>
      <trkpt lat="43.68963" lon="3.90958">
        <ele>71.3</ele>
        <time>2024-04-25T12:27:32.750Z</time>
      </trkpt>
      <trkpt lat="43.68965" lon="3.9095">
        <ele>71.6</ele>
        <time>2024-04-25T12:27:34.000Z</time>
      </trkpt>
      <trkpt lat="43.68967" lon="3.90942">
        <ele>71.8</ele>
        <time>2024-04-25T12:27:35.250Z</time>
      </trkpt>
      <trkpt lat="43.6897" lon="3.90935">
        <ele>71.9</ele>
        <time>2024-04-25T12:27:36.500Z</time>
      </trkpt>
      <trkpt lat="43.68972" lon="3.90927">
        <ele>72</ele>
        <time>2024-04-25T12:27:37.750Z</time>
      </trkpt>
      <trkpt lat="43.68974" lon="3.90919">
        <ele>72.2</ele>
        <time>2024-04-25T14:27:39+02:00</time>
      </trkpt>
      <trkpt lat="43.68972" lon="3.90909">
        <ele>72.3</ele>
        <time>2024-04-25T12:27:40.499Z</time>
      </trkpt>
      <trkpt lat="43.6897" lon="3.90899">
        <ele>72.6</ele>
        <time>2024-04-25T12:27:41.999Z</time>
      </trkpt>
      <trkpt lat="43.68967" lon="3.90889">
        <ele>72.8</ele>
        <time>2024-04-25T12:27:43.499Z</time>
      </trkpt>
      <trkpt lat="43.68965" lon="3.90879">
        <ele>73.4</ele>
        <time>2024-04-25T14:27:45+02:00</time>
      </trkpt>
      <trkpt lat="43.68964" lon="3.90872">
        <ele>73.8</ele>
        <time>2024-04-25T12:27:46.749Z</time>
      </trkpt>
      <trkpt lat="43.68963" lon="3.90864">
        <ele>74.1</ele>
        <time>2024-04-25T12:27:48.499Z</time>
      </trkpt>
      <trkpt lat="43.68961" lon="3.90857">
        <ele>74.4</ele>
        <time>2024-04-25T12:27:50.249Z</time>
      </trkpt>
      <trkpt lat="43.6896" lon="3.9085">
        <ele>74.8</ele>
        <time>2024-04-25T12:27:51.999Z</time>
      </trkpt>
      <trkpt lat="43.68959" lon="3.90842">
        <ele>75.1</ele>
        <time>2024-04-25T12:27:53.749Z</time>
      </trkpt>
      <trkpt lat="43.68958" lon="3.90835">
        <ele>75.3</ele>
        <time>2024-04-25T12:27:55.499Z</time>
      </trkpt>
      <trkpt lat="43.68956" lon="3.90827">
        <ele>75.5</ele>
        <time>2024-04-25T12:27:57.249Z</time>
      </trkpt>
      <trkpt lat="43.68955" lon="3.9082">
        <ele>75.6</ele>
        <time>2024-04-25T14:27:59+02:00</time>
      </trkpt>
      <trkpt lat="43.68954" lon="3.90813">
        <ele>75.8</ele>
        <time>2024-04-25T12:28:03.999Z</time>
      </trkpt>
      <trkpt lat="43.68954" lon="3.90807">
        <ele>76</ele>
        <time>2024-04-25T12:28:08.999Z</time>
      </trkpt>
      <trkpt lat="43.68953" lon="3.908">
        <ele>76.2</ele>
        <time>2024-04-25T12:28:13.999Z</time>
      </trkpt>
      <trkpt lat="43.68953" lon="3.90793">
        <ele>76.5</ele>
        <time>2024-04-25T12:28:18.999Z</time>
      </trkpt>
      <trkpt lat="43.68952" lon="3.90786">
        <ele>76.7</ele>
        <time>2024-04-25T12:28:23.999Z</time>
      </trkpt>
      <trkpt lat="43.68951" lon="3.9078">
        <ele>76.9</ele>
        <time>2024-04-25T12:28:28.999Z</time>
      </trkpt>
      <trkpt lat="43.68951" lon="3.90773">
        <ele>77.2</ele>
        <time>2024-04-25T12:28:33.999Z</time>
      </trkpt>
      <trkpt lat="43.6895" lon="3.90766">
        <ele>77.6</ele>
        <time>2024-04-25T14:28:39+02:00</time>
      </trkpt>
      <trkpt lat="43.68947" lon="3.90756">
        <ele>78</ele>
        <time>2024-04-25T12:28:40.249Z</time>
      </trkpt>
      <trkpt lat="43.68945" lon="3.90745">
        <ele>78.4</ele>
        <time>2024-04-25T12:28:41.499Z</time>
      </trkpt>
      <trkpt lat="43.68942" lon="3.90735">
        <ele>79</ele>
        <time>2024-04-25T12:28:42.749Z</time>
      </trkpt>
      <trkpt lat="43.68939" lon="3.90725">
        <ele>79.5</ele>
        <time>2024-04-25T12:28:43.999Z</time>
      </trkpt>
      <trkpt lat="43.68936" lon="3.90714">
        <ele>79.7</ele>
        <time>2024-04-25T12:28:45.249Z</time>
      </trkpt>
      <trkpt lat="43.68934" lon="3.90704">
        <ele>79.9</ele>
        <time>2024-04-25T12:28:46.499Z</time>
      </trkpt>
      <trkpt lat="43.68931" lon="3.90693">
        <ele>80</ele>
        <time>2024-04-25T12:28:47.749Z</time>
      </trkpt>
      <trkpt lat="43.68928" lon="3.90683">
        <ele>80.2</ele>
        <time>2024-04-25T14:28:49+02:00</time>
      </trkpt>
      <trkpt lat="43.68926" lon="3.90673">
        <ele>80.2</ele>
        <time>2024-04-25T12:28:50.249Z</time>
      </trkpt>
      <trkpt lat="43.68925" lon="3.90663">
        <ele>80.4</ele>
        <time>2024-04-25T12:28:51.499Z</time>
      </trkpt>
      <trkpt lat="43.68923" lon="3.90652">
        <ele>80.9</ele>
        <time>2024-04-25T12:28:52.749Z</time>
      </trkpt>
      <trkpt lat="43.68921" lon="3.90642">
        <ele>81.4</ele>
        <time>2024-04-25T12:28:53.999Z</time>
      </trkpt>
      <trkpt lat="43.68919" lon="3.90632">
        <ele>81.9</ele>
        <time>2024-04-25T12:28:55.249Z</time>
      </trkpt>
      <trkpt lat="43.68918" lon="3.90622">
        <ele>82.4</ele>
        <time>2024-04-25T12:28:56.499Z</time>
      </trkpt>
      <trkpt lat="43.68916" lon="3.90611">
        <ele>83</ele>
        <time>2024-04-25T12:28:57.749Z</time>
      </trkpt>
      <trkpt lat="43.68914" lon="3.90601">
        <ele>83.6</ele>
        <time>2024-04-25T14:28:59+02:00</time>
      </trkpt>
      <trkpt lat="43.68911" lon="3.90593">
        <ele>84.1</ele>
        <time>2024-04-25T12:29:00.249Z</time>
      </trkpt>
      <trkpt lat="43.68908" lon="3.90586">
        <ele>84.5</ele>
        <time>2024-04-25T12:29:01.499Z</time>
      </trkpt>
      <trkpt lat="43.68905" lon="3.90578">
        <ele>84.9</ele>
        <time>2024-04-25T12:29:02.749Z</time>
      </trkpt>
      <trkpt lat="43.68902" lon="3.9057">
        <ele>85.2</ele>
        <time>2024-04-25T12:29:03.999Z</time>
      </trkpt>
      <trkpt lat="43.68899" lon="3.90562">
        <ele>85.4</ele>
        <time>2024-04-25T12:29:05.249Z</time>
      </trkpt>
      <trkpt lat="43.68896" lon="3.90555">
        <ele>85.6</ele>
        <time>2024-04-25T12:29:06.499Z</time>
      </trkpt>
      <trkpt lat="43.68893" lon="3.90547">
        <ele>85.9</ele>
        <time>2024-04-25T12:29:07.749Z</time>
      </trkpt>
      <trkpt lat="43.6889" lon="3.90539">
        <ele>86.2</ele>
        <time>2024-04-25T14:29:09+02:00</time>
      </trkpt>
      <trkpt lat="43.68883" lon="3.90538">
        <ele>86.8</ele>
        <time>2024-04-25T12:29:11.500Z</time>
      </trkpt>
      <trkpt lat="43.68875" lon="3.90537">
        <ele>87.5</ele>
        <time>2024-04-25T12:29:14.000Z</time>
      </trkpt>
      <trkpt lat="43.68868" lon="3.90535">
        <ele>88.2</ele>
        <time>2024-04-25T12:29:16.500Z</time>
      </trkpt>
      <trkpt lat="43.6886" lon="3.90534">
        <ele>88.8</ele>
        <time>2024-04-25T14:29:19+02:00</time>
      </trkpt>
      <trkpt lat="43.68855" lon="3.90539">
        <ele>88.9</ele>
        <time>2024-04-25T12:29:20.249Z</time>
      </trkpt>
      <trkpt lat="43.68851" lon="3.90543">
        <ele>89</ele>
        <time>2024-04-25T12:29:21.499Z</time>
      </trkpt>
      <trkpt lat="43.68846" lon="3.90548">
        <ele>89.2</ele>
        <time>2024-04-25T12:29:22.749Z</time>
      </trkpt>
      <trkpt lat="43.68841" lon="3.90552">
        <ele>89.5</ele>
        <time>2024-04-25T12:29:23.999Z</time>
      </trkpt>
      <trkpt lat="43.68836" lon="3.90557">
        <ele>89.7</ele>
        <time>2024-04-25T12:29:25.249Z</time>
      </trkpt>
      <trkpt lat="43.68832" lon="3.90561">
        <ele>89.6</ele>
        <time>2024-04-25T12:29:26.499Z</time>
      </trkpt>
      <trkpt lat="43.68827" lon="3.90566">
        <ele>89.5</ele>
        <time>2024-04-25T12:29:27.749Z</time>
      </trkpt>
      <trkpt lat="43.68822" lon="3.9057">
        <ele>89.6</ele>
        <time>2024-04-25T14:29:29+02:00</time>
      </trkpt>
      <trkpt lat="43.68819" lon="3.90578">
        <ele>89.6</ele>
        <time>2024-04-25T12:29:30.249Z</time>
      </trkpt>
      <trkpt lat="43.68817" lon="3.90586">
        <ele>89.8</ele>
        <time>2024-04-25T12:29:31.499Z</time>
      </trkpt>
      <trkpt lat="43.68814" lon="3.90593">
        <ele>90.3</ele>
        <time>2024-04-25T12:29:32.749Z</time>
      </trkpt>
      <trkpt lat="43.68812" lon="3.90601">
        <ele>90.9</ele>
        <time>2024-04-25T12:29:33.999Z</time>
      </trkpt>
      <trkpt lat="43.68809" lon="3.90609">
        <ele>91.4</ele>
        <time>2024-04-25T12:29:35.249Z</time>
      </trkpt>
      <trkpt lat="43.68806" lon="3.90617">
        <ele>92.3</ele>
        <time>2024-04-25T12:29:36.499Z</time>
      </trkpt>
      <trkpt lat="43.68804" lon="3.90624">
        <ele>93</ele>
        <time>2024-04-25T12:29:37.749Z</time>
      </trkpt>
      <trkpt lat="43.68801" lon="3.90632">
        <ele>93.7</ele>
        <time>2024-04-25T14:29:39+02:00</time>
      </trkpt>
      <trkpt lat="43.688" lon="3.90639">
        <ele>94.2</ele>
        <time>2024-04-25T12:29:40.249Z</time>
      </trkpt>
      <trkpt lat="43.68799" lon="3.90646">
        <ele>94.5</ele>
        <time>2024-04-25T12:29:41.499Z</time>
      </trkpt>
      <trkpt lat="43.68798" lon="3.90652">
        <ele>94.8</ele>
        <time>2024-04-25T12:29:42.749Z</time>
      </trkpt>
      <trkpt lat="43.68797" lon="3.90659">
        <ele>95.1</ele>
        <time>2024-04-25T12:29:43.999Z</time>
      </trkpt>
      <trkpt lat="43.68795" lon="3.90666">
        <ele>95.3</ele>
        <time>2024-04-25T12:29:45.249Z</time>
      </trkpt>
      <trkpt lat="43.68794" lon="3.90673">
        <ele>95.8</ele>
        <time>2024-04-25T12:29:46.499Z</time>
      </trkpt>
      <trkpt lat="43.68793" lon="3.90679">
        <ele>96.4</ele>
        <time>2024-04-25T12:29:47.749Z</time>
      </trkpt>
      <trkpt lat="43.68792" lon="3.90686">
        <ele>96.9</ele>
        <time>2024-04-25T14:29:49+02:00</time>
      </trkpt>
      <trkpt lat="43.6879" lon="3.90692">
        <ele>97.4</ele>
        <time>2024-04-25T12:29:50.249Z</time>
      </trkpt>
      <trkpt lat="43.68787" lon="3.90698">
        <ele>97.8</ele>
        <time>2024-04-25T12:29:51.499Z</time>
      </trkpt>
      <trkpt lat="43.68785" lon="3.90704">
        <ele>98.2</ele>
        <time>2024-04-25T12:29:52.749Z</time>
      </trkpt>
      <trkpt lat="43.68782" lon="3.90711">
        <ele>98.5</ele>
        <time>2024-04-25T12:29:53.999Z</time>
      </trkpt>
      <trkpt lat="43.6878" lon="3.90717">
        <ele>98.8</ele>
        <time>2024-04-25T12:29:55.249Z</time>
      </trkpt>
      <trkpt lat="43.68777" lon="3.90723">
        <ele>99</ele>
        <time>2024-04-25T12:29:56.499Z</time>
      </trkpt>
      <trkpt lat="43.68775" lon="3.90729">
        <ele>99.2</ele>
        <time>2024-04-25T12:29:57.749Z</time>
      </trkpt>
      <trkpt lat="43.68772" lon="3.90735">
        <ele>99.5</ele>
        <time>2024-04-25T14:29:59+02:00</time>
      </trkpt>
      <trkpt lat="43.68769" lon="3.9074">
        <ele>99.7</ele>
        <time>2024-04-25T12:30:00.249Z</time>
      </trkpt>
      <trkpt lat="43.68767" lon="3.90746">
        <ele>99.8</ele>
        <time>2024-04-25T12:30:01.499Z</time>
      </trkpt>
      <trkpt lat="43.68764" lon="3.90751">
        <ele>100</ele>
        <time>2024-04-25T12:30:02.749Z</time>
      </trkpt>
      <trkpt lat="43.68761" lon="3.90757">
        <ele>100.2</ele>
        <time>2024-04-25T12:30:03.999Z</time>
      </trkpt>
      <trkpt lat="43.68758" lon="3.90762">
        <ele>100.4</ele>
        <time>2024-04-25T12:30:05.249Z</time>
      </trkpt>
      <trkpt lat="43.68756" lon="3.90767">
        <ele>100.6</ele>
        <time>2024-04-25T12:30:06.499Z</time>
      </trkpt>
      <trkpt lat="43.68753" lon="3.90773">
        <ele>100.8</ele>
        <time>2024-04-25T12:30:07.749Z</time>
      </trkpt>
      <trkpt lat="43.6875" lon="3.90778">
        <ele>101</ele>
        <time>2024-04-25T14:30:09+02:00</time>
      </trkpt>
      <trkpt lat="43.68747" lon="3.90785">
        <ele>100.9</ele>
        <time>2024-04-25T12:30:10.249Z</time>
      </trkpt>
      <trkpt lat="43.68745" lon="3.90792">
        <ele>100.8</ele>
        <time>2024-04-25T12:30:11.499Z</time>
      </trkpt>
      <trkpt lat="43.68742" lon="3.90798">
        <ele>100.7</ele>
        <time>2024-04-25T12:30:12.749Z</time>
      </trkpt>
      <trkpt lat="43.68739" lon="3.90805">
        <ele>100.6</ele>
        <time>2024-04-25T12:30:13.999Z</time>
      </trkpt>
      <trkpt lat="43.68736" lon="3.90812">
        <ele>100.3</ele>
        <time>2024-04-25T12:30:15.249Z</time>
      </trkpt>
      <trkpt lat="43.68734" lon="3.90819">
        <ele>100</ele>
        <time>2024-04-25T12:30:16.499Z</time>
      </trkpt>
      <trkpt lat="43.68731" lon="3.90825">
        <ele>99.9</ele>
        <time>2024-04-25T12:30:17.749Z</time>
      </trkpt>
      <trkpt lat="43.68728" lon="3.90832">
        <ele>99.8</ele>
        <time>2024-04-25T14:30:19+02:00</time>
      </trkpt>
      <trkpt lat="43.68724" lon="3.90837">
        <ele>99.5</ele>
        <time>2024-04-25T12:30:20.249Z</time>
      </trkpt>
      <trkpt lat="43.6872" lon="3.90843">
        <ele>99.1</ele>
        <time>2024-04-25T12:30:21.499Z</time>
      </trkpt>
      <trkpt lat="43.68716" lon="3.90848">
        <ele>98.7</ele>
        <time>2024-04-25T12:30:22.749Z</time>
      </trkpt>
      <trkpt lat="43.68712" lon="3.90853">
        <ele>98.4</ele>
        <time>2024-04-25T12:30:23.999Z</time>
      </trkpt>
      <trkpt lat="43.68708" lon="3.90858">
        <ele>98.2</ele>
        <time>2024-04-25T12:30:25.249Z</time>
      </trkpt>
      <trkpt lat="43.68704" lon="3.90864">
        <ele>98.1</ele>
        <time>2024-04-25T12:30:26.499Z</time>
      </trkpt>
      <trkpt lat="43.687" lon="3.90869">
        <ele>98</ele>
        <time>2024-04-25T12:30:27.749Z</time>
      </trkpt>
      <trkpt lat="43.68696" lon="3.90874">
        <ele>97.9</ele>
        <time>2024-04-25T14:30:29+02:00</time>
      </trkpt>
      <trkpt lat="43.68679" lon="3.90861">
        <ele>99.6</ele>
        <time>2024-04-25T12:31:21.499Z</time>
      </trkpt>
      <trkpt lat="43.68675" lon="3.90851">
        <ele>99.8</ele>
        <time>2024-04-25T12:31:23.999Z</time>
      </trkpt>
      <trkpt lat="43.6867" lon="3.90842">
        <ele>100</ele>
        <time>2024-04-25T12:31:26.499Z</time>
      </trkpt>
      <trkpt lat="43.68666" lon="3.90832">
        <ele>100</ele>
        <time>2024-04-25T14:31:29+02:00</time>
      </trkpt>
      <trkpt lat="43.68659" lon="3.90827">
        <ele>100</ele>
        <time>2024-04-25T12:31:31.499Z</time>
      </trkpt>
      <trkpt lat="43.68653" lon="3.90822">
        <ele>100</ele>
        <time>2024-04-25T12:31:33.999Z</time>
      </trkpt>
      <trkpt lat="43.68646" lon="3.90816">
        <ele>100</ele>
        <time>2024-04-25T12:31:36.499Z</time>
      </trkpt>
      <trkpt lat="43.68639" lon="3.90811">
        <ele>100</ele>
        <time>2024-04-25T14:31:39+02:00</time>
      </trkpt>
      <trkpt lat="43.68636" lon="3.90802">
        <ele>99.9</ele>
        <time>2024-04-25T12:31:41.499Z</time>
      </trkpt>
      <trkpt lat="43.68633" lon="3.90793">
        <ele>99.5</ele>
        <time>2024-04-25T12:31:43.999Z</time>
      </trkpt>
      <trkpt lat="43.68629" lon="3.90783">
        <ele>99.2</ele>
        <time>2024-04-25T12:31:46.499Z</time>
      </trkpt>
      <trkpt lat="43.68626" lon="3.90774">
        <ele>98.9</ele>
        <time>2024-04-25T14:31:49+02:00</time>
      </trkpt>
      <trkpt lat="43.68628" lon="3.90762">
        <ele>98.4</ele>
        <time>2024-04-25T14:31:59+02:00</time>
      </trkpt>
      <trkpt lat="43.68622" lon="3.9076">
        <ele>98.3</ele>
        <time>2024-04-25T12:32:01.499Z</time>
      </trkpt>
      <trkpt lat="43.68616" lon="3.90757">
        <ele>98.3</ele>
        <time>2024-04-25T12:32:03.999Z</time>
      </trkpt>
      <trkpt lat="43.68609" lon="3.90755">
        <ele>98.1</ele>
        <time>2024-04-25T12:32:06.499Z</time>
      </trkpt>
      <trkpt lat="43.68603" lon="3.90752">
        <ele>97.8</ele>
        <time>2024-04-25T14:32:09+02:00</time>
      </trkpt>
      <trkpt lat="43.68597" lon="3.90757">
        <ele>97.9</ele>
        <time>2024-04-25T14:32:12+02:00</time>
      </trkpt>
      <trkpt lat="43.68589" lon="3.90752">
        <ele>97.3</ele>
        <time>2024-04-25T12:32:13.749Z</time>
      </trkpt>
      <trkpt lat="43.68581" lon="3.90746">
        <ele>96.7</ele>
        <time>2024-04-25T12:32:15.499Z</time>
      </trkpt>
      <trkpt lat="43.68573" lon="3.90741">
        <ele>96.3</ele>
        <time>2024-04-25T12:32:17.249Z</time>
      </trkpt>
      <trkpt lat="43.68565" lon="3.90735">
        <ele>95.9</ele>
        <time>2024-04-25T14:32:19+02:00</time>
      </trkpt>
      <trkpt lat="43.6856" lon="3.90732">
        <ele>95.7</ele>
        <time>2024-04-25T12:32:20.249Z</time>
      </trkpt>
      <trkpt lat="43.68556" lon="3.9073">
        <ele>95.5</ele>
        <time>2024-04-25T12:32:21.499Z</time>
      </trkpt>
      <trkpt lat="43.68551" lon="3.90727">
        <ele>95.2</ele>
        <time>2024-04-25T12:32:22.749Z</time>
      </trkpt>
      <trkpt lat="43.68547" lon="3.90724">
        <ele>94.8</ele>
        <time>2024-04-25T12:32:23.999Z</time>
      </trkpt>
      <trkpt lat="43.68542" lon="3.90721">
        <ele>94.4</ele>
        <time>2024-04-25T12:32:25.249Z</time>
      </trkpt>
      <trkpt lat="43.68537" lon="3.90719">
        <ele>94</ele>
        <time>2024-04-25T12:32:26.499Z</time>
      </trkpt>
      <trkpt lat="43.68533" lon="3.90716">
        <ele>93.7</ele>
        <time>2024-04-25T12:32:27.749Z</time>
      </trkpt>
      <trkpt lat="43.68528" lon="3.90713">
        <ele>93.3</ele>
        <time>2024-04-25T14:32:29+02:00</time>
      </trkpt>
      <trkpt lat="43.6852" lon="3.90709">
        <ele>93</ele>
        <time>2024-04-25T12:32:31.499Z</time>
      </trkpt>
      <trkpt lat="43.68513" lon="3.90705">
        <ele>92.8</ele>
        <time>2024-04-25T12:32:33.999Z</time>
      </trkpt>
      <trkpt lat="43.68505" lon="3.90701">
        <ele>92.5</ele>
        <time>2024-04-25T12:32:36.499Z</time>
      </trkpt>
      <trkpt lat="43.68497" lon="3.90697">
        <ele>92.2</ele>
        <time>2024-04-25T14:32:39+02:00</time>
      </trkpt>
      <trkpt lat="43.68489" lon="3.90692">
        <ele>91.7</ele>
        <time>2024-04-25T12:32:41.499Z</time>
      </trkpt>
      <trkpt lat="43.68482" lon="3.90686">
        <ele>91.2</ele>
        <time>2024-04-25T12:32:43.999Z</time>
      </trkpt>
      <trkpt lat="43.68474" lon="3.90681">
        <ele>90.5</ele>
        <time>2024-04-25T12:32:46.499Z</time>
      </trkpt>
      <trkpt lat="43.68466" lon="3.90675">
        <ele>89.9</ele>
        <time>2024-04-25T14:32:49+02:00</time>
      </trkpt>
      <trkpt lat="43.6846" lon="3.90674">
        <ele>89.8</ele>
        <time>2024-04-25T12:32:50.250Z</time>
      </trkpt>
      <trkpt lat="43.68454" lon="3.90674">
        <ele>89.8</ele>
        <time>2024-04-25T12:32:51.500Z</time>
      </trkpt>
      <trkpt lat="43.68448" lon="3.90673">
        <ele>89.7</ele>
        <time>2024-04-25T12:32:52.750Z</time>
      </trkpt>
      <trkpt lat="43.68442" lon="3.90673">
        <ele>89.8</ele>
        <time>2024-04-25T12:32:54.000Z</time>
      </trkpt>
      <trkpt lat="43.68436" lon="3.90672">
        <ele>90.1</ele>
        <time>2024-04-25T12:32:55.250Z</time>
      </trkpt>
      <trkpt lat="43.6843" lon="3.90671">
        <ele>90.4</ele>
        <time>2024-04-25T12:32:56.500Z</time>
      </trkpt>
      <trkpt lat="43.68424" lon="3.90671">
        <ele>90.8</ele>
        <time>2024-04-25T12:32:57.750Z</time>
      </trkpt>
      <trkpt lat="43.68418" lon="3.9067">
        <ele>91.1</ele>
        <time>2024-04-25T14:32:59+02:00</time>
      </trkpt>
      <trkpt lat="43.68413" lon="3.90666">
        <ele>91.1</ele>
        <time>2024-04-25T12:33:00.249Z</time>
      </trkpt>
      <trkpt lat="43.68408" lon="3.90663">
        <ele>90.9</ele>
        <time>2024-04-25T12:33:01.499Z</time>
      </trkpt>
      <trkpt lat="43.68403" lon="3.90659">
        <ele>90.7</ele>
        <time>2024-04-25T12:33:02.749Z</time>
      </trkpt>
      <trkpt lat="43.68399" lon="3.90656">
        <ele>90.4</ele>
        <time>2024-04-25T12:33:03.999Z</time>
      </trkpt>
      <trkpt lat="43.68394" lon="3.90652">
        <ele>90.2</ele>
        <time>2024-04-25T12:33:05.249Z</time>
      </trkpt>
      <trkpt lat="43.68389" lon="3.90648">
        <ele>90</ele>
        <time>2024-04-25T12:33:06.499Z</time>
      </trkpt>
      <trkpt lat="43.68384" lon="3.90645">
        <ele>89.8</ele>
        <time>2024-04-25T12:33:07.749Z</time>
      </trkpt>
      <trkpt lat="43.68379" lon="3.90641">
        <ele>89.6</ele>
        <time>2024-04-25T14:33:09+02:00</time>
      </trkpt>
      <trkpt lat="43.68373" lon="3.90639">
        <ele>89.6</ele>
        <time>2024-04-25T12:33:10.249Z</time>
      </trkpt>
      <trkpt lat="43.68367" lon="3.90638">
        <ele>89.7</ele>
        <time>2024-04-25T12:33:11.499Z</time>
      </trkpt>
      <trkpt lat="43.6836" lon="3.90636">
        <ele>89.7</ele>
        <time>2024-04-25T12:33:12.749Z</time>
      </trkpt>
      <trkpt lat="43.68354" lon="3.90635">
        <ele>89.8</ele>
        <time>2024-04-25T12:33:13.999Z</time>
      </trkpt>
      <trkpt lat="43.68348" lon="3.90633">
        <ele>89.8</ele>
        <time>2024-04-25T12:33:15.249Z</time>
      </trkpt>
      <trkpt lat="43.68342" lon="3.90631">
        <ele>89.9</ele>
        <time>2024-04-25T12:33:16.499Z</time>
      </trkpt>
      <trkpt lat="43.68335" lon="3.9063">
        <ele>89.9</ele>
        <time>2024-04-25T12:33:17.749Z</time>
      </trkpt>
      <trkpt lat="43.68329" lon="3.90628">
        <ele>89.9</ele>
        <time>2024-04-25T14:33:19+02:00</time>
      </trkpt>
      <trkpt lat="43.68325" lon="3.90625">
        <ele>89.7</ele>
        <time>2024-04-25T12:33:20.249Z</time>
      </trkpt>
      <trkpt lat="43.6832" lon="3.90622">
        <ele>89.4</ele>
        <time>2024-04-25T12:33:21.499Z</time>
      </trkpt>
      <trkpt lat="43.68316" lon="3.90619">
        <ele>89.1</ele>
        <time>2024-04-25T12:33:22.749Z</time>
      </trkpt>
      <trkpt lat="43.68311" lon="3.90617">
        <ele>88.7</ele>
        <time>2024-04-25T12:33:23.999Z</time>
      </trkpt>
      <trkpt lat="43.68307" lon="3.90614">
        <ele>88.4</ele>
        <time>2024-04-25T12:33:25.249Z</time>
      </trkpt>
      <trkpt lat="43.68302" lon="3.90611">
        <ele>88.2</ele>
        <time>2024-04-25T12:33:26.499Z</time>
      </trkpt>
      <trkpt lat="43.68298" lon="3.90608">
        <ele>88.2</ele>
        <time>2024-04-25T12:33:27.749Z</time>
      </trkpt>
      <trkpt lat="43.68293" lon="3.90605">
        <ele>88.1</ele>
        <time>2024-04-25T14:33:29+02:00</time>
      </trkpt>
      <trkpt lat="43.68294" lon="3.90599">
        <ele>87.3</ele>
        <time>2024-04-25T12:33:30.250Z</time>
      </trkpt>
      <trkpt lat="43.68295" lon="3.90592">
        <ele>86.4</ele>
        <time>2024-04-25T12:33:31.500Z</time>
      </trkpt>
      <trkpt lat="43.68296" lon="3.90586">
        <ele>85.6</ele>
        <time>2024-04-25T12:33:32.750Z</time>
      </trkpt>
      <trkpt lat="43.68298" lon="3.9058">
        <ele>84.9</ele>
        <time>2024-04-25T12:33:34.000Z</time>
      </trkpt>
      <trkpt lat="43.68299" lon="3.90573">
        <ele>84.1</ele>
        <time>2024-04-25T12:33:35.250Z</time>
      </trkpt>
      <trkpt lat="43.683" lon="3.90567">
        <ele>83.4</ele>
        <time>2024-04-25T12:33:36.500Z</time>
      </trkpt>
      <trkpt lat="43.68301" lon="3.9056">
        <ele>82.7</ele>
        <time>2024-04-25T12:33:37.750Z</time>
      </trkpt>
      <trkpt lat="43.68302" lon="3.90554">
        <ele>82</ele>
        <time>2024-04-25T14:33:39+02:00</time>
      </trkpt>
      <trkpt lat="43.68304" lon="3.90545">
        <ele>80.9</ele>
        <time>2024-04-25T12:33:41.500Z</time>
      </trkpt>
      <trkpt lat="43.68305" lon="3.90535">
        <ele>79.8</ele>
        <time>2024-04-25T12:33:44.000Z</time>
      </trkpt>
      <trkpt lat="43.68307" lon="3.90526">
        <ele>78.6</ele>
        <time>2024-04-25T12:33:46.500Z</time>
      </trkpt>
      <trkpt lat="43.68308" lon="3.90516">
        <ele>77.2</ele>
        <time>2024-04-25T14:33:49+02:00</time>
      </trkpt>
      <trkpt lat="43.6831" lon="3.90505">
        <ele>75.5</ele>
        <time>2024-04-25T12:33:54.000Z</time>
      </trkpt>
      <trkpt lat="43.68311" lon="3.90493">
        <ele>73.8</ele>
        <time>2024-04-25T14:33:59+02:00</time>
      </trkpt>
      <trkpt lat="43.68309" lon="3.90484">
        <ele>72.6</ele>
        <time>2024-04-25T12:34:01.499Z</time>
      </trkpt>
      <trkpt lat="43.68308" lon="3.90475">
        <ele>71.3</ele>
        <time>2024-04-25T12:34:03.999Z</time>
      </trkpt>
      <trkpt lat="43.68306" lon="3.90465">
        <ele>70.3</ele>
        <time>2024-04-25T12:34:06.499Z</time>
      </trkpt>
      <trkpt lat="43.68304" lon="3.90456">
        <ele>69.2</ele>
        <time>2024-04-25T14:34:09+02:00</time>
      </trkpt>
      <trkpt lat="43.683" lon="3.90453">
        <ele>68.9</ele>
        <time>2024-04-25T12:34:10.249Z</time>
      </trkpt>
      <trkpt lat="43.68295" lon="3.9045">
        <ele>68.6</ele>
        <time>2024-04-25T12:34:11.499Z</time>
      </trkpt>
      <trkpt lat="43.68291" lon="3.90447">
        <ele>68.3</ele>
        <time>2024-04-25T12:34:12.749Z</time>
      </trkpt>
      <trkpt lat="43.68286" lon="3.90444">
        <ele>68</ele>
        <time>2024-04-25T12:34:13.999Z</time>
      </trkpt>
      <trkpt lat="43.68282" lon="3.90441">
        <ele>67.9</ele>
        <time>2024-04-25T12:34:15.249Z</time>
      </trkpt>
      <trkpt lat="43.68277" lon="3.90438">
        <ele>67.8</ele>
        <time>2024-04-25T12:34:16.499Z</time>
      </trkpt>
      <trkpt lat="43.68273" lon="3.90435">
        <ele>67.6</ele>
        <time>2024-04-25T12:34:17.749Z</time>
      </trkpt>
      <trkpt lat="43.68268" lon="3.90432">
        <ele>67.4</ele>
        <time>2024-04-25T14:34:19+02:00</time>
      </trkpt>
      <trkpt lat="43.68262" lon="3.9043">
        <ele>67.2</ele>
        <time>2024-04-25T12:34:20.249Z</time>
      </trkpt>
      <trkpt lat="43.68256" lon="3.90428">
        <ele>67</ele>
        <time>2024-04-25T12:34:21.499Z</time>
      </trkpt>
      <trkpt lat="43.6825" lon="3.90426">
        <ele>66.7</ele>
        <time>2024-04-25T12:34:22.749Z</time>
      </trkpt>
      <trkpt lat="43.68245" lon="3.90425">
        <ele>66.7</ele>
        <time>2024-04-25T12:34:23.999Z</time>
      </trkpt>
      <trkpt lat="43.68239" lon="3.90423">
        <ele>66.6</ele>
        <time>2024-04-25T12:34:25.249Z</time>
      </trkpt>
      <trkpt lat="43.68233" lon="3.90421">
        <ele>66.5</ele>
        <time>2024-04-25T12:34:26.499Z</time>
      </trkpt>
      <trkpt lat="43.68227" lon="3.90419">
        <ele>66.3</ele>
        <time>2024-04-25T12:34:27.749Z</time>
      </trkpt>
      <trkpt lat="43.68221" lon="3.90417">
        <ele>66.2</ele>
        <time>2024-04-25T14:34:29+02:00</time>
      </trkpt>
      <trkpt lat="43.68214" lon="3.90414">
        <ele>66.7</ele>
        <time>2024-04-25T12:34:30.249Z</time>
      </trkpt>
      <trkpt lat="43.68208" lon="3.90411">
        <ele>67.1</ele>
        <time>2024-04-25T12:34:31.499Z</time>
      </trkpt>
      <trkpt lat="43.68201" lon="3.90408">
        <ele>67.3</ele>
        <time>2024-04-25T12:34:32.749Z</time>
      </trkpt>
      <trkpt lat="43.68195" lon="3.90405">
        <ele>67.2</ele>
        <time>2024-04-25T12:34:33.999Z</time>
      </trkpt>
      <trkpt lat="43.68188" lon="3.90401">
        <ele>66.9</ele>
        <time>2024-04-25T12:34:35.249Z</time>
      </trkpt>
      <trkpt lat="43.68181" lon="3.90398">
        <ele>66.5</ele>
        <time>2024-04-25T12:34:36.499Z</time>
      </trkpt>
      <trkpt lat="43.68175" lon="3.90395">
        <ele>66.1</ele>
        <time>2024-04-25T12:34:37.749Z</time>
      </trkpt>
      <trkpt lat="43.68168" lon="3.90392">
        <ele>65.6</ele>
        <time>2024-04-25T14:34:39+02:00</time>
      </trkpt>
      <trkpt lat="43.68161" lon="3.90391">
        <ele>65.5</ele>
        <time>2024-04-25T12:34:40.250Z</time>
      </trkpt>
      <trkpt lat="43.68154" lon="3.90389">
        <ele>65.5</ele>
        <time>2024-04-25T12:34:41.500Z</time>
      </trkpt>
      <trkpt lat="43.68147" lon="3.90388">
        <ele>65.7</ele>
        <time>2024-04-25T12:34:42.750Z</time>
      </trkpt>
      <trkpt lat="43.6814" lon="3.90386">
        <ele>65.8</ele>
        <time>2024-04-25T12:34:44.000Z</time>
      </trkpt>
      <trkpt lat="43.68132" lon="3.90385">
        <ele>65.7</ele>
        <time>2024-04-25T12:34:45.250Z</time>
      </trkpt>
      <trkpt lat="43.68125" lon="3.90383">
        <ele>65.7</ele>
        <time>2024-04-25T12:34:46.500Z</time>
      </trkpt>
      <trkpt lat="43.68118" lon="3.90382">
        <ele>65.7</ele>
        <time>2024-04-25T12:34:47.750Z</time>
      </trkpt>
      <trkpt lat="43.68111" lon="3.9038">
        <ele>65.7</ele>
        <time>2024-04-25T14:34:49+02:00</time>
      </trkpt>
      <trkpt lat="43.68106" lon="3.90381">
        <ele>65.6</ele>
        <time>2024-04-25T12:34:50.250Z</time>
      </trkpt>
      <trkpt lat="43.68102" lon="3.90382">
        <ele>65.5</ele>
        <time>2024-04-25T12:34:51.500Z</time>
      </trkpt>
      <trkpt lat="43.68097" lon="3.90383">
        <ele>65.4</ele>
        <time>2024-04-25T12:34:52.750Z</time>
      </trkpt>
      <trkpt lat="43.68092" lon="3.90384">
        <ele>65.3</ele>
        <time>2024-04-25T12:34:54.000Z</time>
      </trkpt>
      <trkpt lat="43.68087" lon="3.90384">
        <ele>65.1</ele>
        <time>2024-04-25T12:34:55.250Z</time>
      </trkpt>
      <trkpt lat="43.68083" lon="3.90385">
        <ele>65.1</ele>
        <time>2024-04-25T12:34:56.500Z</time>
      </trkpt>
      <trkpt lat="43.68078" lon="3.90386">
        <ele>65.4</ele>
        <time>2024-04-25T12:34:57.750Z</time>
      </trkpt>
      <trkpt lat="43.68073" lon="3.90387">
        <ele>65.7</ele>
        <time>2024-04-25T14:34:59+02:00</time>
      </trkpt>
      <trkpt lat="43.68066" lon="3.90382">
        <ele>65.9</ele>
        <time>2024-04-25T12:35:02.749Z</time>
      </trkpt>
      <trkpt lat="43.68059" lon="3.90377">
        <ele>66</ele>
        <time>2024-04-25T12:35:06.499Z</time>
      </trkpt>
      <trkpt lat="43.68052" lon="3.90372">
        <ele>65.8</ele>
        <time>2024-04-25T12:35:10.249Z</time>
      </trkpt>
      <trkpt lat="43.68046" lon="3.90367">
        <ele>65.4</ele>
        <time>2024-04-25T12:35:13.999Z</time>
      </trkpt>
      <trkpt lat="43.68039" lon="3.90362">
        <ele>65</ele>
        <time>2024-04-25T12:35:17.749Z</time>
      </trkpt>
      <trkpt lat="43.68032" lon="3.90357">
        <ele>65.2</ele>
        <time>2024-04-25T12:35:21.499Z</time>
      </trkpt>
      <trkpt lat="43.68025" lon="3.90352">
        <ele>65.3</ele>
        <time>2024-04-25T12:35:25.249Z</time>
      </trkpt>
      <trkpt lat="43.68018" lon="3.90347">
        <ele>65.5</ele>
        <time>2024-04-25T12:35:28.999Z</time>
      </trkpt>
      <trkpt lat="43.68011" lon="3.90341">
        <ele>65.7</ele>
        <time>2024-04-25T12:35:32.749Z</time>
      </trkpt>
      <trkpt lat="43.68004" lon="3.90336">
        <ele>65.9</ele>
        <time>2024-04-25T12:35:36.499Z</time>
      </trkpt>
      <trkpt lat="43.67997" lon="3.90331">
        <ele>65.9</ele>
        <time>2024-04-25T12:35:40.249Z</time>
      </trkpt>
      <trkpt lat="43.67991" lon="3.90326">
        <ele>65.7</ele>
        <time>2024-04-25T12:35:43.999Z</time>
      </trkpt>
      <trkpt lat="43.67984" lon="3.90321">
        <ele>65.4</ele>
        <time>2024-04-25T12:35:47.749Z</time>
      </trkpt>
      <trkpt lat="43.67977" lon="3.90316">
        <ele>65.2</ele>
        <time>2024-04-25T12:35:51.499Z</time>
      </trkpt>
      <trkpt lat="43.6797" lon="3.90311">
        <ele>65.2</ele>
        <time>2024-04-25T12:35:55.249Z</time>
      </trkpt>
      <trkpt lat="43.67963" lon="3.90306">
        <ele>65.7</ele>
        <time>2024-04-25T14:35:59+02:00</time>
      </trkpt>
      <trkpt lat="43.67961" lon="3.903">
        <ele>65.8</ele>
        <time>2024-04-25T12:36:01.499Z</time>
      </trkpt>
      <trkpt lat="43.67958" lon="3.90294">
        <ele>65.8</ele>
        <time>2024-04-25T12:36:03.999Z</time>
      </trkpt>
      <trkpt lat="43.67956" lon="3.90287">
        <ele>65.8</ele>
        <time>2024-04-25T12:36:06.499Z</time>
      </trkpt>
      <trkpt lat="43.67953" lon="3.90281">
        <ele>65.8</ele>
        <time>2024-04-25T14:36:09+02:00</time>
      </trkpt>
      <trkpt lat="43.6795" lon="3.90274">
        <ele>65.8</ele>
        <time>2024-04-25T12:36:10.249Z</time>
      </trkpt>
      <trkpt lat="43.67948" lon="3.90267">
        <ele>65.9</ele>
        <time>2024-04-25T12:36:11.499Z</time>
      </trkpt>
      <trkpt lat="43.67945" lon="3.9026">
        <ele>66</ele>
        <time>2024-04-25T12:36:12.749Z</time>
      </trkpt>
      <trkpt lat="43.67942" lon="3.90253">
        <ele>66.1</ele>
        <time>2024-04-25T12:36:13.999Z</time>
      </trkpt>
      <trkpt lat="43.67939" lon="3.90245">
        <ele>66.2</ele>
        <time>2024-04-25T12:36:15.249Z</time>
      </trkpt>
      <trkpt lat="43.67937" lon="3.90238">
        <ele>66.2</ele>
        <time>2024-04-25T12:36:16.499Z</time>
      </trkpt>
      <trkpt lat="43.67934" lon="3.90231">
        <ele>66.1</ele>
        <time>2024-04-25T12:36:17.749Z</time>
      </trkpt>
      <trkpt lat="43.67931" lon="3.90224">
        <ele>66</ele>
        <time>2024-04-25T14:36:19+02:00</time>
      </trkpt>
      <trkpt lat="43.67926" lon="3.90222">
        <ele>66</ele>
        <time>2024-04-25T12:36:20.249Z</time>
      </trkpt>
      <trkpt lat="43.6792" lon="3.9022">
        <ele>65.9</ele>
        <time>2024-04-25T12:36:21.499Z</time>
      </trkpt>
      <trkpt lat="43.67915" lon="3.90217">
        <ele>65.9</ele>
        <time>2024-04-25T12:36:22.749Z</time>
      </trkpt>
      <trkpt lat="43.6791" lon="3.90215">
        <ele>66.3</ele>
        <time>2024-04-25T12:36:23.999Z</time>
      </trkpt>
      <trkpt lat="43.67904" lon="3.90213">
        <ele>66.6</ele>
        <time>2024-04-25T12:36:25.249Z</time>
      </trkpt>
      <trkpt lat="43.67899" lon="3.90211">
        <ele>66.9</ele>
        <time>2024-04-25T12:36:26.499Z</time>
      </trkpt>
      <trkpt lat="43.67893" lon="3.90208">
        <ele>67.2</ele>
        <time>2024-04-25T12:36:27.749Z</time>
      </trkpt>
      <trkpt lat="43.67888" lon="3.90206">
        <ele>67.4</ele>
        <time>2024-04-25T12:36:28.999Z</time>
      </trkpt>
      <trkpt lat="43.67883" lon="3.90204">
        <ele>67.4</ele>
        <time>2024-04-25T12:36:30.249Z</time>
      </trkpt>
      <trkpt lat="43.67877" lon="3.90202">
        <ele>67.4</ele>
        <time>2024-04-25T12:36:31.499Z</time>
      </trkpt>
      <trkpt lat="43.67872" lon="3.90199">
        <ele>67.3</ele>
        <time>2024-04-25T12:36:32.749Z</time>
      </trkpt>
      <trkpt lat="43.67867" lon="3.90197">
        <ele>67.2</ele>
        <time>2024-04-25T12:36:33.999Z</time>
      </trkpt>
      <trkpt lat="43.67861" lon="3.90195">
        <ele>67</ele>
        <time>2024-04-25T12:36:35.249Z</time>
      </trkpt>
      <trkpt lat="43.67856" lon="3.90193">
        <ele>66.9</ele>
        <time>2024-04-25T12:36:36.499Z</time>
      </trkpt>
      <trkpt lat="43.6785" lon="3.9019">
        <ele>66.9</ele>
        <time>2024-04-25T12:36:37.749Z</time>
      </trkpt>
      <trkpt lat="43.67845" lon="3.90188">
        <ele>66.9</ele>
        <time>2024-04-25T14:36:39+02:00</time>
      </trkpt>
      <trkpt lat="43.67842" lon="3.90182">
        <ele>66.9</ele>
        <time>2024-04-25T12:36:40.249Z</time>
      </trkpt>
      <trkpt lat="43.67839" lon="3.90175">
        <ele>66.9</ele>
        <time>2024-04-25T12:36:41.499Z</time>
      </trkpt>
      <trkpt lat="43.67836" lon="3.90169">
        <ele>66.9</ele>
        <time>2024-04-25T12:36:42.749Z</time>
      </trkpt>
      <trkpt lat="43.67833" lon="3.90162">
        <ele>66.8</ele>
        <time>2024-04-25T12:36:43.999Z</time>
      </trkpt>
      <trkpt lat="43.6783" lon="3.90156">
        <ele>66.6</ele>
        <time>2024-04-25T12:36:45.249Z</time>
      </trkpt>
      <trkpt lat="43.67827" lon="3.90149">
        <ele>66.5</ele>
        <time>2024-04-25T12:36:46.499Z</time>
      </trkpt>
      <trkpt lat="43.67824" lon="3.90143">
        <ele>66.4</ele>
        <time>2024-04-25T12:36:47.749Z</time>
      </trkpt>
      <trkpt lat="43.67821" lon="3.90136">
        <ele>66.5</ele>
        <time>2024-04-25T14:36:49+02:00</time>
      </trkpt>
      <trkpt lat="43.67821" lon="3.90124">
        <ele>67</ele>
        <time>2024-04-25T12:36:51.499Z</time>
      </trkpt>
      <trkpt lat="43.6782" lon="3.90112">
        <ele>67.5</ele>
        <time>2024-04-25T12:36:53.999Z</time>
      </trkpt>
      <trkpt lat="43.6782" lon="3.90099">
        <ele>67.7</ele>
        <time>2024-04-25T12:36:56.499Z</time>
      </trkpt>
      <trkpt lat="43.67819" lon="3.90087">
        <ele>67.9</ele>
        <time>2024-04-25T14:36:59+02:00</time>
      </trkpt>
      <trkpt lat="43.67817" lon="3.90078">
        <ele>67.7</ele>
        <time>2024-04-25T12:37:00.624Z</time>
      </trkpt>
      <trkpt lat="43.67814" lon="3.9007">
        <ele>67.4</ele>
        <time>2024-04-25T12:37:02.249Z</time>
      </trkpt>
      <trkpt lat="43.67812" lon="3.90061">
        <ele>67</ele>
        <time>2024-04-25T12:37:03.874Z</time>
      </trkpt>
      <trkpt lat="43.67809" lon="3.90052">
        <ele>67</ele>
        <time>2024-04-25T12:37:05.499Z</time>
      </trkpt>
      <trkpt lat="43.67807" lon="3.90043">
        <ele>67.4</ele>
        <time>2024-04-25T12:37:07.124Z</time>
      </trkpt>
      <trkpt lat="43.67804" lon="3.90035">
        <ele>67.8</ele>
        <time>2024-04-25T12:37:08.749Z</time>
      </trkpt>
      <trkpt lat="43.67802" lon="3.90026">
        <ele>67.9</ele>
        <time>2024-04-25T12:37:10.374Z</time>
      </trkpt>
      <trkpt lat="43.67799" lon="3.90017">
        <ele>67.7</ele>
        <time>2024-04-25T14:37:12+02:00</time>
      </trkpt>
      <trkpt lat="43.67806" lon="3.90012">
        <ele>67.4</ele>
        <time>2024-04-25T12:37:13.750Z</time>
      </trkpt>
      <trkpt lat="43.67757" lon="3.89718">
        <ele>72.1</ele>
        <time>2024-04-25T12:38:54.686Z</time>
      </trkpt>
      <trkpt lat="43.67754" lon="3.89712">
        <ele>72.4</ele>
        <time>2024-04-25T14:38:55+02:00</time>
      </trkpt>
      <trkpt lat="43.67754" lon="3.897">
        <ele>72.8</ele>
        <time>2024-04-25T12:38:56.437Z</time>
      </trkpt>
      <trkpt lat="43.67753" lon="3.89689">
        <ele>73</ele>
        <time>2024-04-25T12:38:57.874Z</time>
      </trkpt>
      <trkpt lat="43.67753" lon="3.89677">
        <ele>73</ele>
        <time>2024-04-25T12:38:59.311Z</time>
      </trkpt>
      <trkpt lat="43.67752" lon="3.89666">
        <ele>73</ele>
        <time>2024-04-25T12:39:00.748Z</time>
      </trkpt>
      <trkpt lat="43.67752" lon="3.89654">
        <ele>73</ele>
        <time>2024-04-25T12:39:02.185Z</time>
      </trkpt>
      <trkpt lat="43.67751" lon="3.89643">
        <ele>73</ele>
        <time>2024-04-25T12:39:03.622Z</time>
      </trkpt>
      <trkpt lat="43.67751" lon="3.89631">
        <ele>73</ele>
        <time>2024-04-25T12:39:05.059Z</time>
      </trkpt>
      <trkpt lat="43.6775" lon="3.8962">
        <ele>73</ele>
        <time>2024-04-25T12:39:06.496Z</time>
      </trkpt>
      <trkpt lat="43.6775" lon="3.89608">
        <ele>73.1</ele>
        <time>2024-04-25T12:39:07.933Z</time>
      </trkpt>
      <trkpt lat="43.67749" lon="3.89596">
        <ele>73.5</ele>
        <time>2024-04-25T12:39:09.371Z</time>
      </trkpt>
      <trkpt lat="43.67749" lon="3.89585">
        <ele>73.9</ele>
        <time>2024-04-25T12:39:10.809Z</time>
      </trkpt>
      <trkpt lat="43.67748" lon="3.89573">
        <ele>74</ele>
        <time>2024-04-25T12:39:12.247Z</time>
      </trkpt>
      <trkpt lat="43.67748" lon="3.89562">
        <ele>74</ele>
        <time>2024-04-25T12:39:13.685Z</time>
      </trkpt>
      <trkpt lat="43.67747" lon="3.8955">
        <ele>74</ele>
        <time>2024-04-25T12:39:15.123Z</time>
      </trkpt>
      <trkpt lat="43.67747" lon="3.89539">
        <ele>74</ele>
        <time>2024-04-25T12:39:16.561Z</time>
      </trkpt>
      <trkpt lat="43.67746" lon="3.89527">
        <ele>74</ele>
        <time>2024-04-25T14:39:18+02:00</time>
      </trkpt>
      <trkpt lat="43.67746" lon="3.8952">
        <ele>74</ele>
        <time>2024-04-25T12:39:18.874Z</time>
      </trkpt>
      <trkpt lat="43.67746" lon="3.89513">
        <ele>74</ele>
        <time>2024-04-25T12:39:19.749Z</time>
      </trkpt>
      <trkpt lat="43.67745" lon="3.89505">
        <ele>74</ele>
        <time>2024-04-25T12:39:20.624Z</time>
      </trkpt>
      <trkpt lat="43.67745" lon="3.89498">
        <ele>74</ele>
        <time>2024-04-25T12:39:21.499Z</time>
      </trkpt>
      <trkpt lat="43.67745" lon="3.89491">
        <ele>74</ele>
        <time>2024-04-25T12:39:22.374Z</time>
      </trkpt>
      <trkpt lat="43.67745" lon="3.89484">
        <ele>74</ele>
        <time>2024-04-25T12:39:23.249Z</time>
      </trkpt>
      <trkpt lat="43.67744" lon="3.89476">
        <ele>74</ele>
        <time>2024-04-25T12:39:24.124Z</time>
      </trkpt>
      <trkpt lat="43.67744" lon="3.89469">
        <ele>74.1</ele>
        <time>2024-04-25T14:39:25+02:00</time>
      </trkpt>
      <trkpt lat="43.67741" lon="3.89461">
        <ele>74.4</ele>
        <time>2024-04-25T12:39:26.249Z</time>
      </trkpt>
      <trkpt lat="43.67738" lon="3.89453">
        <ele>74.7</ele>
        <time>2024-04-25T12:39:27.499Z</time>
      </trkpt>
      <trkpt lat="43.67735" lon="3.89445">
        <ele>75</ele>
        <time>2024-04-25T12:39:28.749Z</time>
      </trkpt>
      <trkpt lat="43.67733" lon="3.89437">
        <ele>75</ele>
        <time>2024-04-25T12:39:29.999Z</time>
      </trkpt>
      <trkpt lat="43.6773" lon="3.89429">
        <ele>75</ele>
        <time>2024-04-25T12:39:31.249Z</time>
      </trkpt>
      <trkpt lat="43.67727" lon="3.89421">
        <ele>75</ele>
        <time>2024-04-25T12:39:32.499Z</time>
      </trkpt>
      <trkpt lat="43.67724" lon="3.89413">
        <ele>75.1</ele>
        <time>2024-04-25T12:39:33.749Z</time>
      </trkpt>
      <trkpt lat="43.67721" lon="3.89405">
        <ele>75.4</ele>
        <time>2024-04-25T14:39:35+02:00</time>
      </trkpt>
      <trkpt lat="43.67719" lon="3.89395">
        <ele>75.6</ele>
        <time>2024-04-25T12:39:36.249Z</time>
      </trkpt>
      <trkpt lat="43.67717" lon="3.89386">
        <ele>75.9</ele>
        <time>2024-04-25T12:39:37.499Z</time>
      </trkpt>
      <trkpt lat="43.67714" lon="3.89376">
        <ele>76.1</ele>
        <time>2024-04-25T12:39:38.749Z</time>
      </trkpt>
      <trkpt lat="43.67712" lon="3.89366">
        <ele>76.2</ele>
        <time>2024-04-25T12:39:39.999Z</time>
      </trkpt>
      <trkpt lat="43.6771" lon="3.89356">
        <ele>76.1</ele>
        <time>2024-04-25T12:39:41.249Z</time>
      </trkpt>
      <trkpt lat="43.67708" lon="3.89347">
        <ele>75.9</ele>
        <time>2024-04-25T12:39:42.499Z</time>
      </trkpt>
      <trkpt lat="43.67705" lon="3.89337">
        <ele>75.8</ele>
        <time>2024-04-25T12:39:43.749Z</time>
      </trkpt>
      <trkpt lat="43.67703" lon="3.89327">
        <ele>75.6</ele>
        <time>2024-04-25T14:39:45+02:00</time>
      </trkpt>
      <trkpt lat="43.67702" lon="3.89318">
        <ele>75.5</ele>
        <time>2024-04-25T12:39:46.249Z</time>
      </trkpt>
      <trkpt lat="43.67701" lon="3.89309">
        <ele>75.4</ele>
        <time>2024-04-25T12:39:47.499Z</time>
      </trkpt>
      <trkpt lat="43.67699" lon="3.89299">
        <ele>75.3</ele>
        <time>2024-04-25T12:39:48.749Z</time>
      </trkpt>
      <trkpt lat="43.67698" lon="3.8929">
        <ele>75.3</ele>
        <time>2024-04-25T12:39:49.999Z</time>
      </trkpt>
      <trkpt lat="43.67697" lon="3.89281">
        <ele>75.2</ele>
        <time>2024-04-25T12:39:51.249Z</time>
      </trkpt>
      <trkpt lat="43.67696" lon="3.89272">
        <ele>75.3</ele>
        <time>2024-04-25T12:39:52.499Z</time>
      </trkpt>
      <trkpt lat="43.67694" lon="3.89262">
        <ele>75.5</ele>
        <time>2024-04-25T12:39:53.749Z</time>
      </trkpt>
      <trkpt lat="43.67693" lon="3.89253">
        <ele>75.8</ele>
        <time>2024-04-25T14:39:55+02:00</time>
      </trkpt>
      <trkpt lat="43.67691" lon="3.89244">
        <ele>75.8</ele>
        <time>2024-04-25T12:39:56.249Z</time>
      </trkpt>
      <trkpt lat="43.6769" lon="3.89234">
        <ele>75.7</ele>
        <time>2024-04-25T12:39:57.499Z</time>
      </trkpt>
      <trkpt lat="43.67688" lon="3.89225">
        <ele>75.7</ele>
        <time>2024-04-25T12:39:58.749Z</time>
      </trkpt>
      <trkpt lat="43.67686" lon="3.89215">
        <ele>75.7</ele>
        <time>2024-04-25T12:39:59.999Z</time>
      </trkpt>
      <trkpt lat="43.67684" lon="3.89206">
        <ele>75.6</ele>
        <time>2024-04-25T12:40:01.249Z</time>
      </trkpt>
      <trkpt lat="43.67683" lon="3.89196">
        <ele>75.6</ele>
        <time>2024-04-25T12:40:02.499Z</time>
      </trkpt>
      <trkpt lat="43.67681" lon="3.89187">
        <ele>75.5</ele>
        <time>2024-04-25T12:40:03.749Z</time>
      </trkpt>
      <trkpt lat="43.67679" lon="3.89177">
        <ele>75.4</ele>
        <time>2024-04-25T14:40:05+02:00</time>
      </trkpt>
      <trkpt lat="43.67677" lon="3.89167">
        <ele>75.4</ele>
        <time>2024-04-25T12:40:06.249Z</time>
      </trkpt>
      <trkpt lat="43.67675" lon="3.89158">
        <ele>75.6</ele>
        <time>2024-04-25T12:40:07.499Z</time>
      </trkpt>
      <trkpt lat="43.67673" lon="3.89148">
        <ele>75.9</ele>
        <time>2024-04-25T12:40:08.749Z</time>
      </trkpt>
      <trkpt lat="43.67671" lon="3.89139">
        <ele>76.2</ele>
        <time>2024-04-25T12:40:09.999Z</time>
      </trkpt>
      <trkpt lat="43.67669" lon="3.89129">
        <ele>76.4</ele>
        <time>2024-04-25T12:40:11.249Z</time>
      </trkpt>
      <trkpt lat="43.67667" lon="3.89119">
        <ele>76.7</ele>
        <time>2024-04-25T12:40:12.499Z</time>
      </trkpt>
      <trkpt lat="43.67665" lon="3.8911">
        <ele>77</ele>
        <time>2024-04-25T12:40:13.749Z</time>
      </trkpt>
      <trkpt lat="43.67663" lon="3.891">
        <ele>77</ele>
        <time>2024-04-25T14:40:15+02:00</time>
      </trkpt>
      <trkpt lat="43.6766" lon="3.89093">
        <ele>77</ele>
        <time>2024-04-25T12:40:16.499Z</time>
      </trkpt>
      <trkpt lat="43.67657" lon="3.89085">
        <ele>77</ele>
        <time>2024-04-25T14:40:18+02:00</time>
      </trkpt>
      <trkpt lat="43.67654" lon="3.89079">
        <ele>77</ele>
        <time>2024-04-25T12:40:19.749Z</time>
      </trkpt>
      <trkpt lat="43.67651" lon="3.89072">
        <ele>77</ele>
        <time>2024-04-25T12:40:21.499Z</time>
      </trkpt>
      <trkpt lat="43.67648" lon="3.89066">
        <ele>77</ele>
        <time>2024-04-25T12:40:23.249Z</time>
      </trkpt>
      <trkpt lat="43.67645" lon="3.89059">
        <ele>77</ele>
        <time>2024-04-25T14:40:25+02:00</time>
      </trkpt>
      <trkpt lat="43.6764" lon="3.89053">
        <ele>77.1</ele>
        <time>2024-04-25T12:40:27.499Z</time>
      </trkpt>
      <trkpt lat="43.67636" lon="3.89047">
        <ele>77.3</ele>
        <time>2024-04-25T12:40:29.999Z</time>
      </trkpt>
      <trkpt lat="43.67631" lon="3.89041">
        <ele>77.4</ele>
        <time>2024-04-25T12:40:32.499Z</time>
      </trkpt>
      <trkpt lat="43.67626" lon="3.89035">
        <ele>77.4</ele>
        <time>2024-04-25T14:40:35+02:00</time>
      </trkpt>
      <trkpt lat="43.67623" lon="3.89028">
        <ele>77.4</ele>
        <time>2024-04-25T12:40:36.249Z</time>
      </trkpt>
      <trkpt lat="43.67619" lon="3.89021">
        <ele>77.3</ele>
        <time>2024-04-25T12:40:37.499Z</time>
      </trkpt>
      <trkpt lat="43.67616" lon="3.89014">
        <ele>77.2</ele>
        <time>2024-04-25T12:40:38.749Z</time>
      </trkpt>
      <trkpt lat="43.67612" lon="3.89007">
        <ele>77</ele>
        <time>2024-04-25T12:40:39.999Z</time>
      </trkpt>
      <trkpt lat="43.67609" lon="3.88999">
        <ele>77.1</ele>
        <time>2024-04-25T12:40:41.249Z</time>
      </trkpt>
      <trkpt lat="43.67605" lon="3.88992">
        <ele>77.4</ele>
        <time>2024-04-25T12:40:42.499Z</time>
      </trkpt>
      <trkpt lat="43.67602" lon="3.88985">
        <ele>77.7</ele>
        <time>2024-04-25T12:40:43.749Z</time>
      </trkpt>
      <trkpt lat="43.67598" lon="3.88978">
        <ele>77.9</ele>
        <time>2024-04-25T14:40:45+02:00</time>
      </trkpt>
      <trkpt lat="43.67594" lon="3.88971">
        <ele>78</ele>
        <time>2024-04-25T12:40:46.249Z</time>
      </trkpt>
      <trkpt lat="43.6759" lon="3.88964">
        <ele>78.2</ele>
        <time>2024-04-25T12:40:47.499Z</time>
      </trkpt>
      <trkpt lat="43.67586" lon="3.88956">
        <ele>78.5</ele>
        <time>2024-04-25T12:40:48.749Z</time>
      </trkpt>
      <trkpt lat="43.67583" lon="3.88949">
        <ele>78.8</ele>
        <time>2024-04-25T12:40:49.999Z</time>
      </trkpt>
      <trkpt lat="43.67579" lon="3.88942">
        <ele>79.1</ele>
        <time>2024-04-25T12:40:51.249Z</time>
      </trkpt>
      <trkpt lat="43.67575" lon="3.88935">
        <ele>79.4</ele>
        <time>2024-04-25T12:40:52.499Z</time>
      </trkpt>
      <trkpt lat="43.67571" lon="3.88927">
        <ele>79.6</ele>
        <time>2024-04-25T12:40:53.749Z</time>
      </trkpt>
      <trkpt lat="43.67567" lon="3.8892">
        <ele>79.9</ele>
        <time>2024-04-25T14:40:55+02:00</time>
      </trkpt>
      <trkpt lat="43.67562" lon="3.88914">
        <ele>80.1</ele>
        <time>2024-04-25T12:40:59.999Z</time>
      </trkpt>
      <trkpt lat="43.67556" lon="3.88908">
        <ele>80.3</ele>
        <time>2024-04-25T14:41:05+02:00</time>
      </trkpt>
      <trkpt lat="43.67563" lon="3.88907">
        <ele>80.5</ele>
        <time>2024-04-25T12:41:06.250Z</time>
      </trkpt>
      <trkpt lat="43.6757" lon="3.88906">
        <ele>80.6</ele>
        <time>2024-04-25T12:41:07.500Z</time>
      </trkpt>
      <trkpt lat="43.67577" lon="3.88904">
        <ele>80.8</ele>
        <time>2024-04-25T12:41:08.750Z</time>
      </trkpt>
      <trkpt lat="43.67584" lon="3.88903">
        <ele>81</ele>
        <time>2024-04-25T12:41:10.000Z</time>
      </trkpt>
      <trkpt lat="43.67591" lon="3.88902">
        <ele>80.8</ele>
        <time>2024-04-25T12:41:11.250Z</time>
      </trkpt>
      <trkpt lat="43.67598" lon="3.88901">
        <ele>80.6</ele>
        <time>2024-04-25T12:41:12.500Z</time>
      </trkpt>
      <trkpt lat="43.67605" lon="3.88899">
        <ele>80.5</ele>
        <time>2024-04-25T12:41:13.750Z</time>
      </trkpt>
      <trkpt lat="43.67612" lon="3.88898">
        <ele>80.3</ele>
        <time>2024-04-25T14:41:15+02:00</time>
      </trkpt>
      <trkpt lat="43.67616" lon="3.88894">
        <ele>80.6</ele>
        <time>2024-04-25T12:41:16.500Z</time>
      </trkpt>
      <trkpt lat="43.6762" lon="3.8889">
        <ele>80.9</ele>
        <time>2024-04-25T14:41:18+02:00</time>
      </trkpt>
      <trkpt lat="43.67627" lon="3.88883">
        <ele>81.7</ele>
        <time>2024-04-25T12:41:21.500Z</time>
      </trkpt>
      <trkpt lat="43.67633" lon="3.88875">
        <ele>82.5</ele>
        <time>2024-04-25T14:41:25+02:00</time>
      </trkpt>
      <trkpt lat="43.67634" lon="3.88869">
        <ele>83.2</ele>
        <time>2024-04-25T12:41:27.000Z</time>
      </trkpt>
      <trkpt lat="43.67635" lon="3.88862">
        <ele>83.9</ele>
        <time>2024-04-25T14:41:29+02:00</time>
      </trkpt>
      <trkpt lat="43.67639" lon="3.88855">
        <ele>84.9</ele>
        <time>2024-04-25T12:41:32.000Z</time>
      </trkpt>
      <trkpt lat="43.67642" lon="3.88848">
        <ele>85.8</ele>
        <time>2024-04-25T14:41:35+02:00</time>
      </trkpt>
      <trkpt lat="43.67649" lon="3.88844">
        <ele>86.1</ele>
        <time>2024-04-25T12:41:37.500Z</time>
      </trkpt>
      <trkpt lat="43.67655" lon="3.8884">
        <ele>86.5</ele>
        <time>2024-04-25T12:41:40.000Z</time>
      </trkpt>
      <trkpt lat="43.67662" lon="3.88835">
        <ele>86.9</ele>
        <time>2024-04-25T12:41:42.500Z</time>
      </trkpt>
      <trkpt lat="43.67668" lon="3.88831">
        <ele>87.4</ele>
        <time>2024-04-25T14:41:45+02:00</time>
      </trkpt>
      <trkpt lat="43.67673" lon="3.88832">
        <ele>87.2</ele>
        <time>2024-04-25T14:41:46+02:00</time>
      </trkpt>
      <trkpt lat="43.67678" lon="3.88834">
        <ele>86.9</ele>
        <time>2024-04-25T12:41:47.125Z</time>
      </trkpt>
      <trkpt lat="43.67683" lon="3.88837">
        <ele>86.5</ele>
        <time>2024-04-25T12:41:48.250Z</time>
      </trkpt>
      <trkpt lat="43.67688" lon="3.88839">
        <ele>86.2</ele>
        <time>2024-04-25T12:41:49.375Z</time>
      </trkpt>
      <trkpt lat="43.67693" lon="3.88841">
        <ele>85.9</ele>
        <time>2024-04-25T12:41:50.500Z</time>
      </trkpt>
      <trkpt lat="43.67697" lon="3.88843">
        <ele>85.6</ele>
        <time>2024-04-25T12:41:51.625Z</time>
      </trkpt>
      <trkpt lat="43.67702" lon="3.88846">
        <ele>85.4</ele>
        <time>2024-04-25T12:41:52.750Z</time>
      </trkpt>
      <trkpt lat="43.67707" lon="3.88848">
        <ele>85.2</ele>
        <time>2024-04-25T12:41:53.875Z</time>
      </trkpt>
      <trkpt lat="43.67712" lon="3.8885">
        <ele>85</ele>
        <time>2024-04-25T14:41:55+02:00</time>
      </trkpt>
      <trkpt lat="43.67718" lon="3.8885">
        <ele>85.1</ele>
        <time>2024-04-25T12:41:56.250Z</time>
      </trkpt>
      <trkpt lat="43.67723" lon="3.88851">
        <ele>85.2</ele>
        <time>2024-04-25T12:41:57.500Z</time>
      </trkpt>
      <trkpt lat="43.67729" lon="3.88851">
        <ele>85.3</ele>
        <time>2024-04-25T12:41:58.750Z</time>
      </trkpt>
      <trkpt lat="43.67734" lon="3.88851">
        <ele>85.5</ele>
        <time>2024-04-25T12:42:00.000Z</time>
      </trkpt>
      <trkpt lat="43.6774" lon="3.88851">
        <ele>85.7</ele>
        <time>2024-04-25T12:42:01.250Z</time>
      </trkpt>
      <trkpt lat="43.67745" lon="3.88852">
        <ele>85.9</ele>
        <time>2024-04-25T12:42:02.500Z</time>
      </trkpt>
      <trkpt lat="43.67751" lon="3.88852">
        <ele>86</ele>
        <time>2024-04-25T12:42:03.750Z</time>
      </trkpt>
      <trkpt lat="43.67756" lon="3.88852">
        <ele>86.1</ele>
        <time>2024-04-25T14:42:05+02:00</time>
      </trkpt>
      <trkpt lat="43.67761" lon="3.88852">
        <ele>86.2</ele>
        <time>2024-04-25T12:42:06.250Z</time>
      </trkpt>
      <trkpt lat="43.67765" lon="3.88852">
        <ele>86.3</ele>
        <time>2024-04-25T12:42:07.500Z</time>
      </trkpt>
      <trkpt lat="43.6777" lon="3.88852">
        <ele>86.4</ele>
        <time>2024-04-25T12:42:08.750Z</time>
      </trkpt>
      <trkpt lat="43.67774" lon="3.88852">
        <ele>86.6</ele>
        <time>2024-04-25T12:42:10.000Z</time>
      </trkpt>
      <trkpt lat="43.67779" lon="3.88852">
        <ele>86.6</ele>
        <time>2024-04-25T12:42:11.250Z</time>
      </trkpt>
      <trkpt lat="43.67783" lon="3.88852">
        <ele>86.6</ele>
        <time>2024-04-25T12:42:12.500Z</time>
      </trkpt>
      <trkpt lat="43.67788" lon="3.88852">
        <ele>86.5</ele>
        <time>2024-04-25T12:42:13.750Z</time>
      </trkpt>
      <trkpt lat="43.67792" lon="3.88852">
        <ele>86.5</ele>
        <time>2024-04-25T14:42:15+02:00</time>
      </trkpt>
      <trkpt lat="43.67797" lon="3.8885">
        <ele>86.8</ele>
        <time>2024-04-25T12:42:16.500Z</time>
      </trkpt>
      <trkpt lat="43.67802" lon="3.88847">
        <ele>87.1</ele>
        <time>2024-04-25T14:42:18+02:00</time>
      </trkpt>
      <trkpt lat="43.67808" lon="3.88847">
        <ele>87</ele>
        <time>2024-04-25T12:42:19.750Z</time>
      </trkpt>
      <trkpt lat="43.67815" lon="3.88848">
        <ele>87</ele>
        <time>2024-04-25T12:42:21.500Z</time>
      </trkpt>
      <trkpt lat="43.67821" lon="3.88848">
        <ele>86.9</ele>
        <time>2024-04-25T12:42:23.250Z</time>
      </trkpt>
      <trkpt lat="43.67827" lon="3.88848">
        <ele>86.9</ele>
        <time>2024-04-25T14:42:25+02:00</time>
      </trkpt>
      <trkpt lat="43.67833" lon="3.88848">
        <ele>86.9</ele>
        <time>2024-04-25T12:42:26.250Z</time>
      </trkpt>
      <trkpt lat="43.67838" lon="3.88849">
        <ele>86.9</ele>
        <time>2024-04-25T12:42:27.500Z</time>
      </trkpt>
      <trkpt lat="43.67844" lon="3.88849">
        <ele>86.9</ele>
        <time>2024-04-25T12:42:28.750Z</time>
      </trkpt>
      <trkpt lat="43.67849" lon="3.88849">
        <ele>86.9</ele>
        <time>2024-04-25T12:42:30.000Z</time>
      </trkpt>
      <trkpt lat="43.67855" lon="3.88849">
        <ele>86.9</ele>
        <time>2024-04-25T12:42:31.250Z</time>
      </trkpt>
      <trkpt lat="43.6786" lon="3.8885">
        <ele>86.8</ele>
        <time>2024-04-25T12:42:32.500Z</time>
      </trkpt>
      <trkpt lat="43.67866" lon="3.8885">
        <ele>86.6</ele>
        <time>2024-04-25T12:42:33.750Z</time>
      </trkpt>
      <trkpt lat="43.67871" lon="3.8885">
        <ele>86.3</ele>
        <time>2024-04-25T14:42:35+02:00</time>
      </trkpt>
      <trkpt lat="43.67877" lon="3.88843">
        <ele>86.4</ele>
        <time>2024-04-25T14:42:45+02:00</time>
      </trkpt>
      <trkpt lat="43.67881" lon="3.88839">
        <ele>86.3</ele>
        <time>2024-04-25T12:42:50.000Z</time>
      </trkpt>
      <trkpt lat="43.67885" lon="3.88836">
        <ele>86.2</ele>
        <time>2024-04-25T12:42:55.000Z</time>
      </trkpt>
      <trkpt lat="43.67889" lon="3.88832">
        <ele>86.1</ele>
        <time>2024-04-25T12:43:00.000Z</time>
      </trkpt>
      <trkpt lat="43.67893" lon="3.88828">
        <ele>86.1</ele>
        <time>2024-04-25T12:43:05.000Z</time>
      </trkpt>
      <trkpt lat="43.67896" lon="3.88824">
        <ele>86.1</ele>
        <time>2024-04-25T12:43:10.000Z</time>
      </trkpt>
      <trkpt lat="43.679" lon="3.88821">
        <ele>86.2</ele>
        <time>2024-04-25T12:43:15.000Z</time>
      </trkpt>
      <trkpt lat="43.67904" lon="3.88817">
        <ele>86.4</ele>
        <time>2024-04-25T12:43:20.000Z</time>
      </trkpt>
      <trkpt lat="43.67908" lon="3.88813">
        <ele>86.5</ele>
        <time>2024-04-25T14:43:25+02:00</time>
      </trkpt>
      <trkpt lat="43.67901" lon="3.88811">
        <ele>86.7</ele>
        <time>2024-04-25T14:43:30+02:00</time>
      </trkpt>
      <trkpt lat="43.67896" lon="3.8881">
        <ele>86.8</ele>
        <time>2024-04-25T12:43:34.062Z</time>
      </trkpt>
      <trkpt lat="43.67892" lon="3.8881">
        <ele>86.8</ele>
        <time>2024-04-25T12:43:38.124Z</time>
      </trkpt>
      <trkpt lat="43.67887" lon="3.88809">
        <ele>87</ele>
        <time>2024-04-25T12:43:42.186Z</time>
      </trkpt>
      <trkpt lat="43.67883" lon="3.88808">
        <ele>87.3</ele>
        <time>2024-04-25T12:43:46.248Z</time>
      </trkpt>
      <trkpt lat="43.67878" lon="3.88808">
        <ele>87.7</ele>
        <time>2024-04-25T12:43:50.310Z</time>
      </trkpt>
      <trkpt lat="43.67874" lon="3.88807">
        <ele>88.1</ele>
        <time>2024-04-25T12:43:54.372Z</time>
      </trkpt>
      <trkpt lat="43.67869" lon="3.88806">
        <ele>88.4</ele>
        <time>2024-04-25T12:43:58.434Z</time>
      </trkpt>
      <trkpt lat="43.67865" lon="3.88806">
        <ele>88.8</ele>
        <time>2024-04-25T12:44:02.496Z</time>
      </trkpt>
      <trkpt lat="43.6786" lon="3.88805">
        <ele>89.2</ele>
        <time>2024-04-25T12:44:06.558Z</time>
      </trkpt>
      <trkpt lat="43.67855" lon="3.88804">
        <ele>89.8</ele>
        <time>2024-04-25T12:44:10.621Z</time>
      </trkpt>
      <trkpt lat="43.67851" lon="3.88803">
        <ele>90.4</ele>
        <time>2024-04-25T12:44:14.684Z</time>
      </trkpt>
      <trkpt lat="43.67846" lon="3.88803">
        <ele>91</ele>
        <time>2024-04-25T12:44:18.747Z</time>
      </trkpt>
      <trkpt lat="43.67842" lon="3.88802">
        <ele>91.5</ele>
        <time>2024-04-25T12:44:22.810Z</time>
      </trkpt>
      <trkpt lat="43.67837" lon="3.88801">
        <ele>92.1</ele>
        <time>2024-04-25T12:44:26.873Z</time>
      </trkpt>
      <trkpt lat="43.67833" lon="3.88801">
        <ele>92.5</ele>
        <time>2024-04-25T12:44:30.936Z</time>
      </trkpt>
      <trkpt lat="43.67828" lon="3.888">
        <ele>92.8</ele>
        <time>2024-04-25T14:44:35+02:00</time>
      </trkpt>
      <trkpt lat="43.67823" lon="3.88796">
        <ele>93.3</ele>
        <time>2024-04-25T12:44:39.999Z</time>
      </trkpt>
      <trkpt lat="43.67818" lon="3.88792">
        <ele>93.7</ele>
        <time>2024-04-25T14:44:45+02:00</time>
      </trkpt>
      <trkpt lat="43.67812" lon="3.8879">
        <ele>94</ele>
        <time>2024-04-25T12:44:56.374Z</time>
      </trkpt>
      <trkpt lat="43.67806" lon="3.88788">
        <ele>94.3</ele>
        <time>2024-04-25T12:45:07.749Z</time>
      </trkpt>
      <trkpt lat="43.678" lon="3.88786">
        <ele>95.2</ele>
        <time>2024-04-25T12:45:19.124Z</time>
      </trkpt>
      <trkpt lat="43.67794" lon="3.88784">
        <ele>96.2</ele>
        <time>2024-04-25T12:45:30.499Z</time>
      </trkpt>
      <trkpt lat="43.67788" lon="3.88782">
        <ele>97.4</ele>
        <time>2024-04-25T12:45:41.874Z</time>
      </trkpt>
      <trkpt lat="43.67782" lon="3.8878">
        <ele>98.7</ele>
        <time>2024-04-25T12:45:53.249Z</time>
      </trkpt>
      <trkpt lat="43.67776" lon="3.88778">
        <ele>99.8</ele>
        <time>2024-04-25T12:46:04.624Z</time>
      </trkpt>
      <trkpt lat="43.6777" lon="3.88777">
        <ele>99.9</ele>
        <time>2024-04-25T12:46:15.999Z</time>
      </trkpt>
      <trkpt lat="43.67764" lon="3.88775">
        <ele>99.9</ele>
        <time>2024-04-25T12:46:27.374Z</time>
      </trkpt>
      <trkpt lat="43.67758" lon="3.88773">
        <ele>100</ele>
        <time>2024-04-25T12:46:38.749Z</time>
      </trkpt>
      <trkpt lat="43.67752" lon="3.88771">
        <ele>100.1</ele>
        <time>2024-04-25T12:46:50.124Z</time>
      </trkpt>
      <trkpt lat="43.67746" lon="3.88769">
        <ele>100.1</ele>
        <time>2024-04-25T12:47:01.499Z</time>
      </trkpt>
      <trkpt lat="43.6774" lon="3.88767">
        <ele>99.9</ele>
        <time>2024-04-25T12:47:12.874Z</time>
      </trkpt>
      <trkpt lat="43.67734" lon="3.88765">
        <ele>99.7</ele>
        <time>2024-04-25T12:47:24.249Z</time>
      </trkpt>
      <trkpt lat="43.67728" lon="3.88763">
        <ele>99.5</ele>
        <time>2024-04-25T12:47:35.624Z</time>
      </trkpt>
      <trkpt lat="43.67722" lon="3.88761">
        <ele>99.2</ele>
        <time>2024-04-25T14:47:47+02:00</time>
      </trkpt>
      <trkpt lat="43.67718" lon="3.88759">
        <ele>99.4</ele>
        <time>2024-04-25T12:47:48.749Z</time>
      </trkpt>
      <trkpt lat="43.67713" lon="3.88757">
        <ele>99.5</ele>
        <time>2024-04-25T12:47:50.499Z</time>
      </trkpt>
      <trkpt lat="43.67709" lon="3.88754">
        <ele>99.7</ele>
        <time>2024-04-25T12:47:52.249Z</time>
      </trkpt>
      <trkpt lat="43.67704" lon="3.88752">
        <ele>99.9</ele>
        <time>2024-04-25T14:47:54+02:00</time>
      </trkpt>
      <trkpt lat="43.67698" lon="3.88753">
        <ele>99.8</ele>
        <time>2024-04-25T12:47:56.500Z</time>
      </trkpt>
      <trkpt lat="43.67692" lon="3.88754">
        <ele>99.7</ele>
        <time>2024-04-25T12:47:59.000Z</time>
      </trkpt>
      <trkpt lat="43.67686" lon="3.88754">
        <ele>99.4</ele>
        <time>2024-04-25T12:48:01.500Z</time>
      </trkpt>
      <trkpt lat="43.6768" lon="3.88755">
        <ele>99.2</ele>
        <time>2024-04-25T14:48:04+02:00</time>
      </trkpt>
      <trkpt lat="43.67673" lon="3.88751">
        <ele>99.2</ele>
        <time>2024-04-25T12:48:06.499Z</time>
      </trkpt>
      <trkpt lat="43.67667" lon="3.88746">
        <ele>99.4</ele>
        <time>2024-04-25T12:48:08.999Z</time>
      </trkpt>
      <trkpt lat="43.6766" lon="3.88742">
        <ele>99.7</ele>
        <time>2024-04-25T12:48:11.499Z</time>
      </trkpt>
      <trkpt lat="43.67653" lon="3.88737">
        <ele>99.9</ele>
        <time>2024-04-25T14:48:14+02:00</time>
      </trkpt>
      <trkpt lat="43.67645" lon="3.88741">
        <ele>99.2</ele>
        <time>2024-04-25T12:48:18.999Z</time>
      </trkpt>
      <trkpt lat="43.67637" lon="3.88744">
        <ele>98.7</ele>
        <time>2024-04-25T14:48:24+02:00</time>
      </trkpt>
      <trkpt lat="43.67631" lon="3.88747">
        <ele>98.6</ele>
        <time>2024-04-25T12:48:26.499Z</time>
      </trkpt>
      <trkpt lat="43.67626" lon="3.8875">
        <ele>98.5</ele>
        <time>2024-04-25T12:48:28.999Z</time>
      </trkpt>
      <trkpt lat="43.6762" lon="3.88752">
        <ele>98.5</ele>
        <time>2024-04-25T12:48:31.499Z</time>
      </trkpt>
      <trkpt lat="43.67614" lon="3.88755">
        <ele>98.5</ele>
        <time>2024-04-25T14:48:34+02:00</time>
      </trkpt>
      <trkpt lat="43.67606" lon="3.88755">
        <ele>98.3</ele>
        <time>2024-04-25T12:48:36.500Z</time>
      </trkpt>
      <trkpt lat="43.67598" lon="3.88755">
        <ele>97.9</ele>
        <time>2024-04-25T12:48:39.000Z</time>
      </trkpt>
      <trkpt lat="43.6759" lon="3.88754">
        <ele>97.4</ele>
        <time>2024-04-25T12:48:41.500Z</time>
      </trkpt>
      <trkpt lat="43.67582" lon="3.88754">
        <ele>96.8</ele>
        <time>2024-04-25T14:48:44+02:00</time>
      </trkpt>
      <trkpt lat="43.67575" lon="3.88753">
        <ele>96</ele>
        <time>2024-04-25T12:48:46.500Z</time>
      </trkpt>
      <trkpt lat="43.67568" lon="3.88753">
        <ele>95.2</ele>
        <time>2024-04-25T12:48:49.000Z</time>
      </trkpt>
      <trkpt lat="43.6756" lon="3.88752">
        <ele>94.5</ele>
        <time>2024-04-25T12:48:51.500Z</time>
      </trkpt>
      <trkpt lat="43.67553" lon="3.88751">
        <ele>93.8</ele>
        <time>2024-04-25T14:48:54+02:00</time>
      </trkpt>
      <trkpt lat="43.67548" lon="3.88746">
        <ele>93.7</ele>
        <time>2024-04-25T14:49:00+02:00</time>
      </trkpt>
      <trkpt lat="43.6754" lon="3.88746">
        <ele>93.2</ele>
        <time>2024-04-25T12:49:03.500Z</time>
      </trkpt>
      <trkpt lat="43.67533" lon="3.88747">
        <ele>92.7</ele>
        <time>2024-04-25T12:49:07.000Z</time>
      </trkpt>
      <trkpt lat="43.67525" lon="3.88747">
        <ele>92.6</ele>
        <time>2024-04-25T12:49:10.500Z</time>
      </trkpt>
      <trkpt lat="43.67517" lon="3.88747">
        <ele>93.1</ele>
        <time>2024-04-25T14:49:14+02:00</time>
      </trkpt>
      <trkpt lat="43.67512" lon="3.8874">
        <ele>94.1</ele>
        <time>2024-04-25T12:49:16.499Z</time>
      </trkpt>
      <trkpt lat="43.67506" lon="3.88733">
        <ele>95</ele>
        <time>2024-04-25T12:49:18.999Z</time>
      </trkpt>
      <trkpt lat="43.67501" lon="3.88725">
        <ele>95.8</ele>
        <time>2024-04-25T12:49:21.499Z</time>
      </trkpt>
      <trkpt lat="43.67495" lon="3.88718">
        <ele>96.3</ele>
        <time>2024-04-25T14:49:24+02:00</time>
      </trkpt>
      <trkpt lat="43.67494" lon="3.8871">
        <ele>96.5</ele>
        <time>2024-04-25T12:49:26.499Z</time>
      </trkpt>
      <trkpt lat="43.67492" lon="3.88702">
        <ele>96.6</ele>
        <time>2024-04-25T12:49:28.999Z</time>
      </trkpt>
      <trkpt lat="43.67491" lon="3.88693">
        <ele>96.7</ele>
        <time>2024-04-25T12:49:31.499Z</time>
      </trkpt>
      <trkpt lat="43.67489" lon="3.88685">
        <ele>96.8</ele>
        <time>2024-04-25T14:49:34+02:00</time>
      </trkpt>
      <trkpt lat="43.67486" lon="3.8868">
        <ele>96.7</ele>
        <time>2024-04-25T12:49:36.499Z</time>
      </trkpt>
      <trkpt lat="43.67482" lon="3.88676">
        <ele>96.6</ele>
        <time>2024-04-25T12:49:38.999Z</time>
      </trkpt>
      <trkpt lat="43.67479" lon="3.88671">
        <ele>96.4</ele>
        <time>2024-04-25T12:49:41.499Z</time>
      </trkpt>
      <trkpt lat="43.67475" lon="3.88666">
        <ele>96.2</ele>
        <time>2024-04-25T14:49:44+02:00</time>
      </trkpt>
      <trkpt lat="43.67469" lon="3.8867">
        <ele>95.9</ele>
        <time>2024-04-25T12:49:46.499Z</time>
      </trkpt>
      <trkpt lat="43.67463" lon="3.88674">
        <ele>95.6</ele>
        <time>2024-04-25T12:49:48.999Z</time>
      </trkpt>
      <trkpt lat="43.67456" lon="3.88678">
        <ele>95.2</ele>
        <time>2024-04-25T12:49:51.499Z</time>
      </trkpt>
      <trkpt lat="43.6745" lon="3.88682">
        <ele>94.8</ele>
        <time>2024-04-25T14:49:54+02:00</time>
      </trkpt>
      <trkpt lat="43.67445" lon="3.88684">
        <ele>94.4</ele>
        <time>2024-04-25T12:49:55.249Z</time>
      </trkpt>
      <trkpt lat="43.6744" lon="3.88686">
        <ele>93.9</ele>
        <time>2024-04-25T12:49:56.499Z</time>
      </trkpt>
      <trkpt lat="43.67435" lon="3.88688">
        <ele>93.4</ele>
        <time>2024-04-25T12:49:57.749Z</time>
      </trkpt>
      <trkpt lat="43.6743" lon="3.88691">
        <ele>93</ele>
        <time>2024-04-25T12:49:58.999Z</time>
      </trkpt>
      <trkpt lat="43.67424" lon="3.88693">
        <ele>92.6</ele>
        <time>2024-04-25T12:50:00.249Z</time>
      </trkpt>
      <trkpt lat="43.67419" lon="3.88695">
        <ele>92.2</ele>
        <time>2024-04-25T12:50:01.499Z</time>
      </trkpt>
      <trkpt lat="43.67414" lon="3.88697">
        <ele>92</ele>
        <time>2024-04-25T12:50:02.749Z</time>
      </trkpt>
      <trkpt lat="43.67409" lon="3.88699">
        <ele>91.8</ele>
        <time>2024-04-25T14:50:04+02:00</time>
      </trkpt>
      <trkpt lat="43.67405" lon="3.88702">
        <ele>91.7</ele>
        <time>2024-04-25T12:50:05.249Z</time>
      </trkpt>
      <trkpt lat="43.67401" lon="3.88706">
        <ele>91.6</ele>
        <time>2024-04-25T12:50:06.499Z</time>
      </trkpt>
      <trkpt lat="43.67397" lon="3.88709">
        <ele>91.5</ele>
        <time>2024-04-25T12:50:07.749Z</time>
      </trkpt>
      <trkpt lat="43.67394" lon="3.88712">
        <ele>91.3</ele>
        <time>2024-04-25T12:50:08.999Z</time>
      </trkpt>
      <trkpt lat="43.6739" lon="3.88715">
        <ele>91</ele>
        <time>2024-04-25T12:50:10.249Z</time>
      </trkpt>
      <trkpt lat="43.67386" lon="3.88719">
        <ele>90.9</ele>
        <time>2024-04-25T12:50:11.499Z</time>
      </trkpt>
      <trkpt lat="43.67382" lon="3.88722">
        <ele>90.7</ele>
        <time>2024-04-25T12:50:12.749Z</time>
      </trkpt>
      <trkpt lat="43.67378" lon="3.88725">
        <ele>90.6</ele>
        <time>2024-04-25T14:50:14+02:00</time>
      </trkpt>
      <trkpt lat="43.67375" lon="3.88731">
        <ele>90.3</ele>
        <time>2024-04-25T12:50:21.499Z</time>
      </trkpt>
      <trkpt lat="43.67371" lon="3.88737">
        <ele>90</ele>
        <time>2024-04-25T12:50:28.999Z</time>
      </trkpt>
      <trkpt lat="43.67368" lon="3.88743">
        <ele>89.7</ele>
        <time>2024-04-25T12:50:36.499Z</time>
      </trkpt>
      <trkpt lat="43.67364" lon="3.88749">
        <ele>89.2</ele>
        <time>2024-04-25T12:50:43.999Z</time>
      </trkpt>
      <trkpt lat="43.67361" lon="3.88755">
        <ele>89</ele>
        <time>2024-04-25T12:50:51.499Z</time>
      </trkpt>
      <trkpt lat="43.67357" lon="3.88761">
        <ele>88.9</ele>
        <time>2024-04-25T12:50:58.999Z</time>
      </trkpt>
      <trkpt lat="43.67354" lon="3.88767">
        <ele>88.7</ele>
        <time>2024-04-25T12:51:06.499Z</time>
      </trkpt>
      <trkpt lat="43.67351" lon="3.88774">
        <ele>88.4</ele>
        <time>2024-04-25T12:51:13.999Z</time>
      </trkpt>
      <trkpt lat="43.67347" lon="3.8878">
        <ele>87.9</ele>
        <time>2024-04-25T12:51:21.499Z</time>
      </trkpt>
      <trkpt lat="43.67344" lon="3.88786">
        <ele>87.5</ele>
        <time>2024-04-25T12:51:28.999Z</time>
      </trkpt>
      <trkpt lat="43.6734" lon="3.88792">
        <ele>87</ele>
        <time>2024-04-25T12:51:36.499Z</time>
      </trkpt>
      <trkpt lat="43.67337" lon="3.88798">
        <ele>86.5</ele>
        <time>2024-04-25T12:51:43.999Z</time>
      </trkpt>
      <trkpt lat="43.67333" lon="3.88804">
        <ele>86.1</ele>
        <time>2024-04-25T12:51:51.499Z</time>
      </trkpt>
      <trkpt lat="43.6733" lon="3.8881">
        <ele>86.4</ele>
        <time>2024-04-25T12:51:58.999Z</time>
      </trkpt>
      <trkpt lat="43.67326" lon="3.88816">
        <ele>86.9</ele>
        <time>2024-04-25T12:52:06.499Z</time>
      </trkpt>
      <trkpt lat="43.67323" lon="3.88822">
        <ele>87.6</ele>
        <time>2024-04-25T14:52:14+02:00</time>
      </trkpt>
      <trkpt lat="43.67328" lon="3.88832">
        <ele>86.9</ele>
        <time>2024-04-25T12:52:16.500Z</time>
      </trkpt>
      <trkpt lat="43.67333" lon="3.88842">
        <ele>86.7</ele>
        <time>2024-04-25T12:52:19.000Z</time>
      </trkpt>
      <trkpt lat="43.67338" lon="3.88851">
        <ele>87</ele>
        <time>2024-04-25T12:52:21.500Z</time>
      </trkpt>
      <trkpt lat="43.67343" lon="3.88861">
        <ele>87.3</ele>
        <time>2024-04-25T14:52:24+02:00</time>
      </trkpt>
      <trkpt lat="43.67347" lon="3.88866">
        <ele>87.5</ele>
        <time>2024-04-25T12:52:25.250Z</time>
      </trkpt>
      <trkpt lat="43.67351" lon="3.88871">
        <ele>87.6</ele>
        <time>2024-04-25T12:52:26.500Z</time>
      </trkpt>
      <trkpt lat="43.67354" lon="3.88876">
        <ele>87.4</ele>
        <time>2024-04-25T12:52:27.750Z</time>
      </trkpt>
      <trkpt lat="43.67358" lon="3.88882">
        <ele>87.2</ele>
        <time>2024-04-25T12:52:29.000Z</time>
      </trkpt>
      <trkpt lat="43.67362" lon="3.88887">
        <ele>86.9</ele>
        <time>2024-04-25T12:52:30.250Z</time>
      </trkpt>
      <trkpt lat="43.67366" lon="3.88892">
        <ele>86.8</ele>
        <time>2024-04-25T12:52:31.500Z</time>
      </trkpt>
      <trkpt lat="43.67369" lon="3.88897">
        <ele>86.9</ele>
        <time>2024-04-25T12:52:32.750Z</time>
      </trkpt>
      <trkpt lat="43.67373" lon="3.88902">
        <ele>86.9</ele>
        <time>2024-04-25T14:52:34+02:00</time>
      </trkpt>
      <trkpt lat="43.67376" lon="3.88907">
        <ele>87</ele>
        <time>2024-04-25T12:52:35.250Z</time>
      </trkpt>
      <trkpt lat="43.67379" lon="3.88912">
        <ele>87</ele>
        <time>2024-04-25T12:52:36.500Z</time>
      </trkpt>
      <trkpt lat="43.67382" lon="3.88917">
        <ele>87</ele>
        <time>2024-04-25T12:52:37.750Z</time>
      </trkpt>
      <trkpt lat="43.67386" lon="3.88922">
        <ele>86.8</ele>
        <time>2024-04-25T12:52:39.000Z</time>
      </trkpt>
      <trkpt lat="43.67389" lon="3.88927">
        <ele>86.4</ele>
        <time>2024-04-25T12:52:40.250Z</time>
      </trkpt>
      <trkpt lat="43.67392" lon="3.88932">
        <ele>86.2</ele>
        <time>2024-04-25T12:52:41.500Z</time>
      </trkpt>
      <trkpt lat="43.67395" lon="3.88937">
        <ele>85.9</ele>
        <time>2024-04-25T12:52:42.750Z</time>
      </trkpt>
      <trkpt lat="43.67398" lon="3.88942">
        <ele>85.6</ele>
        <time>2024-04-25T14:52:44+02:00</time>
      </trkpt>
      <trkpt lat="43.67404" lon="3.88948">
        <ele>85.1</ele>
        <time>2024-04-25T12:52:49.000Z</time>
      </trkpt>
      <trkpt lat="43.67409" lon="3.88954">
        <ele>84.5</ele>
        <time>2024-04-25T14:52:54+02:00</time>
      </trkpt>
      <trkpt lat="43.67408" lon="3.88964">
        <ele>85.2</ele>
        <time>2024-04-25T12:52:57.124Z</time>
      </trkpt>
      <trkpt lat="43.67407" lon="3.88974">
        <ele>85.8</ele>
        <time>2024-04-25T12:53:00.249Z</time>
      </trkpt>
      <trkpt lat="43.67406" lon="3.88984">
        <ele>86.2</ele>
        <time>2024-04-25T12:53:03.374Z</time>
      </trkpt>
      <trkpt lat="43.67405" lon="3.88994">
        <ele>86.5</ele>
        <time>2024-04-25T12:53:06.499Z</time>
      </trkpt>
      <trkpt lat="43.67403" lon="3.89004">
        <ele>87</ele>
        <time>2024-04-25T12:53:09.624Z</time>
      </trkpt>
      <trkpt lat="43.67402" lon="3.89014">
        <ele>87.7</ele>
        <time>2024-04-25T12:53:12.749Z</time>
      </trkpt>
      <trkpt lat="43.67401" lon="3.89024">
        <ele>88.3</ele>
        <time>2024-04-25T12:53:15.874Z</time>
      </trkpt>
      <trkpt lat="43.674" lon="3.89035">
        <ele>88.7</ele>
        <time>2024-04-25T12:53:18.999Z</time>
      </trkpt>
      <trkpt lat="43.67399" lon="3.89045">
        <ele>88.7</ele>
        <time>2024-04-25T12:53:22.124Z</time>
      </trkpt>
      <trkpt lat="43.67398" lon="3.89055">
        <ele>88.8</ele>
        <time>2024-04-25T12:53:25.249Z</time>
      </trkpt>
      <trkpt lat="43.67397" lon="3.89065">
        <ele>88.6</ele>
        <time>2024-04-25T12:53:28.374Z</time>
      </trkpt>
      <trkpt lat="43.67396" lon="3.89075">
        <ele>88.3</ele>
        <time>2024-04-25T12:53:31.499Z</time>
      </trkpt>
      <trkpt lat="43.67394" lon="3.89085">
        <ele>88</ele>
        <time>2024-04-25T12:53:34.624Z</time>
      </trkpt>
      <trkpt lat="43.67393" lon="3.89095">
        <ele>88.2</ele>
        <time>2024-04-25T12:53:37.749Z</time>
      </trkpt>
      <trkpt lat="43.67392" lon="3.89105">
        <ele>88.4</ele>
        <time>2024-04-25T12:53:40.874Z</time>
      </trkpt>
      <trkpt lat="43.67391" lon="3.89115">
        <ele>88.4</ele>
        <time>2024-04-25T14:53:44+02:00</time>
      </trkpt>
      <trkpt lat="43.67392" lon="3.89124">
        <ele>87.6</ele>
        <time>2024-04-25T14:53:47+02:00</time>
      </trkpt>
      <trkpt lat="43.67394" lon="3.8913">
        <ele>86.8</ele>
        <time>2024-04-25T12:53:50.500Z</time>
      </trkpt>
      <trkpt lat="43.67396" lon="3.89136">
        <ele>86.2</ele>
        <time>2024-04-25T14:53:54+02:00</time>
      </trkpt>
      <trkpt lat="43.67389" lon="3.89135">
        <ele>87.4</ele>
        <time>2024-04-25T12:54:13.062Z</time>
      </trkpt>
      <trkpt lat="43.67381" lon="3.89134">
        <ele>89.5</ele>
        <time>2024-04-25T12:54:32.124Z</time>
      </trkpt>
      <trkpt lat="43.67374" lon="3.89133">
        <ele>91.5</ele>
        <time>2024-04-25T12:54:51.186Z</time>
      </trkpt>
      <trkpt lat="43.67367" lon="3.89132">
        <ele>93.5</ele>
        <time>2024-04-25T12:55:10.248Z</time>
      </trkpt>
      <trkpt lat="43.67359" lon="3.89131">
        <ele>95.7</ele>
        <time>2024-04-25T12:55:29.310Z</time>
      </trkpt>
      <trkpt lat="43.67352" lon="3.8913">
        <ele>98.1</ele>
        <time>2024-04-25T12:55:48.372Z</time>
      </trkpt>
      <trkpt lat="43.67344" lon="3.89129">
        <ele>100.6</ele>
        <time>2024-04-25T12:56:07.434Z</time>
      </trkpt>
      <trkpt lat="43.67337" lon="3.89128">
        <ele>103.2</ele>
        <time>2024-04-25T12:56:26.496Z</time>
      </trkpt>
      <trkpt lat="43.6733" lon="3.89126">
        <ele>105.3</ele>
        <time>2024-04-25T12:56:45.558Z</time>
      </trkpt>
      <trkpt lat="43.67322" lon="3.89125">
        <ele>106.9</ele>
        <time>2024-04-25T12:57:04.621Z</time>
      </trkpt>
      <trkpt lat="43.67315" lon="3.89124">
        <ele>108.5</ele>
        <time>2024-04-25T12:57:23.684Z</time>
      </trkpt>
      <trkpt lat="43.67308" lon="3.89123">
        <ele>110</ele>
        <time>2024-04-25T12:57:42.747Z</time>
      </trkpt>
      <trkpt lat="43.673" lon="3.89122">
        <ele>110.5</ele>
        <time>2024-04-25T12:58:01.810Z</time>
      </trkpt>
      <trkpt lat="43.67293" lon="3.89121">
        <ele>110.7</ele>
        <time>2024-04-25T12:58:20.873Z</time>
      </trkpt>
      <trkpt lat="43.67285" lon="3.8912">
        <ele>110.8</ele>
        <time>2024-04-25T12:58:39.936Z</time>
      </trkpt>
      <trkpt lat="43.67278" lon="3.89119">
        <ele>111</ele>
        <time>2024-04-25T14:58:59+02:00</time>
      </trkpt>
      <trkpt lat="43.67275" lon="3.89123">
        <ele>110.4</ele>
        <time>2024-04-25T12:59:00.874Z</time>
      </trkpt>
      <trkpt lat="43.67271" lon="3.89128">
        <ele>109.9</ele>
        <time>2024-04-25T12:59:02.749Z</time>
      </trkpt>
      <trkpt lat="43.67268" lon="3.89132">
        <ele>109.3</ele>
        <time>2024-04-25T12:59:04.624Z</time>
      </trkpt>
      <trkpt lat="43.67265" lon="3.89136">
        <ele>108.7</ele>
        <time>2024-04-25T12:59:06.499Z</time>
      </trkpt>
      <trkpt lat="43.67261" lon="3.8914">
        <ele>108.1</ele>
        <time>2024-04-25T12:59:08.374Z</time>
      </trkpt>
      <trkpt lat="43.67258" lon="3.89145">
        <ele>107.6</ele>
        <time>2024-04-25T12:59:10.249Z</time>
      </trkpt>
      <trkpt lat="43.67255" lon="3.89149">
        <ele>107.2</ele>
        <time>2024-04-25T12:59:12.124Z</time>
      </trkpt>
      <trkpt lat="43.67252" lon="3.89153">
        <ele>106.8</ele>
        <time>2024-04-25T12:59:13.999Z</time>
      </trkpt>
      <trkpt lat="43.67248" lon="3.89157">
        <ele>106.5</ele>
        <time>2024-04-25T12:59:15.874Z</time>
      </trkpt>
      <trkpt lat="43.67245" lon="3.89162">
        <ele>106.3</ele>
        <time>2024-04-25T12:59:17.749Z</time>
      </trkpt>
      <trkpt lat="43.67242" lon="3.89166">
        <ele>106.1</ele>
        <time>2024-04-25T12:59:19.624Z</time>
      </trkpt>
      <trkpt lat="43.67238" lon="3.8917">
        <ele>105.8</ele>
        <time>2024-04-25T12:59:21.499Z</time>
      </trkpt>
      <trkpt lat="43.67235" lon="3.89174">
        <ele>105.6</ele>
        <time>2024-04-25T12:59:23.374Z</time>
      </trkpt>
      <trkpt lat="43.67232" lon="3.89179">
        <ele>105.4</ele>
        <time>2024-04-25T12:59:25.249Z</time>
      </trkpt>
      <trkpt lat="43.67228" lon="3.89183">
        <ele>105.2</ele>
        <time>2024-04-25T12:59:27.124Z</time>
      </trkpt>
      <trkpt lat="43.67225" lon="3.89187">
        <ele>105</ele>
        <time>2024-04-25T14:59:29+02:00</time>
      </trkpt>
      <trkpt lat="43.6722" lon="3.89194">
        <ele>104.8</ele>
        <time>2024-04-25T12:59:30.249Z</time>
      </trkpt>
      <trkpt lat="43.67214" lon="3.89201">
        <ele>104.7</ele>
        <time>2024-04-25T12:59:31.499Z</time>
      </trkpt>
      <trkpt lat="43.67209" lon="3.89208">
        <ele>104.5</ele>
        <time>2024-04-25T12:59:32.749Z</time>
      </trkpt>
      <trkpt lat="43.67204" lon="3.89215">
        <ele>104.4</ele>
        <time>2024-04-25T12:59:33.999Z</time>
      </trkpt>
      <trkpt lat="43.67198" lon="3.89221">
        <ele>104.2</ele>
        <time>2024-04-25T12:59:35.249Z</time>
      </trkpt>
      <trkpt lat="43.67193" lon="3.89228">
        <ele>104.1</ele>
        <time>2024-04-25T12:59:36.499Z</time>
      </trkpt>
      <trkpt lat="43.67187" lon="3.89235">
        <ele>104</ele>
        <time>2024-04-25T12:59:37.749Z</time>
      </trkpt>
      <trkpt lat="43.67182" lon="3.89242">
        <ele>103.8</ele>
        <time>2024-04-25T14:59:39+02:00</time>
      </trkpt>
      <trkpt lat="43.67175" lon="3.89239">
        <ele>103.2</ele>
        <time>2024-04-25T12:59:42.999Z</time>
      </trkpt>
      <trkpt lat="43.67168" lon="3.89235">
        <ele>102.6</ele>
        <time>2024-04-25T14:59:47+02:00</time>
      </trkpt>
      <trkpt lat="43.6716" lon="3.89236">
        <ele>102.1</ele>
        <time>2024-04-25T12:59:52.749Z</time>
      </trkpt>
      <trkpt lat="43.67153" lon="3.89236">
        <ele>101.8</ele>
        <time>2024-04-25T12:59:58.499Z</time>
      </trkpt>
      <trkpt lat="43.67145" lon="3.89237">
        <ele>101.4</ele>
        <time>2024-04-25T13:00:04.249Z</time>
      </trkpt>
      <trkpt lat="43.67138" lon="3.89237">
        <ele>100.9</ele>
        <time>2024-04-25T13:00:09.999Z</time>
      </trkpt>
      <trkpt lat="43.6713" lon="3.89238">
        <ele>100.5</ele>
        <time>2024-04-25T13:00:15.749Z</time>
      </trkpt>
      <trkpt lat="43.67123" lon="3.89238">
        <ele>100.2</ele>
        <time>2024-04-25T13:00:21.499Z</time>
      </trkpt>
      <trkpt lat="43.67115" lon="3.89239">
        <ele>99.8</ele>
        <time>2024-04-25T13:00:27.249Z</time>
      </trkpt>
      <trkpt lat="43.67108" lon="3.8924">
        <ele>99.8</ele>
        <time>2024-04-25T13:00:32.999Z</time>
      </trkpt>
      <trkpt lat="43.671" lon="3.8924">
        <ele>100.2</ele>
        <time>2024-04-25T13:00:38.749Z</time>
      </trkpt>
      <trkpt lat="43.67092" lon="3.89241">
        <ele>100.6</ele>
        <time>2024-04-25T13:00:44.499Z</time>
      </trkpt>
      <trkpt lat="43.67085" lon="3.89241">
        <ele>101</ele>
        <time>2024-04-25T13:00:50.249Z</time>
      </trkpt>
      <trkpt lat="43.67077" lon="3.89242">
        <ele>101.7</ele>
        <time>2024-04-25T13:00:55.999Z</time>
      </trkpt>
      <trkpt lat="43.6707" lon="3.89242">
        <ele>102.4</ele>
        <time>2024-04-25T13:01:01.749Z</time>
      </trkpt>
      <trkpt lat="43.67062" lon="3.89243">
        <ele>103.2</ele>
        <time>2024-04-25T13:01:07.499Z</time>
      </trkpt>
      <trkpt lat="43.67055" lon="3.89243">
        <ele>103.7</ele>
        <time>2024-04-25T13:01:13.249Z</time>
      </trkpt>
      <trkpt lat="43.67047" lon="3.89244">
        <ele>103</ele>
        <time>2024-04-25T15:01:19+02:00</time>
      </trkpt>
      <trkpt lat="43.67046" lon="3.89233">
        <ele>102.8</ele>
        <time>2024-04-25T13:01:21.499Z</time>
      </trkpt>
      <trkpt lat="43.67045" lon="3.89222">
        <ele>102.6</ele>
        <time>2024-04-25T13:01:23.999Z</time>
      </trkpt>
      <trkpt lat="43.67043" lon="3.8921">
        <ele>102.9</ele>
        <time>2024-04-25T13:01:26.499Z</time>
      </trkpt>
      <trkpt lat="43.67042" lon="3.89199">
        <ele>103.3</ele>
        <time>2024-04-25T15:01:29+02:00</time>
      </trkpt>
      <trkpt lat="43.67043" lon="3.89191">
        <ele>103.5</ele>
        <time>2024-04-25T13:01:30.250Z</time>
      </trkpt>
      <trkpt lat="43.67043" lon="3.89184">
        <ele>103.6</ele>
        <time>2024-04-25T13:01:31.500Z</time>
      </trkpt>
      <trkpt lat="43.67044" lon="3.89176">
        <ele>103.7</ele>
        <time>2024-04-25T13:01:32.750Z</time>
      </trkpt>
      <trkpt lat="43.67045" lon="3.89168">
        <ele>103.8</ele>
        <time>2024-04-25T13:01:34.000Z</time>
      </trkpt>
      <trkpt lat="43.67045" lon="3.8916">
        <ele>103.8</ele>
        <time>2024-04-25T13:01:35.250Z</time>
      </trkpt>
      <trkpt lat="43.67046" lon="3.89153">
        <ele>103.9</ele>
        <time>2024-04-25T13:01:36.500Z</time>
      </trkpt>
      <trkpt lat="43.67046" lon="3.89145">
        <ele>103.9</ele>
        <time>2024-04-25T13:01:37.750Z</time>
      </trkpt>
      <trkpt lat="43.67047" lon="3.89137">
        <ele>103.9</ele>
        <time>2024-04-25T15:01:39+02:00</time>
      </trkpt>
      <trkpt lat="43.67045" lon="3.89128">
        <ele>103.9</ele>
        <time>2024-04-25T13:01:40.249Z</time>
      </trkpt>
      <trkpt lat="43.67043" lon="3.8912">
        <ele>104</ele>
        <time>2024-04-25T13:01:41.499Z</time>
      </trkpt>
      <trkpt lat="43.67041" lon="3.89111">
        <ele>104.2</ele>
        <time>2024-04-25T13:01:42.749Z</time>
      </trkpt>
      <trkpt lat="43.67039" lon="3.89103">
        <ele>104.2</ele>
        <time>2024-04-25T13:01:43.999Z</time>
      </trkpt>
      <trkpt lat="43.67036" lon="3.89094">
        <ele>104.4</ele>
        <time>2024-04-25T13:01:45.249Z</time>
      </trkpt>
      <trkpt lat="43.67034" lon="3.89085">
        <ele>104.6</ele>
        <time>2024-04-25T13:01:46.499Z</time>
      </trkpt>
      <trkpt lat="43.67032" lon="3.89077">
        <ele>105</ele>
        <time>2024-04-25T13:01:47.749Z</time>
      </trkpt>
      <trkpt lat="43.6703" lon="3.89068">
        <ele>105.4</ele>
        <time>2024-04-25T15:01:49+02:00</time>
      </trkpt>
      <trkpt lat="43.67029" lon="3.8906">
        <ele>105.7</ele>
        <time>2024-04-25T13:01:50.249Z</time>
      </trkpt>
      <trkpt lat="43.67028" lon="3.89052">
        <ele>105.9</ele>
        <time>2024-04-25T13:01:51.499Z</time>
      </trkpt>
      <trkpt lat="43.67027" lon="3.89044">
        <ele>106</ele>
        <time>2024-04-25T13:01:52.749Z</time>
      </trkpt>
      <trkpt lat="43.67026" lon="3.89037">
        <ele>106</ele>
        <time>2024-04-25T13:01:53.999Z</time>
      </trkpt>
      <trkpt lat="43.67025" lon="3.89029">
        <ele>106</ele>
        <time>2024-04-25T13:01:55.249Z</time>
      </trkpt>
      <trkpt lat="43.67024" lon="3.89021">
        <ele>106</ele>
        <time>2024-04-25T13:01:56.499Z</time>
      </trkpt>
      <trkpt lat="43.67023" lon="3.89013">
        <ele>106.1</ele>
        <time>2024-04-25T13:01:57.749Z</time>
      </trkpt>
      <trkpt lat="43.67022" lon="3.89005">
        <ele>106.2</ele>
        <time>2024-04-25T15:01:59+02:00</time>
      </trkpt>
      <trkpt lat="43.67021" lon="3.88996">
        <ele>106.4</ele>
        <time>2024-04-25T13:02:00.249Z</time>
      </trkpt>
      <trkpt lat="43.6702" lon="3.88988">
        <ele>106.7</ele>
        <time>2024-04-25T13:02:01.499Z</time>
      </trkpt>
      <trkpt lat="43.67019" lon="3.88979">
        <ele>107.1</ele>
        <time>2024-04-25T13:02:02.749Z</time>
      </trkpt>
      <trkpt lat="43.67018" lon="3.88971">
        <ele>107.4</ele>
        <time>2024-04-25T13:02:03.999Z</time>
      </trkpt>
      <trkpt lat="43.67017" lon="3.88962">
        <ele>107.9</ele>
        <time>2024-04-25T13:02:05.249Z</time>
      </trkpt>
      <trkpt lat="43.67016" lon="3.88953">
        <ele>108.4</ele>
        <time>2024-04-25T13:02:06.499Z</time>
      </trkpt>
      <trkpt lat="43.67015" lon="3.88945">
        <ele>108.9</ele>
        <time>2024-04-25T13:02:07.749Z</time>
      </trkpt>
      <trkpt lat="43.67014" lon="3.88936">
        <ele>109.1</ele>
        <time>2024-04-25T15:02:09+02:00</time>
      </trkpt>
      <trkpt lat="43.67013" lon="3.88929">
        <ele>109.3</ele>
        <time>2024-04-25T13:02:10.249Z</time>
      </trkpt>
      <trkpt lat="43.67013" lon="3.88922">
        <ele>109.5</ele>
        <time>2024-04-25T13:02:11.499Z</time>
      </trkpt>
      <trkpt lat="43.67012" lon="3.88914">
        <ele>109.7</ele>
        <time>2024-04-25T13:02:12.749Z</time>
      </trkpt>
      <trkpt lat="43.67012" lon="3.88907">
        <ele>109.8</ele>
        <time>2024-04-25T13:02:13.999Z</time>
      </trkpt>
      <trkpt lat="43.67011" lon="3.889">
        <ele>109.8</ele>
        <time>2024-04-25T13:02:15.249Z</time>
      </trkpt>
      <trkpt lat="43.6701" lon="3.88893">
        <ele>109.9</ele>
        <time>2024-04-25T13:02:16.499Z</time>
      </trkpt>
      <trkpt lat="43.6701" lon="3.88885">
        <ele>110.1</ele>
        <time>2024-04-25T13:02:17.749Z</time>
      </trkpt>
      <trkpt lat="43.67009" lon="3.88878">
        <ele>110.4</ele>
        <time>2024-04-25T15:02:19+02:00</time>
      </trkpt>
      <trkpt lat="43.67009" lon="3.88869">
        <ele>110.8</ele>
        <time>2024-04-25T13:02:20.249Z</time>
      </trkpt>
      <trkpt lat="43.67009" lon="3.88861">
        <ele>111.1</ele>
        <time>2024-04-25T13:02:21.499Z</time>
      </trkpt>
      <trkpt lat="43.67008" lon="3.88852">
        <ele>111.5</ele>
        <time>2024-04-25T13:02:22.749Z</time>
      </trkpt>
      <trkpt lat="43.67008" lon="3.88843">
        <ele>111.8</ele>
        <time>2024-04-25T13:02:23.999Z</time>
      </trkpt>
      <trkpt lat="43.67008" lon="3.88834">
        <ele>112.1</ele>
        <time>2024-04-25T13:02:25.249Z</time>
      </trkpt>
      <trkpt lat="43.67008" lon="3.88826">
        <ele>112.3</ele>
        <time>2024-04-25T13:02:26.499Z</time>
      </trkpt>
      <trkpt lat="43.67007" lon="3.88817">
        <ele>112.4</ele>
        <time>2024-04-25T13:02:27.749Z</time>
      </trkpt>
      <trkpt lat="43.67007" lon="3.88808">
        <ele>112.5</ele>
        <time>2024-04-25T15:02:29+02:00</time>
      </trkpt>
      <trkpt lat="43.67007" lon="3.888">
        <ele>112.6</ele>
        <time>2024-04-25T13:02:30.250Z</time>
      </trkpt>
      <trkpt lat="43.67008" lon="3.88791">
        <ele>112.8</ele>
        <time>2024-04-25T13:02:31.500Z</time>
      </trkpt>
      <trkpt lat="43.67008" lon="3.88783">
        <ele>113</ele>
        <time>2024-04-25T13:02:32.750Z</time>
      </trkpt>
      <trkpt lat="43.67009" lon="3.88775">
        <ele>113.2</ele>
        <time>2024-04-25T13:02:34.000Z</time>
      </trkpt>
      <trkpt lat="43.67009" lon="3.88766">
        <ele>113.5</ele>
        <time>2024-04-25T13:02:35.250Z</time>
      </trkpt>
      <trkpt lat="43.67009" lon="3.88758">
        <ele>113.7</ele>
        <time>2024-04-25T13:02:36.500Z</time>
      </trkpt>
      <trkpt lat="43.6701" lon="3.88749">
        <ele>114</ele>
        <time>2024-04-25T13:02:37.750Z</time>
      </trkpt>
      <trkpt lat="43.6701" lon="3.88741">
        <ele>113.8</ele>
        <time>2024-04-25T15:02:39+02:00</time>
      </trkpt>
      <trkpt lat="43.6701" lon="3.88734">
        <ele>113.7</ele>
        <time>2024-04-25T13:02:40.000Z</time>
      </trkpt>
      <trkpt lat="43.6701" lon="3.88727">
        <ele>113.6</ele>
        <time>2024-04-25T13:02:41.000Z</time>
      </trkpt>
      <trkpt lat="43.6701" lon="3.8872">
        <ele>113.4</ele>
        <time>2024-04-25T13:02:42.000Z</time>
      </trkpt>
      <trkpt lat="43.67011" lon="3.88713">
        <ele>113.1</ele>
        <time>2024-04-25T13:02:43.000Z</time>
      </trkpt>
      <trkpt lat="43.67011" lon="3.88705">
        <ele>112.9</ele>
        <time>2024-04-25T13:02:44.000Z</time>
      </trkpt>
      <trkpt lat="43.67011" lon="3.88698">
        <ele>112.6</ele>
        <time>2024-04-25T13:02:45.000Z</time>
      </trkpt>
      <trkpt lat="43.67011" lon="3.88691">
        <ele>112.1</ele>
        <time>2024-04-25T13:02:46.000Z</time>
      </trkpt>
      <trkpt lat="43.67011" lon="3.88684">
        <ele>111.4</ele>
        <time>2024-04-25T15:02:47+02:00</time>
      </trkpt>
      <trkpt lat="43.67011" lon="3.88677">
        <ele>110.8</ele>
        <time>2024-04-25T13:02:48.000Z</time>
      </trkpt>
      <trkpt lat="43.67011" lon="3.8867">
        <ele>110.1</ele>
        <time>2024-04-25T15:02:49+02:00</time>
      </trkpt>
      <trkpt lat="43.67012" lon="3.88662">
        <ele>109.4</ele>
        <time>2024-04-25T13:02:50.250Z</time>
      </trkpt>
      <trkpt lat="43.67013" lon="3.88653">
        <ele>108.7</ele>
        <time>2024-04-25T13:02:51.500Z</time>
      </trkpt>
      <trkpt lat="43.67013" lon="3.88645">
        <ele>108</ele>
        <time>2024-04-25T13:02:52.750Z</time>
      </trkpt>
      <trkpt lat="43.67014" lon="3.88637">
        <ele>107.4</ele>
        <time>2024-04-25T13:02:54.000Z</time>
      </trkpt>
      <trkpt lat="43.67015" lon="3.88628">
        <ele>106.8</ele>
        <time>2024-04-25T13:02:55.250Z</time>
      </trkpt>
      <trkpt lat="43.67016" lon="3.8862">
        <ele>106.3</ele>
        <time>2024-04-25T13:02:56.500Z</time>
      </trkpt>
      <trkpt lat="43.67016" lon="3.88611">
        <ele>105.8</ele>
        <time>2024-04-25T13:02:57.750Z</time>
      </trkpt>
      <trkpt lat="43.67017" lon="3.88603">
        <ele>105.2</ele>
        <time>2024-04-25T15:02:59+02:00</time>
      </trkpt>
      <trkpt lat="43.67019" lon="3.88594">
        <ele>104.4</ele>
        <time>2024-04-25T13:03:00.250Z</time>
      </trkpt>
      <trkpt lat="43.67021" lon="3.88584">
        <ele>103.5</ele>
        <time>2024-04-25T13:03:01.500Z</time>
      </trkpt>
      <trkpt lat="43.67023" lon="3.88575">
        <ele>102.7</ele>
        <time>2024-04-25T13:03:02.750Z</time>
      </trkpt>
      <trkpt lat="43.67026" lon="3.88565">
        <ele>101.8</ele>
        <time>2024-04-25T13:03:04.000Z</time>
      </trkpt>
      <trkpt lat="43.67028" lon="3.88556">
        <ele>101</ele>
        <time>2024-04-25T13:03:05.250Z</time>
      </trkpt>
      <trkpt lat="43.6703" lon="3.88546">
        <ele>100.5</ele>
        <time>2024-04-25T13:03:06.500Z</time>
      </trkpt>
      <trkpt lat="43.67032" lon="3.88537">
        <ele>100</ele>
        <time>2024-04-25T13:03:07.750Z</time>
      </trkpt>
      <trkpt lat="43.67034" lon="3.88527">
        <ele>99.5</ele>
        <time>2024-04-25T15:03:09+02:00</time>
      </trkpt>
      <trkpt lat="43.67041" lon="3.88521">
        <ele>98.7</ele>
        <time>2024-04-25T13:03:10.250Z</time>
      </trkpt>
      <trkpt lat="43.67048" lon="3.88515">
        <ele>98</ele>
        <time>2024-04-25T13:03:11.500Z</time>
      </trkpt>
      <trkpt lat="43.67054" lon="3.88509">
        <ele>97.4</ele>
        <time>2024-04-25T13:03:12.750Z</time>
      </trkpt>
      <trkpt lat="43.67061" lon="3.88503">
        <ele>97.1</ele>
        <time>2024-04-25T13:03:14.000Z</time>
      </trkpt>
      <trkpt lat="43.67068" lon="3.88497">
        <ele>97</ele>
        <time>2024-04-25T13:03:15.250Z</time>
      </trkpt>
      <trkpt lat="43.67075" lon="3.88491">
        <ele>97</ele>
        <time>2024-04-25T13:03:16.500Z</time>
      </trkpt>
      <trkpt lat="43.67081" lon="3.88485">
        <ele>97</ele>
        <time>2024-04-25T13:03:17.750Z</time>
      </trkpt>
      <trkpt lat="43.67088" lon="3.88479">
        <ele>97.1</ele>
        <time>2024-04-25T15:03:19+02:00</time>
      </trkpt>
      <trkpt lat="43.67091" lon="3.88474">
        <ele>97.3</ele>
        <time>2024-04-25T13:03:20.250Z</time>
      </trkpt>
      <trkpt lat="43.67094" lon="3.88468">
        <ele>97.5</ele>
        <time>2024-04-25T13:03:21.500Z</time>
      </trkpt>
      <trkpt lat="43.67097" lon="3.88463">
        <ele>97.9</ele>
        <time>2024-04-25T13:03:22.750Z</time>
      </trkpt>
      <trkpt lat="43.67101" lon="3.88457">
        <ele>98.3</ele>
        <time>2024-04-25T13:03:24.000Z</time>
      </trkpt>
      <trkpt lat="43.67104" lon="3.88452">
        <ele>98.8</ele>
        <time>2024-04-25T13:03:25.250Z</time>
      </trkpt>
      <trkpt lat="43.67107" lon="3.88446">
        <ele>99.4</ele>
        <time>2024-04-25T13:03:26.500Z</time>
      </trkpt>
      <trkpt lat="43.6711" lon="3.88441">
        <ele>100.1</ele>
        <time>2024-04-25T13:03:27.750Z</time>
      </trkpt>
      <trkpt lat="43.67113" lon="3.88435">
        <ele>100.8</ele>
        <time>2024-04-25T15:03:29+02:00</time>
      </trkpt>
      <trkpt lat="43.67113" lon="3.88426">
        <ele>101.5</ele>
        <time>2024-04-25T13:03:31.499Z</time>
      </trkpt>
      <trkpt lat="43.67112" lon="3.88416">
        <ele>102.1</ele>
        <time>2024-04-25T13:03:33.999Z</time>
      </trkpt>
      <trkpt lat="43.67112" lon="3.88407">
        <ele>102.4</ele>
        <time>2024-04-25T13:03:36.499Z</time>
      </trkpt>
      <trkpt lat="43.67111" lon="3.88397">
        <ele>102.7</ele>
        <time>2024-04-25T15:03:39+02:00</time>
      </trkpt>
      <trkpt lat="43.67115" lon="3.88391">
        <ele>103.3</ele>
        <time>2024-04-25T13:03:41.500Z</time>
      </trkpt>
      <trkpt lat="43.67118" lon="3.88384">
        <ele>104.1</ele>
        <time>2024-04-25T13:03:44.000Z</time>
      </trkpt>
      <trkpt lat="43.67122" lon="3.88378">
        <ele>105.1</ele>
        <time>2024-04-25T13:03:46.500Z</time>
      </trkpt>
      <trkpt lat="43.67125" lon="3.88371">
        <ele>106.1</ele>
        <time>2024-04-25T15:03:49+02:00</time>
      </trkpt>
      <trkpt lat="43.67134" lon="3.88372">
        <ele>107.1</ele>
        <time>2024-04-25T13:03:54.000Z</time>
      </trkpt>
      <trkpt lat="43.67142" lon="3.88373">
        <ele>107.9</ele>
        <time>2024-04-25T15:03:59+02:00</time>
      </trkpt>
      <trkpt lat="43.67147" lon="3.88374">
        <ele>108.1</ele>
        <time>2024-04-25T15:04:09+02:00</time>
      </trkpt>
      <trkpt lat="43.67153" lon="3.88374">
        <ele>108.4</ele>
        <time>2024-04-25T13:04:15.437Z</time>
      </trkpt>
      <trkpt lat="43.67158" lon="3.88374">
        <ele>108.7</ele>
        <time>2024-04-25T13:04:21.874Z</time>
      </trkpt>
      <trkpt lat="43.67164" lon="3.88374">
        <ele>109</ele>
        <time>2024-04-25T13:04:28.311Z</time>
      </trkpt>
      <trkpt lat="43.67169" lon="3.88374">
        <ele>109.1</ele>
        <time>2024-04-25T13:04:34.748Z</time>
      </trkpt>
      <trkpt lat="43.67175" lon="3.88374">
        <ele>109.1</ele>
        <time>2024-04-25T13:04:41.185Z</time>
      </trkpt>
      <trkpt lat="43.6718" lon="3.88374">
        <ele>109.1</ele>
        <time>2024-04-25T13:04:47.622Z</time>
      </trkpt>
      <trkpt lat="43.67186" lon="3.88374">
        <ele>109.1</ele>
        <time>2024-04-25T13:04:54.059Z</time>
      </trkpt>
      <trkpt lat="43.67191" lon="3.88374">
        <ele>109.1</ele>
        <time>2024-04-25T13:05:00.496Z</time>
      </trkpt>
      <trkpt lat="43.67197" lon="3.88374">
        <ele>109.1</ele>
        <time>2024-04-25T13:05:06.934Z</time>
      </trkpt>
      <trkpt lat="43.67202" lon="3.88374">
        <ele>108.9</ele>
        <time>2024-04-25T13:05:13.372Z</time>
      </trkpt>
      <trkpt lat="43.67208" lon="3.88374">
        <ele>108.7</ele>
        <time>2024-04-25T13:05:19.810Z</time>
      </trkpt>
      <trkpt lat="43.67213" lon="3.88374">
        <ele>108.5</ele>
        <time>2024-04-25T13:05:26.248Z</time>
      </trkpt>
      <trkpt lat="43.67219" lon="3.88374">
        <ele>108.3</ele>
        <time>2024-04-25T13:05:32.686Z</time>
      </trkpt>
      <trkpt lat="43.67224" lon="3.88374">
        <ele>108.1</ele>
        <time>2024-04-25T13:05:39.124Z</time>
      </trkpt>
      <trkpt lat="43.6723" lon="3.88374">
        <ele>108.1</ele>
        <time>2024-04-25T13:05:45.562Z</time>
      </trkpt>
      <trkpt lat="43.67235" lon="3.88374">
        <ele>108.1</ele>
        <time>2024-04-25T15:05:52+02:00</time>
      </trkpt>
      <trkpt lat="43.6724" lon="3.88371">
        <ele>108.6</ele>
        <time>2024-04-25T13:05:57.000Z</time>
      </trkpt>
      <trkpt lat="43.67245" lon="3.88367">
        <ele>109.1</ele>
        <time>2024-04-25T13:06:02.000Z</time>
      </trkpt>
      <trkpt lat="43.6725" lon="3.88364">
        <ele>109.6</ele>
        <time>2024-04-25T13:06:07.000Z</time>
      </trkpt>
      <trkpt lat="43.67255" lon="3.8836">
        <ele>109.9</ele>
        <time>2024-04-25T13:06:12.000Z</time>
      </trkpt>
      <trkpt lat="43.6726" lon="3.88357">
        <ele>110.1</ele>
        <time>2024-04-25T13:06:17.000Z</time>
      </trkpt>
      <trkpt lat="43.67265" lon="3.88353">
        <ele>110.3</ele>
        <time>2024-04-25T13:06:22.000Z</time>
      </trkpt>
      <trkpt lat="43.6727" lon="3.8835">
        <ele>110.5</ele>
        <time>2024-04-25T13:06:27.000Z</time>
      </trkpt>
      <trkpt lat="43.67275" lon="3.88347">
        <ele>110.7</ele>
        <time>2024-04-25T13:06:32.000Z</time>
      </trkpt>
      <trkpt lat="43.67279" lon="3.88343">
        <ele>110.9</ele>
        <time>2024-04-25T13:06:37.000Z</time>
      </trkpt>
      <trkpt lat="43.67284" lon="3.8834">
        <ele>111.3</ele>
        <time>2024-04-25T13:06:42.000Z</time>
      </trkpt>
      <trkpt lat="43.67289" lon="3.88336">
        <ele>111.7</ele>
        <time>2024-04-25T13:06:47.000Z</time>
      </trkpt>
      <trkpt lat="43.67294" lon="3.88333">
        <ele>112.1</ele>
        <time>2024-04-25T13:06:52.000Z</time>
      </trkpt>
      <trkpt lat="43.67299" lon="3.88329">
        <ele>112.4</ele>
        <time>2024-04-25T13:06:57.000Z</time>
      </trkpt>
      <trkpt lat="43.67304" lon="3.88326">
        <ele>112.8</ele>
        <time>2024-04-25T13:07:02.000Z</time>
      </trkpt>
      <trkpt lat="43.67309" lon="3.88322">
        <ele>113.3</ele>
        <time>2024-04-25T13:07:07.000Z</time>
      </trkpt>
      <trkpt lat="43.67314" lon="3.88319">
        <ele>113.7</ele>
        <time>2024-04-25T15:07:12+02:00</time>
      </trkpt>
      <trkpt lat="43.67308" lon="3.88311">
        <ele>114.4</ele>
        <time>2024-04-25T13:07:16.999Z</time>
      </trkpt>
      <trkpt lat="43.67301" lon="3.88303">
        <ele>115.3</ele>
        <time>2024-04-25T13:07:21.999Z</time>
      </trkpt>
      <trkpt lat="43.67295" lon="3.88295">
        <ele>116.1</ele>
        <time>2024-04-25T13:07:26.999Z</time>
      </trkpt>
      <trkpt lat="43.67288" lon="3.88287">
        <ele>117</ele>
        <time>2024-04-25T15:07:32+02:00</time>
      </trkpt>
      <trkpt lat="43.67285" lon="3.88292">
        <ele>116.5</ele>
        <time>2024-04-25T13:07:33.249Z</time>
      </trkpt>
      <trkpt lat="43.67282" lon="3.88296">
        <ele>116</ele>
        <time>2024-04-25T13:07:34.499Z</time>
      </trkpt>
      <trkpt lat="43.67278" lon="3.88301">
        <ele>115.5</ele>
        <time>2024-04-25T13:07:35.749Z</time>
      </trkpt>
      <trkpt lat="43.67275" lon="3.88306">
        <ele>115.1</ele>
        <time>2024-04-25T13:07:36.999Z</time>
      </trkpt>
      <trkpt lat="43.67272" lon="3.8831">
        <ele>114.7</ele>
        <time>2024-04-25T13:07:38.249Z</time>
      </trkpt>
      <trkpt lat="43.67269" lon="3.88315">
        <ele>114.3</ele>
        <time>2024-04-25T13:07:39.499Z</time>
      </trkpt>
      <trkpt lat="43.67265" lon="3.88319">
        <ele>114</ele>
        <time>2024-04-25T13:07:40.749Z</time>
      </trkpt>
      <trkpt lat="43.67262" lon="3.88324">
        <ele>113.6</ele>
        <time>2024-04-25T15:07:42+02:00</time>
      </trkpt>
      <trkpt lat="43.67254" lon="3.88327">
        <ele>113.6</ele>
        <time>2024-04-25T13:07:46.999Z</time>
      </trkpt>
      <trkpt lat="43.67245" lon="3.88329">
        <ele>113.6</ele>
        <time>2024-04-25T15:07:52+02:00</time>
      </trkpt>
      <trkpt lat="43.67239" lon="3.88326">
        <ele>114.2</ele>
        <time>2024-04-25T13:07:54.499Z</time>
      </trkpt>
      <trkpt lat="43.67232" lon="3.88323">
        <ele>114.8</ele>
        <time>2024-04-25T13:07:56.999Z</time>
      </trkpt>
      <trkpt lat="43.67226" lon="3.88319">
        <ele>115.4</ele>
        <time>2024-04-25T13:07:59.499Z</time>
      </trkpt>
      <trkpt lat="43.67219" lon="3.88316">
        <ele>116</ele>
        <time>2024-04-25T15:08:02+02:00</time>
      </trkpt>
      <trkpt lat="43.67214" lon="3.88311">
        <ele>116.7</ele>
        <time>2024-04-25T13:08:04.499Z</time>
      </trkpt>
      <trkpt lat="43.67208" lon="3.88306">
        <ele>117.5</ele>
        <time>2024-04-25T13:08:06.999Z</time>
      </trkpt>
      <trkpt lat="43.67203" lon="3.883">
        <ele>118.2</ele>
        <time>2024-04-25T13:08:09.499Z</time>
      </trkpt>
      <trkpt lat="43.67197" lon="3.88295">
        <ele>118.7</ele>
        <time>2024-04-25T15:08:12+02:00</time>
      </trkpt>
      <trkpt lat="43.67189" lon="3.8829">
        <ele>119</ele>
        <time>2024-04-25T13:08:14.499Z</time>
      </trkpt>
      <trkpt lat="43.67182" lon="3.88286">
        <ele>119.1</ele>
        <time>2024-04-25T13:08:16.999Z</time>
      </trkpt>
      <trkpt lat="43.67174" lon="3.88281">
        <ele>119.1</ele>
        <time>2024-04-25T13:08:19.499Z</time>
      </trkpt>
      <trkpt lat="43.67166" lon="3.88276">
        <ele>119</ele>
        <time>2024-04-25T15:08:22+02:00</time>
      </trkpt>
      <trkpt lat="43.67158" lon="3.88277">
        <ele>118.3</ele>
        <time>2024-04-25T13:08:24.500Z</time>
      </trkpt>
      <trkpt lat="43.67149" lon="3.88278">
        <ele>117.7</ele>
        <time>2024-04-25T13:08:27.000Z</time>
      </trkpt>
      <trkpt lat="43.67141" lon="3.88279">
        <ele>117.1</ele>
        <time>2024-04-25T13:08:29.500Z</time>
      </trkpt>
      <trkpt lat="43.67132" lon="3.8828">
        <ele>116.2</ele>
        <time>2024-04-25T15:08:32+02:00</time>
      </trkpt>
      <trkpt lat="43.67127" lon="3.88275">
        <ele>115.8</ele>
        <time>2024-04-25T13:08:33.249Z</time>
      </trkpt>
      <trkpt lat="43.67122" lon="3.8827">
        <ele>115.4</ele>
        <time>2024-04-25T13:08:34.499Z</time>
      </trkpt>
      <trkpt lat="43.67117" lon="3.88264">
        <ele>115</ele>
        <time>2024-04-25T13:08:35.749Z</time>
      </trkpt>
      <trkpt lat="43.67112" lon="3.88259">
        <ele>114.8</ele>
        <time>2024-04-25T13:08:36.999Z</time>
      </trkpt>
      <trkpt lat="43.67107" lon="3.88254">
        <ele>114.4</ele>
        <time>2024-04-25T13:08:38.249Z</time>
      </trkpt>
      <trkpt lat="43.67102" lon="3.88249">
        <ele>114</ele>
        <time>2024-04-25T13:08:39.499Z</time>
      </trkpt>
      <trkpt lat="43.67097" lon="3.88243">
        <ele>113.4</ele>
        <time>2024-04-25T13:08:40.749Z</time>
      </trkpt>
      <trkpt lat="43.67092" lon="3.88238">
        <ele>112.8</ele>
        <time>2024-04-25T15:08:42+02:00</time>
      </trkpt>
      <trkpt lat="43.67086" lon="3.88233">
        <ele>112.2</ele>
        <time>2024-04-25T13:08:43.249Z</time>
      </trkpt>
      <trkpt lat="43.67081" lon="3.88228">
        <ele>111.9</ele>
        <time>2024-04-25T13:08:44.499Z</time>
      </trkpt>
      <trkpt lat="43.67075" lon="3.88222">
        <ele>111.7</ele>
        <time>2024-04-25T13:08:45.749Z</time>
      </trkpt>
      <trkpt lat="43.67069" lon="3.88217">
        <ele>111.4</ele>
        <time>2024-04-25T15:08:47+02:00</time>
      </trkpt>
      <trkpt lat="43.67065" lon="3.88208">
        <ele>111.2</ele>
        <time>2024-04-25T13:08:49.499Z</time>
      </trkpt>
      <trkpt lat="43.67061" lon="3.88199">
        <ele>111</ele>
        <time>2024-04-25T15:08:52+02:00</time>
      </trkpt>
      <trkpt lat="43.67066" lon="3.88191">
        <ele>110.7</ele>
        <time>2024-04-25T13:08:53.750Z</time>
      </trkpt>
      <trkpt lat="43.67071" lon="3.88184">
        <ele>110</ele>
        <time>2024-04-25T13:08:55.500Z</time>
      </trkpt>
      <trkpt lat="43.67075" lon="3.88176">
        <ele>109.2</ele>
        <time>2024-04-25T13:08:57.250Z</time>
      </trkpt>
      <trkpt lat="43.6708" lon="3.88168">
        <ele>108.3</ele>
        <time>2024-04-25T15:08:59+02:00</time>
      </trkpt>
      <trkpt lat="43.67083" lon="3.88163">
        <ele>107.7</ele>
        <time>2024-04-25T13:08:59.812Z</time>
      </trkpt>
      <trkpt lat="43.67086" lon="3.88158">
        <ele>107.4</ele>
        <time>2024-04-25T13:09:00.624Z</time>
      </trkpt>
      <trkpt lat="43.67089" lon="3.88153">
        <ele>107</ele>
        <time>2024-04-25T13:09:01.436Z</time>
      </trkpt>
      <trkpt lat="43.67092" lon="3.88148">
        <ele>106.6</ele>
        <time>2024-04-25T13:09:02.248Z</time>
      </trkpt>
      <trkpt lat="43.67095" lon="3.88143">
        <ele>106.3</ele>
        <time>2024-04-25T13:09:03.060Z</time>
      </trkpt>
      <trkpt lat="43.67098" lon="3.88138">
        <ele>105.9</ele>
        <time>2024-04-25T13:09:03.872Z</time>
      </trkpt>
      <trkpt lat="43.67101" lon="3.88133">
        <ele>105.5</ele>
        <time>2024-04-25T13:09:04.684Z</time>
      </trkpt>
      <trkpt lat="43.67105" lon="3.88128">
        <ele>105.1</ele>
        <time>2024-04-25T13:09:05.496Z</time>
      </trkpt>
      <trkpt lat="43.67108" lon="3.88122">
        <ele>104.7</ele>
        <time>2024-04-25T13:09:06.309Z</time>
      </trkpt>
      <trkpt lat="43.67111" lon="3.88117">
        <ele>104.4</ele>
        <time>2024-04-25T13:09:07.122Z</time>
      </trkpt>
      <trkpt lat="43.67114" lon="3.88112">
        <ele>104.4</ele>
        <time>2024-04-25T13:09:07.935Z</time>
      </trkpt>
      <trkpt lat="43.67117" lon="3.88107">
        <ele>104.6</ele>
        <time>2024-04-25T13:09:08.748Z</time>
      </trkpt>
      <trkpt lat="43.6712" lon="3.88102">
        <ele>104.8</ele>
        <time>2024-04-25T13:09:09.561Z</time>
      </trkpt>
      <trkpt lat="43.67123" lon="3.88097">
        <ele>105.1</ele>
        <time>2024-04-25T13:09:10.374Z</time>
      </trkpt>
      <trkpt lat="43.67126" lon="3.88092">
        <ele>105.2</ele>
        <time>2024-04-25T13:09:11.187Z</time>
      </trkpt>
      <trkpt lat="43.67129" lon="3.88087">
        <ele>105.4</ele>
        <time>2024-04-25T15:09:12+02:00</time>
      </trkpt>
      <trkpt lat="43.67133" lon="3.88077">
        <ele>105.6</ele>
        <time>2024-04-25T13:09:13.250Z</time>
      </trkpt>
      <trkpt lat="43.67137" lon="3.88068">
        <ele>105.9</ele>
        <time>2024-04-25T13:09:14.500Z</time>
      </trkpt>
      <trkpt lat="43.67141" lon="3.88058">
        <ele>106.4</ele>
        <time>2024-04-25T13:09:15.750Z</time>
      </trkpt>
      <trkpt lat="43.67146" lon="3.88049">
        <ele>107.2</ele>
        <time>2024-04-25T13:09:17.000Z</time>
      </trkpt>
      <trkpt lat="43.6715" lon="3.88039">
        <ele>108.1</ele>
        <time>2024-04-25T13:09:18.250Z</time>
      </trkpt>
      <trkpt lat="43.67154" lon="3.88029">
        <ele>109.1</ele>
        <time>2024-04-25T13:09:19.500Z</time>
      </trkpt>
      <trkpt lat="43.67158" lon="3.8802">
        <ele>110</ele>
        <time>2024-04-25T13:09:20.750Z</time>
      </trkpt>
      <trkpt lat="43.67162" lon="3.8801">
        <ele>111</ele>
        <time>2024-04-25T15:09:22+02:00</time>
      </trkpt>
      <trkpt lat="43.67162" lon="3.87999">
        <ele>111.4</ele>
        <time>2024-04-25T13:09:24.500Z</time>
      </trkpt>
      <trkpt lat="43.67163" lon="3.87988">
        <ele>111.8</ele>
        <time>2024-04-25T13:09:27.000Z</time>
      </trkpt>
      <trkpt lat="43.67163" lon="3.87976">
        <ele>112.3</ele>
        <time>2024-04-25T13:09:29.500Z</time>
      </trkpt>
      <trkpt lat="43.67163" lon="3.87965">
        <ele>112.3</ele>
        <time>2024-04-25T15:09:32+02:00</time>
      </trkpt>
      <trkpt lat="43.67165" lon="3.87959">
        <ele>112.4</ele>
        <time>2024-04-25T13:09:37.000Z</time>
      </trkpt>
      <trkpt lat="43.67167" lon="3.87953">
        <ele>112.3</ele>
        <time>2024-04-25T15:09:42+02:00</time>
      </trkpt>
      <trkpt lat="43.67164" lon="3.87942">
        <ele>111.7</ele>
        <time>2024-04-25T13:09:47.937Z</time>
      </trkpt>
      <trkpt lat="43.67162" lon="3.87931">
        <ele>110.6</ele>
        <time>2024-04-25T13:09:53.874Z</time>
      </trkpt>
      <trkpt lat="43.67159" lon="3.87921">
        <ele>109.6</ele>
        <time>2024-04-25T13:09:59.811Z</time>
      </trkpt>
      <trkpt lat="43.67156" lon="3.8791">
        <ele>109</ele>
        <time>2024-04-25T13:10:05.748Z</time>
      </trkpt>
      <trkpt lat="43.67154" lon="3.87899">
        <ele>108.5</ele>
        <time>2024-04-25T13:10:11.685Z</time>
      </trkpt>
      <trkpt lat="43.67151" lon="3.87888">
        <ele>108.1</ele>
        <time>2024-04-25T13:10:17.622Z</time>
      </trkpt>
      <trkpt lat="43.67148" lon="3.87877">
        <ele>108</ele>
        <time>2024-04-25T13:10:23.559Z</time>
      </trkpt>
      <trkpt lat="43.67146" lon="3.87867">
        <ele>108.1</ele>
        <time>2024-04-25T13:10:29.496Z</time>
      </trkpt>
      <trkpt lat="43.67143" lon="3.87856">
        <ele>108.4</ele>
        <time>2024-04-25T13:10:35.433Z</time>
      </trkpt>
      <trkpt lat="43.6714" lon="3.87845">
        <ele>108.8</ele>
        <time>2024-04-25T13:10:41.371Z</time>
      </trkpt>
      <trkpt lat="43.67137" lon="3.87834">
        <ele>109.1</ele>
        <time>2024-04-25T13:10:47.309Z</time>
      </trkpt>
      <trkpt lat="43.67135" lon="3.87823">
        <ele>109.2</ele>
        <time>2024-04-25T13:10:53.247Z</time>
      </trkpt>
      <trkpt lat="43.67132" lon="3.87812">
        <ele>109.2</ele>
        <time>2024-04-25T13:10:59.185Z</time>
      </trkpt>
      <trkpt lat="43.67129" lon="3.87802">
        <ele>109.4</ele>
        <time>2024-04-25T13:11:05.123Z</time>
      </trkpt>
      <trkpt lat="43.67127" lon="3.87791">
        <ele>109.7</ele>
        <time>2024-04-25T13:11:11.061Z</time>
      </trkpt>
      <trkpt lat="43.67124" lon="3.8778">
        <ele>110</ele>
        <time>2024-04-25T15:11:17+02:00</time>
      </trkpt>
      <trkpt lat="43.67123" lon="3.87774">
        <ele>110</ele>
        <time>2024-04-25T13:11:18.249Z</time>
      </trkpt>
      <trkpt lat="43.67122" lon="3.87767">
        <ele>110</ele>
        <time>2024-04-25T13:11:19.499Z</time>
      </trkpt>
      <trkpt lat="43.67122" lon="3.87761">
        <ele>110</ele>
        <time>2024-04-25T13:11:20.749Z</time>
      </trkpt>
      <trkpt lat="43.67121" lon="3.87755">
        <ele>110</ele>
        <time>2024-04-25T13:11:21.999Z</time>
      </trkpt>
      <trkpt lat="43.6712" lon="3.87748">
        <ele>110.1</ele>
        <time>2024-04-25T13:11:23.249Z</time>
      </trkpt>
      <trkpt lat="43.67119" lon="3.87742">
        <ele>110.3</ele>
        <time>2024-04-25T13:11:24.499Z</time>
      </trkpt>
      <trkpt lat="43.67118" lon="3.87736">
        <ele>110.5</ele>
        <time>2024-04-25T13:11:25.749Z</time>
      </trkpt>
      <trkpt lat="43.67118" lon="3.8773">
        <ele>110.7</ele>
        <time>2024-04-25T13:11:26.999Z</time>
      </trkpt>
      <trkpt lat="43.67117" lon="3.87723">
        <ele>111</ele>
        <time>2024-04-25T13:11:28.249Z</time>
      </trkpt>
      <trkpt lat="43.67116" lon="3.87717">
        <ele>111</ele>
        <time>2024-04-25T13:11:29.499Z</time>
      </trkpt>
      <trkpt lat="43.67115" lon="3.87711">
        <ele>111</ele>
        <time>2024-04-25T13:11:30.749Z</time>
      </trkpt>
      <trkpt lat="43.67114" lon="3.87704">
        <ele>111</ele>
        <time>2024-04-25T13:11:31.999Z</time>
      </trkpt>
      <trkpt lat="43.67113" lon="3.87698">
        <ele>111</ele>
        <time>2024-04-25T13:11:33.249Z</time>
      </trkpt>
      <trkpt lat="43.67113" lon="3.87692">
        <ele>111</ele>
        <time>2024-04-25T13:11:34.499Z</time>
      </trkpt>
      <trkpt lat="43.67112" lon="3.87685">
        <ele>111</ele>
        <time>2024-04-25T13:11:35.749Z</time>
      </trkpt>
      <trkpt lat="43.67111" lon="3.87679">
        <ele>111</ele>
        <time>2024-04-25T15:11:37+02:00</time>
      </trkpt>
      <trkpt lat="43.6711" lon="3.87667">
        <ele>110.9</ele>
        <time>2024-04-25T13:11:38.249Z</time>
      </trkpt>
      <trkpt lat="43.67108" lon="3.87655">
        <ele>110.9</ele>
        <time>2024-04-25T13:11:39.499Z</time>
      </trkpt>
      <trkpt lat="43.67107" lon="3.87643">
        <ele>111</ele>
        <time>2024-04-25T13:11:40.749Z</time>
      </trkpt>
      <trkpt lat="43.67105" lon="3.87631">
        <ele>111</ele>
        <time>2024-04-25T13:11:41.999Z</time>
      </trkpt>
      <trkpt lat="43.67104" lon="3.87618">
        <ele>111</ele>
        <time>2024-04-25T13:11:43.249Z</time>
      </trkpt>
      <trkpt lat="43.67102" lon="3.87606">
        <ele>110.9</ele>
        <time>2024-04-25T13:11:44.499Z</time>
      </trkpt>
      <trkpt lat="43.67101" lon="3.87594">
        <ele>110.6</ele>
        <time>2024-04-25T13:11:45.749Z</time>
      </trkpt>
      <trkpt lat="43.67099" lon="3.87582">
        <ele>110.4</ele>
        <time>2024-04-25T15:11:47+02:00</time>
      </trkpt>
      <trkpt lat="43.67098" lon="3.8757">
        <ele>110.5</ele>
        <time>2024-04-25T13:11:48.249Z</time>
      </trkpt>
      <trkpt lat="43.67098" lon="3.87558">
        <ele>110.5</ele>
        <time>2024-04-25T13:11:49.499Z</time>
      </trkpt>
      <trkpt lat="43.67097" lon="3.87546">
        <ele>110.5</ele>
        <time>2024-04-25T13:11:50.749Z</time>
      </trkpt>
      <trkpt lat="43.67097" lon="3.87535">
        <ele>110.5</ele>
        <time>2024-04-25T13:11:51.999Z</time>
      </trkpt>
      <trkpt lat="43.67096" lon="3.87523">
        <ele>110.7</ele>
        <time>2024-04-25T13:11:53.249Z</time>
      </trkpt>
      <trkpt lat="43.67095" lon="3.87511">
        <ele>111.2</ele>
        <time>2024-04-25T13:11:54.499Z</time>
      </trkpt>
      <trkpt lat="43.67095" lon="3.87499">
        <ele>111.6</ele>
        <time>2024-04-25T13:11:55.749Z</time>
      </trkpt>
      <trkpt lat="43.67094" lon="3.87487">
        <ele>111.8</ele>
        <time>2024-04-25T15:11:57+02:00</time>
      </trkpt>
      <trkpt lat="43.67097" lon="3.87477">
        <ele>111.9</ele>
        <time>2024-04-25T13:11:58.500Z</time>
      </trkpt>
      <trkpt lat="43.671" lon="3.87466">
        <ele>112.2</ele>
        <time>2024-04-25T13:12:00.000Z</time>
      </trkpt>
      <trkpt lat="43.67103" lon="3.87456">
        <ele>112.6</ele>
        <time>2024-04-25T13:12:01.500Z</time>
      </trkpt>
      <trkpt lat="43.67106" lon="3.87445">
        <ele>113</ele>
        <time>2024-04-25T15:12:03+02:00</time>
      </trkpt>
      <trkpt lat="43.67113" lon="3.87441">
        <ele>113</ele>
        <time>2024-04-25T13:12:04.500Z</time>
      </trkpt>
      <trkpt lat="43.6712" lon="3.87437">
        <ele>112.7</ele>
        <time>2024-04-25T13:12:06.000Z</time>
      </trkpt>
      <trkpt lat="43.67126" lon="3.87433">
        <ele>112.5</ele>
        <time>2024-04-25T13:12:07.500Z</time>
      </trkpt>
      <trkpt lat="43.67133" lon="3.8743">
        <ele>112.4</ele>
        <time>2024-04-25T13:12:09.000Z</time>
      </trkpt>
      <trkpt lat="43.6714" lon="3.87426">
        <ele>112.3</ele>
        <time>2024-04-25T13:12:10.500Z</time>
      </trkpt>
      <trkpt lat="43.67147" lon="3.87422">
        <ele>111.9</ele>
        <time>2024-04-25T13:12:12.000Z</time>
      </trkpt>
      <trkpt lat="43.67153" lon="3.87418">
        <ele>111.4</ele>
        <time>2024-04-25T13:12:13.500Z</time>
      </trkpt>
      <trkpt lat="43.6716" lon="3.87414">
        <ele>110.6</ele>
        <time>2024-04-25T15:12:15+02:00</time>
      </trkpt>
      <trkpt lat="43.67163" lon="3.87408">
        <ele>110.1</ele>
        <time>2024-04-25T13:12:16.500Z</time>
      </trkpt>
      <trkpt lat="43.67167" lon="3.87402">
        <ele>109.5</ele>
        <time>2024-04-25T13:12:18.000Z</time>
      </trkpt>
      <trkpt lat="43.6717" lon="3.87396">
        <ele>108.7</ele>
        <time>2024-04-25T13:12:19.500Z</time>
      </trkpt>
      <trkpt lat="43.67174" lon="3.87391">
        <ele>107.8</ele>
        <time>2024-04-25T13:12:21.000Z</time>
      </trkpt>
      <trkpt lat="43.67177" lon="3.87385">
        <ele>106.8</ele>
        <time>2024-04-25T13:12:22.500Z</time>
      </trkpt>
      <trkpt lat="43.6718" lon="3.87379">
        <ele>105.7</ele>
        <time>2024-04-25T13:12:24.000Z</time>
      </trkpt>
      <trkpt lat="43.67184" lon="3.87373">
        <ele>104.4</ele>
        <time>2024-04-25T13:12:25.500Z</time>
      </trkpt>
      <trkpt lat="43.67187" lon="3.87367">
        <ele>103.2</ele>
        <time>2024-04-25T15:12:27+02:00</time>
      </trkpt>
      <trkpt lat="43.67183" lon="3.87361">
        <ele>103.4</ele>
        <time>2024-04-25T13:12:28.249Z</time>
      </trkpt>
      <trkpt lat="43.6718" lon="3.87356">
        <ele>103.7</ele>
        <time>2024-04-25T13:12:29.499Z</time>
      </trkpt>
      <trkpt lat="43.67176" lon="3.8735">
        <ele>104</ele>
        <time>2024-04-25T13:12:30.749Z</time>
      </trkpt>
      <trkpt lat="43.67172" lon="3.87344">
        <ele>104.1</ele>
        <time>2024-04-25T13:12:31.999Z</time>
      </trkpt>
      <trkpt lat="43.67168" lon="3.87338">
        <ele>104.2</ele>
        <time>2024-04-25T13:12:33.249Z</time>
      </trkpt>
      <trkpt lat="43.67165" lon="3.87333">
        <ele>104.4</ele>
        <time>2024-04-25T13:12:34.499Z</time>
      </trkpt>
      <trkpt lat="43.67161" lon="3.87327">
        <ele>104.8</ele>
        <time>2024-04-25T13:12:35.749Z</time>
      </trkpt>
      <trkpt lat="43.67157" lon="3.87321">
        <ele>105.2</ele>
        <time>2024-04-25T15:12:37+02:00</time>
      </trkpt>
      <trkpt lat="43.67154" lon="3.87315">
        <ele>105.4</ele>
        <time>2024-04-25T15:12:47+02:00</time>
      </trkpt>
      <trkpt lat="43.67151" lon="3.8731">
        <ele>105.8</ele>
        <time>2024-04-25T13:12:51.093Z</time>
      </trkpt>
      <trkpt lat="43.67148" lon="3.87306">
        <ele>106.1</ele>
        <time>2024-04-25T13:12:55.186Z</time>
      </trkpt>
      <trkpt lat="43.67145" lon="3.87301">
        <ele>106.8</ele>
        <time>2024-04-25T13:12:59.279Z</time>
      </trkpt>
      <trkpt lat="43.67142" lon="3.87297">
        <ele>107.4</ele>
        <time>2024-04-25T13:13:03.372Z</time>
      </trkpt>
      <trkpt lat="43.67139" lon="3.87292">
        <ele>108</ele>
        <time>2024-04-25T13:13:07.465Z</time>
      </trkpt>
      <trkpt lat="43.67136" lon="3.87287">
        <ele>108.4</ele>
        <time>2024-04-25T13:13:11.558Z</time>
      </trkpt>
      <trkpt lat="43.67133" lon="3.87283">
        <ele>108.7</ele>
        <time>2024-04-25T13:13:15.651Z</time>
      </trkpt>
      <trkpt lat="43.6713" lon="3.87278">
        <ele>109</ele>
        <time>2024-04-25T13:13:19.744Z</time>
      </trkpt>
      <trkpt lat="43.67126" lon="3.87274">
        <ele>109.3</ele>
        <time>2024-04-25T13:13:23.837Z</time>
      </trkpt>
      <trkpt lat="43.67123" lon="3.87269">
        <ele>109.5</ele>
        <time>2024-04-25T13:13:27.931Z</time>
      </trkpt>
      <trkpt lat="43.6712" lon="3.87265">
        <ele>109.7</ele>
        <time>2024-04-25T13:13:32.025Z</time>
      </trkpt>
      <trkpt lat="43.67117" lon="3.8726">
        <ele>109.8</ele>
        <time>2024-04-25T13:13:36.119Z</time>
      </trkpt>
      <trkpt lat="43.67114" lon="3.87255">
        <ele>109.9</ele>
        <time>2024-04-25T13:13:40.213Z</time>
      </trkpt>
      <trkpt lat="43.67111" lon="3.87251">
        <ele>110</ele>
        <time>2024-04-25T13:13:44.307Z</time>
      </trkpt>
      <trkpt lat="43.67108" lon="3.87246">
        <ele>109.8</ele>
        <time>2024-04-25T13:13:48.401Z</time>
      </trkpt>
      <trkpt lat="43.67105" lon="3.87242">
        <ele>109.5</ele>
        <time>2024-04-25T13:13:52.495Z</time>
      </trkpt>
      <trkpt lat="43.67102" lon="3.87237">
        <ele>109.2</ele>
        <time>2024-04-25T13:13:56.589Z</time>
      </trkpt>
      <trkpt lat="43.67099" lon="3.87232">
        <ele>109</ele>
        <time>2024-04-25T13:14:00.683Z</time>
      </trkpt>
      <trkpt lat="43.67096" lon="3.87228">
        <ele>108.7</ele>
        <time>2024-04-25T13:14:04.777Z</time>
      </trkpt>
      <trkpt lat="43.67093" lon="3.87223">
        <ele>108.4</ele>
        <time>2024-04-25T13:14:08.871Z</time>
      </trkpt>
      <trkpt lat="43.6709" lon="3.87219">
        <ele>108</ele>
        <time>2024-04-25T13:14:12.965Z</time>
      </trkpt>
      <trkpt lat="43.67087" lon="3.87214">
        <ele>107.5</ele>
        <time>2024-04-25T13:14:17.059Z</time>
      </trkpt>
      <trkpt lat="43.67084" lon="3.87209">
        <ele>107.1</ele>
        <time>2024-04-25T13:14:21.153Z</time>
      </trkpt>
      <trkpt lat="43.67081" lon="3.87205">
        <ele>106.7</ele>
        <time>2024-04-25T13:14:25.247Z</time>
      </trkpt>
      <trkpt lat="43.67077" lon="3.872">
        <ele>106.4</ele>
        <time>2024-04-25T13:14:29.341Z</time>
      </trkpt>
      <trkpt lat="43.67074" lon="3.87196">
        <ele>106.1</ele>
        <time>2024-04-25T13:14:33.435Z</time>
      </trkpt>
      <trkpt lat="43.67071" lon="3.87191">
        <ele>106</ele>
        <time>2024-04-25T13:14:37.529Z</time>
      </trkpt>
      <trkpt lat="43.67068" lon="3.87186">
        <ele>105.9</ele>
        <time>2024-04-25T13:14:41.623Z</time>
      </trkpt>
      <trkpt lat="43.67065" lon="3.87182">
        <ele>105.9</ele>
        <time>2024-04-25T13:14:45.717Z</time>
      </trkpt>
      <trkpt lat="43.67062" lon="3.87177">
        <ele>105.9</ele>
        <time>2024-04-25T13:14:49.811Z</time>
      </trkpt>
      <trkpt lat="43.67059" lon="3.87173">
        <ele>105.9</ele>
        <time>2024-04-25T13:14:53.905Z</time>
      </trkpt>
      <trkpt lat="43.67056" lon="3.87168">
        <ele>106</ele>
        <time>2024-04-25T15:14:58+02:00</time>
      </trkpt>
      <trkpt lat="43.67051" lon="3.87161">
        <ele>105.8</ele>
        <time>2024-04-25T13:15:00.499Z</time>
      </trkpt>
      <trkpt lat="43.67046" lon="3.87154">
        <ele>105.7</ele>
        <time>2024-04-25T13:15:02.999Z</time>
      </trkpt>
      <trkpt lat="43.67041" lon="3.87146">
        <ele>105.8</ele>
        <time>2024-04-25T13:15:05.499Z</time>
      </trkpt>
      <trkpt lat="43.67036" lon="3.87139">
        <ele>106.1</ele>
        <time>2024-04-25T15:15:08+02:00</time>
      </trkpt>
      <trkpt lat="43.67031" lon="3.87138">
        <ele>106.6</ele>
        <time>2024-04-25T13:15:12.562Z</time>
      </trkpt>
      <trkpt lat="43.67026" lon="3.87137">
        <ele>106.8</ele>
        <time>2024-04-25T13:15:17.124Z</time>
      </trkpt>
      <trkpt lat="43.67021" lon="3.87135">
        <ele>106.5</ele>
        <time>2024-04-25T13:15:21.686Z</time>
      </trkpt>
      <trkpt lat="43.67016" lon="3.87134">
        <ele>106.3</ele>
        <time>2024-04-25T13:15:26.248Z</time>
      </trkpt>
      <trkpt lat="43.6701" lon="3.87133">
        <ele>106.1</ele>
        <time>2024-04-25T13:15:30.810Z</time>
      </trkpt>
      <trkpt lat="43.67005" lon="3.87132">
        <ele>105.9</ele>
        <time>2024-04-25T13:15:35.372Z</time>
      </trkpt>
      <trkpt lat="43.67" lon="3.8713">
        <ele>105.7</ele>
        <time>2024-04-25T13:15:39.934Z</time>
      </trkpt>
      <trkpt lat="43.66995" lon="3.87129">
        <ele>105.6</ele>
        <time>2024-04-25T13:15:44.496Z</time>
      </trkpt>
      <trkpt lat="43.6699" lon="3.87128">
        <ele>105.6</ele>
        <time>2024-04-25T13:15:49.058Z</time>
      </trkpt>
      <trkpt lat="43.66985" lon="3.87127">
        <ele>105.6</ele>
        <time>2024-04-25T13:15:53.621Z</time>
      </trkpt>
      <trkpt lat="43.6698" lon="3.87125">
        <ele>105.5</ele>
        <time>2024-04-25T13:15:58.184Z</time>
      </trkpt>
      <trkpt lat="43.66975" lon="3.87124">
        <ele>105.5</ele>
        <time>2024-04-25T13:16:02.747Z</time>
      </trkpt>
      <trkpt lat="43.66969" lon="3.87123">
        <ele>105.6</ele>
        <time>2024-04-25T13:16:07.310Z</time>
      </trkpt>
      <trkpt lat="43.66964" lon="3.87122">
        <ele>105.8</ele>
        <time>2024-04-25T13:16:11.873Z</time>
      </trkpt>
      <trkpt lat="43.66959" lon="3.8712">
        <ele>106.1</ele>
        <time>2024-04-25T13:16:16.436Z</time>
      </trkpt>
      <trkpt lat="43.66954" lon="3.87119">
        <ele>106.4</ele>
        <time>2024-04-25T15:16:21+02:00</time>
      </trkpt>
      <trkpt lat="43.66946" lon="3.87118">
        <ele>106.9</ele>
        <time>2024-04-25T13:16:23.500Z</time>
      </trkpt>
      <trkpt lat="43.66939" lon="3.87117">
        <ele>107.4</ele>
        <time>2024-04-25T13:16:26.000Z</time>
      </trkpt>
      <trkpt lat="43.66931" lon="3.87116">
        <ele>108</ele>
        <time>2024-04-25T13:16:28.500Z</time>
      </trkpt>
      <trkpt lat="43.66923" lon="3.87115">
        <ele>108.5</ele>
        <time>2024-04-25T15:16:31+02:00</time>
      </trkpt>
      <trkpt lat="43.66917" lon="3.87111">
        <ele>109</ele>
        <time>2024-04-25T13:16:33.499Z</time>
      </trkpt>
      <trkpt lat="43.66912" lon="3.87108">
        <ele>108.8</ele>
        <time>2024-04-25T13:16:35.999Z</time>
      </trkpt>
      <trkpt lat="43.66906" lon="3.87104">
        <ele>108.6</ele>
        <time>2024-04-25T13:16:38.499Z</time>
      </trkpt>
      <trkpt lat="43.669" lon="3.871">
        <ele>108.4</ele>
        <time>2024-04-25T15:16:41+02:00</time>
      </trkpt>
      <trkpt lat="43.66895" lon="3.87097">
        <ele>108.2</ele>
        <time>2024-04-25T13:16:43.499Z</time>
      </trkpt>
      <trkpt lat="43.6689" lon="3.87094">
        <ele>108.1</ele>
        <time>2024-04-25T13:16:45.999Z</time>
      </trkpt>
      <trkpt lat="43.66884" lon="3.8709">
        <ele>107.8</ele>
        <time>2024-04-25T13:16:48.499Z</time>
      </trkpt>
      <trkpt lat="43.66879" lon="3.87087">
        <ele>107.4</ele>
        <time>2024-04-25T15:16:51+02:00</time>
      </trkpt>
      <trkpt lat="43.66874" lon="3.87087">
        <ele>107.4</ele>
        <time>2024-04-25T13:16:53.500Z</time>
      </trkpt>
      <trkpt lat="43.66868" lon="3.87088">
        <ele>107.4</ele>
        <time>2024-04-25T13:16:56.000Z</time>
      </trkpt>
      <trkpt lat="43.66863" lon="3.87088">
        <ele>107.5</ele>
        <time>2024-04-25T13:16:58.500Z</time>
      </trkpt>
      <trkpt lat="43.66857" lon="3.87088">
        <ele>107.2</ele>
        <time>2024-04-25T15:17:01+02:00</time>
      </trkpt>
      <trkpt lat="43.66852" lon="3.87086">
        <ele>106.6</ele>
        <time>2024-04-25T13:17:02.249Z</time>
      </trkpt>
      <trkpt lat="43.66846" lon="3.87084">
        <ele>105.9</ele>
        <time>2024-04-25T13:17:03.499Z</time>
      </trkpt>
      <trkpt lat="43.66841" lon="3.87081">
        <ele>105.1</ele>
        <time>2024-04-25T13:17:04.749Z</time>
      </trkpt>
      <trkpt lat="43.66836" lon="3.87079">
        <ele>104.4</ele>
        <time>2024-04-25T13:17:05.999Z</time>
      </trkpt>
      <trkpt lat="43.6683" lon="3.87077">
        <ele>103.4</ele>
        <time>2024-04-25T13:17:07.249Z</time>
      </trkpt>
      <trkpt lat="43.66825" lon="3.87075">
        <ele>102.3</ele>
        <time>2024-04-25T13:17:08.499Z</time>
      </trkpt>
      <trkpt lat="43.66819" lon="3.87072">
        <ele>101.2</ele>
        <time>2024-04-25T13:17:09.749Z</time>
      </trkpt>
      <trkpt lat="43.66814" lon="3.8707">
        <ele>100.2</ele>
        <time>2024-04-25T15:17:11+02:00</time>
      </trkpt>
      <trkpt lat="43.66809" lon="3.87064">
        <ele>98.6</ele>
        <time>2024-04-25T13:17:12.249Z</time>
      </trkpt>
      <trkpt lat="43.66804" lon="3.87057">
        <ele>97.1</ele>
        <time>2024-04-25T13:17:13.499Z</time>
      </trkpt>
      <trkpt lat="43.66799" lon="3.87051">
        <ele>95.6</ele>
        <time>2024-04-25T13:17:14.749Z</time>
      </trkpt>
      <trkpt lat="43.66794" lon="3.87045">
        <ele>94.2</ele>
        <time>2024-04-25T13:17:15.999Z</time>
      </trkpt>
      <trkpt lat="43.66789" lon="3.87038">
        <ele>92.7</ele>
        <time>2024-04-25T13:17:17.249Z</time>
      </trkpt>
      <trkpt lat="43.66784" lon="3.87032">
        <ele>91.3</ele>
        <time>2024-04-25T13:17:18.499Z</time>
      </trkpt>
      <trkpt lat="43.66779" lon="3.87025">
        <ele>89.7</ele>
        <time>2024-04-25T13:17:19.749Z</time>
      </trkpt>
      <trkpt lat="43.66774" lon="3.87019">
        <ele>88</ele>
        <time>2024-04-25T15:17:21+02:00</time>
      </trkpt>
      <trkpt lat="43.66769" lon="3.87013">
        <ele>86.4</ele>
        <time>2024-04-25T13:17:23.499Z</time>
      </trkpt>
      <trkpt lat="43.66764" lon="3.87007">
        <ele>85</ele>
        <time>2024-04-25T13:17:25.999Z</time>
      </trkpt>
      <trkpt lat="43.66758" lon="3.87001">
        <ele>83.7</ele>
        <time>2024-04-25T13:17:28.499Z</time>
      </trkpt>
      <trkpt lat="43.66753" lon="3.86995">
        <ele>82.6</ele>
        <time>2024-04-25T15:17:31+02:00</time>
      </trkpt>
      <trkpt lat="43.66747" lon="3.8699">
        <ele>81.8</ele>
        <time>2024-04-25T13:17:35.999Z</time>
      </trkpt>
      <trkpt lat="43.66741" lon="3.86985">
        <ele>81.1</ele>
        <time>2024-04-25T15:17:41+02:00</time>
      </trkpt>
      <trkpt lat="43.6674" lon="3.86992">
        <ele>81.6</ele>
        <time>2024-04-25T13:17:42.499Z</time>
      </trkpt>
      <trkpt lat="43.66738" lon="3.87">
        <ele>82.1</ele>
        <time>2024-04-25T13:17:43.999Z</time>
      </trkpt>
      <trkpt lat="43.66737" lon="3.87007">
        <ele>82.6</ele>
        <time>2024-04-25T13:17:45.499Z</time>
      </trkpt>
      <trkpt lat="43.66735" lon="3.87014">
        <ele>83.2</ele>
        <time>2024-04-25T15:17:47+02:00</time>
      </trkpt>
      <trkpt lat="43.66735" lon="3.87021">
        <ele>83.8</ele>
        <time>2024-04-25T13:17:48.000Z</time>
      </trkpt>
      <trkpt lat="43.66735" lon="3.87029">
        <ele>84.4</ele>
        <time>2024-04-25T13:17:49.000Z</time>
      </trkpt>
      <trkpt lat="43.66734" lon="3.87036">
        <ele>84.9</ele>
        <time>2024-04-25T13:17:50.000Z</time>
      </trkpt>
      <trkpt lat="43.66734" lon="3.87043">
        <ele>85.4</ele>
        <time>2024-04-25T15:17:51+02:00</time>
      </trkpt>
      <trkpt lat="43.66734" lon="3.87052">
        <ele>86</ele>
        <time>2024-04-25T13:17:52.250Z</time>
      </trkpt>
      <trkpt lat="43.66735" lon="3.87061">
        <ele>86.8</ele>
        <time>2024-04-25T13:17:53.500Z</time>
      </trkpt>
      <trkpt lat="43.66735" lon="3.87069">
        <ele>87.6</ele>
        <time>2024-04-25T13:17:54.750Z</time>
      </trkpt>
      <trkpt lat="43.66736" lon="3.87078">
        <ele>88.4</ele>
        <time>2024-04-25T13:17:56.000Z</time>
      </trkpt>
      <trkpt lat="43.66736" lon="3.87087">
        <ele>89.3</ele>
        <time>2024-04-25T13:17:57.250Z</time>
      </trkpt>
      <trkpt lat="43.66736" lon="3.87096">
        <ele>90.1</ele>
        <time>2024-04-25T13:17:58.500Z</time>
      </trkpt>
      <trkpt lat="43.66737" lon="3.87104">
        <ele>90.9</ele>
        <time>2024-04-25T13:17:59.750Z</time>
      </trkpt>
      <trkpt lat="43.66737" lon="3.87113">
        <ele>91.8</ele>
        <time>2024-04-25T15:18:01+02:00</time>
      </trkpt>
      <trkpt lat="43.66737" lon="3.87125">
        <ele>92.8</ele>
        <time>2024-04-25T13:18:03.499Z</time>
      </trkpt>
      <trkpt lat="43.66736" lon="3.87137">
        <ele>93.8</ele>
        <time>2024-04-25T13:18:05.999Z</time>
      </trkpt>
      <trkpt lat="43.66736" lon="3.87149">
        <ele>94.3</ele>
        <time>2024-04-25T13:18:08.499Z</time>
      </trkpt>
      <trkpt lat="43.66735" lon="3.87161">
        <ele>94.7</ele>
        <time>2024-04-25T15:18:11+02:00</time>
      </trkpt>
      <trkpt lat="43.66735" lon="3.87171">
        <ele>94.9</ele>
        <time>2024-04-25T13:18:13.500Z</time>
      </trkpt>
      <trkpt lat="43.66735" lon="3.87182">
        <ele>94.9</ele>
        <time>2024-04-25T13:18:16.000Z</time>
      </trkpt>
      <trkpt lat="43.66735" lon="3.87192">
        <ele>94.9</ele>
        <time>2024-04-25T13:18:18.500Z</time>
      </trkpt>
      <trkpt lat="43.66735" lon="3.87202">
        <ele>94.6</ele>
        <time>2024-04-25T15:18:21+02:00</time>
      </trkpt>
      <trkpt lat="43.66729" lon="3.8721">
        <ele>93.9</ele>
        <time>2024-04-25T13:18:25.999Z</time>
      </trkpt>
      <trkpt lat="43.66722" lon="3.87218">
        <ele>93.2</ele>
        <time>2024-04-25T15:18:31+02:00</time>
      </trkpt>
      <trkpt lat="43.66714" lon="3.87221">
        <ele>93</ele>
        <time>2024-04-25T13:18:33.499Z</time>
      </trkpt>
      <trkpt lat="43.66706" lon="3.87223">
        <ele>93</ele>
        <time>2024-04-25T13:18:35.999Z</time>
      </trkpt>
      <trkpt lat="43.66698" lon="3.87226">
        <ele>92.9</ele>
        <time>2024-04-25T13:18:38.499Z</time>
      </trkpt>
      <trkpt lat="43.6669" lon="3.87228">
        <ele>92.8</ele>
        <time>2024-04-25T15:18:41+02:00</time>
      </trkpt>
      <trkpt lat="43.66684" lon="3.87225">
        <ele>92.9</ele>
        <time>2024-04-25T13:18:42.249Z</time>
      </trkpt>
      <trkpt lat="43.66679" lon="3.87223">
        <ele>93</ele>
        <time>2024-04-25T13:18:43.499Z</time>
      </trkpt>
      <trkpt lat="43.66673" lon="3.8722">
        <ele>93</ele>
        <time>2024-04-25T13:18:44.749Z</time>
      </trkpt>
      <trkpt lat="43.66668" lon="3.87217">
        <ele>93</ele>
        <time>2024-04-25T13:18:45.999Z</time>
      </trkpt>
      <trkpt lat="43.66662" lon="3.87214">
        <ele>92.9</ele>
        <time>2024-04-25T13:18:47.249Z</time>
      </trkpt>
      <trkpt lat="43.66656" lon="3.87212">
        <ele>92.8</ele>
        <time>2024-04-25T13:18:48.499Z</time>
      </trkpt>
      <trkpt lat="43.66651" lon="3.87209">
        <ele>92.7</ele>
        <time>2024-04-25T13:18:49.749Z</time>
      </trkpt>
      <trkpt lat="43.66645" lon="3.87206">
        <ele>92.7</ele>
        <time>2024-04-25T15:18:51+02:00</time>
      </trkpt>
      <trkpt lat="43.6664" lon="3.87202">
        <ele>92.8</ele>
        <time>2024-04-25T13:18:52.249Z</time>
      </trkpt>
      <trkpt lat="43.66636" lon="3.87197">
        <ele>92.8</ele>
        <time>2024-04-25T13:18:53.499Z</time>
      </trkpt>
      <trkpt lat="43.66631" lon="3.87193">
        <ele>92.7</ele>
        <time>2024-04-25T13:18:54.749Z</time>
      </trkpt>
      <trkpt lat="43.66626" lon="3.87189">
        <ele>92.5</ele>
        <time>2024-04-25T13:18:55.999Z</time>
      </trkpt>
      <trkpt lat="43.66621" lon="3.87184">
        <ele>92.4</ele>
        <time>2024-04-25T13:18:57.249Z</time>
      </trkpt>
      <trkpt lat="43.66617" lon="3.8718">
        <ele>92.2</ele>
        <time>2024-04-25T13:18:58.499Z</time>
      </trkpt>
      <trkpt lat="43.66612" lon="3.87175">
        <ele>92</ele>
        <time>2024-04-25T13:18:59.749Z</time>
      </trkpt>
      <trkpt lat="43.66607" lon="3.87171">
        <ele>92</ele>
        <time>2024-04-25T15:19:01+02:00</time>
      </trkpt>
      <trkpt lat="43.66601" lon="3.87166">
        <ele>92</ele>
        <time>2024-04-25T13:19:03.499Z</time>
      </trkpt>
      <trkpt lat="43.66595" lon="3.87161">
        <ele>92.1</ele>
        <time>2024-04-25T13:19:05.999Z</time>
      </trkpt>
      <trkpt lat="43.66588" lon="3.87156">
        <ele>92.3</ele>
        <time>2024-04-25T13:19:08.499Z</time>
      </trkpt>
      <trkpt lat="43.66582" lon="3.87151">
        <ele>92.6</ele>
        <time>2024-04-25T15:19:11+02:00</time>
      </trkpt>
      <trkpt lat="43.66578" lon="3.87149">
        <ele>92.7</ele>
        <time>2024-04-25T13:19:12.249Z</time>
      </trkpt>
      <trkpt lat="43.66574" lon="3.87146">
        <ele>92.7</ele>
        <time>2024-04-25T13:19:13.499Z</time>
      </trkpt>
      <trkpt lat="43.66569" lon="3.87144">
        <ele>92.8</ele>
        <time>2024-04-25T13:19:14.749Z</time>
      </trkpt>
      <trkpt lat="43.66565" lon="3.87141">
        <ele>92.9</ele>
        <time>2024-04-25T13:19:15.999Z</time>
      </trkpt>
      <trkpt lat="43.66561" lon="3.87139">
        <ele>93</ele>
        <time>2024-04-25T13:19:17.249Z</time>
      </trkpt>
      <trkpt lat="43.66557" lon="3.87136">
        <ele>93</ele>
        <time>2024-04-25T13:19:18.499Z</time>
      </trkpt>
      <trkpt lat="43.66552" lon="3.87134">
        <ele>93</ele>
        <time>2024-04-25T13:19:19.749Z</time>
      </trkpt>
      <trkpt lat="43.66548" lon="3.87131">
        <ele>93.1</ele>
        <time>2024-04-25T15:19:21+02:00</time>
      </trkpt>
      <trkpt lat="43.66543" lon="3.8713">
        <ele>93.1</ele>
        <time>2024-04-25T13:19:22.250Z</time>
      </trkpt>
      <trkpt lat="43.66537" lon="3.87129">
        <ele>93.2</ele>
        <time>2024-04-25T13:19:23.500Z</time>
      </trkpt>
      <trkpt lat="43.66532" lon="3.87128">
        <ele>93.3</ele>
        <time>2024-04-25T13:19:24.750Z</time>
      </trkpt>
      <trkpt lat="43.66527" lon="3.87128">
        <ele>93.4</ele>
        <time>2024-04-25T13:19:26.000Z</time>
      </trkpt>
      <trkpt lat="43.66521" lon="3.87127">
        <ele>93.5</ele>
        <time>2024-04-25T13:19:27.250Z</time>
      </trkpt>
      <trkpt lat="43.66516" lon="3.87126">
        <ele>93.7</ele>
        <time>2024-04-25T13:19:28.500Z</time>
      </trkpt>
      <trkpt lat="43.6651" lon="3.87125">
        <ele>93.8</ele>
        <time>2024-04-25T13:19:29.750Z</time>
      </trkpt>
      <trkpt lat="43.66505" lon="3.87124">
        <ele>94</ele>
        <time>2024-04-25T15:19:31+02:00</time>
      </trkpt>
      <trkpt lat="43.665" lon="3.87119">
        <ele>94.4</ele>
        <time>2024-04-25T13:19:35.999Z</time>
      </trkpt>
      <trkpt lat="43.66494" lon="3.87114">
        <ele>94.8</ele>
        <time>2024-04-25T15:19:41+02:00</time>
      </trkpt>
      <trkpt lat="43.66501" lon="3.87106">
        <ele>95.2</ele>
        <time>2024-04-25T13:19:46.000Z</time>
      </trkpt>
      <trkpt lat="43.66507" lon="3.87099">
        <ele>95.1</ele>
        <time>2024-04-25T13:19:51.000Z</time>
      </trkpt>
      <trkpt lat="43.66514" lon="3.87091">
        <ele>94.9</ele>
        <time>2024-04-25T13:19:56.000Z</time>
      </trkpt>
      <trkpt lat="43.6652" lon="3.87083">
        <ele>94.6</ele>
        <time>2024-04-25T15:20:01+02:00</time>
      </trkpt>
      <trkpt lat="43.66527" lon="3.8708">
        <ele>94.1</ele>
        <time>2024-04-25T13:20:03.500Z</time>
      </trkpt>
      <trkpt lat="43.66534" lon="3.87077">
        <ele>93.2</ele>
        <time>2024-04-25T13:20:06.000Z</time>
      </trkpt>
      <trkpt lat="43.66541" lon="3.87074">
        <ele>92.3</ele>
        <time>2024-04-25T13:20:08.500Z</time>
      </trkpt>
      <trkpt lat="43.66548" lon="3.87071">
        <ele>91.2</ele>
        <time>2024-04-25T15:20:11+02:00</time>
      </trkpt>
      <trkpt lat="43.66554" lon="3.87064">
        <ele>89.9</ele>
        <time>2024-04-25T13:20:13.500Z</time>
      </trkpt>
      <trkpt lat="43.66559" lon="3.87058">
        <ele>88.5</ele>
        <time>2024-04-25T13:20:16.000Z</time>
      </trkpt>
      <trkpt lat="43.66565" lon="3.87051">
        <ele>87</ele>
        <time>2024-04-25T13:20:18.500Z</time>
      </trkpt>
      <trkpt lat="43.6657" lon="3.87044">
        <ele>85.3</ele>
        <time>2024-04-25T15:20:21+02:00</time>
      </trkpt>
      <trkpt lat="43.66574" lon="3.87038">
        <ele>83.8</ele>
        <time>2024-04-25T13:20:23.500Z</time>
      </trkpt>
      <trkpt lat="43.66578" lon="3.87032">
        <ele>82.1</ele>
        <time>2024-04-25T13:20:26.000Z</time>
      </trkpt>
      <trkpt lat="43.66582" lon="3.87026">
        <ele>80.3</ele>
        <time>2024-04-25T13:20:28.500Z</time>
      </trkpt>
      <trkpt lat="43.66586" lon="3.8702">
        <ele>79.1</ele>
        <time>2024-04-25T15:20:31+02:00</time>
      </trkpt>
      <trkpt lat="43.66589" lon="3.87015">
        <ele>78.4</ele>
        <time>2024-04-25T13:20:33.500Z</time>
      </trkpt>
      <trkpt lat="43.66592" lon="3.87009">
        <ele>77.6</ele>
        <time>2024-04-25T13:20:36.000Z</time>
      </trkpt>
      <trkpt lat="43.66594" lon="3.87004">
        <ele>76.7</ele>
        <time>2024-04-25T13:20:38.500Z</time>
      </trkpt>
      <trkpt lat="43.66597" lon="3.86998">
        <ele>75.9</ele>
        <time>2024-04-25T15:20:41+02:00</time>
      </trkpt>
      <trkpt lat="43.66598" lon="3.8699">
        <ele>75.1</ele>
        <time>2024-04-25T13:20:42.500Z</time>
      </trkpt>
      <trkpt lat="43.666" lon="3.86981">
        <ele>74.3</ele>
        <time>2024-04-25T13:20:44.000Z</time>
      </trkpt>
      <trkpt lat="43.66601" lon="3.86973">
        <ele>73.5</ele>
        <time>2024-04-25T13:20:45.500Z</time>
      </trkpt>
      <trkpt lat="43.66602" lon="3.86964">
        <ele>72.5</ele>
        <time>2024-04-25T15:20:47+02:00</time>
      </trkpt>
      <trkpt lat="43.666" lon="3.86953">
        <ele>71.7</ele>
        <time>2024-04-25T13:20:48.999Z</time>
      </trkpt>
      <trkpt lat="43.66597" lon="3.86942">
        <ele>70.8</ele>
        <time>2024-04-25T15:20:51+02:00</time>
      </trkpt>
      <trkpt lat="43.66595" lon="3.86936">
        <ele>70.5</ele>
        <time>2024-04-25T13:20:52.249Z</time>
      </trkpt>
      <trkpt lat="43.66594" lon="3.8693">
        <ele>70.1</ele>
        <time>2024-04-25T13:20:53.499Z</time>
      </trkpt>
      <trkpt lat="43.66592" lon="3.86924">
        <ele>69.6</ele>
        <time>2024-04-25T13:20:54.749Z</time>
      </trkpt>
      <trkpt lat="43.66591" lon="3.86918">
        <ele>69.1</ele>
        <time>2024-04-25T13:20:55.999Z</time>
      </trkpt>
      <trkpt lat="43.66589" lon="3.86912">
        <ele>68.8</ele>
        <time>2024-04-25T13:20:57.249Z</time>
      </trkpt>
      <trkpt lat="43.66587" lon="3.86906">
        <ele>68.6</ele>
        <time>2024-04-25T13:20:58.499Z</time>
      </trkpt>
      <trkpt lat="43.66586" lon="3.869">
        <ele>68.4</ele>
        <time>2024-04-25T13:20:59.749Z</time>
      </trkpt>
      <trkpt lat="43.66584" lon="3.86894">
        <ele>68.2</ele>
        <time>2024-04-25T15:21:01+02:00</time>
      </trkpt>
      <trkpt lat="43.66581" lon="3.86882">
        <ele>67.8</ele>
        <time>2024-04-25T13:21:03.499Z</time>
      </trkpt>
      <trkpt lat="43.66579" lon="3.86871">
        <ele>67.3</ele>
        <time>2024-04-25T13:21:05.999Z</time>
      </trkpt>
      <trkpt lat="43.66576" lon="3.86859">
        <ele>66.6</ele>
        <time>2024-04-25T13:21:08.499Z</time>
      </trkpt>
      <trkpt lat="43.66573" lon="3.86847">
        <ele>65.9</ele>
        <time>2024-04-25T15:21:11+02:00</time>
      </trkpt>
      <trkpt lat="43.66571" lon="3.86836">
        <ele>65.1</ele>
        <time>2024-04-25T13:21:13.499Z</time>
      </trkpt>
      <trkpt lat="43.66569" lon="3.86824">
        <ele>64.5</ele>
        <time>2024-04-25T13:21:15.999Z</time>
      </trkpt>
      <trkpt lat="43.66567" lon="3.86813">
        <ele>64.1</ele>
        <time>2024-04-25T13:21:18.499Z</time>
      </trkpt>
      <trkpt lat="43.66565" lon="3.86801">
        <ele>63.6</ele>
        <time>2024-04-25T15:21:21+02:00</time>
      </trkpt>
      <trkpt lat="43.66561" lon="3.86798">
        <ele>63.9</ele>
        <time>2024-04-25T13:21:25.999Z</time>
      </trkpt>
      <trkpt lat="43.66556" lon="3.86795">
        <ele>64.2</ele>
        <time>2024-04-25T15:21:31+02:00</time>
      </trkpt>
      <trkpt lat="43.66555" lon="3.86785">
        <ele>63.5</ele>
        <time>2024-04-25T13:21:40.749Z</time>
      </trkpt>
      <trkpt lat="43.66555" lon="3.86775">
        <ele>62.9</ele>
        <time>2024-04-25T13:21:50.499Z</time>
      </trkpt>
      <trkpt lat="43.66554" lon="3.86765">
        <ele>62.2</ele>
        <time>2024-04-25T13:22:00.249Z</time>
      </trkpt>
      <trkpt lat="43.66553" lon="3.86755">
        <ele>61.5</ele>
        <time>2024-04-25T15:22:10+02:00</time>
      </trkpt>
      <trkpt lat="43.66549" lon="3.86749">
        <ele>61.3</ele>
        <time>2024-04-25T13:22:11.374Z</time>
      </trkpt>
      <trkpt lat="43.66545" lon="3.86742">
        <ele>61</ele>
        <time>2024-04-25T13:22:12.749Z</time>
      </trkpt>
      <trkpt lat="43.6654" lon="3.86736">
        <ele>60.8</ele>
        <time>2024-04-25T13:22:14.124Z</time>
      </trkpt>
      <trkpt lat="43.66536" lon="3.86729">
        <ele>60.7</ele>
        <time>2024-04-25T13:22:15.499Z</time>
      </trkpt>
      <trkpt lat="43.66532" lon="3.86723">
        <ele>60.6</ele>
        <time>2024-04-25T13:22:16.874Z</time>
      </trkpt>
      <trkpt lat="43.66528" lon="3.86716">
        <ele>60.3</ele>
        <time>2024-04-25T13:22:18.249Z</time>
      </trkpt>
      <trkpt lat="43.66523" lon="3.8671">
        <ele>59.6</ele>
        <time>2024-04-25T13:22:19.624Z</time>
      </trkpt>
      <trkpt lat="43.66519" lon="3.86703">
        <ele>58.9</ele>
        <time>2024-04-25T15:22:21+02:00</time>
      </trkpt>
      <trkpt lat="43.66512" lon="3.86704">
        <ele>59</ele>
        <time>2024-04-25T13:22:23.500Z</time>
      </trkpt>
      <trkpt lat="43.66505" lon="3.86705">
        <ele>59.1</ele>
        <time>2024-04-25T13:22:26.000Z</time>
      </trkpt>
      <trkpt lat="43.66498" lon="3.86706">
        <ele>59.2</ele>
        <time>2024-04-25T13:22:28.500Z</time>
      </trkpt>
      <trkpt lat="43.66491" lon="3.86707">
        <ele>59</ele>
        <time>2024-04-25T15:22:31+02:00</time>
      </trkpt>
      <trkpt lat="43.66484" lon="3.86713">
        <ele>59.4</ele>
        <time>2024-04-25T13:22:33.499Z</time>
      </trkpt>
      <trkpt lat="43.66477" lon="3.86718">
        <ele>59.7</ele>
        <time>2024-04-25T13:22:35.999Z</time>
      </trkpt>
      <trkpt lat="43.6647" lon="3.86724">
        <ele>59.9</ele>
        <time>2024-04-25T13:22:38.499Z</time>
      </trkpt>
      <trkpt lat="43.66463" lon="3.86729">
        <ele>60</ele>
        <time>2024-04-25T15:22:41+02:00</time>
      </trkpt>
      <trkpt lat="43.66458" lon="3.86732">
        <ele>60.1</ele>
        <time>2024-04-25T13:22:42.249Z</time>
      </trkpt>
      <trkpt lat="43.66453" lon="3.86736">
        <ele>60.2</ele>
        <time>2024-04-25T13:22:43.499Z</time>
      </trkpt>
      <trkpt lat="43.66447" lon="3.86739">
        <ele>60.5</ele>
        <time>2024-04-25T13:22:44.749Z</time>
      </trkpt>
      <trkpt lat="43.66442" lon="3.86742">
        <ele>60.8</ele>
        <time>2024-04-25T13:22:45.999Z</time>
      </trkpt>
      <trkpt lat="43.66437" lon="3.86745">
        <ele>61.1</ele>
        <time>2024-04-25T13:22:47.249Z</time>
      </trkpt>
      <trkpt lat="43.66432" lon="3.86749">
        <ele>61.4</ele>
        <time>2024-04-25T13:22:48.499Z</time>
      </trkpt>
      <trkpt lat="43.66426" lon="3.86752">
        <ele>61.5</ele>
        <time>2024-04-25T13:22:49.749Z</time>
      </trkpt>
      <trkpt lat="43.66421" lon="3.86755">
        <ele>61.7</ele>
        <time>2024-04-25T15:22:51+02:00</time>
      </trkpt>
      <trkpt lat="43.66416" lon="3.86759">
        <ele>62</ele>
        <time>2024-04-25T13:22:53.499Z</time>
      </trkpt>
      <trkpt lat="43.6641" lon="3.86763">
        <ele>62.4</ele>
        <time>2024-04-25T13:22:55.999Z</time>
      </trkpt>
      <trkpt lat="43.66405" lon="3.86767">
        <ele>62.8</ele>
        <time>2024-04-25T13:22:58.499Z</time>
      </trkpt>
      <trkpt lat="43.66399" lon="3.86771">
        <ele>63.3</ele>
        <time>2024-04-25T15:23:01+02:00</time>
      </trkpt>
      <trkpt lat="43.66391" lon="3.86767">
        <ele>62.9</ele>
        <time>2024-04-25T13:23:03.499Z</time>
      </trkpt>
      <trkpt lat="43.66382" lon="3.86764">
        <ele>62.7</ele>
        <time>2024-04-25T13:23:05.999Z</time>
      </trkpt>
      <trkpt lat="43.66374" lon="3.8676">
        <ele>62.6</ele>
        <time>2024-04-25T13:23:08.499Z</time>
      </trkpt>
      <trkpt lat="43.66365" lon="3.86756">
        <ele>62.5</ele>
        <time>2024-04-25T15:23:11+02:00</time>
      </trkpt>
      <trkpt lat="43.66357" lon="3.86752">
        <ele>62.2</ele>
        <time>2024-04-25T15:23:15+02:00</time>
      </trkpt>
      <trkpt lat="43.66355" lon="3.86741">
        <ele>61.4</ele>
        <time>2024-04-25T15:23:21+02:00</time>
      </trkpt>
      <trkpt lat="43.66357" lon="3.86729">
        <ele>60.6</ele>
        <time>2024-04-25T13:23:23.500Z</time>
      </trkpt>
      <trkpt lat="43.66359" lon="3.86718">
        <ele>59.9</ele>
        <time>2024-04-25T13:23:26.000Z</time>
      </trkpt>
      <trkpt lat="43.6636" lon="3.86706">
        <ele>59.4</ele>
        <time>2024-04-25T13:23:28.500Z</time>
      </trkpt>
      <trkpt lat="43.66362" lon="3.86694">
        <ele>59</ele>
        <time>2024-04-25T15:23:31+02:00</time>
      </trkpt>
      <trkpt lat="43.66368" lon="3.86687">
        <ele>58.5</ele>
        <time>2024-04-25T13:23:33.500Z</time>
      </trkpt>
      <trkpt lat="43.66374" lon="3.8668">
        <ele>58</ele>
        <time>2024-04-25T13:23:36.000Z</time>
      </trkpt>
      <trkpt lat="43.6638" lon="3.86672">
        <ele>57.5</ele>
        <time>2024-04-25T13:23:38.500Z</time>
      </trkpt>
      <trkpt lat="43.66386" lon="3.86665">
        <ele>57.1</ele>
        <time>2024-04-25T15:23:41+02:00</time>
      </trkpt>
      <trkpt lat="43.66391" lon="3.86662">
        <ele>56.9</ele>
        <time>2024-04-25T13:23:42.500Z</time>
      </trkpt>
      <trkpt lat="43.66396" lon="3.86659">
        <ele>56.5</ele>
        <time>2024-04-25T13:23:44.000Z</time>
      </trkpt>
      <trkpt lat="43.664" lon="3.86655">
        <ele>56.2</ele>
        <time>2024-04-25T13:23:45.500Z</time>
      </trkpt>
      <trkpt lat="43.66405" lon="3.86652">
        <ele>55.8</ele>
        <time>2024-04-25T15:23:47+02:00</time>
      </trkpt>
      <trkpt lat="43.66411" lon="3.8665">
        <ele>55.4</ele>
        <time>2024-04-25T13:23:48.000Z</time>
      </trkpt>
      <trkpt lat="43.66417" lon="3.86648">
        <ele>55</ele>
        <time>2024-04-25T13:23:49.000Z</time>
      </trkpt>
      <trkpt lat="43.66422" lon="3.86646">
        <ele>54.7</ele>
        <time>2024-04-25T13:23:50.000Z</time>
      </trkpt>
      <trkpt lat="43.66428" lon="3.86644">
        <ele>54.3</ele>
        <time>2024-04-25T15:23:51+02:00</time>
      </trkpt>
      <trkpt lat="43.66434" lon="3.86646">
        <ele>54.1</ele>
        <time>2024-04-25T13:23:52.250Z</time>
      </trkpt>
      <trkpt lat="43.6644" lon="3.86647">
        <ele>53.8</ele>
        <time>2024-04-25T13:23:53.500Z</time>
      </trkpt>
      <trkpt lat="43.66446" lon="3.86649">
        <ele>53.7</ele>
        <time>2024-04-25T13:23:54.750Z</time>
      </trkpt>
      <trkpt lat="43.66452" lon="3.86651">
        <ele>53.7</ele>
        <time>2024-04-25T13:23:56.000Z</time>
      </trkpt>
      <trkpt lat="43.66457" lon="3.86652">
        <ele>53.7</ele>
        <time>2024-04-25T13:23:57.250Z</time>
      </trkpt>
      <trkpt lat="43.66463" lon="3.86654">
        <ele>53.8</ele>
        <time>2024-04-25T13:23:58.500Z</time>
      </trkpt>
      <trkpt lat="43.66469" lon="3.86655">
        <ele>53.8</ele>
        <time>2024-04-25T13:23:59.750Z</time>
      </trkpt>
      <trkpt lat="43.66475" lon="3.86657">
        <ele>54</ele>
        <time>2024-04-25T15:24:01+02:00</time>
      </trkpt>
      <trkpt lat="43.66482" lon="3.86656">
        <ele>53.8</ele>
        <time>2024-04-25T13:24:03.500Z</time>
      </trkpt>
      <trkpt lat="43.6649" lon="3.86655">
        <ele>53.7</ele>
        <time>2024-04-25T13:24:06.000Z</time>
      </trkpt>
      <trkpt lat="43.66497" lon="3.86654">
        <ele>53.6</ele>
        <time>2024-04-25T13:24:08.500Z</time>
      </trkpt>
      <trkpt lat="43.66504" lon="3.86653">
        <ele>53.5</ele>
        <time>2024-04-25T15:24:11+02:00</time>
      </trkpt>
      <trkpt lat="43.66511" lon="3.86651">
        <ele>53.3</ele>
        <time>2024-04-25T13:24:12.250Z</time>
      </trkpt>
      <trkpt lat="43.66517" lon="3.86648">
        <ele>53</ele>
        <time>2024-04-25T13:24:13.500Z</time>
      </trkpt>
      <trkpt lat="43.66524" lon="3.86646">
        <ele>52.8</ele>
        <time>2024-04-25T13:24:14.750Z</time>
      </trkpt>
      <trkpt lat="43.66531" lon="3.86644">
        <ele>52.4</ele>
        <time>2024-04-25T13:24:16.000Z</time>
      </trkpt>
      <trkpt lat="43.66537" lon="3.86641">
        <ele>51.9</ele>
        <time>2024-04-25T13:24:17.250Z</time>
      </trkpt>
      <trkpt lat="43.66544" lon="3.86639">
        <ele>51.4</ele>
        <time>2024-04-25T13:24:18.500Z</time>
      </trkpt>
      <trkpt lat="43.6655" lon="3.86636">
        <ele>51</ele>
        <time>2024-04-25T13:24:19.750Z</time>
      </trkpt>
      <trkpt lat="43.66557" lon="3.86634">
        <ele>50.6</ele>
        <time>2024-04-25T15:24:21+02:00</time>
      </trkpt>
      <trkpt lat="43.66566" lon="3.86635">
        <ele>50.3</ele>
        <time>2024-04-25T13:24:22.250Z</time>
      </trkpt>
      <trkpt lat="43.66574" lon="3.86636">
        <ele>50.1</ele>
        <time>2024-04-25T13:24:23.500Z</time>
      </trkpt>
      <trkpt lat="43.66583" lon="3.86636">
        <ele>49.8</ele>
        <time>2024-04-25T13:24:24.750Z</time>
      </trkpt>
      <trkpt lat="43.66592" lon="3.86637">
        <ele>49.9</ele>
        <time>2024-04-25T13:24:26.000Z</time>
      </trkpt>
      <trkpt lat="43.666" lon="3.86638">
        <ele>49.9</ele>
        <time>2024-04-25T13:24:27.250Z</time>
      </trkpt>
      <trkpt lat="43.66609" lon="3.86639">
        <ele>50</ele>
        <time>2024-04-25T13:24:28.500Z</time>
      </trkpt>
      <trkpt lat="43.66617" lon="3.86639">
        <ele>50</ele>
        <time>2024-04-25T13:24:29.750Z</time>
      </trkpt>
      <trkpt lat="43.66626" lon="3.8664">
        <ele>50.1</ele>
        <time>2024-04-25T15:24:31+02:00</time>
      </trkpt>
      <trkpt lat="43.66632" lon="3.86642">
        <ele>50.2</ele>
        <time>2024-04-25T13:24:32.250Z</time>
      </trkpt>
      <trkpt lat="43.66637" lon="3.86644">
        <ele>50.4</ele>
        <time>2024-04-25T13:24:33.500Z</time>
      </trkpt>
      <trkpt lat="43.66643" lon="3.86646">
        <ele>50.4</ele>
        <time>2024-04-25T13:24:34.750Z</time>
      </trkpt>
      <trkpt lat="43.66648" lon="3.86649">
        <ele>50.5</ele>
        <time>2024-04-25T13:24:36.000Z</time>
      </trkpt>
      <trkpt lat="43.66654" lon="3.86651">
        <ele>50.5</ele>
        <time>2024-04-25T13:24:37.250Z</time>
      </trkpt>
      <trkpt lat="43.66659" lon="3.86653">
        <ele>50.6</ele>
        <time>2024-04-25T13:24:38.500Z</time>
      </trkpt>
      <trkpt lat="43.66665" lon="3.86655">
        <ele>50.8</ele>
        <time>2024-04-25T13:24:39.750Z</time>
      </trkpt>
      <trkpt lat="43.6667" lon="3.86657">
        <ele>50.8</ele>
        <time>2024-04-25T15:24:41+02:00</time>
      </trkpt>
      <trkpt lat="43.66674" lon="3.86661">
        <ele>51</ele>
        <time>2024-04-25T13:24:43.500Z</time>
      </trkpt>
      <trkpt lat="43.66678" lon="3.86666">
        <ele>51.1</ele>
        <time>2024-04-25T13:24:46.000Z</time>
      </trkpt>
      <trkpt lat="43.66681" lon="3.8667">
        <ele>51.3</ele>
        <time>2024-04-25T13:24:48.500Z</time>
      </trkpt>
      <trkpt lat="43.66685" lon="3.86674">
        <ele>51.5</ele>
        <time>2024-04-25T15:24:51+02:00</time>
      </trkpt>
      <trkpt lat="43.6669" lon="3.8668">
        <ele>51.8</ele>
        <time>2024-04-25T13:24:53.500Z</time>
      </trkpt>
      <trkpt lat="43.66695" lon="3.86687">
        <ele>52.1</ele>
        <time>2024-04-25T13:24:56.000Z</time>
      </trkpt>
      <trkpt lat="43.667" lon="3.86693">
        <ele>52.4</ele>
        <time>2024-04-25T13:24:58.500Z</time>
      </trkpt>
      <trkpt lat="43.66705" lon="3.86699">
        <ele>52.8</ele>
        <time>2024-04-25T15:25:01+02:00</time>
      </trkpt>
      <trkpt lat="43.66711" lon="3.86707">
        <ele>53.4</ele>
        <time>2024-04-25T13:25:03.500Z</time>
      </trkpt>
      <trkpt lat="43.66717" lon="3.86716">
        <ele>53.8</ele>
        <time>2024-04-25T13:25:06.000Z</time>
      </trkpt>
      <trkpt lat="43.66722" lon="3.86724">
        <ele>54.2</ele>
        <time>2024-04-25T13:25:08.500Z</time>
      </trkpt>
      <trkpt lat="43.66728" lon="3.86732">
        <ele>54.4</ele>
        <time>2024-04-25T15:25:11+02:00</time>
      </trkpt>
      <trkpt lat="43.66732" lon="3.86737">
        <ele>54.3</ele>
        <time>2024-04-25T13:25:12.250Z</time>
      </trkpt>
      <trkpt lat="43.66737" lon="3.86743">
        <ele>54.3</ele>
        <time>2024-04-25T13:25:13.500Z</time>
      </trkpt>
      <trkpt lat="43.66741" lon="3.86748">
        <ele>54.1</ele>
        <time>2024-04-25T13:25:14.750Z</time>
      </trkpt>
      <trkpt lat="43.66746" lon="3.86754">
        <ele>54</ele>
        <time>2024-04-25T13:25:16.000Z</time>
      </trkpt>
      <trkpt lat="43.6675" lon="3.86759">
        <ele>54</ele>
        <time>2024-04-25T13:25:17.250Z</time>
      </trkpt>
      <trkpt lat="43.66754" lon="3.86764">
        <ele>54</ele>
        <time>2024-04-25T13:25:18.500Z</time>
      </trkpt>
      <trkpt lat="43.66759" lon="3.8677">
        <ele>54</ele>
        <time>2024-04-25T13:25:19.750Z</time>
      </trkpt>
      <trkpt lat="43.66763" lon="3.86775">
        <ele>53.9</ele>
        <time>2024-04-25T15:25:21+02:00</time>
      </trkpt>
      <trkpt lat="43.66768" lon="3.86784">
        <ele>53.9</ele>
        <time>2024-04-25T13:25:23.500Z</time>
      </trkpt>
      <trkpt lat="43.66774" lon="3.86792">
        <ele>53.7</ele>
        <time>2024-04-25T13:25:26.000Z</time>
      </trkpt>
      <trkpt lat="43.66779" lon="3.86801">
        <ele>53.6</ele>
        <time>2024-04-25T13:25:28.500Z</time>
      </trkpt>
      <trkpt lat="43.66784" lon="3.86809">
        <ele>53.9</ele>
        <time>2024-04-25T15:25:31+02:00</time>
      </trkpt>
      <trkpt lat="43.66792" lon="3.86816">
        <ele>53.9</ele>
        <time>2024-04-25T13:25:33.500Z</time>
      </trkpt>
      <trkpt lat="43.66799" lon="3.86822">
        <ele>53.8</ele>
        <time>2024-04-25T13:25:36.000Z</time>
      </trkpt>
      <trkpt lat="43.66807" lon="3.86829">
        <ele>53.7</ele>
        <time>2024-04-25T13:25:38.500Z</time>
      </trkpt>
      <trkpt lat="43.66814" lon="3.86835">
        <ele>54.2</ele>
        <time>2024-04-25T15:25:41+02:00</time>
      </trkpt>
      <trkpt lat="43.66821" lon="3.86841">
        <ele>54.8</ele>
        <time>2024-04-25T13:25:43.500Z</time>
      </trkpt>
      <trkpt lat="43.66829" lon="3.86846">
        <ele>55.4</ele>
        <time>2024-04-25T13:25:46.000Z</time>
      </trkpt>
      <trkpt lat="43.66836" lon="3.86852">
        <ele>56</ele>
        <time>2024-04-25T13:25:48.500Z</time>
      </trkpt>
      <trkpt lat="43.66843" lon="3.86857">
        <ele>56.6</ele>
        <time>2024-04-25T15:25:51+02:00</time>
      </trkpt>
      <trkpt lat="43.66849" lon="3.8686">
        <ele>56.9</ele>
        <time>2024-04-25T13:25:53.500Z</time>
      </trkpt>
      <trkpt lat="43.66855" lon="3.86863">
        <ele>57.3</ele>
        <time>2024-04-25T13:25:56.000Z</time>
      </trkpt>
      <trkpt lat="43.6686" lon="3.86866">
        <ele>57.9</ele>
        <time>2024-04-25T13:25:58.500Z</time>
      </trkpt>
      <trkpt lat="43.66866" lon="3.86869">
        <ele>58.2</ele>
        <time>2024-04-25T15:26:01+02:00</time>
      </trkpt>
      <trkpt lat="43.66871" lon="3.8687">
        <ele>58.2</ele>
        <time>2024-04-25T13:26:02.250Z</time>
      </trkpt>
      <trkpt lat="43.66876" lon="3.86871">
        <ele>58.2</ele>
        <time>2024-04-25T13:26:03.500Z</time>
      </trkpt>
      <trkpt lat="43.6688" lon="3.86871">
        <ele>58.1</ele>
        <time>2024-04-25T13:26:04.750Z</time>
      </trkpt>
      <trkpt lat="43.66885" lon="3.86872">
        <ele>58.1</ele>
        <time>2024-04-25T13:26:06.000Z</time>
      </trkpt>
      <trkpt lat="43.6689" lon="3.86873">
        <ele>58.1</ele>
        <time>2024-04-25T13:26:07.250Z</time>
      </trkpt>
      <trkpt lat="43.66895" lon="3.86874">
        <ele>58.1</ele>
        <time>2024-04-25T13:26:08.500Z</time>
      </trkpt>
      <trkpt lat="43.66899" lon="3.86874">
        <ele>58.2</ele>
        <time>2024-04-25T13:26:09.750Z</time>
      </trkpt>
      <trkpt lat="43.66904" lon="3.86875">
        <ele>58.2</ele>
        <time>2024-04-25T15:26:11+02:00</time>
      </trkpt>
      <trkpt lat="43.66911" lon="3.86875">
        <ele>58.1</ele>
        <time>2024-04-25T13:26:13.500Z</time>
      </trkpt>
      <trkpt lat="43.66918" lon="3.86875">
        <ele>58</ele>
        <time>2024-04-25T13:26:16.000Z</time>
      </trkpt>
      <trkpt lat="43.66924" lon="3.86875">
        <ele>58.1</ele>
        <time>2024-04-25T13:26:18.500Z</time>
      </trkpt>
      <trkpt lat="43.66931" lon="3.86875">
        <ele>58.3</ele>
        <time>2024-04-25T15:26:21+02:00</time>
      </trkpt>
      <trkpt lat="43.6694" lon="3.86874">
        <ele>58.3</ele>
        <time>2024-04-25T13:26:23.500Z</time>
      </trkpt>
      <trkpt lat="43.66948" lon="3.86874">
        <ele>58.2</ele>
        <time>2024-04-25T13:26:26.000Z</time>
      </trkpt>
      <trkpt lat="43.66957" lon="3.86873">
        <ele>58.1</ele>
        <time>2024-04-25T13:26:28.500Z</time>
      </trkpt>
      <trkpt lat="43.66965" lon="3.86872">
        <ele>58</ele>
        <time>2024-04-25T15:26:31+02:00</time>
      </trkpt>
      <trkpt lat="43.66971" lon="3.86871">
        <ele>57.7</ele>
        <time>2024-04-25T13:26:32.250Z</time>
      </trkpt>
      <trkpt lat="43.66976" lon="3.86869">
        <ele>57.6</ele>
        <time>2024-04-25T13:26:33.500Z</time>
      </trkpt>
      <trkpt lat="43.66982" lon="3.86868">
        <ele>57.7</ele>
        <time>2024-04-25T13:26:34.750Z</time>
      </trkpt>
      <trkpt lat="43.66988" lon="3.86867">
        <ele>57.6</ele>
        <time>2024-04-25T13:26:36.000Z</time>
      </trkpt>
      <trkpt lat="43.66993" lon="3.86865">
        <ele>57.6</ele>
        <time>2024-04-25T13:26:37.250Z</time>
      </trkpt>
      <trkpt lat="43.66999" lon="3.86864">
        <ele>57.5</ele>
        <time>2024-04-25T13:26:38.500Z</time>
      </trkpt>
      <trkpt lat="43.67004" lon="3.86862">
        <ele>57.4</ele>
        <time>2024-04-25T13:26:39.750Z</time>
      </trkpt>
      <trkpt lat="43.6701" lon="3.86861">
        <ele>57.3</ele>
        <time>2024-04-25T15:26:41+02:00</time>
      </trkpt>
      <trkpt lat="43.67015" lon="3.8686">
        <ele>57.4</ele>
        <time>2024-04-25T13:26:42.500Z</time>
      </trkpt>
      <trkpt lat="43.6702" lon="3.8686">
        <ele>57.5</ele>
        <time>2024-04-25T13:26:44.000Z</time>
      </trkpt>
      <trkpt lat="43.67024" lon="3.86859">
        <ele>57.5</ele>
        <time>2024-04-25T13:26:45.500Z</time>
      </trkpt>
      <trkpt lat="43.67029" lon="3.86858">
        <ele>57.6</ele>
        <time>2024-04-25T15:26:47+02:00</time>
      </trkpt>
      <trkpt lat="43.67034" lon="3.86856">
        <ele>57.7</ele>
        <time>2024-04-25T13:26:50.000Z</time>
      </trkpt>
      <trkpt lat="43.6704" lon="3.86854">
        <ele>57.7</ele>
        <time>2024-04-25T13:26:53.000Z</time>
      </trkpt>
      <trkpt lat="43.67045" lon="3.86852">
        <ele>57.7</ele>
        <time>2024-04-25T13:26:56.000Z</time>
      </trkpt>
      <trkpt lat="43.67051" lon="3.8685">
        <ele>57.7</ele>
        <time>2024-04-25T13:26:59.000Z</time>
      </trkpt>
      <trkpt lat="43.67056" lon="3.86848">
        <ele>57.7</ele>
        <time>2024-04-25T13:27:02.000Z</time>
      </trkpt>
      <trkpt lat="43.67061" lon="3.86846">
        <ele>57.7</ele>
        <time>2024-04-25T13:27:05.000Z</time>
      </trkpt>
      <trkpt lat="43.67067" lon="3.86844">
        <ele>57.6</ele>
        <time>2024-04-25T13:27:08.000Z</time>
      </trkpt>
      <trkpt lat="43.67072" lon="3.86842">
        <ele>57.5</ele>
        <time>2024-04-25T15:27:11+02:00</time>
      </trkpt>
      <trkpt lat="43.67079" lon="3.86842">
        <ele>57.9</ele>
        <time>2024-04-25T13:27:13.500Z</time>
      </trkpt>
      <trkpt lat="43.67086" lon="3.86842">
        <ele>58.2</ele>
        <time>2024-04-25T13:27:16.000Z</time>
      </trkpt>
      <trkpt lat="43.67093" lon="3.86841">
        <ele>58.6</ele>
        <time>2024-04-25T13:27:18.500Z</time>
      </trkpt>
      <trkpt lat="43.671" lon="3.86841">
        <ele>59</ele>
        <time>2024-04-25T15:27:21+02:00</time>
      </trkpt>
      <trkpt lat="43.67106" lon="3.86839">
        <ele>58.9</ele>
        <time>2024-04-25T13:27:22.250Z</time>
      </trkpt>
      <trkpt lat="43.67113" lon="3.86837">
        <ele>58.9</ele>
        <time>2024-04-25T13:27:23.500Z</time>
      </trkpt>
      <trkpt lat="43.67119" lon="3.86835">
        <ele>58.7</ele>
        <time>2024-04-25T13:27:24.750Z</time>
      </trkpt>
      <trkpt lat="43.67126" lon="3.86834">
        <ele>58.6</ele>
        <time>2024-04-25T13:27:26.000Z</time>
      </trkpt>
      <trkpt lat="43.67132" lon="3.86832">
        <ele>58.5</ele>
        <time>2024-04-25T13:27:27.250Z</time>
      </trkpt>
      <trkpt lat="43.67138" lon="3.8683">
        <ele>58.5</ele>
        <time>2024-04-25T13:27:28.500Z</time>
      </trkpt>
      <trkpt lat="43.67145" lon="3.86828">
        <ele>58.1</ele>
        <time>2024-04-25T13:27:29.750Z</time>
      </trkpt>
      <trkpt lat="43.67151" lon="3.86826">
        <ele>57.6</ele>
        <time>2024-04-25T15:27:31+02:00</time>
      </trkpt>
      <trkpt lat="43.67158" lon="3.8683">
        <ele>57.9</ele>
        <time>2024-04-25T13:27:33.500Z</time>
      </trkpt>
      <trkpt lat="43.67165" lon="3.86835">
        <ele>58.2</ele>
        <time>2024-04-25T13:27:36.000Z</time>
      </trkpt>
      <trkpt lat="43.67172" lon="3.86839">
        <ele>58.8</ele>
        <time>2024-04-25T13:27:38.500Z</time>
      </trkpt>
      <trkpt lat="43.67179" lon="3.86843">
        <ele>59.6</ele>
        <time>2024-04-25T15:27:41+02:00</time>
      </trkpt>
      <trkpt lat="43.67184" lon="3.86844">
        <ele>59.9</ele>
        <time>2024-04-25T13:27:46.000Z</time>
      </trkpt>
      <trkpt lat="43.67188" lon="3.86844">
        <ele>60.2</ele>
        <time>2024-04-25T13:27:51.000Z</time>
      </trkpt>
      <trkpt lat="43.67193" lon="3.86845">
        <ele>60.5</ele>
        <time>2024-04-25T13:27:56.000Z</time>
      </trkpt>
      <trkpt lat="43.67198" lon="3.86845">
        <ele>61</ele>
        <time>2024-04-25T13:28:01.000Z</time>
      </trkpt>
      <trkpt lat="43.67202" lon="3.86846">
        <ele>61.6</ele>
        <time>2024-04-25T13:28:06.000Z</time>
      </trkpt>
      <trkpt lat="43.67207" lon="3.86846">
        <ele>62.1</ele>
        <time>2024-04-25T13:28:11.000Z</time>
      </trkpt>
      <trkpt lat="43.67211" lon="3.86847">
        <ele>62.7</ele>
        <time>2024-04-25T13:28:16.000Z</time>
      </trkpt>
      <trkpt lat="43.67216" lon="3.86847">
        <ele>63.3</ele>
        <time>2024-04-25T15:28:21+02:00</time>
      </trkpt>
      <trkpt lat="43.6722" lon="3.86841">
        <ele>62.8</ele>
        <time>2024-04-25T13:28:23.500Z</time>
      </trkpt>
      <trkpt lat="43.67224" lon="3.86835">
        <ele>62.2</ele>
        <time>2024-04-25T13:28:26.000Z</time>
      </trkpt>
      <trkpt lat="43.67228" lon="3.86828">
        <ele>61.3</ele>
        <time>2024-04-25T13:28:28.500Z</time>
      </trkpt>
      <trkpt lat="43.67232" lon="3.86822">
        <ele>60.3</ele>
        <time>2024-04-25T15:28:31+02:00</time>
      </trkpt>
      <trkpt lat="43.6724" lon="3.86819">
        <ele>60</ele>
        <time>2024-04-25T13:28:36.000Z</time>
      </trkpt>
      <trkpt lat="43.67247" lon="3.86816">
        <ele>59.8</ele>
        <time>2024-04-25T15:28:41+02:00</time>
      </trkpt>
      <trkpt lat="43.67252" lon="3.86817">
        <ele>60.2</ele>
        <time>2024-04-25T13:28:43.000Z</time>
      </trkpt>
      <trkpt lat="43.67256" lon="3.86818">
        <ele>60.7</ele>
        <time>2024-04-25T15:28:45+02:00</time>
      </trkpt>
      <trkpt lat="43.67264" lon="3.86819">
        <ele>61.4</ele>
        <time>2024-04-25T13:28:48.000Z</time>
      </trkpt>
      <trkpt lat="43.67272" lon="3.8682">
        <ele>62.2</ele>
        <time>2024-04-25T15:28:51+02:00</time>
      </trkpt>
      <trkpt lat="43.67276" lon="3.8682">
        <ele>62.4</ele>
        <time>2024-04-25T15:29:01+02:00</time>
      </trkpt>
      <trkpt lat="43.67281" lon="3.86821">
        <ele>62.7</ele>
        <time>2024-04-25T13:29:04.750Z</time>
      </trkpt>
      <trkpt lat="43.67286" lon="3.86821">
        <ele>62.9</ele>
        <time>2024-04-25T13:29:08.500Z</time>
      </trkpt>
      <trkpt lat="43.6729" lon="3.86822">
        <ele>63.2</ele>
        <time>2024-04-25T13:29:12.250Z</time>
      </trkpt>
      <trkpt lat="43.67295" lon="3.86822">
        <ele>63.4</ele>
        <time>2024-04-25T13:29:16.000Z</time>
      </trkpt>
      <trkpt lat="43.673" lon="3.86823">
        <ele>63.6</ele>
        <time>2024-04-25T13:29:19.750Z</time>
      </trkpt>
      <trkpt lat="43.67305" lon="3.86823">
        <ele>63.9</ele>
        <time>2024-04-25T13:29:23.500Z</time>
      </trkpt>
      <trkpt lat="43.6731" lon="3.86824">
        <ele>63.8</ele>
        <time>2024-04-25T13:29:27.250Z</time>
      </trkpt>
      <trkpt lat="43.67315" lon="3.86824">
        <ele>63.7</ele>
        <time>2024-04-25T13:29:31.000Z</time>
      </trkpt>
      <trkpt lat="43.67319" lon="3.86825">
        <ele>63.6</ele>
        <time>2024-04-25T13:29:34.750Z</time>
      </trkpt>
      <trkpt lat="43.67324" lon="3.86825">
        <ele>63.4</ele>
        <time>2024-04-25T13:29:38.500Z</time>
      </trkpt>
      <trkpt lat="43.67329" lon="3.86826">
        <ele>63.3</ele>
        <time>2024-04-25T13:29:42.250Z</time>
      </trkpt>
      <trkpt lat="43.67334" lon="3.86826">
        <ele>63.2</ele>
        <time>2024-04-25T13:29:46.000Z</time>
      </trkpt>
      <trkpt lat="43.67339" lon="3.86827">
        <ele>62.9</ele>
        <time>2024-04-25T13:29:49.750Z</time>
      </trkpt>
      <trkpt lat="43.67343" lon="3.86827">
        <ele>62.7</ele>
        <time>2024-04-25T13:29:53.500Z</time>
      </trkpt>
      <trkpt lat="43.67348" lon="3.86828">
        <ele>62.4</ele>
        <time>2024-04-25T13:29:57.250Z</time>
      </trkpt>
      <trkpt lat="43.67353" lon="3.86828">
        <ele>62.1</ele>
        <time>2024-04-25T15:30:01+02:00</time>
      </trkpt>
      <trkpt lat="43.6736" lon="3.86825">
        <ele>61.4</ele>
        <time>2024-04-25T13:30:03.500Z</time>
      </trkpt>
      <trkpt lat="43.67367" lon="3.86821">
        <ele>60.8</ele>
        <time>2024-04-25T13:30:06.000Z</time>
      </trkpt>
      <trkpt lat="43.67374" lon="3.86818">
        <ele>60.2</ele>
        <time>2024-04-25T13:30:08.500Z</time>
      </trkpt>
      <trkpt lat="43.67381" lon="3.86814">
        <ele>59.7</ele>
        <time>2024-04-25T15:30:11+02:00</time>
      </trkpt>
      <trkpt lat="43.67385" lon="3.86819">
        <ele>59.7</ele>
        <time>2024-04-25T13:30:13.500Z</time>
      </trkpt>
      <trkpt lat="43.67388" lon="3.86824">
        <ele>59.7</ele>
        <time>2024-04-25T13:30:16.000Z</time>
      </trkpt>
      <trkpt lat="43.67392" lon="3.86828">
        <ele>59.7</ele>
        <time>2024-04-25T13:30:18.500Z</time>
      </trkpt>
      <trkpt lat="43.67395" lon="3.86833">
        <ele>59.8</ele>
        <time>2024-04-25T15:30:21+02:00</time>
      </trkpt>
      <trkpt lat="43.67403" lon="3.86834">
        <ele>59.5</ele>
        <time>2024-04-25T13:30:23.500Z</time>
      </trkpt>
      <trkpt lat="43.6741" lon="3.86835">
        <ele>59.3</ele>
        <time>2024-04-25T13:30:26.000Z</time>
      </trkpt>
      <trkpt lat="43.67418" lon="3.86835">
        <ele>59</ele>
        <time>2024-04-25T13:30:28.500Z</time>
      </trkpt>
      <trkpt lat="43.67425" lon="3.86836">
        <ele>58.8</ele>
        <time>2024-04-25T15:30:31+02:00</time>
      </trkpt>
      <trkpt lat="43.67433" lon="3.86835">
        <ele>58.5</ele>
        <time>2024-04-25T13:30:33.500Z</time>
      </trkpt>
      <trkpt lat="43.6744" lon="3.86833">
        <ele>58.1</ele>
        <time>2024-04-25T13:30:36.000Z</time>
      </trkpt>
      <trkpt lat="43.67448" lon="3.86832">
        <ele>57.8</ele>
        <time>2024-04-25T13:30:38.500Z</time>
      </trkpt>
      <trkpt lat="43.67455" lon="3.8683">
        <ele>57.5</ele>
        <time>2024-04-25T15:30:41+02:00</time>
      </trkpt>
      <trkpt lat="43.6746" lon="3.86828">
        <ele>57.4</ele>
        <time>2024-04-25T13:30:42.250Z</time>
      </trkpt>
      <trkpt lat="43.67465" lon="3.86827">
        <ele>57.2</ele>
        <time>2024-04-25T13:30:43.500Z</time>
      </trkpt>
      <trkpt lat="43.6747" lon="3.86825">
        <ele>57.1</ele>
        <time>2024-04-25T13:30:44.750Z</time>
      </trkpt>
      <trkpt lat="43.67475" lon="3.86823">
        <ele>57</ele>
        <time>2024-04-25T13:30:46.000Z</time>
      </trkpt>
      <trkpt lat="43.67479" lon="3.86821">
        <ele>57</ele>
        <time>2024-04-25T13:30:47.250Z</time>
      </trkpt>
      <trkpt lat="43.67484" lon="3.8682">
        <ele>57</ele>
        <time>2024-04-25T13:30:48.500Z</time>
      </trkpt>
      <trkpt lat="43.67489" lon="3.86818">
        <ele>57</ele>
        <time>2024-04-25T13:30:49.750Z</time>
      </trkpt>
      <trkpt lat="43.67494" lon="3.86816">
        <ele>57</ele>
        <time>2024-04-25T15:30:51+02:00</time>
      </trkpt>
      <trkpt lat="43.67499" lon="3.86813">
        <ele>57</ele>
        <time>2024-04-25T13:30:52.250Z</time>
      </trkpt>
      <trkpt lat="43.67504" lon="3.8681">
        <ele>56.7</ele>
        <time>2024-04-25T13:30:53.500Z</time>
      </trkpt>
      <trkpt lat="43.67509" lon="3.86807">
        <ele>56.4</ele>
        <time>2024-04-25T13:30:54.750Z</time>
      </trkpt>
      <trkpt lat="43.67514" lon="3.86804">
        <ele>55.9</ele>
        <time>2024-04-25T13:30:56.000Z</time>
      </trkpt>
      <trkpt lat="43.67519" lon="3.86801">
        <ele>55.4</ele>
        <time>2024-04-25T13:30:57.250Z</time>
      </trkpt>
      <trkpt lat="43.67524" lon="3.86798">
        <ele>55</ele>
        <time>2024-04-25T13:30:58.500Z</time>
        <extensions>
          <visugpx:TrkExtension xmlns:visugpx="https://www.visugpx.com/editgpx/">
            <visugpx:node>1</visugpx:node>
            </visugpx:TrkExtension>
        </extensions>
      </trkpt>
    </trkseg>
  </trk>
</gpx>